<?xml version="1.0" encoding="UTF-8" standalone="no" ?>
<gpx xmlns="http://www.topografix.com/GPX/1/1" xmlns:xsi="http://www.w3.org/2001/XMLSchema-instance" xsi:schemaLocation="http://www.topografix.com/GPX/1/1 http://www.topografix.com/GPX/1/1/gpx.xsd" version="1.1" creator="VisuGPX - https://www.visugpx.com">
  <metadata>
    <name>Metz-Nancy mai 2012</name>
    <desc><![CDATA[Aller par Nomeny et la côte de Morey, retour pour la vallée de la Moselle]]></desc>
  </metadata>
  <trk>
    <name><![CDATA[Metz-Nancy mai 2012_1]]></name>
    <trkseg>
      <trkpt lat="49.09438" lon="6.16186">
        <ele>231.81494140625</ele>
        <time>2012-05-15T05:21:15Z</time>
      </trkpt>
      <trkpt lat="49.09435" lon="6.16194">
        <ele>251.04138183594</ele>
        <time>2012-05-15T05:21:16Z</time>
      </trkpt>
      <trkpt lat="49.09429" lon="6.16218">
        <ele>231.81494140625</ele>
        <time>2012-05-15T05:21:19Z</time>
      </trkpt>
      <trkpt lat="49.09427" lon="6.16226">
        <ele>231.81494140625</ele>
        <time>2012-05-15T05:21:20Z</time>
      </trkpt>
      <trkpt lat="49.09414" lon="6.16285">
        <ele>231.33435058594</ele>
        <time>2012-05-15T05:21:27Z</time>
      </trkpt>
      <trkpt lat="49.09403" lon="6.16344">
        <ele>230.373046875</ele>
        <time>2012-05-15T05:21:33Z</time>
      </trkpt>
      <trkpt lat="49.09399" lon="6.16403">
        <ele>231.33435058594</ele>
        <time>2012-05-15T05:21:39Z</time>
      </trkpt>
      <trkpt lat="49.09396" lon="6.16479">
        <ele>229.41174316406</ele>
        <time>2012-05-15T05:21:47Z</time>
      </trkpt>
      <trkpt lat="49.09394" lon="6.16545">
        <ele>230.373046875</ele>
        <time>2012-05-15T05:21:54Z</time>
      </trkpt>
      <trkpt lat="49.09391" lon="6.16649">
        <ele>229.89233398438</ele>
        <time>2012-05-15T05:22:05Z</time>
      </trkpt>
      <trkpt lat="49.09389" lon="6.167">
        <ele>229.89233398438</ele>
        <time>2012-05-15T05:22:10Z</time>
      </trkpt>
      <trkpt lat="49.09387" lon="6.16732">
        <ele>228.93115234375</ele>
        <time>2012-05-15T05:22:14Z</time>
      </trkpt>
      <trkpt lat="49.09387" lon="6.16823">
        <ele>228.45043945312</ele>
        <time>2012-05-15T05:22:23Z</time>
      </trkpt>
      <trkpt lat="49.09396" lon="6.16905">
        <ele>227.00854492188</ele>
        <time>2012-05-15T05:22:31Z</time>
      </trkpt>
      <trkpt lat="49.0941" lon="6.17022">
        <ele>227.00854492188</ele>
        <time>2012-05-15T05:22:42Z</time>
      </trkpt>
      <trkpt lat="49.09425" lon="6.17096">
        <ele>225.56652832031</ele>
        <time>2012-05-15T05:22:49Z</time>
      </trkpt>
      <trkpt lat="49.09422" lon="6.17142">
        <ele>223.64379882812</ele>
        <time>2012-05-15T05:22:53Z</time>
      </trkpt>
      <trkpt lat="49.09406" lon="6.17169">
        <ele>223.64379882812</ele>
        <time>2012-05-15T05:22:56Z</time>
      </trkpt>
      <trkpt lat="49.09401" lon="6.17177">
        <ele>224.12451171875</ele>
        <time>2012-05-15T05:22:57Z</time>
      </trkpt>
      <trkpt lat="49.09349" lon="6.17235">
        <ele>224.60522460938</ele>
        <time>2012-05-15T05:23:06Z</time>
      </trkpt>
      <trkpt lat="49.09338" lon="6.17247">
        <ele>224.12451171875</ele>
        <time>2012-05-15T05:23:08Z</time>
      </trkpt>
      <trkpt lat="49.09298" lon="6.17284">
        <ele>226.04711914062</ele>
        <time>2012-05-15T05:23:15Z</time>
      </trkpt>
      <trkpt lat="49.09272" lon="6.1731">
        <ele>224.12451171875</ele>
        <time>2012-05-15T05:23:20Z</time>
      </trkpt>
      <trkpt lat="49.09257" lon="6.17341">
        <ele>224.12451171875</ele>
        <time>2012-05-15T05:23:25Z</time>
      </trkpt>
      <trkpt lat="49.09266" lon="6.17359">
        <ele>225.0859375</ele>
        <time>2012-05-15T05:23:28Z</time>
      </trkpt>
      <trkpt lat="49.09268" lon="6.17367">
        <ele>225.0859375</ele>
        <time>2012-05-15T05:23:29Z</time>
      </trkpt>
      <trkpt lat="49.09297" lon="6.17448">
        <ele>225.0859375</ele>
        <time>2012-05-15T05:23:40Z</time>
      </trkpt>
      <trkpt lat="49.09308" lon="6.17466">
        <ele>224.60522460938</ele>
        <time>2012-05-15T05:23:44Z</time>
      </trkpt>
      <trkpt lat="49.09311" lon="6.17469">
        <ele>225.0859375</ele>
        <time>2012-05-15T05:23:48Z</time>
      </trkpt>
      <trkpt lat="49.09311" lon="6.17468">
        <ele>225.0859375</ele>
        <time>2012-05-15T05:24:13Z</time>
      </trkpt>
      <trkpt lat="49.09317" lon="6.17478">
        <ele>225.56652832031</ele>
        <time>2012-05-15T05:24:16Z</time>
      </trkpt>
      <trkpt lat="49.09332" lon="6.17498">
        <ele>225.0859375</ele>
        <time>2012-05-15T05:24:20Z</time>
      </trkpt>
      <trkpt lat="49.09365" lon="6.17533">
        <ele>223.64379882812</ele>
        <time>2012-05-15T05:24:26Z</time>
      </trkpt>
      <trkpt lat="49.09422" lon="6.17597">
        <ele>222.20178222656</ele>
        <time>2012-05-15T05:24:36Z</time>
      </trkpt>
      <trkpt lat="49.0945" lon="6.17627">
        <ele>219.31799316406</ele>
        <time>2012-05-15T05:24:40Z</time>
      </trkpt>
      <trkpt lat="49.09501" lon="6.17687">
        <ele>216.43395996094</ele>
        <time>2012-05-15T05:24:47Z</time>
      </trkpt>
      <trkpt lat="49.09532" lon="6.17719">
        <ele>214.03063964844</ele>
        <time>2012-05-15T05:24:51Z</time>
      </trkpt>
      <trkpt lat="49.09586" lon="6.17764">
        <ele>210.666015625</ele>
        <time>2012-05-15T05:24:57Z</time>
      </trkpt>
      <trkpt lat="49.09654" lon="6.17815">
        <ele>208.74340820312</ele>
        <time>2012-05-15T05:25:05Z</time>
      </trkpt>
      <trkpt lat="49.09724" lon="6.17838">
        <ele>207.78210449219</ele>
        <time>2012-05-15T05:25:13Z</time>
      </trkpt>
      <trkpt lat="49.09778" lon="6.17837">
        <ele>208.26281738281</ele>
        <time>2012-05-15T05:25:19Z</time>
      </trkpt>
      <trkpt lat="49.09834" lon="6.17824">
        <ele>207.78210449219</ele>
        <time>2012-05-15T05:25:26Z</time>
      </trkpt>
      <trkpt lat="49.09877" lon="6.17811">
        <ele>208.26281738281</ele>
        <time>2012-05-15T05:25:32Z</time>
      </trkpt>
      <trkpt lat="49.09895" lon="6.17819">
        <ele>207.30139160156</ele>
        <time>2012-05-15T05:25:36Z</time>
      </trkpt>
      <trkpt lat="49.09895" lon="6.17825">
        <ele>207.30139160156</ele>
        <time>2012-05-15T05:25:37Z</time>
      </trkpt>
      <trkpt lat="49.09896" lon="6.17838">
        <ele>207.30139160156</ele>
        <time>2012-05-15T05:25:39Z</time>
      </trkpt>
      <trkpt lat="49.09901" lon="6.17886">
        <ele>207.78210449219</ele>
        <time>2012-05-15T05:25:47Z</time>
      </trkpt>
      <trkpt lat="49.09902" lon="6.17893">
        <ele>207.78210449219</ele>
        <time>2012-05-15T05:25:49Z</time>
      </trkpt>
      <trkpt lat="49.09911" lon="6.17905">
        <ele>206.34008789062</ele>
        <time>2012-05-15T05:25:56Z</time>
      </trkpt>
      <trkpt lat="49.09914" lon="6.17903">
        <ele>206.34008789062</ele>
        <time>2012-05-15T05:25:58Z</time>
      </trkpt>
      <trkpt lat="49.0993" lon="6.17899">
        <ele>206.34008789062</ele>
        <time>2012-05-15T05:26:05Z</time>
      </trkpt>
      <trkpt lat="49.09936" lon="6.17896">
        <ele>205.37878417969</ele>
        <time>2012-05-15T05:26:10Z</time>
      </trkpt>
      <trkpt lat="49.09934" lon="6.17895">
        <ele>204.89807128906</ele>
        <time>2012-05-15T05:26:19Z</time>
      </trkpt>
      <trkpt lat="49.09919" lon="6.17898">
        <ele>205.37878417969</ele>
        <time>2012-05-15T05:26:27Z</time>
      </trkpt>
      <trkpt lat="49.09901" lon="6.17902">
        <ele>205.85949707031</ele>
        <time>2012-05-15T05:26:37Z</time>
      </trkpt>
      <trkpt lat="49.09888" lon="6.17908">
        <ele>205.37878417969</ele>
        <time>2012-05-15T05:26:43Z</time>
      </trkpt>
      <trkpt lat="49.09868" lon="6.17917">
        <ele>205.37878417969</ele>
        <time>2012-05-15T05:26:50Z</time>
      </trkpt>
      <trkpt lat="49.09861" lon="6.1793">
        <ele>205.85949707031</ele>
        <time>2012-05-15T05:26:54Z</time>
      </trkpt>
      <trkpt lat="49.09862" lon="6.17954">
        <ele>204.41748046875</ele>
        <time>2012-05-15T05:26:58Z</time>
      </trkpt>
      <trkpt lat="49.09864" lon="6.17966">
        <ele>203.93688964844</ele>
        <time>2012-05-15T05:27:00Z</time>
      </trkpt>
      <trkpt lat="49.09867" lon="6.18011">
        <ele>203.93688964844</ele>
        <time>2012-05-15T05:27:07Z</time>
      </trkpt>
      <trkpt lat="49.09868" lon="6.18028">
        <ele>203.45617675781</ele>
        <time>2012-05-15T05:27:12Z</time>
      </trkpt>
      <trkpt lat="49.09867" lon="6.18031">
        <ele>203.45617675781</ele>
        <time>2012-05-15T05:27:14Z</time>
      </trkpt>
      <trkpt lat="49.09863" lon="6.18036">
        <ele>202.49487304688</ele>
        <time>2012-05-15T05:28:01Z</time>
      </trkpt>
      <trkpt lat="49.09863" lon="6.18046">
        <ele>202.49487304688</ele>
        <time>2012-05-15T05:28:04Z</time>
      </trkpt>
      <trkpt lat="49.09854" lon="6.18055">
        <ele>202.97546386719</ele>
        <time>2012-05-15T05:28:08Z</time>
      </trkpt>
      <trkpt lat="49.09824" lon="6.18062">
        <ele>202.97546386719</ele>
        <time>2012-05-15T05:28:15Z</time>
      </trkpt>
      <trkpt lat="49.09809" lon="6.18065">
        <ele>203.45617675781</ele>
        <time>2012-05-15T05:28:18Z</time>
      </trkpt>
      <trkpt lat="49.09769" lon="6.1807">
        <ele>203.45617675781</ele>
        <time>2012-05-15T05:28:25Z</time>
      </trkpt>
      <trkpt lat="49.09726" lon="6.18069">
        <ele>202.97546386719</ele>
        <time>2012-05-15T05:28:33Z</time>
      </trkpt>
      <trkpt lat="49.0969" lon="6.18069">
        <ele>202.97546386719</ele>
        <time>2012-05-15T05:28:39Z</time>
      </trkpt>
      <trkpt lat="49.0964" lon="6.18065">
        <ele>202.97546386719</ele>
        <time>2012-05-15T05:28:47Z</time>
      </trkpt>
      <trkpt lat="49.09596" lon="6.18062">
        <ele>202.97546386719</ele>
        <time>2012-05-15T05:28:54Z</time>
      </trkpt>
      <trkpt lat="49.09547" lon="6.18066">
        <ele>202.97546386719</ele>
        <time>2012-05-15T05:29:02Z</time>
      </trkpt>
      <trkpt lat="49.09511" lon="6.18072">
        <ele>202.49487304688</ele>
        <time>2012-05-15T05:29:08Z</time>
      </trkpt>
      <trkpt lat="49.09457" lon="6.18082">
        <ele>203.45617675781</ele>
        <time>2012-05-15T05:29:17Z</time>
      </trkpt>
      <trkpt lat="49.09414" lon="6.18089">
        <ele>202.97546386719</ele>
        <time>2012-05-15T05:29:24Z</time>
      </trkpt>
      <trkpt lat="49.09347" lon="6.18102">
        <ele>202.01428222656</ele>
        <time>2012-05-15T05:29:35Z</time>
      </trkpt>
      <trkpt lat="49.0929" lon="6.18114">
        <ele>202.49487304688</ele>
        <time>2012-05-15T05:29:44Z</time>
      </trkpt>
      <trkpt lat="49.09242" lon="6.18124">
        <ele>202.01428222656</ele>
        <time>2012-05-15T05:29:52Z</time>
      </trkpt>
      <trkpt lat="49.09184" lon="6.18135">
        <ele>201.53356933594</ele>
        <time>2012-05-15T05:30:01Z</time>
      </trkpt>
      <trkpt lat="49.09145" lon="6.18144">
        <ele>201.53356933594</ele>
        <time>2012-05-15T05:30:07Z</time>
      </trkpt>
      <trkpt lat="49.0909" lon="6.18153">
        <ele>201.53356933594</ele>
        <time>2012-05-15T05:30:16Z</time>
      </trkpt>
      <trkpt lat="49.09066" lon="6.18157">
        <ele>201.05285644531</ele>
        <time>2012-05-15T05:30:21Z</time>
      </trkpt>
      <trkpt lat="49.09053" lon="6.18159">
        <ele>199.61083984375</ele>
        <time>2012-05-15T05:30:26Z</time>
      </trkpt>
      <trkpt lat="49.09047" lon="6.1816">
        <ele>199.13012695312</ele>
        <time>2012-05-15T05:30:31Z</time>
      </trkpt>
      <trkpt lat="49.09044" lon="6.18167">
        <ele>199.61083984375</ele>
        <time>2012-05-15T05:31:14Z</time>
      </trkpt>
      <trkpt lat="49.09031" lon="6.18168">
        <ele>200.09167480469</ele>
        <time>2012-05-15T05:31:18Z</time>
      </trkpt>
      <trkpt lat="49.09008" lon="6.1817">
        <ele>199.61083984375</ele>
        <time>2012-05-15T05:31:23Z</time>
      </trkpt>
      <trkpt lat="49.08964" lon="6.18172">
        <ele>200.09167480469</ele>
        <time>2012-05-15T05:31:31Z</time>
      </trkpt>
      <trkpt lat="49.08953" lon="6.18174">
        <ele>200.572265625</ele>
        <time>2012-05-15T05:31:33Z</time>
      </trkpt>
      <trkpt lat="49.08918" lon="6.18175">
        <ele>201.05285644531</ele>
        <time>2012-05-15T05:31:39Z</time>
      </trkpt>
      <trkpt lat="49.08854" lon="6.18178">
        <ele>200.572265625</ele>
        <time>2012-05-15T05:31:50Z</time>
      </trkpt>
      <trkpt lat="49.0881" lon="6.18182">
        <ele>201.05285644531</ele>
        <time>2012-05-15T05:31:57Z</time>
      </trkpt>
      <trkpt lat="49.08786" lon="6.18184">
        <ele>199.61083984375</ele>
        <time>2012-05-15T05:32:01Z</time>
      </trkpt>
      <trkpt lat="49.0878" lon="6.18184">
        <ele>199.61083984375</ele>
        <time>2012-05-15T05:32:02Z</time>
      </trkpt>
      <trkpt lat="49.08735" lon="6.18189">
        <ele>199.13012695312</ele>
        <time>2012-05-15T05:32:09Z</time>
      </trkpt>
      <trkpt lat="49.08696" lon="6.18199">
        <ele>199.61083984375</ele>
        <time>2012-05-15T05:32:15Z</time>
      </trkpt>
      <trkpt lat="49.08689" lon="6.18202">
        <ele>199.61083984375</ele>
        <time>2012-05-15T05:32:16Z</time>
      </trkpt>
      <trkpt lat="49.08682" lon="6.18204">
        <ele>200.572265625</ele>
        <time>2012-05-15T05:32:17Z</time>
      </trkpt>
      <trkpt lat="49.08624" lon="6.18228">
        <ele>199.13012695312</ele>
        <time>2012-05-15T05:32:26Z</time>
      </trkpt>
      <trkpt lat="49.08567" lon="6.1825">
        <ele>200.09167480469</ele>
        <time>2012-05-15T05:32:35Z</time>
      </trkpt>
      <trkpt lat="49.08516" lon="6.18261">
        <ele>198.64953613281</ele>
        <time>2012-05-15T05:32:43Z</time>
      </trkpt>
      <trkpt lat="49.08471" lon="6.18267">
        <ele>199.61083984375</ele>
        <time>2012-05-15T05:32:50Z</time>
      </trkpt>
      <trkpt lat="49.08426" lon="6.18277">
        <ele>199.61083984375</ele>
        <time>2012-05-15T05:32:57Z</time>
      </trkpt>
      <trkpt lat="49.08363" lon="6.18289">
        <ele>199.61083984375</ele>
        <time>2012-05-15T05:33:07Z</time>
      </trkpt>
      <trkpt lat="49.08303" lon="6.183">
        <ele>199.61083984375</ele>
        <time>2012-05-15T05:33:16Z</time>
      </trkpt>
      <trkpt lat="49.08231" lon="6.18318">
        <ele>200.572265625</ele>
        <time>2012-05-15T05:33:27Z</time>
      </trkpt>
      <trkpt lat="49.08167" lon="6.18347">
        <ele>199.13012695312</ele>
        <time>2012-05-15T05:33:37Z</time>
      </trkpt>
      <trkpt lat="49.08107" lon="6.18379">
        <ele>200.572265625</ele>
        <time>2012-05-15T05:33:46Z</time>
      </trkpt>
      <trkpt lat="49.08046" lon="6.18403">
        <ele>199.13012695312</ele>
        <time>2012-05-15T05:33:55Z</time>
      </trkpt>
      <trkpt lat="49.07998" lon="6.1841">
        <ele>199.13012695312</ele>
        <time>2012-05-15T05:34:02Z</time>
      </trkpt>
      <trkpt lat="49.07943" lon="6.18405">
        <ele>198.64953613281</ele>
        <time>2012-05-15T05:34:10Z</time>
      </trkpt>
      <trkpt lat="49.07896" lon="6.18393">
        <ele>198.1689453125</ele>
        <time>2012-05-15T05:34:17Z</time>
      </trkpt>
      <trkpt lat="49.07847" lon="6.18379">
        <ele>197.68823242188</ele>
        <time>2012-05-15T05:34:24Z</time>
      </trkpt>
      <trkpt lat="49.07806" lon="6.18373">
        <ele>198.1689453125</ele>
        <time>2012-05-15T05:34:30Z</time>
      </trkpt>
      <trkpt lat="49.07765" lon="6.18377">
        <ele>198.1689453125</ele>
        <time>2012-05-15T05:34:36Z</time>
      </trkpt>
      <trkpt lat="49.07715" lon="6.18387">
        <ele>196.24633789062</ele>
        <time>2012-05-15T05:34:44Z</time>
      </trkpt>
      <trkpt lat="49.07696" lon="6.18389">
        <ele>198.1689453125</ele>
        <time>2012-05-15T05:34:47Z</time>
      </trkpt>
      <trkpt lat="49.07632" lon="6.18398">
        <ele>196.24633789062</ele>
        <time>2012-05-15T05:34:57Z</time>
      </trkpt>
      <trkpt lat="49.07598" lon="6.18404">
        <ele>196.24633789062</ele>
        <time>2012-05-15T05:35:03Z</time>
      </trkpt>
      <trkpt lat="49.07583" lon="6.18407">
        <ele>195.765625</ele>
        <time>2012-05-15T05:35:08Z</time>
      </trkpt>
      <trkpt lat="49.07575" lon="6.18408">
        <ele>195.28491210938</ele>
        <time>2012-05-15T05:35:14Z</time>
      </trkpt>
      <trkpt lat="49.07569" lon="6.1841">
        <ele>195.765625</ele>
        <time>2012-05-15T05:35:19Z</time>
      </trkpt>
      <trkpt lat="49.07553" lon="6.1841">
        <ele>195.765625</ele>
        <time>2012-05-15T05:35:23Z</time>
      </trkpt>
      <trkpt lat="49.07519" lon="6.18416">
        <ele>195.765625</ele>
        <time>2012-05-15T05:35:29Z</time>
      </trkpt>
      <trkpt lat="49.07449" lon="6.18429">
        <ele>196.72692871094</ele>
        <time>2012-05-15T05:35:40Z</time>
      </trkpt>
      <trkpt lat="49.07378" lon="6.1844">
        <ele>196.24633789062</ele>
        <time>2012-05-15T05:35:51Z</time>
      </trkpt>
      <trkpt lat="49.07333" lon="6.18448">
        <ele>197.20751953125</ele>
        <time>2012-05-15T05:35:58Z</time>
      </trkpt>
      <trkpt lat="49.07327" lon="6.18449">
        <ele>196.72692871094</ele>
        <time>2012-05-15T05:35:59Z</time>
      </trkpt>
      <trkpt lat="49.07264" lon="6.18458">
        <ele>196.72692871094</ele>
        <time>2012-05-15T05:36:09Z</time>
      </trkpt>
      <trkpt lat="49.07216" lon="6.18466">
        <ele>197.20751953125</ele>
        <time>2012-05-15T05:36:17Z</time>
      </trkpt>
      <trkpt lat="49.07197" lon="6.18469">
        <ele>196.72692871094</ele>
        <time>2012-05-15T05:36:21Z</time>
      </trkpt>
      <trkpt lat="49.07171" lon="6.18477">
        <ele>196.72692871094</ele>
        <time>2012-05-15T05:36:26Z</time>
      </trkpt>
      <trkpt lat="49.07146" lon="6.18476">
        <ele>197.20751953125</ele>
        <time>2012-05-15T05:36:30Z</time>
      </trkpt>
      <trkpt lat="49.0714" lon="6.18477">
        <ele>197.20751953125</ele>
        <time>2012-05-15T05:36:31Z</time>
      </trkpt>
      <trkpt lat="49.07133" lon="6.18478">
        <ele>197.20751953125</ele>
        <time>2012-05-15T05:36:32Z</time>
      </trkpt>
      <trkpt lat="49.07119" lon="6.18481">
        <ele>197.68823242188</ele>
        <time>2012-05-15T05:36:34Z</time>
      </trkpt>
      <trkpt lat="49.07071" lon="6.18491">
        <ele>197.20751953125</ele>
        <time>2012-05-15T05:36:41Z</time>
      </trkpt>
      <trkpt lat="49.07049" lon="6.18495">
        <ele>197.20751953125</ele>
        <time>2012-05-15T05:36:44Z</time>
      </trkpt>
      <trkpt lat="49.07035" lon="6.18498">
        <ele>196.72692871094</ele>
        <time>2012-05-15T05:36:46Z</time>
      </trkpt>
      <trkpt lat="49.07007" lon="6.18503">
        <ele>197.68823242188</ele>
        <time>2012-05-15T05:36:50Z</time>
      </trkpt>
      <trkpt lat="49.06939" lon="6.18508">
        <ele>197.68823242188</ele>
        <time>2012-05-15T05:37:00Z</time>
      </trkpt>
      <trkpt lat="49.06861" lon="6.18501">
        <ele>199.13012695312</ele>
        <time>2012-05-15T05:37:12Z</time>
      </trkpt>
      <trkpt lat="49.06796" lon="6.18496">
        <ele>199.61083984375</ele>
        <time>2012-05-15T05:37:22Z</time>
      </trkpt>
      <trkpt lat="49.0675" lon="6.18506">
        <ele>200.09167480469</ele>
        <time>2012-05-15T05:37:29Z</time>
      </trkpt>
      <trkpt lat="49.06694" lon="6.18536">
        <ele>200.572265625</ele>
        <time>2012-05-15T05:37:38Z</time>
      </trkpt>
      <trkpt lat="49.06644" lon="6.18556">
        <ele>201.53356933594</ele>
        <time>2012-05-15T05:37:46Z</time>
      </trkpt>
      <trkpt lat="49.06585" lon="6.18571">
        <ele>202.97546386719</ele>
        <time>2012-05-15T05:37:56Z</time>
      </trkpt>
      <trkpt lat="49.06527" lon="6.18583">
        <ele>204.41748046875</ele>
        <time>2012-05-15T05:38:06Z</time>
      </trkpt>
      <trkpt lat="49.06465" lon="6.18596">
        <ele>206.82067871094</ele>
        <time>2012-05-15T05:38:17Z</time>
      </trkpt>
      <trkpt lat="49.06401" lon="6.18608">
        <ele>208.74340820312</ele>
        <time>2012-05-15T05:38:29Z</time>
      </trkpt>
      <trkpt lat="49.06335" lon="6.18621">
        <ele>211.14672851562</ele>
        <time>2012-05-15T05:38:41Z</time>
      </trkpt>
      <trkpt lat="49.06263" lon="6.18637">
        <ele>212.10803222656</ele>
        <time>2012-05-15T05:38:54Z</time>
      </trkpt>
      <trkpt lat="49.06208" lon="6.18646">
        <ele>215.47265625</ele>
        <time>2012-05-15T05:39:04Z</time>
      </trkpt>
      <trkpt lat="49.06203" lon="6.18646">
        <ele>215.47265625</ele>
        <time>2012-05-15T05:39:05Z</time>
      </trkpt>
      <trkpt lat="49.06147" lon="6.18647">
        <ele>218.83728027344</ele>
        <time>2012-05-15T05:39:16Z</time>
      </trkpt>
      <trkpt lat="49.06089" lon="6.18642">
        <ele>222.20178222656</ele>
        <time>2012-05-15T05:39:28Z</time>
      </trkpt>
      <trkpt lat="49.06036" lon="6.18638">
        <ele>224.12451171875</ele>
        <time>2012-05-15T05:39:39Z</time>
      </trkpt>
      <trkpt lat="49.06009" lon="6.18631">
        <ele>224.60522460938</ele>
        <time>2012-05-15T05:39:45Z</time>
      </trkpt>
      <trkpt lat="49.06003" lon="6.18622">
        <ele>224.60522460938</ele>
        <time>2012-05-15T05:39:49Z</time>
      </trkpt>
      <trkpt lat="49.05998" lon="6.18616">
        <ele>224.60522460938</ele>
        <time>2012-05-15T05:39:51Z</time>
      </trkpt>
      <trkpt lat="49.05995" lon="6.18613">
        <ele>224.12451171875</ele>
        <time>2012-05-15T05:39:52Z</time>
      </trkpt>
      <trkpt lat="49.05977" lon="6.18615">
        <ele>224.60522460938</ele>
        <time>2012-05-15T05:39:56Z</time>
      </trkpt>
      <trkpt lat="49.05966" lon="6.18631">
        <ele>225.0859375</ele>
        <time>2012-05-15T05:39:59Z</time>
      </trkpt>
      <trkpt lat="49.0596" lon="6.18646">
        <ele>225.0859375</ele>
        <time>2012-05-15T05:40:01Z</time>
      </trkpt>
      <trkpt lat="49.05937" lon="6.18671">
        <ele>226.04711914062</ele>
        <time>2012-05-15T05:40:06Z</time>
      </trkpt>
      <trkpt lat="49.05927" lon="6.18678">
        <ele>226.04711914062</ele>
        <time>2012-05-15T05:40:08Z</time>
      </trkpt>
      <trkpt lat="49.05921" lon="6.18682">
        <ele>225.0859375</ele>
        <time>2012-05-15T05:40:09Z</time>
      </trkpt>
      <trkpt lat="49.05893" lon="6.187">
        <ele>225.56652832031</ele>
        <time>2012-05-15T05:40:14Z</time>
      </trkpt>
      <trkpt lat="49.05875" lon="6.18701">
        <ele>225.0859375</ele>
        <time>2012-05-15T05:40:17Z</time>
      </trkpt>
      <trkpt lat="49.0585" lon="6.18713">
        <ele>224.60522460938</ele>
        <time>2012-05-15T05:40:21Z</time>
      </trkpt>
      <trkpt lat="49.0583" lon="6.18719">
        <ele>225.0859375</ele>
        <time>2012-05-15T05:40:24Z</time>
      </trkpt>
      <trkpt lat="49.05769" lon="6.18722">
        <ele>227.00854492188</ele>
        <time>2012-05-15T05:40:34Z</time>
      </trkpt>
      <trkpt lat="49.05758" lon="6.18722">
        <ele>226.52783203125</ele>
        <time>2012-05-15T05:40:36Z</time>
      </trkpt>
      <trkpt lat="49.05752" lon="6.18722">
        <ele>226.04711914062</ele>
        <time>2012-05-15T05:40:37Z</time>
      </trkpt>
      <trkpt lat="49.05746" lon="6.18722">
        <ele>227.00854492188</ele>
        <time>2012-05-15T05:40:38Z</time>
      </trkpt>
      <trkpt lat="49.05701" lon="6.18724">
        <ele>227.48913574219</ele>
        <time>2012-05-15T05:40:46Z</time>
      </trkpt>
      <trkpt lat="49.05695" lon="6.18724">
        <ele>227.9697265625</ele>
        <time>2012-05-15T05:40:47Z</time>
      </trkpt>
      <trkpt lat="49.05684" lon="6.18725">
        <ele>227.9697265625</ele>
        <time>2012-05-15T05:40:49Z</time>
      </trkpt>
      <trkpt lat="49.05672" lon="6.18725">
        <ele>228.45043945312</ele>
        <time>2012-05-15T05:40:51Z</time>
      </trkpt>
      <trkpt lat="49.05625" lon="6.18728">
        <ele>229.41174316406</ele>
        <time>2012-05-15T05:40:59Z</time>
      </trkpt>
      <trkpt lat="49.05607" lon="6.18729">
        <ele>229.89233398438</ele>
        <time>2012-05-15T05:41:02Z</time>
      </trkpt>
      <trkpt lat="49.05546" lon="6.18736">
        <ele>229.41174316406</ele>
        <time>2012-05-15T05:41:12Z</time>
      </trkpt>
      <trkpt lat="49.05468" lon="6.18745">
        <ele>230.373046875</ele>
        <time>2012-05-15T05:41:24Z</time>
      </trkpt>
      <trkpt lat="49.05391" lon="6.18759">
        <ele>229.41174316406</ele>
        <time>2012-05-15T05:41:36Z</time>
      </trkpt>
      <trkpt lat="49.05324" lon="6.1878">
        <ele>228.45043945312</ele>
        <time>2012-05-15T05:41:46Z</time>
      </trkpt>
      <trkpt lat="49.05259" lon="6.18801">
        <ele>227.00854492188</ele>
        <time>2012-05-15T05:41:55Z</time>
      </trkpt>
      <trkpt lat="49.05206" lon="6.18817">
        <ele>225.56652832031</ele>
        <time>2012-05-15T05:42:02Z</time>
      </trkpt>
      <trkpt lat="49.05176" lon="6.18825">
        <ele>226.04711914062</ele>
        <time>2012-05-15T05:42:06Z</time>
      </trkpt>
      <trkpt lat="49.05132" lon="6.18822">
        <ele>225.0859375</ele>
        <time>2012-05-15T05:42:12Z</time>
      </trkpt>
      <trkpt lat="49.05068" lon="6.18812">
        <ele>223.64379882812</ele>
        <time>2012-05-15T05:42:21Z</time>
      </trkpt>
      <trkpt lat="49.05061" lon="6.18812">
        <ele>224.60522460938</ele>
        <time>2012-05-15T05:42:22Z</time>
      </trkpt>
      <trkpt lat="49.05015" lon="6.18824">
        <ele>224.12451171875</ele>
        <time>2012-05-15T05:42:29Z</time>
      </trkpt>
      <trkpt lat="49.04953" lon="6.18845">
        <ele>222.20178222656</ele>
        <time>2012-05-15T05:42:38Z</time>
      </trkpt>
      <trkpt lat="49.04903" lon="6.1886">
        <ele>221.72119140625</ele>
        <time>2012-05-15T05:42:45Z</time>
      </trkpt>
      <trkpt lat="49.04841" lon="6.18866">
        <ele>220.27917480469</ele>
        <time>2012-05-15T05:42:53Z</time>
      </trkpt>
      <trkpt lat="49.04766" lon="6.18876">
        <ele>219.31799316406</ele>
        <time>2012-05-15T05:43:03Z</time>
      </trkpt>
      <trkpt lat="49.047" lon="6.18882">
        <ele>220.27917480469</ele>
        <time>2012-05-15T05:43:12Z</time>
      </trkpt>
      <trkpt lat="49.04623" lon="6.18887">
        <ele>221.24060058594</ele>
        <time>2012-05-15T05:43:23Z</time>
      </trkpt>
      <trkpt lat="49.04563" lon="6.18891">
        <ele>218.83728027344</ele>
        <time>2012-05-15T05:43:31Z</time>
      </trkpt>
      <trkpt lat="49.04555" lon="6.18892">
        <ele>218.83728027344</ele>
        <time>2012-05-15T05:43:32Z</time>
      </trkpt>
      <trkpt lat="49.04487" lon="6.18899">
        <ele>217.39538574219</ele>
        <time>2012-05-15T05:43:40Z</time>
      </trkpt>
      <trkpt lat="49.04404" lon="6.18912">
        <ele>217.39538574219</ele>
        <time>2012-05-15T05:43:50Z</time>
      </trkpt>
      <trkpt lat="49.04335" lon="6.18925">
        <ele>218.35656738281</ele>
        <time>2012-05-15T05:43:59Z</time>
      </trkpt>
      <trkpt lat="49.04272" lon="6.18933">
        <ele>219.79858398438</ele>
        <time>2012-05-15T05:44:08Z</time>
      </trkpt>
      <trkpt lat="49.04198" lon="6.18942">
        <ele>217.39538574219</ele>
        <time>2012-05-15T05:44:18Z</time>
      </trkpt>
      <trkpt lat="49.04131" lon="6.1895">
        <ele>215.47265625</ele>
        <time>2012-05-15T05:44:26Z</time>
      </trkpt>
      <trkpt lat="49.04074" lon="6.18957">
        <ele>215.47265625</ele>
        <time>2012-05-15T05:44:33Z</time>
      </trkpt>
      <trkpt lat="49.04022" lon="6.18962">
        <ele>217.39538574219</ele>
        <time>2012-05-15T05:44:40Z</time>
      </trkpt>
      <trkpt lat="49.03953" lon="6.18969">
        <ele>219.31799316406</ele>
        <time>2012-05-15T05:44:50Z</time>
      </trkpt>
      <trkpt lat="49.039" lon="6.1897">
        <ele>219.31799316406</ele>
        <time>2012-05-15T05:44:58Z</time>
      </trkpt>
      <trkpt lat="49.03869" lon="6.18968">
        <ele>219.79858398438</ele>
        <time>2012-05-15T05:45:03Z</time>
      </trkpt>
      <trkpt lat="49.03857" lon="6.18964">
        <ele>219.79858398438</ele>
        <time>2012-05-15T05:45:05Z</time>
      </trkpt>
      <trkpt lat="49.03835" lon="6.18978">
        <ele>220.27917480469</ele>
        <time>2012-05-15T05:45:09Z</time>
      </trkpt>
      <trkpt lat="49.0383" lon="6.18983">
        <ele>221.24060058594</ele>
        <time>2012-05-15T05:45:10Z</time>
      </trkpt>
      <trkpt lat="49.03779" lon="6.19007">
        <ele>222.20178222656</ele>
        <time>2012-05-15T05:45:19Z</time>
      </trkpt>
      <trkpt lat="49.03726" lon="6.19025">
        <ele>224.12451171875</ele>
        <time>2012-05-15T05:45:28Z</time>
      </trkpt>
      <trkpt lat="49.0367" lon="6.19046">
        <ele>220.75988769531</ele>
        <time>2012-05-15T05:45:37Z</time>
      </trkpt>
      <trkpt lat="49.03663" lon="6.19049">
        <ele>221.72119140625</ele>
        <time>2012-05-15T05:45:38Z</time>
      </trkpt>
      <trkpt lat="49.03609" lon="6.1906">
        <ele>220.27917480469</ele>
        <time>2012-05-15T05:45:45Z</time>
      </trkpt>
      <trkpt lat="49.03565" lon="6.19061">
        <ele>216.91467285156</ele>
        <time>2012-05-15T05:45:50Z</time>
      </trkpt>
      <trkpt lat="49.03536" lon="6.19061">
        <ele>215.47265625</ele>
        <time>2012-05-15T05:45:53Z</time>
      </trkpt>
      <trkpt lat="49.03507" lon="6.1906">
        <ele>214.03063964844</ele>
        <time>2012-05-15T05:45:56Z</time>
      </trkpt>
      <trkpt lat="49.03456" lon="6.19058">
        <ele>212.10803222656</ele>
        <time>2012-05-15T05:46:01Z</time>
      </trkpt>
      <trkpt lat="49.03395" lon="6.19059">
        <ele>210.666015625</ele>
        <time>2012-05-15T05:46:07Z</time>
      </trkpt>
      <trkpt lat="49.03374" lon="6.1906">
        <ele>208.26281738281</ele>
        <time>2012-05-15T05:46:09Z</time>
      </trkpt>
      <trkpt lat="49.03322" lon="6.19066">
        <ele>204.89807128906</ele>
        <time>2012-05-15T05:46:14Z</time>
      </trkpt>
      <trkpt lat="49.03279" lon="6.19074">
        <ele>202.97546386719</ele>
        <time>2012-05-15T05:46:18Z</time>
      </trkpt>
      <trkpt lat="49.03233" lon="6.19085">
        <ele>200.09167480469</ele>
        <time>2012-05-15T05:46:22Z</time>
      </trkpt>
      <trkpt lat="49.03187" lon="6.191">
        <ele>198.1689453125</ele>
        <time>2012-05-15T05:46:26Z</time>
      </trkpt>
      <trkpt lat="49.03123" lon="6.19126">
        <ele>196.72692871094</ele>
        <time>2012-05-15T05:46:32Z</time>
      </trkpt>
      <trkpt lat="49.03046" lon="6.19161">
        <ele>196.24633789062</ele>
        <time>2012-05-15T05:46:40Z</time>
      </trkpt>
      <trkpt lat="49.02964" lon="6.19197">
        <ele>195.765625</ele>
        <time>2012-05-15T05:46:49Z</time>
      </trkpt>
      <trkpt lat="49.0289" lon="6.19231">
        <ele>196.24633789062</ele>
        <time>2012-05-15T05:46:58Z</time>
      </trkpt>
      <trkpt lat="49.02814" lon="6.19264">
        <ele>197.20751953125</ele>
        <time>2012-05-15T05:47:08Z</time>
      </trkpt>
      <trkpt lat="49.02762" lon="6.19286">
        <ele>198.64953613281</ele>
        <time>2012-05-15T05:47:16Z</time>
      </trkpt>
      <trkpt lat="49.02692" lon="6.19318">
        <ele>201.05285644531</ele>
        <time>2012-05-15T05:47:28Z</time>
      </trkpt>
      <trkpt lat="49.02633" lon="6.19356">
        <ele>201.53356933594</ele>
        <time>2012-05-15T05:47:38Z</time>
      </trkpt>
      <trkpt lat="49.02576" lon="6.19405">
        <ele>201.53356933594</ele>
        <time>2012-05-15T05:47:48Z</time>
      </trkpt>
      <trkpt lat="49.02517" lon="6.19467">
        <ele>202.01428222656</ele>
        <time>2012-05-15T05:47:59Z</time>
      </trkpt>
      <trkpt lat="49.0245" lon="6.19536">
        <ele>202.49487304688</ele>
        <time>2012-05-15T05:48:11Z</time>
      </trkpt>
      <trkpt lat="49.02404" lon="6.19585">
        <ele>203.93688964844</ele>
        <time>2012-05-15T05:48:20Z</time>
      </trkpt>
      <trkpt lat="49.0237" lon="6.19626">
        <ele>205.37878417969</ele>
        <time>2012-05-15T05:48:28Z</time>
      </trkpt>
      <trkpt lat="49.02355" lon="6.19644">
        <ele>206.82067871094</ele>
        <time>2012-05-15T05:48:32Z</time>
      </trkpt>
      <trkpt lat="49.02327" lon="6.19683">
        <ele>210.18542480469</ele>
        <time>2012-05-15T05:48:41Z</time>
      </trkpt>
      <trkpt lat="49.02297" lon="6.19728">
        <ele>212.58862304688</ele>
        <time>2012-05-15T05:48:52Z</time>
      </trkpt>
      <trkpt lat="49.02271" lon="6.19769">
        <ele>215.95324707031</ele>
        <time>2012-05-15T05:49:02Z</time>
      </trkpt>
      <trkpt lat="49.02244" lon="6.19813">
        <ele>218.35656738281</ele>
        <time>2012-05-15T05:49:13Z</time>
      </trkpt>
      <trkpt lat="49.02239" lon="6.19821">
        <ele>218.83728027344</ele>
        <time>2012-05-15T05:49:15Z</time>
      </trkpt>
      <trkpt lat="49.02219" lon="6.19851">
        <ele>222.20178222656</ele>
        <time>2012-05-15T05:49:23Z</time>
      </trkpt>
      <trkpt lat="49.02217" lon="6.19855">
        <ele>221.72119140625</ele>
        <time>2012-05-15T05:49:24Z</time>
      </trkpt>
      <trkpt lat="49.02192" lon="6.19892">
        <ele>223.64379882812</ele>
        <time>2012-05-15T05:49:34Z</time>
      </trkpt>
      <trkpt lat="49.02167" lon="6.19927">
        <ele>226.04711914062</ele>
        <time>2012-05-15T05:49:44Z</time>
      </trkpt>
      <trkpt lat="49.02135" lon="6.19966">
        <ele>228.45043945312</ele>
        <time>2012-05-15T05:49:55Z</time>
      </trkpt>
      <trkpt lat="49.02102" lon="6.20004">
        <ele>230.373046875</ele>
        <time>2012-05-15T05:50:06Z</time>
      </trkpt>
      <trkpt lat="49.02065" lon="6.20043">
        <ele>231.33435058594</ele>
        <time>2012-05-15T05:50:17Z</time>
      </trkpt>
      <trkpt lat="49.02025" lon="6.20078">
        <ele>233.73767089844</ele>
        <time>2012-05-15T05:50:27Z</time>
      </trkpt>
      <trkpt lat="49.01985" lon="6.20112">
        <ele>233.25708007812</ele>
        <time>2012-05-15T05:50:36Z</time>
      </trkpt>
      <trkpt lat="49.01929" lon="6.20158">
        <ele>234.69909667969</ele>
        <time>2012-05-15T05:50:47Z</time>
      </trkpt>
      <trkpt lat="49.01865" lon="6.2021">
        <ele>234.21838378906</ele>
        <time>2012-05-15T05:50:59Z</time>
      </trkpt>
      <trkpt lat="49.01799" lon="6.20265">
        <ele>234.21838378906</ele>
        <time>2012-05-15T05:51:11Z</time>
      </trkpt>
      <trkpt lat="49.01731" lon="6.20321">
        <ele>234.69909667969</ele>
        <time>2012-05-15T05:51:23Z</time>
      </trkpt>
      <trkpt lat="49.01674" lon="6.20368">
        <ele>234.21838378906</ele>
        <time>2012-05-15T05:51:33Z</time>
      </trkpt>
      <trkpt lat="49.01615" lon="6.20418">
        <ele>232.29577636719</ele>
        <time>2012-05-15T05:51:43Z</time>
      </trkpt>
      <trkpt lat="49.01579" lon="6.20447">
        <ele>230.373046875</ele>
        <time>2012-05-15T05:51:49Z</time>
      </trkpt>
      <trkpt lat="49.01573" lon="6.20452">
        <ele>230.373046875</ele>
        <time>2012-05-15T05:51:50Z</time>
      </trkpt>
      <trkpt lat="49.01542" lon="6.20476">
        <ele>229.41174316406</ele>
        <time>2012-05-15T05:51:55Z</time>
      </trkpt>
      <trkpt lat="49.01491" lon="6.20504">
        <ele>227.9697265625</ele>
        <time>2012-05-15T05:52:02Z</time>
      </trkpt>
      <trkpt lat="49.01459" lon="6.20513">
        <ele>227.48913574219</ele>
        <time>2012-05-15T05:52:06Z</time>
      </trkpt>
      <trkpt lat="49.01423" lon="6.20518">
        <ele>224.60522460938</ele>
        <time>2012-05-15T05:52:10Z</time>
      </trkpt>
      <trkpt lat="49.01377" lon="6.20511">
        <ele>223.64379882812</ele>
        <time>2012-05-15T05:52:15Z</time>
      </trkpt>
      <trkpt lat="49.01278" lon="6.20488">
        <ele>221.24060058594</ele>
        <time>2012-05-15T05:52:26Z</time>
      </trkpt>
      <trkpt lat="49.0126" lon="6.20487">
        <ele>220.75988769531</ele>
        <time>2012-05-15T05:52:28Z</time>
      </trkpt>
      <trkpt lat="49.01224" lon="6.20495">
        <ele>218.35656738281</ele>
        <time>2012-05-15T05:52:32Z</time>
      </trkpt>
      <trkpt lat="49.0119" lon="6.20501">
        <ele>217.8759765625</ele>
        <time>2012-05-15T05:52:36Z</time>
      </trkpt>
      <trkpt lat="49.0116" lon="6.20521">
        <ele>216.91467285156</ele>
        <time>2012-05-15T05:52:40Z</time>
      </trkpt>
      <trkpt lat="49.0108" lon="6.20539">
        <ele>214.99194335938</ele>
        <time>2012-05-15T05:52:49Z</time>
      </trkpt>
      <trkpt lat="49.00988" lon="6.20553">
        <ele>213.55004882812</ele>
        <time>2012-05-15T05:52:59Z</time>
      </trkpt>
      <trkpt lat="49.00917" lon="6.20593">
        <ele>212.58862304688</ele>
        <time>2012-05-15T05:53:07Z</time>
      </trkpt>
      <trkpt lat="49.00838" lon="6.20631">
        <ele>210.666015625</ele>
        <time>2012-05-15T05:53:16Z</time>
      </trkpt>
      <trkpt lat="49.00792" lon="6.20637">
        <ele>210.18542480469</ele>
        <time>2012-05-15T05:53:21Z</time>
      </trkpt>
      <trkpt lat="49.00755" lon="6.20633">
        <ele>209.70483398438</ele>
        <time>2012-05-15T05:53:25Z</time>
      </trkpt>
      <trkpt lat="49.00697" lon="6.206">
        <ele>207.30139160156</ele>
        <time>2012-05-15T05:53:32Z</time>
      </trkpt>
      <trkpt lat="49.0066" lon="6.20561">
        <ele>206.82067871094</ele>
        <time>2012-05-15T05:53:37Z</time>
      </trkpt>
      <trkpt lat="49.00624" lon="6.20504">
        <ele>205.85949707031</ele>
        <time>2012-05-15T05:53:43Z</time>
      </trkpt>
      <trkpt lat="49.00595" lon="6.20442">
        <ele>205.85949707031</ele>
        <time>2012-05-15T05:53:49Z</time>
      </trkpt>
      <trkpt lat="49.0056" lon="6.2038">
        <ele>205.85949707031</ele>
        <time>2012-05-15T05:53:56Z</time>
      </trkpt>
      <trkpt lat="49.00526" lon="6.20316">
        <ele>206.34008789062</ele>
        <time>2012-05-15T05:54:03Z</time>
      </trkpt>
      <trkpt lat="49.00498" lon="6.20272">
        <ele>207.30139160156</ele>
        <time>2012-05-15T05:54:09Z</time>
      </trkpt>
      <trkpt lat="49.00472" lon="6.2024">
        <ele>209.70483398438</ele>
        <time>2012-05-15T05:54:15Z</time>
      </trkpt>
      <trkpt lat="49.00441" lon="6.20208">
        <ele>212.10803222656</ele>
        <time>2012-05-15T05:54:23Z</time>
      </trkpt>
      <trkpt lat="49.00407" lon="6.20174">
        <ele>213.55004882812</ele>
        <time>2012-05-15T05:54:32Z</time>
      </trkpt>
      <trkpt lat="49.00371" lon="6.2014">
        <ele>215.95324707031</ele>
        <time>2012-05-15T05:54:41Z</time>
      </trkpt>
      <trkpt lat="49.00364" lon="6.20133">
        <ele>216.91467285156</ele>
        <time>2012-05-15T05:54:43Z</time>
      </trkpt>
      <trkpt lat="49.00321" lon="6.2009">
        <ele>217.8759765625</ele>
        <time>2012-05-15T05:54:54Z</time>
      </trkpt>
      <trkpt lat="49.00277" lon="6.20047">
        <ele>218.35656738281</ele>
        <time>2012-05-15T05:55:04Z</time>
      </trkpt>
      <trkpt lat="49.00222" lon="6.19989">
        <ele>218.83728027344</ele>
        <time>2012-05-15T05:55:16Z</time>
      </trkpt>
      <trkpt lat="49.0017" lon="6.19935">
        <ele>219.31799316406</ele>
        <time>2012-05-15T05:55:27Z</time>
      </trkpt>
      <trkpt lat="49.00153" lon="6.19914">
        <ele>218.83728027344</ele>
        <time>2012-05-15T05:55:31Z</time>
      </trkpt>
      <trkpt lat="49.00138" lon="6.19879">
        <ele>219.31799316406</ele>
        <time>2012-05-15T05:55:36Z</time>
      </trkpt>
      <trkpt lat="49.00126" lon="6.19872">
        <ele>219.31799316406</ele>
        <time>2012-05-15T05:55:39Z</time>
      </trkpt>
      <trkpt lat="49.00103" lon="6.19866">
        <ele>218.83728027344</ele>
        <time>2012-05-15T05:55:44Z</time>
      </trkpt>
      <trkpt lat="49.00058" lon="6.19827">
        <ele>218.83728027344</ele>
        <time>2012-05-15T05:55:54Z</time>
      </trkpt>
      <trkpt lat="49.00018" lon="6.19788">
        <ele>216.43395996094</ele>
        <time>2012-05-15T05:56:02Z</time>
      </trkpt>
      <trkpt lat="48.99976" lon="6.19746">
        <ele>214.99194335938</ele>
        <time>2012-05-15T05:56:09Z</time>
      </trkpt>
      <trkpt lat="48.9995" lon="6.19721">
        <ele>211.62744140625</ele>
        <time>2012-05-15T05:56:13Z</time>
      </trkpt>
      <trkpt lat="48.99944" lon="6.19714">
        <ele>211.62744140625</ele>
        <time>2012-05-15T05:56:14Z</time>
      </trkpt>
      <trkpt lat="48.99902" lon="6.19673">
        <ele>207.78210449219</ele>
        <time>2012-05-15T05:56:20Z</time>
      </trkpt>
      <trkpt lat="48.99855" lon="6.19627">
        <ele>206.82067871094</ele>
        <time>2012-05-15T05:56:26Z</time>
      </trkpt>
      <trkpt lat="48.99839" lon="6.19611">
        <ele>204.89807128906</ele>
        <time>2012-05-15T05:56:28Z</time>
      </trkpt>
      <trkpt lat="48.9978" lon="6.19553">
        <ele>202.01428222656</ele>
        <time>2012-05-15T05:56:35Z</time>
      </trkpt>
      <trkpt lat="48.99763" lon="6.19536">
        <ele>200.09167480469</ele>
        <time>2012-05-15T05:56:37Z</time>
      </trkpt>
      <trkpt lat="48.99706" lon="6.19485">
        <ele>200.09167480469</ele>
        <time>2012-05-15T05:56:44Z</time>
      </trkpt>
      <trkpt lat="48.9969" lon="6.19477">
        <ele>199.13012695312</ele>
        <time>2012-05-15T05:56:46Z</time>
      </trkpt>
      <trkpt lat="48.99649" lon="6.19472">
        <ele>200.09167480469</ele>
        <time>2012-05-15T05:56:52Z</time>
      </trkpt>
      <trkpt lat="48.99628" lon="6.19477">
        <ele>202.01428222656</ele>
        <time>2012-05-15T05:56:56Z</time>
      </trkpt>
      <trkpt lat="48.996" lon="6.19491">
        <ele>203.45617675781</ele>
        <time>2012-05-15T05:57:02Z</time>
      </trkpt>
      <trkpt lat="48.9958" lon="6.19509">
        <ele>204.89807128906</ele>
        <time>2012-05-15T05:57:07Z</time>
      </trkpt>
      <trkpt lat="48.99556" lon="6.19537">
        <ele>206.34008789062</ele>
        <time>2012-05-15T05:57:14Z</time>
      </trkpt>
      <trkpt lat="48.99522" lon="6.19585">
        <ele>209.22412109375</ele>
        <time>2012-05-15T05:57:25Z</time>
      </trkpt>
      <trkpt lat="48.99517" lon="6.19593">
        <ele>209.70483398438</ele>
        <time>2012-05-15T05:57:27Z</time>
      </trkpt>
      <trkpt lat="48.99491" lon="6.19626">
        <ele>212.10803222656</ele>
        <time>2012-05-15T05:57:35Z</time>
      </trkpt>
      <trkpt lat="48.99464" lon="6.19655">
        <ele>214.03063964844</ele>
        <time>2012-05-15T05:57:43Z</time>
      </trkpt>
      <trkpt lat="48.99448" lon="6.19668">
        <ele>214.99194335938</ele>
        <time>2012-05-15T05:57:47Z</time>
      </trkpt>
      <trkpt lat="48.99407" lon="6.19694">
        <ele>216.91467285156</ele>
        <time>2012-05-15T05:57:57Z</time>
      </trkpt>
      <trkpt lat="48.9936" lon="6.19711">
        <ele>217.8759765625</ele>
        <time>2012-05-15T05:58:07Z</time>
      </trkpt>
      <trkpt lat="48.9932" lon="6.1972">
        <ele>219.31799316406</ele>
        <time>2012-05-15T05:58:15Z</time>
      </trkpt>
      <trkpt lat="48.99273" lon="6.19729">
        <ele>219.79858398438</ele>
        <time>2012-05-15T05:58:24Z</time>
      </trkpt>
      <trkpt lat="48.99195" lon="6.1974">
        <ele>218.35656738281</ele>
        <time>2012-05-15T05:58:37Z</time>
      </trkpt>
      <trkpt lat="48.99135" lon="6.19748">
        <ele>216.91467285156</ele>
        <time>2012-05-15T05:58:46Z</time>
      </trkpt>
      <trkpt lat="48.9907" lon="6.19756">
        <ele>214.51123046875</ele>
        <time>2012-05-15T05:58:55Z</time>
      </trkpt>
      <trkpt lat="48.98997" lon="6.19765">
        <ele>213.55004882812</ele>
        <time>2012-05-15T05:59:05Z</time>
      </trkpt>
      <trkpt lat="48.98938" lon="6.19773">
        <ele>214.99194335938</ele>
        <time>2012-05-15T05:59:14Z</time>
      </trkpt>
      <trkpt lat="48.98886" lon="6.19779">
        <ele>216.43395996094</ele>
        <time>2012-05-15T05:59:23Z</time>
      </trkpt>
      <trkpt lat="48.98835" lon="6.19786">
        <ele>216.43395996094</ele>
        <time>2012-05-15T05:59:32Z</time>
      </trkpt>
      <trkpt lat="48.98764" lon="6.19795">
        <ele>217.39538574219</ele>
        <time>2012-05-15T05:59:44Z</time>
      </trkpt>
      <trkpt lat="48.98711" lon="6.19801">
        <ele>218.35656738281</ele>
        <time>2012-05-15T05:59:53Z</time>
      </trkpt>
      <trkpt lat="48.98645" lon="6.19806">
        <ele>220.75988769531</ele>
        <time>2012-05-15T06:00:05Z</time>
      </trkpt>
      <trkpt lat="48.98584" lon="6.19813">
        <ele>222.68249511719</ele>
        <time>2012-05-15T06:00:16Z</time>
      </trkpt>
      <trkpt lat="48.98533" lon="6.1982">
        <ele>224.12451171875</ele>
        <time>2012-05-15T06:00:25Z</time>
      </trkpt>
      <trkpt lat="48.98472" lon="6.1983">
        <ele>225.56652832031</ele>
        <time>2012-05-15T06:00:36Z</time>
      </trkpt>
      <trkpt lat="48.98409" lon="6.19847">
        <ele>228.93115234375</ele>
        <time>2012-05-15T06:00:48Z</time>
      </trkpt>
      <trkpt lat="48.98404" lon="6.19849">
        <ele>228.93115234375</ele>
        <time>2012-05-15T06:00:49Z</time>
      </trkpt>
      <trkpt lat="48.98351" lon="6.1987">
        <ele>229.41174316406</ele>
        <time>2012-05-15T06:00:59Z</time>
      </trkpt>
      <trkpt lat="48.98295" lon="6.19898">
        <ele>228.93115234375</ele>
        <time>2012-05-15T06:01:09Z</time>
      </trkpt>
      <trkpt lat="48.98241" lon="6.19915">
        <ele>226.52783203125</ele>
        <time>2012-05-15T06:01:17Z</time>
      </trkpt>
      <trkpt lat="48.98191" lon="6.19922">
        <ele>223.16320800781</ele>
        <time>2012-05-15T06:01:23Z</time>
      </trkpt>
      <trkpt lat="48.98154" lon="6.19923">
        <ele>221.24060058594</ele>
        <time>2012-05-15T06:01:27Z</time>
      </trkpt>
      <trkpt lat="48.98092" lon="6.19922">
        <ele>217.8759765625</ele>
        <time>2012-05-15T06:01:33Z</time>
      </trkpt>
      <trkpt lat="48.9801" lon="6.19921">
        <ele>215.95324707031</ele>
        <time>2012-05-15T06:01:41Z</time>
      </trkpt>
      <trkpt lat="48.97937" lon="6.19925">
        <ele>215.47265625</ele>
        <time>2012-05-15T06:01:49Z</time>
      </trkpt>
      <trkpt lat="48.97881" lon="6.19933">
        <ele>215.95324707031</ele>
        <time>2012-05-15T06:01:56Z</time>
      </trkpt>
      <trkpt lat="48.97824" lon="6.19945">
        <ele>217.39538574219</ele>
        <time>2012-05-15T06:02:04Z</time>
      </trkpt>
      <trkpt lat="48.97752" lon="6.19962">
        <ele>219.31799316406</ele>
        <time>2012-05-15T06:02:15Z</time>
      </trkpt>
      <trkpt lat="48.97688" lon="6.19979">
        <ele>221.24060058594</ele>
        <time>2012-05-15T06:02:25Z</time>
      </trkpt>
      <trkpt lat="48.9763" lon="6.19994">
        <ele>223.16320800781</ele>
        <time>2012-05-15T06:02:35Z</time>
      </trkpt>
      <trkpt lat="48.97567" lon="6.20009">
        <ele>225.56652832031</ele>
        <time>2012-05-15T06:02:46Z</time>
      </trkpt>
      <trkpt lat="48.97503" lon="6.20025">
        <ele>223.64379882812</ele>
        <time>2012-05-15T06:02:56Z</time>
      </trkpt>
      <trkpt lat="48.97448" lon="6.20038">
        <ele>223.16320800781</ele>
        <time>2012-05-15T06:03:03Z</time>
      </trkpt>
      <trkpt lat="48.97403" lon="6.20049">
        <ele>219.31799316406</ele>
        <time>2012-05-15T06:03:08Z</time>
      </trkpt>
      <trkpt lat="48.97373" lon="6.20056">
        <ele>217.39538574219</ele>
        <time>2012-05-15T06:03:11Z</time>
      </trkpt>
      <trkpt lat="48.97309" lon="6.20072">
        <ele>215.47265625</ele>
        <time>2012-05-15T06:03:17Z</time>
      </trkpt>
      <trkpt lat="48.97219" lon="6.20095">
        <ele>213.0693359375</ele>
        <time>2012-05-15T06:03:26Z</time>
      </trkpt>
      <trkpt lat="48.97128" lon="6.20111">
        <ele>212.58862304688</ele>
        <time>2012-05-15T06:03:36Z</time>
      </trkpt>
      <trkpt lat="48.97062" lon="6.20116">
        <ele>213.0693359375</ele>
        <time>2012-05-15T06:03:44Z</time>
      </trkpt>
      <trkpt lat="48.97014" lon="6.20116">
        <ele>214.99194335938</ele>
        <time>2012-05-15T06:03:51Z</time>
      </trkpt>
      <trkpt lat="48.96945" lon="6.20118">
        <ele>216.91467285156</ele>
        <time>2012-05-15T06:04:02Z</time>
      </trkpt>
      <trkpt lat="48.96877" lon="6.20123">
        <ele>219.31799316406</ele>
        <time>2012-05-15T06:04:13Z</time>
      </trkpt>
      <trkpt lat="48.96833" lon="6.20128">
        <ele>221.24060058594</ele>
        <time>2012-05-15T06:04:21Z</time>
      </trkpt>
      <trkpt lat="48.96785" lon="6.20136">
        <ele>223.64379882812</ele>
        <time>2012-05-15T06:04:31Z</time>
      </trkpt>
      <trkpt lat="48.96733" lon="6.20146">
        <ele>227.00854492188</ele>
        <time>2012-05-15T06:04:42Z</time>
      </trkpt>
      <trkpt lat="48.96684" lon="6.20155">
        <ele>229.89233398438</ele>
        <time>2012-05-15T06:04:53Z</time>
      </trkpt>
      <trkpt lat="48.96635" lon="6.20164">
        <ele>230.85375976562</ele>
        <time>2012-05-15T06:05:03Z</time>
      </trkpt>
      <trkpt lat="48.9659" lon="6.20172">
        <ele>230.373046875</ele>
        <time>2012-05-15T06:05:11Z</time>
      </trkpt>
      <trkpt lat="48.96555" lon="6.20178">
        <ele>229.41174316406</ele>
        <time>2012-05-15T06:05:16Z</time>
      </trkpt>
      <trkpt lat="48.96482" lon="6.20192">
        <ele>226.52783203125</ele>
        <time>2012-05-15T06:05:25Z</time>
      </trkpt>
      <trkpt lat="48.96418" lon="6.20203">
        <ele>225.0859375</ele>
        <time>2012-05-15T06:05:33Z</time>
      </trkpt>
      <trkpt lat="48.96358" lon="6.20215">
        <ele>226.04711914062</ele>
        <time>2012-05-15T06:05:41Z</time>
      </trkpt>
      <trkpt lat="48.96326" lon="6.20222">
        <ele>227.48913574219</ele>
        <time>2012-05-15T06:05:46Z</time>
      </trkpt>
      <trkpt lat="48.96297" lon="6.20226">
        <ele>229.41174316406</ele>
        <time>2012-05-15T06:05:51Z</time>
      </trkpt>
      <trkpt lat="48.96254" lon="6.20234">
        <ele>230.373046875</ele>
        <time>2012-05-15T06:05:59Z</time>
      </trkpt>
      <trkpt lat="48.96212" lon="6.20239">
        <ele>232.29577636719</ele>
        <time>2012-05-15T06:06:07Z</time>
      </trkpt>
      <trkpt lat="48.96167" lon="6.20242">
        <ele>233.25708007812</ele>
        <time>2012-05-15T06:06:16Z</time>
      </trkpt>
      <trkpt lat="48.96149" lon="6.20236">
        <ele>233.73767089844</ele>
        <time>2012-05-15T06:06:21Z</time>
      </trkpt>
      <trkpt lat="48.9614" lon="6.20223">
        <ele>233.73767089844</ele>
        <time>2012-05-15T06:06:24Z</time>
      </trkpt>
      <trkpt lat="48.96111" lon="6.20207">
        <ele>234.21838378906</ele>
        <time>2012-05-15T06:06:30Z</time>
      </trkpt>
      <trkpt lat="48.96092" lon="6.20219">
        <ele>234.69909667969</ele>
        <time>2012-05-15T06:06:34Z</time>
      </trkpt>
      <trkpt lat="48.9608" lon="6.20245">
        <ele>235.66027832031</ele>
        <time>2012-05-15T06:06:38Z</time>
      </trkpt>
      <trkpt lat="48.96078" lon="6.20253">
        <ele>235.66027832031</ele>
        <time>2012-05-15T06:06:39Z</time>
      </trkpt>
      <trkpt lat="48.96075" lon="6.20279">
        <ele>235.1796875</ele>
        <time>2012-05-15T06:06:42Z</time>
      </trkpt>
      <trkpt lat="48.96063" lon="6.20308">
        <ele>235.1796875</ele>
        <time>2012-05-15T06:06:46Z</time>
      </trkpt>
      <trkpt lat="48.96045" lon="6.20314">
        <ele>235.66027832031</ele>
        <time>2012-05-15T06:06:49Z</time>
      </trkpt>
      <trkpt lat="48.96028" lon="6.20307">
        <ele>236.62170410156</ele>
        <time>2012-05-15T06:06:52Z</time>
      </trkpt>
      <trkpt lat="48.95995" lon="6.2029">
        <ele>237.58288574219</ele>
        <time>2012-05-15T06:06:58Z</time>
      </trkpt>
      <trkpt lat="48.9595" lon="6.20289">
        <ele>239.02490234375</ele>
        <time>2012-05-15T06:07:06Z</time>
      </trkpt>
      <trkpt lat="48.95876" lon="6.20302">
        <ele>241.42822265625</ele>
        <time>2012-05-15T06:07:19Z</time>
      </trkpt>
      <trkpt lat="48.95801" lon="6.20316">
        <ele>242.87023925781</ele>
        <time>2012-05-15T06:07:32Z</time>
      </trkpt>
      <trkpt lat="48.95749" lon="6.20325">
        <ele>244.79284667969</ele>
        <time>2012-05-15T06:07:41Z</time>
      </trkpt>
      <trkpt lat="48.95686" lon="6.20337">
        <ele>246.23486328125</ele>
        <time>2012-05-15T06:07:52Z</time>
      </trkpt>
      <trkpt lat="48.9562" lon="6.20348">
        <ele>247.19604492188</ele>
        <time>2012-05-15T06:08:03Z</time>
      </trkpt>
      <trkpt lat="48.95555" lon="6.2036">
        <ele>248.63818359375</ele>
        <time>2012-05-15T06:08:14Z</time>
      </trkpt>
      <trkpt lat="48.95488" lon="6.20375">
        <ele>249.59948730469</ele>
        <time>2012-05-15T06:08:25Z</time>
      </trkpt>
      <trkpt lat="48.95429" lon="6.20399">
        <ele>252.00280761719</ele>
        <time>2012-05-15T06:08:35Z</time>
      </trkpt>
      <trkpt lat="48.95378" lon="6.20434">
        <ele>252.4833984375</ele>
        <time>2012-05-15T06:08:44Z</time>
      </trkpt>
      <trkpt lat="48.95335" lon="6.20474">
        <ele>252.96398925781</ele>
        <time>2012-05-15T06:08:52Z</time>
      </trkpt>
      <trkpt lat="48.95286" lon="6.20535">
        <ele>253.92541503906</ele>
        <time>2012-05-15T06:09:02Z</time>
      </trkpt>
      <trkpt lat="48.95246" lon="6.20601">
        <ele>252.96398925781</ele>
        <time>2012-05-15T06:09:11Z</time>
      </trkpt>
      <trkpt lat="48.95208" lon="6.20679">
        <ele>252.00280761719</ele>
        <time>2012-05-15T06:09:20Z</time>
      </trkpt>
      <trkpt lat="48.95172" lon="6.20758">
        <ele>249.59948730469</ele>
        <time>2012-05-15T06:09:28Z</time>
      </trkpt>
      <trkpt lat="48.95131" lon="6.20847">
        <ele>246.23486328125</ele>
        <time>2012-05-15T06:09:36Z</time>
      </trkpt>
      <trkpt lat="48.95097" lon="6.20921">
        <ele>244.31225585938</ele>
        <time>2012-05-15T06:09:42Z</time>
      </trkpt>
      <trkpt lat="48.9506" lon="6.20999">
        <ele>241.42822265625</ele>
        <time>2012-05-15T06:09:48Z</time>
      </trkpt>
      <trkpt lat="48.95012" lon="6.21105">
        <ele>238.54431152344</ele>
        <time>2012-05-15T06:09:56Z</time>
      </trkpt>
      <trkpt lat="48.95005" lon="6.21119">
        <ele>238.06359863281</ele>
        <time>2012-05-15T06:09:57Z</time>
      </trkpt>
      <trkpt lat="48.94949" lon="6.2124">
        <ele>234.69909667969</ele>
        <time>2012-05-15T06:10:06Z</time>
      </trkpt>
      <trkpt lat="48.94899" lon="6.21347">
        <ele>233.25708007812</ele>
        <time>2012-05-15T06:10:14Z</time>
      </trkpt>
      <trkpt lat="48.94845" lon="6.21449">
        <ele>229.89233398438</ele>
        <time>2012-05-15T06:10:22Z</time>
      </trkpt>
      <trkpt lat="48.94805" lon="6.21513">
        <ele>226.04711914062</ele>
        <time>2012-05-15T06:10:27Z</time>
      </trkpt>
      <trkpt lat="48.94744" lon="6.21597">
        <ele>224.12451171875</ele>
        <time>2012-05-15T06:10:34Z</time>
      </trkpt>
      <trkpt lat="48.94694" lon="6.21655">
        <ele>223.64379882812</ele>
        <time>2012-05-15T06:10:40Z</time>
      </trkpt>
      <trkpt lat="48.94636" lon="6.21723">
        <ele>224.12451171875</ele>
        <time>2012-05-15T06:10:48Z</time>
      </trkpt>
      <trkpt lat="48.94605" lon="6.21755">
        <ele>225.56652832031</ele>
        <time>2012-05-15T06:10:53Z</time>
      </trkpt>
      <trkpt lat="48.94572" lon="6.21779">
        <ele>228.45043945312</ele>
        <time>2012-05-15T06:10:59Z</time>
      </trkpt>
      <trkpt lat="48.94538" lon="6.21801">
        <ele>229.89233398438</ele>
        <time>2012-05-15T06:11:06Z</time>
      </trkpt>
      <trkpt lat="48.94495" lon="6.21828">
        <ele>232.29577636719</ele>
        <time>2012-05-15T06:11:15Z</time>
      </trkpt>
      <trkpt lat="48.94453" lon="6.21854">
        <ele>234.21838378906</ele>
        <time>2012-05-15T06:11:24Z</time>
      </trkpt>
      <trkpt lat="48.94436" lon="6.21865">
        <ele>235.66027832031</ele>
        <time>2012-05-15T06:11:28Z</time>
      </trkpt>
      <trkpt lat="48.94403" lon="6.21876">
        <ele>236.14099121094</ele>
        <time>2012-05-15T06:11:36Z</time>
      </trkpt>
      <trkpt lat="48.94394" lon="6.21877">
        <ele>237.10229492188</ele>
        <time>2012-05-15T06:11:38Z</time>
      </trkpt>
      <trkpt lat="48.94362" lon="6.21879">
        <ele>239.02490234375</ele>
        <time>2012-05-15T06:11:46Z</time>
      </trkpt>
      <trkpt lat="48.94324" lon="6.21876">
        <ele>240.94763183594</ele>
        <time>2012-05-15T06:11:55Z</time>
      </trkpt>
      <trkpt lat="48.94292" lon="6.21876">
        <ele>242.3896484375</ele>
        <time>2012-05-15T06:12:03Z</time>
      </trkpt>
      <trkpt lat="48.94252" lon="6.21873">
        <ele>243.83154296875</ele>
        <time>2012-05-15T06:12:13Z</time>
      </trkpt>
      <trkpt lat="48.94213" lon="6.21871">
        <ele>245.75415039062</ele>
        <time>2012-05-15T06:12:23Z</time>
      </trkpt>
      <trkpt lat="48.94171" lon="6.21867">
        <ele>247.19604492188</ele>
        <time>2012-05-15T06:12:33Z</time>
      </trkpt>
      <trkpt lat="48.94129" lon="6.21861">
        <ele>249.11877441406</ele>
        <time>2012-05-15T06:12:42Z</time>
      </trkpt>
      <trkpt lat="48.94081" lon="6.21858">
        <ele>250.08020019531</ele>
        <time>2012-05-15T06:12:52Z</time>
      </trkpt>
      <trkpt lat="48.94034" lon="6.21856">
        <ele>249.59948730469</ele>
        <time>2012-05-15T06:13:01Z</time>
      </trkpt>
      <trkpt lat="48.93992" lon="6.21858">
        <ele>249.59948730469</ele>
        <time>2012-05-15T06:13:08Z</time>
      </trkpt>
      <trkpt lat="48.93943" lon="6.21857">
        <ele>248.15759277344</ele>
        <time>2012-05-15T06:13:15Z</time>
      </trkpt>
      <trkpt lat="48.93876" lon="6.21854">
        <ele>245.75415039062</ele>
        <time>2012-05-15T06:13:23Z</time>
      </trkpt>
      <trkpt lat="48.93811" lon="6.21851">
        <ele>242.87023925781</ele>
        <time>2012-05-15T06:13:30Z</time>
      </trkpt>
      <trkpt lat="48.93717" lon="6.21846">
        <ele>239.50549316406</ele>
        <time>2012-05-15T06:13:40Z</time>
      </trkpt>
      <trkpt lat="48.93636" lon="6.21843">
        <ele>236.62170410156</ele>
        <time>2012-05-15T06:13:48Z</time>
      </trkpt>
      <trkpt lat="48.93548" lon="6.21839">
        <ele>235.1796875</ele>
        <time>2012-05-15T06:13:57Z</time>
      </trkpt>
      <trkpt lat="48.93489" lon="6.21836">
        <ele>235.66027832031</ele>
        <time>2012-05-15T06:14:04Z</time>
      </trkpt>
      <trkpt lat="48.93439" lon="6.21834">
        <ele>237.58288574219</ele>
        <time>2012-05-15T06:14:11Z</time>
      </trkpt>
      <trkpt lat="48.93383" lon="6.21832">
        <ele>239.50549316406</ele>
        <time>2012-05-15T06:14:20Z</time>
      </trkpt>
      <trkpt lat="48.93326" lon="6.2183">
        <ele>241.90893554688</ele>
        <time>2012-05-15T06:14:30Z</time>
      </trkpt>
      <trkpt lat="48.93272" lon="6.21826">
        <ele>242.3896484375</ele>
        <time>2012-05-15T06:14:40Z</time>
      </trkpt>
      <trkpt lat="48.93224" lon="6.21824">
        <ele>244.31225585938</ele>
        <time>2012-05-15T06:14:49Z</time>
      </trkpt>
      <trkpt lat="48.93175" lon="6.21821">
        <ele>245.75415039062</ele>
        <time>2012-05-15T06:14:58Z</time>
      </trkpt>
      <trkpt lat="48.93111" lon="6.21818">
        <ele>248.15759277344</ele>
        <time>2012-05-15T06:15:10Z</time>
      </trkpt>
      <trkpt lat="48.93073" lon="6.21816">
        <ele>248.63818359375</ele>
        <time>2012-05-15T06:15:17Z</time>
      </trkpt>
      <trkpt lat="48.93014" lon="6.21814">
        <ele>250.56079101562</ele>
        <time>2012-05-15T06:15:28Z</time>
      </trkpt>
      <trkpt lat="48.92961" lon="6.21811">
        <ele>252.00280761719</ele>
        <time>2012-05-15T06:15:38Z</time>
      </trkpt>
      <trkpt lat="48.92918" lon="6.21809">
        <ele>252.4833984375</ele>
        <time>2012-05-15T06:15:46Z</time>
      </trkpt>
      <trkpt lat="48.92863" lon="6.21817">
        <ele>252.96398925781</ele>
        <time>2012-05-15T06:15:56Z</time>
      </trkpt>
      <trkpt lat="48.92822" lon="6.21829">
        <ele>252.00280761719</ele>
        <time>2012-05-15T06:16:03Z</time>
      </trkpt>
      <trkpt lat="48.9277" lon="6.21843">
        <ele>251.04138183594</ele>
        <time>2012-05-15T06:16:11Z</time>
      </trkpt>
      <trkpt lat="48.92726" lon="6.21855">
        <ele>251.04138183594</ele>
        <time>2012-05-15T06:16:17Z</time>
      </trkpt>
      <trkpt lat="48.92673" lon="6.21869">
        <ele>247.6767578125</ele>
        <time>2012-05-15T06:16:24Z</time>
      </trkpt>
      <trkpt lat="48.926" lon="6.21887">
        <ele>245.2734375</ele>
        <time>2012-05-15T06:16:33Z</time>
      </trkpt>
      <trkpt lat="48.9254" lon="6.21903">
        <ele>242.3896484375</ele>
        <time>2012-05-15T06:16:40Z</time>
      </trkpt>
      <trkpt lat="48.92532" lon="6.21905">
        <ele>241.90893554688</ele>
        <time>2012-05-15T06:16:41Z</time>
      </trkpt>
      <trkpt lat="48.92455" lon="6.21923">
        <ele>239.98620605469</ele>
        <time>2012-05-15T06:16:50Z</time>
      </trkpt>
      <trkpt lat="48.92401" lon="6.21937">
        <ele>238.06359863281</ele>
        <time>2012-05-15T06:16:56Z</time>
      </trkpt>
      <trkpt lat="48.92355" lon="6.21949">
        <ele>235.1796875</ele>
        <time>2012-05-15T06:17:01Z</time>
      </trkpt>
      <trkpt lat="48.92315" lon="6.2196">
        <ele>232.77648925781</ele>
        <time>2012-05-15T06:17:05Z</time>
      </trkpt>
      <trkpt lat="48.92274" lon="6.21969">
        <ele>229.89233398438</ele>
        <time>2012-05-15T06:17:09Z</time>
      </trkpt>
      <trkpt lat="48.92253" lon="6.21974">
        <ele>228.93115234375</ele>
        <time>2012-05-15T06:17:11Z</time>
      </trkpt>
      <trkpt lat="48.92176" lon="6.21993">
        <ele>224.60522460938</ele>
        <time>2012-05-15T06:17:18Z</time>
      </trkpt>
      <trkpt lat="48.92165" lon="6.21996">
        <ele>224.60522460938</ele>
        <time>2012-05-15T06:17:19Z</time>
      </trkpt>
      <trkpt lat="48.92118" lon="6.22006">
        <ele>221.24060058594</ele>
        <time>2012-05-15T06:17:23Z</time>
      </trkpt>
      <trkpt lat="48.92083" lon="6.22015">
        <ele>219.79858398438</ele>
        <time>2012-05-15T06:17:26Z</time>
      </trkpt>
      <trkpt lat="48.92014" lon="6.22031">
        <ele>216.43395996094</ele>
        <time>2012-05-15T06:17:32Z</time>
      </trkpt>
      <trkpt lat="48.92003" lon="6.22034">
        <ele>216.43395996094</ele>
        <time>2012-05-15T06:17:33Z</time>
      </trkpt>
      <trkpt lat="48.91921" lon="6.22054">
        <ele>216.91467285156</ele>
        <time>2012-05-15T06:17:41Z</time>
      </trkpt>
      <trkpt lat="48.91858" lon="6.22069">
        <ele>217.8759765625</ele>
        <time>2012-05-15T06:17:48Z</time>
      </trkpt>
      <trkpt lat="48.91812" lon="6.2208">
        <ele>219.31799316406</ele>
        <time>2012-05-15T06:17:54Z</time>
      </trkpt>
      <trkpt lat="48.91747" lon="6.22096">
        <ele>221.24060058594</ele>
        <time>2012-05-15T06:18:03Z</time>
      </trkpt>
      <trkpt lat="48.91673" lon="6.22115">
        <ele>219.31799316406</ele>
        <time>2012-05-15T06:18:13Z</time>
      </trkpt>
      <trkpt lat="48.91605" lon="6.22131">
        <ele>218.35656738281</ele>
        <time>2012-05-15T06:18:21Z</time>
      </trkpt>
      <trkpt lat="48.91555" lon="6.22145">
        <ele>217.39538574219</ele>
        <time>2012-05-15T06:18:27Z</time>
      </trkpt>
      <trkpt lat="48.9147" lon="6.22165">
        <ele>216.43395996094</ele>
        <time>2012-05-15T06:18:37Z</time>
      </trkpt>
      <trkpt lat="48.91394" lon="6.22184">
        <ele>215.95324707031</ele>
        <time>2012-05-15T06:18:46Z</time>
      </trkpt>
      <trkpt lat="48.91317" lon="6.22203">
        <ele>214.51123046875</ele>
        <time>2012-05-15T06:18:55Z</time>
      </trkpt>
      <trkpt lat="48.91235" lon="6.22223">
        <ele>214.99194335938</ele>
        <time>2012-05-15T06:19:05Z</time>
      </trkpt>
      <trkpt lat="48.9116" lon="6.22241">
        <ele>214.99194335938</ele>
        <time>2012-05-15T06:19:15Z</time>
      </trkpt>
      <trkpt lat="48.91091" lon="6.22258">
        <ele>216.91467285156</ele>
        <time>2012-05-15T06:19:25Z</time>
      </trkpt>
      <trkpt lat="48.91024" lon="6.22275">
        <ele>218.35656738281</ele>
        <time>2012-05-15T06:19:35Z</time>
      </trkpt>
      <trkpt lat="48.90965" lon="6.22289">
        <ele>219.31799316406</ele>
        <time>2012-05-15T06:19:44Z</time>
      </trkpt>
      <trkpt lat="48.9091" lon="6.22303">
        <ele>218.35656738281</ele>
        <time>2012-05-15T06:19:52Z</time>
      </trkpt>
      <trkpt lat="48.90844" lon="6.22319">
        <ele>217.8759765625</ele>
        <time>2012-05-15T06:20:01Z</time>
      </trkpt>
      <trkpt lat="48.9077" lon="6.22337">
        <ele>216.43395996094</ele>
        <time>2012-05-15T06:20:11Z</time>
      </trkpt>
      <trkpt lat="48.90701" lon="6.22354">
        <ele>214.99194335938</ele>
        <time>2012-05-15T06:20:20Z</time>
      </trkpt>
      <trkpt lat="48.90637" lon="6.2237">
        <ele>213.55004882812</ele>
        <time>2012-05-15T06:20:28Z</time>
      </trkpt>
      <trkpt lat="48.90562" lon="6.22389">
        <ele>212.58862304688</ele>
        <time>2012-05-15T06:20:37Z</time>
      </trkpt>
      <trkpt lat="48.90498" lon="6.22404">
        <ele>212.10803222656</ele>
        <time>2012-05-15T06:20:45Z</time>
      </trkpt>
      <trkpt lat="48.90438" lon="6.22418">
        <ele>213.0693359375</ele>
        <time>2012-05-15T06:20:53Z</time>
      </trkpt>
      <trkpt lat="48.90366" lon="6.22436">
        <ele>214.03063964844</ele>
        <time>2012-05-15T06:21:03Z</time>
      </trkpt>
      <trkpt lat="48.90329" lon="6.22445">
        <ele>212.58862304688</ele>
        <time>2012-05-15T06:21:08Z</time>
      </trkpt>
      <trkpt lat="48.90282" lon="6.22456">
        <ele>212.10803222656</ele>
        <time>2012-05-15T06:21:14Z</time>
      </trkpt>
      <trkpt lat="48.90216" lon="6.22472">
        <ele>210.18542480469</ele>
        <time>2012-05-15T06:21:22Z</time>
      </trkpt>
      <trkpt lat="48.90182" lon="6.22481">
        <ele>212.10803222656</ele>
        <time>2012-05-15T06:21:26Z</time>
      </trkpt>
      <trkpt lat="48.90137" lon="6.22491">
        <ele>209.70483398438</ele>
        <time>2012-05-15T06:21:31Z</time>
      </trkpt>
      <trkpt lat="48.9012" lon="6.22496">
        <ele>208.26281738281</ele>
        <time>2012-05-15T06:21:33Z</time>
      </trkpt>
      <trkpt lat="48.90041" lon="6.22516">
        <ele>208.26281738281</ele>
        <time>2012-05-15T06:21:42Z</time>
      </trkpt>
      <trkpt lat="48.89968" lon="6.22534">
        <ele>208.74340820312</ele>
        <time>2012-05-15T06:21:51Z</time>
      </trkpt>
      <trkpt lat="48.89917" lon="6.22546">
        <ele>209.22412109375</ele>
        <time>2012-05-15T06:21:58Z</time>
      </trkpt>
      <trkpt lat="48.89858" lon="6.22561">
        <ele>209.70483398438</ele>
        <time>2012-05-15T06:22:06Z</time>
      </trkpt>
      <trkpt lat="48.89785" lon="6.22579">
        <ele>210.18542480469</ele>
        <time>2012-05-15T06:22:16Z</time>
      </trkpt>
      <trkpt lat="48.89742" lon="6.22589">
        <ele>209.22412109375</ele>
        <time>2012-05-15T06:22:22Z</time>
      </trkpt>
      <trkpt lat="48.89652" lon="6.22612">
        <ele>209.22412109375</ele>
        <time>2012-05-15T06:22:34Z</time>
      </trkpt>
      <trkpt lat="48.89585" lon="6.22629">
        <ele>208.26281738281</ele>
        <time>2012-05-15T06:22:43Z</time>
      </trkpt>
      <trkpt lat="48.89563" lon="6.22634">
        <ele>210.18542480469</ele>
        <time>2012-05-15T06:22:46Z</time>
      </trkpt>
      <trkpt lat="48.89492" lon="6.22651">
        <ele>210.18542480469</ele>
        <time>2012-05-15T06:22:56Z</time>
      </trkpt>
      <trkpt lat="48.89436" lon="6.22665">
        <ele>210.666015625</ele>
        <time>2012-05-15T06:23:04Z</time>
      </trkpt>
      <trkpt lat="48.89386" lon="6.22677">
        <ele>208.26281738281</ele>
        <time>2012-05-15T06:23:11Z</time>
      </trkpt>
      <trkpt lat="48.89322" lon="6.22693">
        <ele>207.30139160156</ele>
        <time>2012-05-15T06:23:19Z</time>
      </trkpt>
      <trkpt lat="48.89233" lon="6.22712">
        <ele>205.37878417969</ele>
        <time>2012-05-15T06:23:30Z</time>
      </trkpt>
      <trkpt lat="48.89174" lon="6.22711">
        <ele>202.01428222656</ele>
        <time>2012-05-15T06:23:37Z</time>
      </trkpt>
      <trkpt lat="48.89156" lon="6.2271">
        <ele>201.05285644531</ele>
        <time>2012-05-15T06:23:39Z</time>
      </trkpt>
      <trkpt lat="48.89128" lon="6.22706">
        <ele>197.68823242188</ele>
        <time>2012-05-15T06:23:42Z</time>
      </trkpt>
      <trkpt lat="48.89083" lon="6.22706">
        <ele>197.20751953125</ele>
        <time>2012-05-15T06:23:47Z</time>
      </trkpt>
      <trkpt lat="48.89029" lon="6.22706">
        <ele>195.765625</ele>
        <time>2012-05-15T06:23:53Z</time>
      </trkpt>
      <trkpt lat="48.88943" lon="6.22709">
        <ele>193.84301757812</ele>
        <time>2012-05-15T06:24:03Z</time>
      </trkpt>
      <trkpt lat="48.88895" lon="6.22701">
        <ele>192.40112304688</ele>
        <time>2012-05-15T06:24:09Z</time>
      </trkpt>
      <trkpt lat="48.88844" lon="6.2269">
        <ele>192.40112304688</ele>
        <time>2012-05-15T06:24:16Z</time>
      </trkpt>
      <trkpt lat="48.88838" lon="6.22689">
        <ele>192.88171386719</ele>
        <time>2012-05-15T06:24:17Z</time>
      </trkpt>
      <trkpt lat="48.88819" lon="6.22705">
        <ele>191.43957519531</ele>
        <time>2012-05-15T06:24:21Z</time>
      </trkpt>
      <trkpt lat="48.88818" lon="6.22715">
        <ele>191.43957519531</ele>
        <time>2012-05-15T06:24:22Z</time>
      </trkpt>
      <trkpt lat="48.88811" lon="6.22788">
        <ele>190.958984375</ele>
        <time>2012-05-15T06:24:29Z</time>
      </trkpt>
      <trkpt lat="48.88807" lon="6.22849">
        <ele>190.47839355469</ele>
        <time>2012-05-15T06:24:35Z</time>
      </trkpt>
      <trkpt lat="48.88789" lon="6.2288">
        <ele>189.51696777344</ele>
        <time>2012-05-15T06:24:39Z</time>
      </trkpt>
      <trkpt lat="48.88766" lon="6.22882">
        <ele>190.958984375</ele>
        <time>2012-05-15T06:24:42Z</time>
      </trkpt>
      <trkpt lat="48.88702" lon="6.22871">
        <ele>189.51696777344</ele>
        <time>2012-05-15T06:24:51Z</time>
      </trkpt>
      <trkpt lat="48.88688" lon="6.2287">
        <ele>188.07507324219</ele>
        <time>2012-05-15T06:24:53Z</time>
      </trkpt>
      <trkpt lat="48.88623" lon="6.2287">
        <ele>190.47839355469</ele>
        <time>2012-05-15T06:25:02Z</time>
      </trkpt>
      <trkpt lat="48.88565" lon="6.22872">
        <ele>190.958984375</ele>
        <time>2012-05-15T06:25:10Z</time>
      </trkpt>
      <trkpt lat="48.88515" lon="6.22873">
        <ele>190.47839355469</ele>
        <time>2012-05-15T06:25:17Z</time>
      </trkpt>
      <trkpt lat="48.88454" lon="6.22859">
        <ele>190.47839355469</ele>
        <time>2012-05-15T06:25:26Z</time>
      </trkpt>
      <trkpt lat="48.88411" lon="6.22834">
        <ele>190.958984375</ele>
        <time>2012-05-15T06:25:33Z</time>
      </trkpt>
      <trkpt lat="48.88359" lon="6.22789">
        <ele>192.40112304688</ele>
        <time>2012-05-15T06:25:42Z</time>
      </trkpt>
      <trkpt lat="48.88322" lon="6.22752">
        <ele>193.84301757812</ele>
        <time>2012-05-15T06:25:49Z</time>
      </trkpt>
      <trkpt lat="48.88278" lon="6.22699">
        <ele>193.3623046875</ele>
        <time>2012-05-15T06:25:58Z</time>
      </trkpt>
      <trkpt lat="48.88238" lon="6.2265">
        <ele>194.80432128906</ele>
        <time>2012-05-15T06:26:06Z</time>
      </trkpt>
      <trkpt lat="48.8821" lon="6.22614">
        <ele>197.68823242188</ele>
        <time>2012-05-15T06:26:12Z</time>
      </trkpt>
      <trkpt lat="48.88187" lon="6.22571">
        <ele>197.68823242188</ele>
        <time>2012-05-15T06:26:18Z</time>
      </trkpt>
      <trkpt lat="48.88169" lon="6.22514">
        <ele>196.24633789062</ele>
        <time>2012-05-15T06:26:24Z</time>
      </trkpt>
      <trkpt lat="48.88149" lon="6.22435">
        <ele>195.28491210938</ele>
        <time>2012-05-15T06:26:31Z</time>
      </trkpt>
      <trkpt lat="48.88127" lon="6.22354">
        <ele>194.80432128906</ele>
        <time>2012-05-15T06:26:38Z</time>
      </trkpt>
      <trkpt lat="48.881" lon="6.22269">
        <ele>193.84301757812</ele>
        <time>2012-05-15T06:26:46Z</time>
      </trkpt>
      <trkpt lat="48.88073" lon="6.22186">
        <ele>193.3623046875</ele>
        <time>2012-05-15T06:26:54Z</time>
      </trkpt>
      <trkpt lat="48.88071" lon="6.22175">
        <ele>194.32373046875</ele>
        <time>2012-05-15T06:26:55Z</time>
      </trkpt>
      <trkpt lat="48.8806" lon="6.22111">
        <ele>191.92028808594</ele>
        <time>2012-05-15T06:27:01Z</time>
      </trkpt>
      <trkpt lat="48.88045" lon="6.22034">
        <ele>191.92028808594</ele>
        <time>2012-05-15T06:27:08Z</time>
      </trkpt>
      <trkpt lat="48.88026" lon="6.21938">
        <ele>192.40112304688</ele>
        <time>2012-05-15T06:27:17Z</time>
      </trkpt>
      <trkpt lat="48.88009" lon="6.21847">
        <ele>191.92028808594</ele>
        <time>2012-05-15T06:27:26Z</time>
      </trkpt>
      <trkpt lat="48.87991" lon="6.21751">
        <ele>191.92028808594</ele>
        <time>2012-05-15T06:27:36Z</time>
      </trkpt>
      <trkpt lat="48.87976" lon="6.21678">
        <ele>192.40112304688</ele>
        <time>2012-05-15T06:27:44Z</time>
      </trkpt>
      <trkpt lat="48.87956" lon="6.21572">
        <ele>190.958984375</ele>
        <time>2012-05-15T06:27:55Z</time>
      </trkpt>
      <trkpt lat="48.87952" lon="6.21549">
        <ele>190.47839355469</ele>
        <time>2012-05-15T06:27:57Z</time>
      </trkpt>
      <trkpt lat="48.87935" lon="6.21458">
        <ele>189.99768066406</ele>
        <time>2012-05-15T06:28:05Z</time>
      </trkpt>
      <trkpt lat="48.87927" lon="6.21401">
        <ele>190.47839355469</ele>
        <time>2012-05-15T06:28:11Z</time>
      </trkpt>
      <trkpt lat="48.87926" lon="6.21378">
        <ele>189.51696777344</ele>
        <time>2012-05-15T06:28:14Z</time>
      </trkpt>
      <trkpt lat="48.87912" lon="6.21361">
        <ele>189.99768066406</ele>
        <time>2012-05-15T06:28:18Z</time>
      </trkpt>
      <trkpt lat="48.87889" lon="6.21345">
        <ele>190.958984375</ele>
        <time>2012-05-15T06:28:22Z</time>
      </trkpt>
      <trkpt lat="48.87853" lon="6.21309">
        <ele>190.958984375</ele>
        <time>2012-05-15T06:28:29Z</time>
      </trkpt>
      <trkpt lat="48.87806" lon="6.21261">
        <ele>191.92028808594</ele>
        <time>2012-05-15T06:28:39Z</time>
      </trkpt>
      <trkpt lat="48.87782" lon="6.21236">
        <ele>194.80432128906</ele>
        <time>2012-05-15T06:28:45Z</time>
      </trkpt>
      <trkpt lat="48.87738" lon="6.21192">
        <ele>197.68823242188</ele>
        <time>2012-05-15T06:28:56Z</time>
      </trkpt>
      <trkpt lat="48.87711" lon="6.21164">
        <ele>199.13012695312</ele>
        <time>2012-05-15T06:29:04Z</time>
      </trkpt>
      <trkpt lat="48.87694" lon="6.21147">
        <ele>200.572265625</ele>
        <time>2012-05-15T06:29:09Z</time>
      </trkpt>
      <trkpt lat="48.87663" lon="6.21115">
        <ele>203.45617675781</ele>
        <time>2012-05-15T06:29:18Z</time>
      </trkpt>
      <trkpt lat="48.87626" lon="6.21078">
        <ele>202.97546386719</ele>
        <time>2012-05-15T06:29:27Z</time>
      </trkpt>
      <trkpt lat="48.87586" lon="6.21037">
        <ele>202.49487304688</ele>
        <time>2012-05-15T06:29:35Z</time>
      </trkpt>
      <trkpt lat="48.87542" lon="6.20995">
        <ele>202.97546386719</ele>
        <time>2012-05-15T06:29:43Z</time>
      </trkpt>
      <trkpt lat="48.8751" lon="6.20961">
        <ele>200.572265625</ele>
        <time>2012-05-15T06:29:49Z</time>
      </trkpt>
      <trkpt lat="48.8745" lon="6.20901">
        <ele>201.05285644531</ele>
        <time>2012-05-15T06:30:00Z</time>
      </trkpt>
      <trkpt lat="48.87389" lon="6.20839">
        <ele>200.572265625</ele>
        <time>2012-05-15T06:30:11Z</time>
      </trkpt>
      <trkpt lat="48.87361" lon="6.20811">
        <ele>198.64953613281</ele>
        <time>2012-05-15T06:30:16Z</time>
      </trkpt>
      <trkpt lat="48.87294" lon="6.20739">
        <ele>199.61083984375</ele>
        <time>2012-05-15T06:30:28Z</time>
      </trkpt>
      <trkpt lat="48.87252" lon="6.20676">
        <ele>199.61083984375</ele>
        <time>2012-05-15T06:30:37Z</time>
      </trkpt>
      <trkpt lat="48.8721" lon="6.20606">
        <ele>198.64953613281</ele>
        <time>2012-05-15T06:30:47Z</time>
      </trkpt>
      <trkpt lat="48.87174" lon="6.20544">
        <ele>200.09167480469</ele>
        <time>2012-05-15T06:30:56Z</time>
      </trkpt>
      <trkpt lat="48.8714" lon="6.20488">
        <ele>202.01428222656</ele>
        <time>2012-05-15T06:31:05Z</time>
      </trkpt>
      <trkpt lat="48.87099" lon="6.2042">
        <ele>202.97546386719</ele>
        <time>2012-05-15T06:31:16Z</time>
      </trkpt>
      <trkpt lat="48.87059" lon="6.20354">
        <ele>202.01428222656</ele>
        <time>2012-05-15T06:31:26Z</time>
      </trkpt>
      <trkpt lat="48.87023" lon="6.20294">
        <ele>201.53356933594</ele>
        <time>2012-05-15T06:31:34Z</time>
      </trkpt>
      <trkpt lat="48.86997" lon="6.20251">
        <ele>200.09167480469</ele>
        <time>2012-05-15T06:31:39Z</time>
      </trkpt>
      <trkpt lat="48.86963" lon="6.202">
        <ele>200.572265625</ele>
        <time>2012-05-15T06:31:46Z</time>
      </trkpt>
      <trkpt lat="48.86924" lon="6.20161">
        <ele>200.09167480469</ele>
        <time>2012-05-15T06:31:53Z</time>
      </trkpt>
      <trkpt lat="48.86882" lon="6.2012">
        <ele>202.01428222656</ele>
        <time>2012-05-15T06:32:01Z</time>
      </trkpt>
      <trkpt lat="48.86838" lon="6.20078">
        <ele>202.49487304688</ele>
        <time>2012-05-15T06:32:10Z</time>
      </trkpt>
      <trkpt lat="48.86793" lon="6.20033">
        <ele>204.41748046875</ele>
        <time>2012-05-15T06:32:20Z</time>
      </trkpt>
      <trkpt lat="48.86744" lon="6.19985">
        <ele>205.37878417969</ele>
        <time>2012-05-15T06:32:31Z</time>
      </trkpt>
      <trkpt lat="48.867" lon="6.19942">
        <ele>206.82067871094</ele>
        <time>2012-05-15T06:32:41Z</time>
      </trkpt>
      <trkpt lat="48.86668" lon="6.1991">
        <ele>207.78210449219</ele>
        <time>2012-05-15T06:32:49Z</time>
      </trkpt>
      <trkpt lat="48.86624" lon="6.19866">
        <ele>209.22412109375</ele>
        <time>2012-05-15T06:33:00Z</time>
      </trkpt>
      <trkpt lat="48.86588" lon="6.19832">
        <ele>212.10803222656</ele>
        <time>2012-05-15T06:33:09Z</time>
      </trkpt>
      <trkpt lat="48.8655" lon="6.19793">
        <ele>213.0693359375</ele>
        <time>2012-05-15T06:33:19Z</time>
      </trkpt>
      <trkpt lat="48.86514" lon="6.19758">
        <ele>214.99194335938</ele>
        <time>2012-05-15T06:33:28Z</time>
      </trkpt>
      <trkpt lat="48.8648" lon="6.19725">
        <ele>214.99194335938</ele>
        <time>2012-05-15T06:33:35Z</time>
      </trkpt>
      <trkpt lat="48.86433" lon="6.19677">
        <ele>213.55004882812</ele>
        <time>2012-05-15T06:33:44Z</time>
      </trkpt>
      <trkpt lat="48.86376" lon="6.19621">
        <ele>212.10803222656</ele>
        <time>2012-05-15T06:33:54Z</time>
      </trkpt>
      <trkpt lat="48.86327" lon="6.19573">
        <ele>212.10803222656</ele>
        <time>2012-05-15T06:34:02Z</time>
      </trkpt>
      <trkpt lat="48.86272" lon="6.19519">
        <ele>210.666015625</ele>
        <time>2012-05-15T06:34:11Z</time>
      </trkpt>
      <trkpt lat="48.86208" lon="6.19457">
        <ele>209.70483398438</ele>
        <time>2012-05-15T06:34:22Z</time>
      </trkpt>
      <trkpt lat="48.86143" lon="6.19393">
        <ele>211.14672851562</ele>
        <time>2012-05-15T06:34:34Z</time>
      </trkpt>
      <trkpt lat="48.86089" lon="6.19341">
        <ele>212.10803222656</ele>
        <time>2012-05-15T06:34:45Z</time>
      </trkpt>
      <trkpt lat="48.86036" lon="6.19288">
        <ele>214.51123046875</ele>
        <time>2012-05-15T06:34:57Z</time>
      </trkpt>
      <trkpt lat="48.85991" lon="6.19243">
        <ele>216.91467285156</ele>
        <time>2012-05-15T06:35:08Z</time>
      </trkpt>
      <trkpt lat="48.85949" lon="6.19202">
        <ele>216.91467285156</ele>
        <time>2012-05-15T06:35:18Z</time>
      </trkpt>
      <trkpt lat="48.85903" lon="6.19157">
        <ele>218.83728027344</ele>
        <time>2012-05-15T06:35:29Z</time>
      </trkpt>
      <trkpt lat="48.85855" lon="6.19109">
        <ele>220.27917480469</ele>
        <time>2012-05-15T06:35:41Z</time>
      </trkpt>
      <trkpt lat="48.8581" lon="6.19066">
        <ele>222.20178222656</ele>
        <time>2012-05-15T06:35:52Z</time>
      </trkpt>
      <trkpt lat="48.85764" lon="6.19019">
        <ele>224.12451171875</ele>
        <time>2012-05-15T06:36:03Z</time>
      </trkpt>
      <trkpt lat="48.85721" lon="6.1898">
        <ele>225.56652832031</ele>
        <time>2012-05-15T06:36:13Z</time>
      </trkpt>
      <trkpt lat="48.85678" lon="6.18952">
        <ele>226.04711914062</ele>
        <time>2012-05-15T06:36:22Z</time>
      </trkpt>
      <trkpt lat="48.85627" lon="6.18932">
        <ele>227.48913574219</ele>
        <time>2012-05-15T06:36:32Z</time>
      </trkpt>
      <trkpt lat="48.85574" lon="6.18922">
        <ele>227.9697265625</ele>
        <time>2012-05-15T06:36:42Z</time>
      </trkpt>
      <trkpt lat="48.85519" lon="6.18914">
        <ele>228.93115234375</ele>
        <time>2012-05-15T06:36:52Z</time>
      </trkpt>
      <trkpt lat="48.85464" lon="6.18905">
        <ele>229.41174316406</ele>
        <time>2012-05-15T06:37:02Z</time>
      </trkpt>
      <trkpt lat="48.85415" lon="6.18892">
        <ele>229.89233398438</ele>
        <time>2012-05-15T06:37:11Z</time>
      </trkpt>
      <trkpt lat="48.85363" lon="6.18874">
        <ele>230.373046875</ele>
        <time>2012-05-15T06:37:20Z</time>
      </trkpt>
      <trkpt lat="48.85296" lon="6.18849">
        <ele>230.85375976562</ele>
        <time>2012-05-15T06:37:32Z</time>
      </trkpt>
      <trkpt lat="48.8524" lon="6.18829">
        <ele>231.33435058594</ele>
        <time>2012-05-15T06:37:42Z</time>
      </trkpt>
      <trkpt lat="48.85186" lon="6.18809">
        <ele>231.81494140625</ele>
        <time>2012-05-15T06:37:52Z</time>
      </trkpt>
      <trkpt lat="48.85134" lon="6.18786">
        <ele>232.29577636719</ele>
        <time>2012-05-15T06:38:02Z</time>
      </trkpt>
      <trkpt lat="48.85093" lon="6.18756">
        <ele>232.77648925781</ele>
        <time>2012-05-15T06:38:10Z</time>
      </trkpt>
      <trkpt lat="48.85042" lon="6.18713">
        <ele>233.73767089844</ele>
        <time>2012-05-15T06:38:21Z</time>
      </trkpt>
      <trkpt lat="48.85006" lon="6.18681">
        <ele>233.73767089844</ele>
        <time>2012-05-15T06:38:29Z</time>
      </trkpt>
      <trkpt lat="48.84992" lon="6.1867">
        <ele>235.1796875</ele>
        <time>2012-05-15T06:38:32Z</time>
      </trkpt>
      <trkpt lat="48.84953" lon="6.18635">
        <ele>237.10229492188</ele>
        <time>2012-05-15T06:38:41Z</time>
      </trkpt>
      <trkpt lat="48.84901" lon="6.18592">
        <ele>237.58288574219</ele>
        <time>2012-05-15T06:38:52Z</time>
      </trkpt>
      <trkpt lat="48.84864" lon="6.18559">
        <ele>238.54431152344</ele>
        <time>2012-05-15T06:39:01Z</time>
      </trkpt>
      <trkpt lat="48.8483" lon="6.18532">
        <ele>240.46704101562</ele>
        <time>2012-05-15T06:39:10Z</time>
      </trkpt>
      <trkpt lat="48.84802" lon="6.18508">
        <ele>241.42822265625</ele>
        <time>2012-05-15T06:39:18Z</time>
      </trkpt>
      <trkpt lat="48.84764" lon="6.18471">
        <ele>244.31225585938</ele>
        <time>2012-05-15T06:39:29Z</time>
      </trkpt>
      <trkpt lat="48.84734" lon="6.18437">
        <ele>245.75415039062</ele>
        <time>2012-05-15T06:39:38Z</time>
      </trkpt>
      <trkpt lat="48.84703" lon="6.184">
        <ele>247.6767578125</ele>
        <time>2012-05-15T06:39:48Z</time>
      </trkpt>
      <trkpt lat="48.84676" lon="6.18368">
        <ele>250.08020019531</ele>
        <time>2012-05-15T06:39:57Z</time>
      </trkpt>
      <trkpt lat="48.84652" lon="6.18332">
        <ele>252.00280761719</ele>
        <time>2012-05-15T06:40:06Z</time>
      </trkpt>
      <trkpt lat="48.84636" lon="6.18281">
        <ele>253.92541503906</ele>
        <time>2012-05-15T06:40:15Z</time>
      </trkpt>
      <trkpt lat="48.84623" lon="6.18223">
        <ele>253.92541503906</ele>
        <time>2012-05-15T06:40:24Z</time>
      </trkpt>
      <trkpt lat="48.8461" lon="6.18163">
        <ele>254.40600585938</ele>
        <time>2012-05-15T06:40:33Z</time>
      </trkpt>
      <trkpt lat="48.84596" lon="6.18098">
        <ele>254.88659667969</ele>
        <time>2012-05-15T06:40:43Z</time>
      </trkpt>
      <trkpt lat="48.84581" lon="6.18012">
        <ele>255.84802246094</ele>
        <time>2012-05-15T06:40:56Z</time>
      </trkpt>
      <trkpt lat="48.84573" lon="6.17941">
        <ele>257.77075195312</ele>
        <time>2012-05-15T06:41:06Z</time>
      </trkpt>
      <trkpt lat="48.84564" lon="6.17867">
        <ele>257.77075195312</ele>
        <time>2012-05-15T06:41:17Z</time>
      </trkpt>
      <trkpt lat="48.84557" lon="6.1781">
        <ele>260.65454101562</ele>
        <time>2012-05-15T06:41:26Z</time>
      </trkpt>
      <trkpt lat="48.84554" lon="6.1778">
        <ele>261.13525390625</ele>
        <time>2012-05-15T06:41:31Z</time>
      </trkpt>
      <trkpt lat="48.84546" lon="6.17719">
        <ele>261.13525390625</ele>
        <time>2012-05-15T06:41:41Z</time>
      </trkpt>
      <trkpt lat="48.84538" lon="6.17656">
        <ele>264.49987792969</ele>
        <time>2012-05-15T06:41:51Z</time>
      </trkpt>
      <trkpt lat="48.84527" lon="6.17581">
        <ele>264.01928710938</ele>
        <time>2012-05-15T06:42:02Z</time>
      </trkpt>
      <trkpt lat="48.84512" lon="6.17516">
        <ele>264.01928710938</ele>
        <time>2012-05-15T06:42:11Z</time>
      </trkpt>
      <trkpt lat="48.84489" lon="6.17456">
        <ele>263.53857421875</ele>
        <time>2012-05-15T06:42:19Z</time>
      </trkpt>
      <trkpt lat="48.8446" lon="6.17389">
        <ele>263.05786132812</ele>
        <time>2012-05-15T06:42:28Z</time>
      </trkpt>
      <trkpt lat="48.84425" lon="6.1731">
        <ele>263.05786132812</ele>
        <time>2012-05-15T06:42:38Z</time>
      </trkpt>
      <trkpt lat="48.8441" lon="6.17277">
        <ele>261.61596679688</ele>
        <time>2012-05-15T06:42:42Z</time>
      </trkpt>
      <trkpt lat="48.84384" lon="6.17218">
        <ele>260.65454101562</ele>
        <time>2012-05-15T06:42:49Z</time>
      </trkpt>
      <trkpt lat="48.84339" lon="6.17117">
        <ele>259.21264648438</ele>
        <time>2012-05-15T06:43:01Z</time>
      </trkpt>
      <trkpt lat="48.84301" lon="6.17034">
        <ele>257.2900390625</ele>
        <time>2012-05-15T06:43:10Z</time>
      </trkpt>
      <trkpt lat="48.8427" lon="6.16962">
        <ele>254.88659667969</ele>
        <time>2012-05-15T06:43:17Z</time>
      </trkpt>
      <trkpt lat="48.8423" lon="6.16877">
        <ele>252.00280761719</ele>
        <time>2012-05-15T06:43:25Z</time>
      </trkpt>
      <trkpt lat="48.84197" lon="6.16815">
        <ele>248.63818359375</ele>
        <time>2012-05-15T06:43:31Z</time>
      </trkpt>
      <trkpt lat="48.84185" lon="6.16794">
        <ele>247.6767578125</ele>
        <time>2012-05-15T06:43:33Z</time>
      </trkpt>
      <trkpt lat="48.84174" lon="6.16774">
        <ele>246.71545410156</ele>
        <time>2012-05-15T06:43:35Z</time>
      </trkpt>
      <trkpt lat="48.84143" lon="6.16721">
        <ele>243.83154296875</ele>
        <time>2012-05-15T06:43:40Z</time>
      </trkpt>
      <trkpt lat="48.84109" lon="6.16664">
        <ele>239.98620605469</ele>
        <time>2012-05-15T06:43:45Z</time>
      </trkpt>
      <trkpt lat="48.84103" lon="6.16652">
        <ele>239.98620605469</ele>
        <time>2012-05-15T06:43:46Z</time>
      </trkpt>
      <trkpt lat="48.84081" lon="6.16616">
        <ele>237.10229492188</ele>
        <time>2012-05-15T06:43:49Z</time>
      </trkpt>
      <trkpt lat="48.84067" lon="6.16591">
        <ele>236.14099121094</ele>
        <time>2012-05-15T06:43:51Z</time>
      </trkpt>
      <trkpt lat="48.84037" lon="6.16539">
        <ele>232.77648925781</ele>
        <time>2012-05-15T06:43:55Z</time>
      </trkpt>
      <trkpt lat="48.84006" lon="6.16486">
        <ele>229.89233398438</ele>
        <time>2012-05-15T06:43:59Z</time>
      </trkpt>
      <trkpt lat="48.83982" lon="6.16446">
        <ele>227.00854492188</ele>
        <time>2012-05-15T06:44:02Z</time>
      </trkpt>
      <trkpt lat="48.83967" lon="6.16419">
        <ele>224.12451171875</ele>
        <time>2012-05-15T06:44:04Z</time>
      </trkpt>
      <trkpt lat="48.83959" lon="6.16406">
        <ele>224.12451171875</ele>
        <time>2012-05-15T06:44:05Z</time>
      </trkpt>
      <trkpt lat="48.83916" lon="6.16332">
        <ele>222.20178222656</ele>
        <time>2012-05-15T06:44:11Z</time>
      </trkpt>
      <trkpt lat="48.83886" lon="6.1628">
        <ele>222.20178222656</ele>
        <time>2012-05-15T06:44:16Z</time>
      </trkpt>
      <trkpt lat="48.83844" lon="6.16206">
        <ele>222.68249511719</ele>
        <time>2012-05-15T06:44:24Z</time>
      </trkpt>
      <trkpt lat="48.83818" lon="6.16161">
        <ele>225.0859375</ele>
        <time>2012-05-15T06:44:30Z</time>
      </trkpt>
      <trkpt lat="48.83811" lon="6.16149">
        <ele>226.04711914062</ele>
        <time>2012-05-15T06:44:32Z</time>
      </trkpt>
      <trkpt lat="48.83789" lon="6.16114">
        <ele>227.48913574219</ele>
        <time>2012-05-15T06:44:39Z</time>
      </trkpt>
      <trkpt lat="48.83773" lon="6.16093">
        <ele>229.41174316406</ele>
        <time>2012-05-15T06:44:44Z</time>
      </trkpt>
      <trkpt lat="48.8377" lon="6.16089">
        <ele>229.41174316406</ele>
        <time>2012-05-15T06:44:45Z</time>
      </trkpt>
      <trkpt lat="48.83764" lon="6.16082">
        <ele>231.33435058594</ele>
        <time>2012-05-15T06:44:47Z</time>
      </trkpt>
      <trkpt lat="48.83738" lon="6.16057">
        <ele>232.29577636719</ele>
        <time>2012-05-15T06:44:55Z</time>
      </trkpt>
      <trkpt lat="48.83714" lon="6.16034">
        <ele>234.69909667969</ele>
        <time>2012-05-15T06:45:03Z</time>
      </trkpt>
      <trkpt lat="48.83684" lon="6.16006">
        <ele>237.10229492188</ele>
        <time>2012-05-15T06:45:14Z</time>
      </trkpt>
      <trkpt lat="48.83681" lon="6.16004">
        <ele>236.62170410156</ele>
        <time>2012-05-15T06:45:15Z</time>
      </trkpt>
      <trkpt lat="48.8366" lon="6.15998">
        <ele>238.06359863281</ele>
        <time>2012-05-15T06:45:22Z</time>
      </trkpt>
      <trkpt lat="48.83633" lon="6.16004">
        <ele>239.50549316406</ele>
        <time>2012-05-15T06:45:31Z</time>
      </trkpt>
      <trkpt lat="48.8361" lon="6.16012">
        <ele>241.42822265625</ele>
        <time>2012-05-15T06:45:39Z</time>
      </trkpt>
      <trkpt lat="48.83585" lon="6.16021">
        <ele>243.35083007812</ele>
        <time>2012-05-15T06:45:48Z</time>
      </trkpt>
      <trkpt lat="48.83559" lon="6.16029">
        <ele>244.79284667969</ele>
        <time>2012-05-15T06:45:57Z</time>
      </trkpt>
      <trkpt lat="48.83535" lon="6.16037">
        <ele>246.71545410156</ele>
        <time>2012-05-15T06:46:06Z</time>
      </trkpt>
      <trkpt lat="48.83503" lon="6.16049">
        <ele>249.59948730469</ele>
        <time>2012-05-15T06:46:18Z</time>
      </trkpt>
      <trkpt lat="48.8348" lon="6.16055">
        <ele>251.52209472656</ele>
        <time>2012-05-15T06:46:26Z</time>
      </trkpt>
      <trkpt lat="48.83456" lon="6.16063">
        <ele>252.4833984375</ele>
        <time>2012-05-15T06:46:35Z</time>
      </trkpt>
      <trkpt lat="48.83429" lon="6.16068">
        <ele>253.92541503906</ele>
        <time>2012-05-15T06:46:45Z</time>
      </trkpt>
      <trkpt lat="48.83408" lon="6.16064">
        <ele>255.36730957031</ele>
        <time>2012-05-15T06:46:53Z</time>
      </trkpt>
      <trkpt lat="48.83385" lon="6.16054">
        <ele>256.80932617188</ele>
        <time>2012-05-15T06:47:01Z</time>
      </trkpt>
      <trkpt lat="48.83358" lon="6.16033">
        <ele>259.21264648438</ele>
        <time>2012-05-15T06:47:11Z</time>
      </trkpt>
      <trkpt lat="48.83327" lon="6.16008">
        <ele>262.09655761719</ele>
        <time>2012-05-15T06:47:22Z</time>
      </trkpt>
      <trkpt lat="48.83307" lon="6.15989">
        <ele>264.01928710938</ele>
        <time>2012-05-15T06:47:30Z</time>
      </trkpt>
      <trkpt lat="48.83285" lon="6.15969">
        <ele>265.94189453125</ele>
        <time>2012-05-15T06:47:38Z</time>
      </trkpt>
      <trkpt lat="48.83261" lon="6.15952">
        <ele>266.42248535156</ele>
        <time>2012-05-15T06:47:46Z</time>
      </trkpt>
      <trkpt lat="48.83241" lon="6.15952">
        <ele>266.90319824219</ele>
        <time>2012-05-15T06:47:52Z</time>
      </trkpt>
      <trkpt lat="48.8322" lon="6.15968">
        <ele>267.86450195312</ele>
        <time>2012-05-15T06:47:59Z</time>
      </trkpt>
      <trkpt lat="48.83204" lon="6.15998">
        <ele>270.26770019531</ele>
        <time>2012-05-15T06:48:07Z</time>
      </trkpt>
      <trkpt lat="48.83188" lon="6.16046">
        <ele>270.74841308594</ele>
        <time>2012-05-15T06:48:18Z</time>
      </trkpt>
      <trkpt lat="48.83172" lon="6.16082">
        <ele>272.67114257812</ele>
        <time>2012-05-15T06:48:27Z</time>
      </trkpt>
      <trkpt lat="48.83154" lon="6.16096">
        <ele>274.11303710938</ele>
        <time>2012-05-15T06:48:33Z</time>
      </trkpt>
      <trkpt lat="48.83134" lon="6.16095">
        <ele>275.55505371094</ele>
        <time>2012-05-15T06:48:39Z</time>
      </trkpt>
      <trkpt lat="48.83106" lon="6.16081">
        <ele>276.51635742188</ele>
        <time>2012-05-15T06:48:48Z</time>
      </trkpt>
      <trkpt lat="48.83078" lon="6.16063">
        <ele>278.91967773438</ele>
        <time>2012-05-15T06:48:57Z</time>
      </trkpt>
      <trkpt lat="48.83053" lon="6.16046">
        <ele>281.32299804688</ele>
        <time>2012-05-15T06:49:06Z</time>
      </trkpt>
      <trkpt lat="48.8303" lon="6.16027">
        <ele>282.76501464844</ele>
        <time>2012-05-15T06:49:15Z</time>
      </trkpt>
      <trkpt lat="48.83002" lon="6.16004">
        <ele>285.16821289062</ele>
        <time>2012-05-15T06:49:26Z</time>
      </trkpt>
      <trkpt lat="48.82973" lon="6.15981">
        <ele>288.05224609375</ele>
        <time>2012-05-15T06:49:38Z</time>
      </trkpt>
      <trkpt lat="48.82971" lon="6.15978">
        <ele>288.05224609375</ele>
        <time>2012-05-15T06:49:39Z</time>
      </trkpt>
      <trkpt lat="48.82949" lon="6.15959">
        <ele>289.494140625</ele>
        <time>2012-05-15T06:49:48Z</time>
      </trkpt>
      <trkpt lat="48.82925" lon="6.15941">
        <ele>291.8974609375</ele>
        <time>2012-05-15T06:49:57Z</time>
      </trkpt>
      <trkpt lat="48.82896" lon="6.15917">
        <ele>292.37817382812</ele>
        <time>2012-05-15T06:50:08Z</time>
      </trkpt>
      <trkpt lat="48.82874" lon="6.15899">
        <ele>294.30078125</ele>
        <time>2012-05-15T06:50:17Z</time>
      </trkpt>
      <trkpt lat="48.82846" lon="6.15886">
        <ele>296.7041015625</ele>
        <time>2012-05-15T06:50:28Z</time>
      </trkpt>
      <trkpt lat="48.82819" lon="6.15887">
        <ele>299.58801269531</ele>
        <time>2012-05-15T06:50:38Z</time>
      </trkpt>
      <trkpt lat="48.82802" lon="6.15891">
        <ele>300.54931640625</ele>
        <time>2012-05-15T06:50:45Z</time>
      </trkpt>
      <trkpt lat="48.82783" lon="6.15897">
        <ele>302.47192382812</ele>
        <time>2012-05-15T06:50:52Z</time>
      </trkpt>
      <trkpt lat="48.82753" lon="6.15916">
        <ele>304.39465332031</ele>
        <time>2012-05-15T06:51:04Z</time>
      </trkpt>
      <trkpt lat="48.82736" lon="6.15935">
        <ele>304.87524414062</ele>
        <time>2012-05-15T06:51:12Z</time>
      </trkpt>
      <trkpt lat="48.82721" lon="6.15956">
        <ele>306.7978515625</ele>
        <time>2012-05-15T06:51:19Z</time>
      </trkpt>
      <trkpt lat="48.82705" lon="6.15993">
        <ele>308.23986816406</ele>
        <time>2012-05-15T06:51:29Z</time>
      </trkpt>
      <trkpt lat="48.82693" lon="6.16024">
        <ele>309.68188476562</ele>
        <time>2012-05-15T06:51:38Z</time>
      </trkpt>
      <trkpt lat="48.82684" lon="6.16051">
        <ele>311.6044921875</ele>
        <time>2012-05-15T06:51:46Z</time>
      </trkpt>
      <trkpt lat="48.82674" lon="6.16081">
        <ele>312.56579589844</ele>
        <time>2012-05-15T06:51:54Z</time>
      </trkpt>
      <trkpt lat="48.82662" lon="6.16115">
        <ele>314.96911621094</ele>
        <time>2012-05-15T06:52:03Z</time>
      </trkpt>
      <trkpt lat="48.82658" lon="6.16127">
        <ele>316.89172363281</ele>
        <time>2012-05-15T06:52:06Z</time>
      </trkpt>
      <trkpt lat="48.82642" lon="6.16168">
        <ele>318.33361816406</ele>
        <time>2012-05-15T06:52:17Z</time>
      </trkpt>
      <trkpt lat="48.82625" lon="6.16213">
        <ele>320.25634765625</ele>
        <time>2012-05-15T06:52:29Z</time>
      </trkpt>
      <trkpt lat="48.82613" lon="6.16244">
        <ele>322.17895507812</ele>
        <time>2012-05-15T06:52:38Z</time>
      </trkpt>
      <trkpt lat="48.82596" lon="6.16274">
        <ele>323.62097167969</ele>
        <time>2012-05-15T06:52:47Z</time>
      </trkpt>
      <trkpt lat="48.82577" lon="6.16302">
        <ele>325.06298828125</ele>
        <time>2012-05-15T06:52:57Z</time>
      </trkpt>
      <trkpt lat="48.82563" lon="6.16323">
        <ele>327.46618652344</ele>
        <time>2012-05-15T06:53:05Z</time>
      </trkpt>
      <trkpt lat="48.82549" lon="6.16342">
        <ele>328.42761230469</ele>
        <time>2012-05-15T06:53:12Z</time>
      </trkpt>
      <trkpt lat="48.82533" lon="6.16364">
        <ele>329.86950683594</ele>
        <time>2012-05-15T06:53:20Z</time>
      </trkpt>
      <trkpt lat="48.82514" lon="6.16389">
        <ele>332.27282714844</ele>
        <time>2012-05-15T06:53:28Z</time>
      </trkpt>
      <trkpt lat="48.82502" lon="6.16407">
        <ele>332.75354003906</ele>
        <time>2012-05-15T06:53:34Z</time>
      </trkpt>
      <trkpt lat="48.82486" lon="6.16428">
        <ele>334.67614746094</ele>
        <time>2012-05-15T06:53:41Z</time>
      </trkpt>
      <trkpt lat="48.82472" lon="6.16452">
        <ele>334.67614746094</ele>
        <time>2012-05-15T06:53:48Z</time>
      </trkpt>
      <trkpt lat="48.8247" lon="6.16458">
        <ele>335.63732910156</ele>
        <time>2012-05-15T06:53:50Z</time>
      </trkpt>
      <trkpt lat="48.82456" lon="6.16486">
        <ele>337.56005859375</ele>
        <time>2012-05-15T06:53:58Z</time>
      </trkpt>
      <trkpt lat="48.82445" lon="6.1651">
        <ele>337.56005859375</ele>
        <time>2012-05-15T06:54:06Z</time>
      </trkpt>
      <trkpt lat="48.82441" lon="6.16523">
        <ele>338.521484375</ele>
        <time>2012-05-15T06:54:11Z</time>
      </trkpt>
      <trkpt lat="48.82432" lon="6.16541">
        <ele>339.96337890625</ele>
        <time>2012-05-15T06:54:17Z</time>
      </trkpt>
      <trkpt lat="48.82422" lon="6.16562">
        <ele>340.92468261719</ele>
        <time>2012-05-15T06:54:23Z</time>
      </trkpt>
      <trkpt lat="48.8241" lon="6.16582">
        <ele>342.84729003906</ele>
        <time>2012-05-15T06:54:29Z</time>
      </trkpt>
      <trkpt lat="48.82387" lon="6.16606">
        <ele>345.25061035156</ele>
        <time>2012-05-15T06:54:36Z</time>
      </trkpt>
      <trkpt lat="48.82372" lon="6.16619">
        <ele>347.17321777344</ele>
        <time>2012-05-15T06:54:41Z</time>
      </trkpt>
      <trkpt lat="48.82355" lon="6.16643">
        <ele>348.615234375</ele>
        <time>2012-05-15T06:54:49Z</time>
      </trkpt>
      <trkpt lat="48.82343" lon="6.16666">
        <ele>349.57653808594</ele>
        <time>2012-05-15T06:54:56Z</time>
      </trkpt>
      <trkpt lat="48.82328" lon="6.1669">
        <ele>351.01843261719</ele>
        <time>2012-05-15T06:55:04Z</time>
      </trkpt>
      <trkpt lat="48.82316" lon="6.16705">
        <ele>351.97985839844</ele>
        <time>2012-05-15T06:55:10Z</time>
      </trkpt>
      <trkpt lat="48.82298" lon="6.16731">
        <ele>353.421875</ele>
        <time>2012-05-15T06:55:19Z</time>
      </trkpt>
      <trkpt lat="48.8228" lon="6.1676">
        <ele>354.86376953125</ele>
        <time>2012-05-15T06:55:29Z</time>
      </trkpt>
      <trkpt lat="48.82268" lon="6.16787">
        <ele>356.78637695312</ele>
        <time>2012-05-15T06:55:38Z</time>
      </trkpt>
      <trkpt lat="48.82257" lon="6.16812">
        <ele>358.22839355469</ele>
        <time>2012-05-15T06:55:46Z</time>
      </trkpt>
      <trkpt lat="48.82244" lon="6.16842">
        <ele>359.18969726562</ele>
        <time>2012-05-15T06:55:55Z</time>
      </trkpt>
      <trkpt lat="48.82234" lon="6.16872">
        <ele>360.63171386719</ele>
        <time>2012-05-15T06:56:03Z</time>
      </trkpt>
      <trkpt lat="48.82224" lon="6.16899">
        <ele>362.07373046875</ele>
        <time>2012-05-15T06:56:10Z</time>
      </trkpt>
      <trkpt lat="48.82216" lon="6.16929">
        <ele>363.03503417969</ele>
        <time>2012-05-15T06:56:17Z</time>
      </trkpt>
      <trkpt lat="48.82209" lon="6.1696">
        <ele>364.95764160156</ele>
        <time>2012-05-15T06:56:24Z</time>
      </trkpt>
      <trkpt lat="48.82207" lon="6.16992">
        <ele>365.9189453125</ele>
        <time>2012-05-15T06:56:32Z</time>
      </trkpt>
      <trkpt lat="48.82204" lon="6.1702">
        <ele>367.36096191406</ele>
        <time>2012-05-15T06:56:39Z</time>
      </trkpt>
      <trkpt lat="48.82206" lon="6.17039">
        <ele>368.80297851562</ele>
        <time>2012-05-15T06:56:44Z</time>
      </trkpt>
      <trkpt lat="48.82202" lon="6.17076">
        <ele>369.76428222656</ele>
        <time>2012-05-15T06:56:52Z</time>
      </trkpt>
      <trkpt lat="48.822" lon="6.17102">
        <ele>371.20629882812</ele>
        <time>2012-05-15T06:56:58Z</time>
      </trkpt>
      <trkpt lat="48.82196" lon="6.1713">
        <ele>372.16748046875</ele>
        <time>2012-05-15T06:57:04Z</time>
      </trkpt>
      <trkpt lat="48.82194" lon="6.17161">
        <ele>374.09008789062</ele>
        <time>2012-05-15T06:57:11Z</time>
      </trkpt>
      <trkpt lat="48.8219" lon="6.17197">
        <ele>375.53210449219</ele>
        <time>2012-05-15T06:57:19Z</time>
      </trkpt>
      <trkpt lat="48.82191" lon="6.1723">
        <ele>376.49353027344</ele>
        <time>2012-05-15T06:57:27Z</time>
      </trkpt>
      <trkpt lat="48.82194" lon="6.17262">
        <ele>377.45483398438</ele>
        <time>2012-05-15T06:57:34Z</time>
      </trkpt>
      <trkpt lat="48.82193" lon="6.17282">
        <ele>378.89685058594</ele>
        <time>2012-05-15T06:57:39Z</time>
      </trkpt>
      <trkpt lat="48.82195" lon="6.17314">
        <ele>380.33874511719</ele>
        <time>2012-05-15T06:57:46Z</time>
      </trkpt>
      <trkpt lat="48.82196" lon="6.17347">
        <ele>381.30004882812</ele>
        <time>2012-05-15T06:57:54Z</time>
      </trkpt>
      <trkpt lat="48.82195" lon="6.17377">
        <ele>382.74206542969</ele>
        <time>2012-05-15T06:58:00Z</time>
      </trkpt>
      <trkpt lat="48.82196" lon="6.17414">
        <ele>384.18408203125</ele>
        <time>2012-05-15T06:58:08Z</time>
      </trkpt>
      <trkpt lat="48.82198" lon="6.1745">
        <ele>385.6259765625</ele>
        <time>2012-05-15T06:58:17Z</time>
      </trkpt>
      <trkpt lat="48.82199" lon="6.17484">
        <ele>387.54858398438</ele>
        <time>2012-05-15T06:58:25Z</time>
      </trkpt>
      <trkpt lat="48.822" lon="6.17532">
        <ele>388.99060058594</ele>
        <time>2012-05-15T06:58:36Z</time>
      </trkpt>
      <trkpt lat="48.82195" lon="6.17572">
        <ele>390.91320800781</ele>
        <time>2012-05-15T06:58:45Z</time>
      </trkpt>
      <trkpt lat="48.82186" lon="6.17594">
        <ele>391.39379882812</ele>
        <time>2012-05-15T06:58:51Z</time>
      </trkpt>
      <trkpt lat="48.8217" lon="6.17608">
        <ele>392.8359375</ele>
        <time>2012-05-15T06:58:57Z</time>
      </trkpt>
      <trkpt lat="48.82148" lon="6.17612">
        <ele>394.75854492188</ele>
        <time>2012-05-15T06:59:04Z</time>
      </trkpt>
      <trkpt lat="48.82125" lon="6.17606">
        <ele>396.20056152344</ele>
        <time>2012-05-15T06:59:12Z</time>
      </trkpt>
      <trkpt lat="48.82099" lon="6.17599">
        <ele>397.64245605469</ele>
        <time>2012-05-15T06:59:20Z</time>
      </trkpt>
      <trkpt lat="48.82067" lon="6.17589">
        <ele>399.08435058594</ele>
        <time>2012-05-15T06:59:29Z</time>
      </trkpt>
      <trkpt lat="48.82035" lon="6.17579">
        <ele>400.52648925781</ele>
        <time>2012-05-15T06:59:38Z</time>
      </trkpt>
      <trkpt lat="48.82014" lon="6.17572">
        <ele>400.52648925781</ele>
        <time>2012-05-15T06:59:44Z</time>
      </trkpt>
      <trkpt lat="48.81991" lon="6.17564">
        <ele>401.96850585938</ele>
        <time>2012-05-15T06:59:50Z</time>
      </trkpt>
      <trkpt lat="48.81957" lon="6.17554">
        <ele>402.9296875</ele>
        <time>2012-05-15T06:59:58Z</time>
      </trkpt>
      <trkpt lat="48.81926" lon="6.17542">
        <ele>402.9296875</ele>
        <time>2012-05-15T07:00:05Z</time>
      </trkpt>
      <trkpt lat="48.81886" lon="6.17529">
        <ele>402.44909667969</ele>
        <time>2012-05-15T07:00:13Z</time>
      </trkpt>
      <trkpt lat="48.81853" lon="6.17518">
        <ele>401.48779296875</ele>
        <time>2012-05-15T07:00:19Z</time>
      </trkpt>
      <trkpt lat="48.81806" lon="6.17504">
        <ele>400.52648925781</ele>
        <time>2012-05-15T07:00:27Z</time>
      </trkpt>
      <trkpt lat="48.81762" lon="6.17489">
        <ele>399.56506347656</ele>
        <time>2012-05-15T07:00:34Z</time>
      </trkpt>
      <trkpt lat="48.81711" lon="6.17473">
        <ele>398.12316894531</ele>
        <time>2012-05-15T07:00:42Z</time>
      </trkpt>
      <trkpt lat="48.81705" lon="6.17471">
        <ele>397.64245605469</ele>
        <time>2012-05-15T07:00:43Z</time>
      </trkpt>
      <trkpt lat="48.81656" lon="6.17453">
        <ele>397.16174316406</ele>
        <time>2012-05-15T07:00:50Z</time>
      </trkpt>
      <trkpt lat="48.81603" lon="6.17435">
        <ele>394.27795410156</ele>
        <time>2012-05-15T07:00:57Z</time>
      </trkpt>
      <trkpt lat="48.81551" lon="6.17418">
        <ele>392.8359375</ele>
        <time>2012-05-15T07:01:03Z</time>
      </trkpt>
      <trkpt lat="48.81507" lon="6.17402">
        <ele>389.47119140625</ele>
        <time>2012-05-15T07:01:08Z</time>
      </trkpt>
      <trkpt lat="48.81488" lon="6.17396">
        <ele>388.51000976562</ele>
        <time>2012-05-15T07:01:10Z</time>
      </trkpt>
      <trkpt lat="48.81459" lon="6.17387">
        <ele>385.14538574219</ele>
        <time>2012-05-15T07:01:13Z</time>
      </trkpt>
      <trkpt lat="48.8145" lon="6.17383">
        <ele>386.10668945312</ele>
        <time>2012-05-15T07:01:14Z</time>
      </trkpt>
      <trkpt lat="48.81408" lon="6.1737">
        <ele>383.22265625</ele>
        <time>2012-05-15T07:01:18Z</time>
      </trkpt>
      <trkpt lat="48.81398" lon="6.17366">
        <ele>382.26135253906</ele>
        <time>2012-05-15T07:01:19Z</time>
      </trkpt>
      <trkpt lat="48.81363" lon="6.17327">
        <ele>377.45483398438</ele>
        <time>2012-05-15T07:01:23Z</time>
      </trkpt>
      <trkpt lat="48.81358" lon="6.17311">
        <ele>377.93542480469</ele>
        <time>2012-05-15T07:01:24Z</time>
      </trkpt>
      <trkpt lat="48.81356" lon="6.17257">
        <ele>376.01281738281</ele>
        <time>2012-05-15T07:01:27Z</time>
      </trkpt>
      <trkpt lat="48.81357" lon="6.17239">
        <ele>375.05151367188</ele>
        <time>2012-05-15T07:01:28Z</time>
      </trkpt>
      <trkpt lat="48.81369" lon="6.17149">
        <ele>372.16748046875</ele>
        <time>2012-05-15T07:01:33Z</time>
      </trkpt>
      <trkpt lat="48.81379" lon="6.17077">
        <ele>368.80297851562</ele>
        <time>2012-05-15T07:01:37Z</time>
      </trkpt>
      <trkpt lat="48.81384" lon="6.17007">
        <ele>366.39953613281</ele>
        <time>2012-05-15T07:01:41Z</time>
      </trkpt>
      <trkpt lat="48.81385" lon="6.16989">
        <ele>364.95764160156</ele>
        <time>2012-05-15T07:01:42Z</time>
      </trkpt>
      <trkpt lat="48.81385" lon="6.16952">
        <ele>362.07373046875</ele>
        <time>2012-05-15T07:01:44Z</time>
      </trkpt>
      <trkpt lat="48.81372" lon="6.16881">
        <ele>358.22839355469</ele>
        <time>2012-05-15T07:01:48Z</time>
      </trkpt>
      <trkpt lat="48.8134" lon="6.16782">
        <ele>354.38317871094</ele>
        <time>2012-05-15T07:01:54Z</time>
      </trkpt>
      <trkpt lat="48.81302" lon="6.16684">
        <ele>351.49914550781</ele>
        <time>2012-05-15T07:02:00Z</time>
      </trkpt>
      <trkpt lat="48.81275" lon="6.16619">
        <ele>347.65393066406</ele>
        <time>2012-05-15T07:02:04Z</time>
      </trkpt>
      <trkpt lat="48.81268" lon="6.16604">
        <ele>347.65393066406</ele>
        <time>2012-05-15T07:02:05Z</time>
      </trkpt>
      <trkpt lat="48.81253" lon="6.16571">
        <ele>345.73132324219</ele>
        <time>2012-05-15T07:02:07Z</time>
      </trkpt>
      <trkpt lat="48.81239" lon="6.16539">
        <ele>344.77001953125</ele>
        <time>2012-05-15T07:02:09Z</time>
      </trkpt>
      <trkpt lat="48.81217" lon="6.16491">
        <ele>343.32788085938</ele>
        <time>2012-05-15T07:02:12Z</time>
      </trkpt>
      <trkpt lat="48.81197" lon="6.16442">
        <ele>339.96337890625</ele>
        <time>2012-05-15T07:02:15Z</time>
      </trkpt>
      <trkpt lat="48.81178" lon="6.16394">
        <ele>336.59887695312</ele>
        <time>2012-05-15T07:02:18Z</time>
      </trkpt>
      <trkpt lat="48.81148" lon="6.16335">
        <ele>332.75354003906</ele>
        <time>2012-05-15T07:02:22Z</time>
      </trkpt>
      <trkpt lat="48.81124" lon="6.16291">
        <ele>330.83093261719</ele>
        <time>2012-05-15T07:02:25Z</time>
      </trkpt>
      <trkpt lat="48.81088" lon="6.1621">
        <ele>326.98559570312</ele>
        <time>2012-05-15T07:02:30Z</time>
      </trkpt>
      <trkpt lat="48.81059" lon="6.16143">
        <ele>324.1015625</ele>
        <time>2012-05-15T07:02:34Z</time>
      </trkpt>
      <trkpt lat="48.81027" lon="6.16081">
        <ele>320.25634765625</ele>
        <time>2012-05-15T07:02:38Z</time>
      </trkpt>
      <trkpt lat="48.80981" lon="6.16013">
        <ele>316.41101074219</ele>
        <time>2012-05-15T07:02:43Z</time>
      </trkpt>
      <trkpt lat="48.80972" lon="6.16001">
        <ele>316.41101074219</ele>
        <time>2012-05-15T07:02:44Z</time>
      </trkpt>
      <trkpt lat="48.80935" lon="6.15955">
        <ele>311.6044921875</ele>
        <time>2012-05-15T07:02:48Z</time>
      </trkpt>
      <trkpt lat="48.80926" lon="6.15944">
        <ele>311.6044921875</ele>
        <time>2012-05-15T07:02:49Z</time>
      </trkpt>
      <trkpt lat="48.80886" lon="6.15904">
        <ele>307.27856445312</ele>
        <time>2012-05-15T07:02:53Z</time>
      </trkpt>
      <trkpt lat="48.80877" lon="6.15895">
        <ele>307.75927734375</ele>
        <time>2012-05-15T07:02:54Z</time>
      </trkpt>
      <trkpt lat="48.80824" lon="6.15855">
        <ele>304.39465332031</ele>
        <time>2012-05-15T07:02:59Z</time>
      </trkpt>
      <trkpt lat="48.80814" lon="6.15848">
        <ele>304.39465332031</ele>
        <time>2012-05-15T07:03:00Z</time>
      </trkpt>
      <trkpt lat="48.8076" lon="6.15813">
        <ele>300.06872558594</ele>
        <time>2012-05-15T07:03:05Z</time>
      </trkpt>
      <trkpt lat="48.80693" lon="6.15778">
        <ele>296.22351074219</ele>
        <time>2012-05-15T07:03:11Z</time>
      </trkpt>
      <trkpt lat="48.80648" lon="6.1576">
        <ele>292.37817382812</ele>
        <time>2012-05-15T07:03:15Z</time>
      </trkpt>
      <trkpt lat="48.80592" lon="6.1575">
        <ele>288.05224609375</ele>
        <time>2012-05-15T07:03:20Z</time>
      </trkpt>
      <trkpt lat="48.80581" lon="6.1575">
        <ele>288.53295898438</ele>
        <time>2012-05-15T07:03:21Z</time>
      </trkpt>
      <trkpt lat="48.80537" lon="6.15753">
        <ele>284.68762207031</ele>
        <time>2012-05-15T07:03:25Z</time>
      </trkpt>
      <trkpt lat="48.80526" lon="6.15754">
        <ele>285.64880371094</ele>
        <time>2012-05-15T07:03:26Z</time>
      </trkpt>
      <trkpt lat="48.80482" lon="6.15756">
        <ele>281.80358886719</ele>
        <time>2012-05-15T07:03:30Z</time>
      </trkpt>
      <trkpt lat="48.8046" lon="6.15752">
        <ele>278.91967773438</ele>
        <time>2012-05-15T07:03:32Z</time>
      </trkpt>
      <trkpt lat="48.80437" lon="6.15745">
        <ele>277.47766113281</ele>
        <time>2012-05-15T07:03:34Z</time>
      </trkpt>
      <trkpt lat="48.80381" lon="6.15727">
        <ele>274.11303710938</ele>
        <time>2012-05-15T07:03:39Z</time>
      </trkpt>
      <trkpt lat="48.80307" lon="6.15705">
        <ele>270.74841308594</ele>
        <time>2012-05-15T07:03:46Z</time>
      </trkpt>
      <trkpt lat="48.80267" lon="6.15692">
        <ele>267.38391113281</ele>
        <time>2012-05-15T07:03:50Z</time>
      </trkpt>
      <trkpt lat="48.80257" lon="6.1569">
        <ele>266.90319824219</ele>
        <time>2012-05-15T07:03:51Z</time>
      </trkpt>
      <trkpt lat="48.80216" lon="6.15701">
        <ele>264.98059082031</ele>
        <time>2012-05-15T07:03:55Z</time>
      </trkpt>
      <trkpt lat="48.80185" lon="6.1572">
        <ele>263.05786132812</ele>
        <time>2012-05-15T07:03:58Z</time>
      </trkpt>
      <trkpt lat="48.80129" lon="6.15733">
        <ele>259.693359375</ele>
        <time>2012-05-15T07:04:03Z</time>
      </trkpt>
      <trkpt lat="48.80072" lon="6.15725">
        <ele>256.32873535156</ele>
        <time>2012-05-15T07:04:08Z</time>
      </trkpt>
      <trkpt lat="48.80039" lon="6.15711">
        <ele>253.92541503906</ele>
        <time>2012-05-15T07:04:11Z</time>
      </trkpt>
      <trkpt lat="48.79988" lon="6.15675">
        <ele>251.04138183594</ele>
        <time>2012-05-15T07:04:16Z</time>
      </trkpt>
      <trkpt lat="48.79953" lon="6.15633">
        <ele>248.15759277344</ele>
        <time>2012-05-15T07:04:20Z</time>
      </trkpt>
      <trkpt lat="48.79946" lon="6.15621">
        <ele>248.15759277344</ele>
        <time>2012-05-15T07:04:21Z</time>
      </trkpt>
      <trkpt lat="48.79922" lon="6.15566">
        <ele>245.2734375</ele>
        <time>2012-05-15T07:04:25Z</time>
      </trkpt>
      <trkpt lat="48.79896" lon="6.15495">
        <ele>241.42822265625</ele>
        <time>2012-05-15T07:04:30Z</time>
      </trkpt>
      <trkpt lat="48.79871" lon="6.15444">
        <ele>241.42822265625</ele>
        <time>2012-05-15T07:04:34Z</time>
      </trkpt>
      <trkpt lat="48.79833" lon="6.15398">
        <ele>238.54431152344</ele>
        <time>2012-05-15T07:04:39Z</time>
      </trkpt>
      <trkpt lat="48.79779" lon="6.15346">
        <ele>235.1796875</ele>
        <time>2012-05-15T07:04:46Z</time>
      </trkpt>
      <trkpt lat="48.79735" lon="6.15319">
        <ele>232.29577636719</ele>
        <time>2012-05-15T07:04:51Z</time>
      </trkpt>
      <trkpt lat="48.79698" lon="6.153">
        <ele>228.93115234375</ele>
        <time>2012-05-15T07:04:55Z</time>
      </trkpt>
      <trkpt lat="48.7967" lon="6.15286">
        <ele>227.9697265625</ele>
        <time>2012-05-15T07:04:58Z</time>
      </trkpt>
      <trkpt lat="48.79651" lon="6.15276">
        <ele>226.52783203125</ele>
        <time>2012-05-15T07:05:00Z</time>
      </trkpt>
      <trkpt lat="48.79601" lon="6.1525">
        <ele>222.20178222656</ele>
        <time>2012-05-15T07:05:05Z</time>
      </trkpt>
      <trkpt lat="48.79591" lon="6.15244">
        <ele>221.72119140625</ele>
        <time>2012-05-15T07:05:06Z</time>
      </trkpt>
      <trkpt lat="48.79573" lon="6.15226">
        <ele>220.27917480469</ele>
        <time>2012-05-15T07:05:08Z</time>
      </trkpt>
      <trkpt lat="48.79558" lon="6.15201">
        <ele>218.35656738281</ele>
        <time>2012-05-15T07:05:10Z</time>
      </trkpt>
      <trkpt lat="48.79519" lon="6.15124">
        <ele>213.55004882812</ele>
        <time>2012-05-15T07:05:16Z</time>
      </trkpt>
      <trkpt lat="48.79507" lon="6.151">
        <ele>212.58862304688</ele>
        <time>2012-05-15T07:05:18Z</time>
      </trkpt>
      <trkpt lat="48.79467" lon="6.15021">
        <ele>210.18542480469</ele>
        <time>2012-05-15T07:05:25Z</time>
      </trkpt>
      <trkpt lat="48.79456" lon="6.14999">
        <ele>208.74340820312</ele>
        <time>2012-05-15T07:05:27Z</time>
      </trkpt>
      <trkpt lat="48.79445" lon="6.14978">
        <ele>207.30139160156</ele>
        <time>2012-05-15T07:05:29Z</time>
      </trkpt>
      <trkpt lat="48.79417" lon="6.14923">
        <ele>204.41748046875</ele>
        <time>2012-05-15T07:05:34Z</time>
      </trkpt>
      <trkpt lat="48.79375" lon="6.14837">
        <ele>202.97546386719</ele>
        <time>2012-05-15T07:05:42Z</time>
      </trkpt>
      <trkpt lat="48.79356" lon="6.14796">
        <ele>201.53356933594</ele>
        <time>2012-05-15T07:05:46Z</time>
      </trkpt>
      <trkpt lat="48.79336" lon="6.14731">
        <ele>202.49487304688</ele>
        <time>2012-05-15T07:05:52Z</time>
      </trkpt>
      <trkpt lat="48.79309" lon="6.14634">
        <ele>204.41748046875</ele>
        <time>2012-05-15T07:06:01Z</time>
      </trkpt>
      <trkpt lat="48.79289" lon="6.14562">
        <ele>201.05285644531</ele>
        <time>2012-05-15T07:06:08Z</time>
      </trkpt>
      <trkpt lat="48.79267" lon="6.14488">
        <ele>202.97546386719</ele>
        <time>2012-05-15T07:06:15Z</time>
      </trkpt>
      <trkpt lat="48.79247" lon="6.14421">
        <ele>202.49487304688</ele>
        <time>2012-05-15T07:06:22Z</time>
      </trkpt>
      <trkpt lat="48.79221" lon="6.14343">
        <ele>202.49487304688</ele>
        <time>2012-05-15T07:06:30Z</time>
      </trkpt>
      <trkpt lat="48.79208" lon="6.14306">
        <ele>199.13012695312</ele>
        <time>2012-05-15T07:06:34Z</time>
      </trkpt>
      <trkpt lat="48.79187" lon="6.14284">
        <ele>198.64953613281</ele>
        <time>2012-05-15T07:06:38Z</time>
      </trkpt>
      <trkpt lat="48.79159" lon="6.14279">
        <ele>198.64953613281</ele>
        <time>2012-05-15T07:06:42Z</time>
      </trkpt>
      <trkpt lat="48.79141" lon="6.14266">
        <ele>199.13012695312</ele>
        <time>2012-05-15T07:06:45Z</time>
      </trkpt>
      <trkpt lat="48.79122" lon="6.14263">
        <ele>197.20751953125</ele>
        <time>2012-05-15T07:06:48Z</time>
      </trkpt>
      <trkpt lat="48.79078" lon="6.14282">
        <ele>194.80432128906</ele>
        <time>2012-05-15T07:06:54Z</time>
      </trkpt>
      <trkpt lat="48.79062" lon="6.14289">
        <ele>193.3623046875</ele>
        <time>2012-05-15T07:06:56Z</time>
      </trkpt>
      <trkpt lat="48.79029" lon="6.14289">
        <ele>194.32373046875</ele>
        <time>2012-05-15T07:07:00Z</time>
      </trkpt>
      <trkpt lat="48.79022" lon="6.14285">
        <ele>194.80432128906</ele>
        <time>2012-05-15T07:07:01Z</time>
      </trkpt>
      <trkpt lat="48.78989" lon="6.14287">
        <ele>193.3623046875</ele>
        <time>2012-05-15T07:07:06Z</time>
      </trkpt>
      <trkpt lat="48.78983" lon="6.14305">
        <ele>194.80432128906</ele>
        <time>2012-05-15T07:07:08Z</time>
      </trkpt>
      <trkpt lat="48.78962" lon="6.14337">
        <ele>195.765625</ele>
        <time>2012-05-15T07:07:13Z</time>
      </trkpt>
      <trkpt lat="48.78911" lon="6.14369">
        <ele>198.1689453125</ele>
        <time>2012-05-15T07:07:22Z</time>
      </trkpt>
      <trkpt lat="48.78899" lon="6.14376">
        <ele>199.13012695312</ele>
        <time>2012-05-15T07:07:24Z</time>
      </trkpt>
      <trkpt lat="48.78855" lon="6.14399">
        <ele>200.09167480469</ele>
        <time>2012-05-15T07:07:32Z</time>
      </trkpt>
      <trkpt lat="48.78821" lon="6.14407">
        <ele>202.49487304688</ele>
        <time>2012-05-15T07:07:38Z</time>
      </trkpt>
      <trkpt lat="48.78795" lon="6.14409">
        <ele>203.45617675781</ele>
        <time>2012-05-15T07:07:43Z</time>
      </trkpt>
      <trkpt lat="48.78738" lon="6.14413">
        <ele>203.93688964844</ele>
        <time>2012-05-15T07:07:53Z</time>
      </trkpt>
      <trkpt lat="48.7869" lon="6.14415">
        <ele>203.45617675781</ele>
        <time>2012-05-15T07:08:01Z</time>
      </trkpt>
      <trkpt lat="48.78638" lon="6.14411">
        <ele>202.49487304688</ele>
        <time>2012-05-15T07:08:09Z</time>
      </trkpt>
      <trkpt lat="48.7857" lon="6.14393">
        <ele>201.05285644531</ele>
        <time>2012-05-15T07:08:19Z</time>
      </trkpt>
      <trkpt lat="48.78523" lon="6.14379">
        <ele>198.64953613281</ele>
        <time>2012-05-15T07:08:25Z</time>
      </trkpt>
      <trkpt lat="48.78515" lon="6.14377">
        <ele>199.13012695312</ele>
        <time>2012-05-15T07:08:26Z</time>
      </trkpt>
      <trkpt lat="48.7846" lon="6.14385">
        <ele>199.61083984375</ele>
        <time>2012-05-15T07:08:33Z</time>
      </trkpt>
      <trkpt lat="48.78388" lon="6.14411">
        <ele>201.53356933594</ele>
        <time>2012-05-15T07:08:43Z</time>
      </trkpt>
      <trkpt lat="48.7832" lon="6.14438">
        <ele>202.97546386719</ele>
        <time>2012-05-15T07:08:53Z</time>
      </trkpt>
      <trkpt lat="48.78266" lon="6.14461">
        <ele>202.49487304688</ele>
        <time>2012-05-15T07:09:01Z</time>
      </trkpt>
      <trkpt lat="48.78205" lon="6.14485">
        <ele>203.45617675781</ele>
        <time>2012-05-15T07:09:10Z</time>
      </trkpt>
      <trkpt lat="48.78148" lon="6.14507">
        <ele>202.97546386719</ele>
        <time>2012-05-15T07:09:18Z</time>
      </trkpt>
      <trkpt lat="48.78096" lon="6.1453">
        <ele>202.49487304688</ele>
        <time>2012-05-15T07:09:25Z</time>
      </trkpt>
      <trkpt lat="48.78015" lon="6.14559">
        <ele>201.05285644531</ele>
        <time>2012-05-15T07:09:35Z</time>
      </trkpt>
      <trkpt lat="48.77954" lon="6.14586">
        <ele>201.53356933594</ele>
        <time>2012-05-15T07:09:43Z</time>
      </trkpt>
      <trkpt lat="48.77905" lon="6.14597">
        <ele>203.45617675781</ele>
        <time>2012-05-15T07:09:50Z</time>
      </trkpt>
      <trkpt lat="48.77864" lon="6.14596">
        <ele>202.97546386719</ele>
        <time>2012-05-15T07:09:56Z</time>
      </trkpt>
      <trkpt lat="48.77831" lon="6.14609">
        <ele>203.45617675781</ele>
        <time>2012-05-15T07:10:01Z</time>
      </trkpt>
      <trkpt lat="48.778" lon="6.14629">
        <ele>205.37878417969</ele>
        <time>2012-05-15T07:10:07Z</time>
      </trkpt>
      <trkpt lat="48.77771" lon="6.14645">
        <ele>206.82067871094</ele>
        <time>2012-05-15T07:10:14Z</time>
      </trkpt>
      <trkpt lat="48.77759" lon="6.14647">
        <ele>208.74340820312</ele>
        <time>2012-05-15T07:10:17Z</time>
      </trkpt>
      <trkpt lat="48.77721" lon="6.14647">
        <ele>211.62744140625</ele>
        <time>2012-05-15T07:10:26Z</time>
      </trkpt>
      <trkpt lat="48.77685" lon="6.14642">
        <ele>212.58862304688</ele>
        <time>2012-05-15T07:10:35Z</time>
      </trkpt>
      <trkpt lat="48.77648" lon="6.14636">
        <ele>214.99194335938</ele>
        <time>2012-05-15T07:10:44Z</time>
      </trkpt>
      <trkpt lat="48.77596" lon="6.14629">
        <ele>216.43395996094</ele>
        <time>2012-05-15T07:10:56Z</time>
      </trkpt>
      <trkpt lat="48.77562" lon="6.1462">
        <ele>217.8759765625</ele>
        <time>2012-05-15T07:11:04Z</time>
      </trkpt>
      <trkpt lat="48.77514" lon="6.14602">
        <ele>219.31799316406</ele>
        <time>2012-05-15T07:11:15Z</time>
      </trkpt>
      <trkpt lat="48.77466" lon="6.1458">
        <ele>221.72119140625</ele>
        <time>2012-05-15T07:11:26Z</time>
      </trkpt>
      <trkpt lat="48.77461" lon="6.14578">
        <ele>222.20178222656</ele>
        <time>2012-05-15T07:11:27Z</time>
      </trkpt>
      <trkpt lat="48.77411" lon="6.14562">
        <ele>222.68249511719</ele>
        <time>2012-05-15T07:11:37Z</time>
      </trkpt>
      <trkpt lat="48.77341" lon="6.14542">
        <ele>222.20178222656</ele>
        <time>2012-05-15T07:11:50Z</time>
      </trkpt>
      <trkpt lat="48.77322" lon="6.14538">
        <ele>220.75988769531</ele>
        <time>2012-05-15T07:11:53Z</time>
      </trkpt>
      <trkpt lat="48.77296" lon="6.14531">
        <ele>222.20178222656</ele>
        <time>2012-05-15T07:11:57Z</time>
      </trkpt>
      <trkpt lat="48.77243" lon="6.14516">
        <ele>220.27917480469</ele>
        <time>2012-05-15T07:12:04Z</time>
      </trkpt>
      <trkpt lat="48.7718" lon="6.14498">
        <ele>218.35656738281</ele>
        <time>2012-05-15T07:12:12Z</time>
      </trkpt>
      <trkpt lat="48.77106" lon="6.14478">
        <ele>215.95324707031</ele>
        <time>2012-05-15T07:12:21Z</time>
      </trkpt>
      <trkpt lat="48.7703" lon="6.14457">
        <ele>214.99194335938</ele>
        <time>2012-05-15T07:12:30Z</time>
      </trkpt>
      <trkpt lat="48.76971" lon="6.14439">
        <ele>213.0693359375</ele>
        <time>2012-05-15T07:12:37Z</time>
      </trkpt>
      <trkpt lat="48.76892" lon="6.14425">
        <ele>210.666015625</ele>
        <time>2012-05-15T07:12:46Z</time>
      </trkpt>
      <trkpt lat="48.76838" lon="6.14435">
        <ele>209.70483398438</ele>
        <time>2012-05-15T07:12:52Z</time>
      </trkpt>
      <trkpt lat="48.76778" lon="6.14461">
        <ele>211.14672851562</ele>
        <time>2012-05-15T07:12:59Z</time>
      </trkpt>
      <trkpt lat="48.76733" lon="6.14481">
        <ele>211.62744140625</ele>
        <time>2012-05-15T07:13:05Z</time>
      </trkpt>
      <trkpt lat="48.76675" lon="6.14505">
        <ele>210.18542480469</ele>
        <time>2012-05-15T07:13:13Z</time>
      </trkpt>
      <trkpt lat="48.76615" lon="6.14532">
        <ele>209.22412109375</ele>
        <time>2012-05-15T07:13:21Z</time>
      </trkpt>
      <trkpt lat="48.76564" lon="6.14554">
        <ele>209.70483398438</ele>
        <time>2012-05-15T07:13:28Z</time>
      </trkpt>
      <trkpt lat="48.76503" lon="6.14572">
        <ele>209.70483398438</ele>
        <time>2012-05-15T07:13:36Z</time>
      </trkpt>
      <trkpt lat="48.76442" lon="6.14587">
        <ele>209.70483398438</ele>
        <time>2012-05-15T07:13:44Z</time>
      </trkpt>
      <trkpt lat="48.76399" lon="6.1461">
        <ele>210.18542480469</ele>
        <time>2012-05-15T07:13:50Z</time>
      </trkpt>
      <trkpt lat="48.76358" lon="6.14645">
        <ele>209.22412109375</ele>
        <time>2012-05-15T07:13:56Z</time>
      </trkpt>
      <trkpt lat="48.76315" lon="6.147">
        <ele>209.70483398438</ele>
        <time>2012-05-15T07:14:03Z</time>
      </trkpt>
      <trkpt lat="48.76287" lon="6.14752">
        <ele>208.26281738281</ele>
        <time>2012-05-15T07:14:09Z</time>
      </trkpt>
      <trkpt lat="48.76258" lon="6.14824">
        <ele>208.26281738281</ele>
        <time>2012-05-15T07:14:16Z</time>
      </trkpt>
      <trkpt lat="48.76222" lon="6.14923">
        <ele>207.30139160156</ele>
        <time>2012-05-15T07:14:25Z</time>
      </trkpt>
      <trkpt lat="48.76191" lon="6.15005">
        <ele>208.74340820312</ele>
        <time>2012-05-15T07:14:33Z</time>
      </trkpt>
      <trkpt lat="48.76162" lon="6.15057">
        <ele>208.74340820312</ele>
        <time>2012-05-15T07:14:39Z</time>
      </trkpt>
      <trkpt lat="48.76133" lon="6.15093">
        <ele>208.26281738281</ele>
        <time>2012-05-15T07:14:44Z</time>
      </trkpt>
      <trkpt lat="48.76097" lon="6.15122">
        <ele>207.30139160156</ele>
        <time>2012-05-15T07:14:49Z</time>
      </trkpt>
      <trkpt lat="48.76055" lon="6.15138">
        <ele>206.34008789062</ele>
        <time>2012-05-15T07:14:54Z</time>
      </trkpt>
      <trkpt lat="48.75969" lon="6.15158">
        <ele>205.37878417969</ele>
        <time>2012-05-15T07:15:04Z</time>
      </trkpt>
      <trkpt lat="48.75901" lon="6.15178">
        <ele>203.45617675781</ele>
        <time>2012-05-15T07:15:12Z</time>
      </trkpt>
      <trkpt lat="48.75872" lon="6.15207">
        <ele>202.97546386719</ele>
        <time>2012-05-15T07:15:16Z</time>
      </trkpt>
      <trkpt lat="48.75866" lon="6.15217">
        <ele>202.97546386719</ele>
        <time>2012-05-15T07:15:17Z</time>
      </trkpt>
      <trkpt lat="48.75831" lon="6.15301">
        <ele>201.53356933594</ele>
        <time>2012-05-15T07:15:24Z</time>
      </trkpt>
      <trkpt lat="48.75787" lon="6.15407">
        <ele>201.05285644531</ele>
        <time>2012-05-15T07:15:33Z</time>
      </trkpt>
      <trkpt lat="48.75752" lon="6.15468">
        <ele>198.1689453125</ele>
        <time>2012-05-15T07:15:39Z</time>
      </trkpt>
      <trkpt lat="48.75715" lon="6.15504">
        <ele>197.68823242188</ele>
        <time>2012-05-15T07:15:44Z</time>
      </trkpt>
      <trkpt lat="48.75654" lon="6.15545">
        <ele>197.68823242188</ele>
        <time>2012-05-15T07:15:52Z</time>
      </trkpt>
      <trkpt lat="48.75597" lon="6.15583">
        <ele>198.1689453125</ele>
        <time>2012-05-15T07:16:00Z</time>
      </trkpt>
      <trkpt lat="48.75541" lon="6.15621">
        <ele>197.68823242188</ele>
        <time>2012-05-15T07:16:08Z</time>
      </trkpt>
      <trkpt lat="48.75476" lon="6.15666">
        <ele>197.20751953125</ele>
        <time>2012-05-15T07:16:18Z</time>
      </trkpt>
      <trkpt lat="48.75414" lon="6.15712">
        <ele>196.24633789062</ele>
        <time>2012-05-15T07:16:27Z</time>
      </trkpt>
      <trkpt lat="48.75357" lon="6.15754">
        <ele>196.72692871094</ele>
        <time>2012-05-15T07:16:35Z</time>
      </trkpt>
      <trkpt lat="48.75344" lon="6.15764">
        <ele>195.28491210938</ele>
        <time>2012-05-15T07:16:37Z</time>
      </trkpt>
      <trkpt lat="48.75291" lon="6.15804">
        <ele>195.765625</ele>
        <time>2012-05-15T07:16:45Z</time>
      </trkpt>
      <trkpt lat="48.75235" lon="6.15851">
        <ele>195.765625</ele>
        <time>2012-05-15T07:16:54Z</time>
      </trkpt>
      <trkpt lat="48.75202" lon="6.1589">
        <ele>195.765625</ele>
        <time>2012-05-15T07:17:00Z</time>
      </trkpt>
      <trkpt lat="48.7517" lon="6.1593">
        <ele>199.13012695312</ele>
        <time>2012-05-15T07:17:06Z</time>
      </trkpt>
      <trkpt lat="48.75165" lon="6.15936">
        <ele>198.1689453125</ele>
        <time>2012-05-15T07:17:07Z</time>
      </trkpt>
      <trkpt lat="48.75137" lon="6.15971">
        <ele>199.13012695312</ele>
        <time>2012-05-15T07:17:13Z</time>
      </trkpt>
      <trkpt lat="48.75094" lon="6.16024">
        <ele>198.1689453125</ele>
        <time>2012-05-15T07:17:22Z</time>
      </trkpt>
      <trkpt lat="48.75064" lon="6.16069">
        <ele>196.72692871094</ele>
        <time>2012-05-15T07:17:28Z</time>
      </trkpt>
      <trkpt lat="48.7506" lon="6.16077">
        <ele>196.24633789062</ele>
        <time>2012-05-15T07:17:29Z</time>
      </trkpt>
      <trkpt lat="48.75032" lon="6.16138">
        <ele>197.68823242188</ele>
        <time>2012-05-15T07:17:36Z</time>
      </trkpt>
      <trkpt lat="48.74997" lon="6.16218">
        <ele>198.1689453125</ele>
        <time>2012-05-15T07:17:46Z</time>
      </trkpt>
      <trkpt lat="48.74969" lon="6.16277">
        <ele>199.61083984375</ele>
        <time>2012-05-15T07:17:54Z</time>
      </trkpt>
      <trkpt lat="48.74952" lon="6.16316">
        <ele>200.572265625</ele>
        <time>2012-05-15T07:18:00Z</time>
      </trkpt>
      <trkpt lat="48.74951" lon="6.16334">
        <ele>200.09167480469</ele>
        <time>2012-05-15T07:18:03Z</time>
      </trkpt>
      <trkpt lat="48.74963" lon="6.16342">
        <ele>200.572265625</ele>
        <time>2012-05-15T07:18:06Z</time>
      </trkpt>
      <trkpt lat="48.74996" lon="6.16351">
        <ele>201.53356933594</ele>
        <time>2012-05-15T07:18:14Z</time>
      </trkpt>
      <trkpt lat="48.75022" lon="6.16374">
        <ele>204.41748046875</ele>
        <time>2012-05-15T07:18:22Z</time>
      </trkpt>
      <trkpt lat="48.75047" lon="6.16396">
        <ele>207.78210449219</ele>
        <time>2012-05-15T07:18:31Z</time>
      </trkpt>
      <trkpt lat="48.75065" lon="6.16405">
        <ele>210.18542480469</ele>
        <time>2012-05-15T07:18:38Z</time>
      </trkpt>
      <trkpt lat="48.75081" lon="6.16398">
        <ele>212.58862304688</ele>
        <time>2012-05-15T07:18:44Z</time>
      </trkpt>
      <trkpt lat="48.75098" lon="6.16378">
        <ele>214.03063964844</ele>
        <time>2012-05-15T07:18:51Z</time>
      </trkpt>
      <trkpt lat="48.751" lon="6.16375">
        <ele>214.03063964844</ele>
        <time>2012-05-15T07:18:52Z</time>
      </trkpt>
      <trkpt lat="48.75116" lon="6.16356">
        <ele>216.91467285156</ele>
        <time>2012-05-15T07:18:59Z</time>
      </trkpt>
      <trkpt lat="48.75119" lon="6.16355">
        <ele>217.39538574219</ele>
        <time>2012-05-15T07:19:00Z</time>
      </trkpt>
      <trkpt lat="48.75129" lon="6.16354">
        <ele>218.83728027344</ele>
        <time>2012-05-15T07:19:04Z</time>
      </trkpt>
      <trkpt lat="48.75141" lon="6.16344">
        <ele>220.27917480469</ele>
        <time>2012-05-15T07:19:11Z</time>
      </trkpt>
      <trkpt lat="48.75143" lon="6.16342">
        <ele>219.79858398438</ele>
        <time>2012-05-15T07:19:15Z</time>
      </trkpt>
      <trkpt lat="48.75142" lon="6.16342">
        <ele>219.31799316406</ele>
        <time>2012-05-15T07:19:25Z</time>
      </trkpt>
      <trkpt lat="48.75146" lon="6.16336">
        <ele>219.79858398438</ele>
        <time>2012-05-15T07:19:31Z</time>
      </trkpt>
      <trkpt lat="48.75151" lon="6.16332">
        <ele>219.31799316406</ele>
        <time>2012-05-15T07:20:14Z</time>
      </trkpt>
      <trkpt lat="48.7515" lon="6.16331">
        <ele>219.79858398438</ele>
        <time>2012-05-15T07:20:15Z</time>
      </trkpt>
      <trkpt lat="48.75158" lon="6.16318">
        <ele>220.75988769531</ele>
        <time>2012-05-15T07:20:21Z</time>
      </trkpt>
      <trkpt lat="48.75174" lon="6.16301">
        <ele>222.68249511719</ele>
        <time>2012-05-15T07:20:29Z</time>
      </trkpt>
      <trkpt lat="48.75198" lon="6.16278">
        <ele>224.60522460938</ele>
        <time>2012-05-15T07:20:38Z</time>
      </trkpt>
      <trkpt lat="48.75219" lon="6.16249">
        <ele>225.0859375</ele>
        <time>2012-05-15T07:20:47Z</time>
      </trkpt>
      <trkpt lat="48.75239" lon="6.16227">
        <ele>226.04711914062</ele>
        <time>2012-05-15T07:20:56Z</time>
      </trkpt>
      <trkpt lat="48.75251" lon="6.16226">
        <ele>227.48913574219</ele>
        <time>2012-05-15T07:21:01Z</time>
      </trkpt>
      <trkpt lat="48.75266" lon="6.16243">
        <ele>229.89233398438</ele>
        <time>2012-05-15T07:21:08Z</time>
      </trkpt>
      <trkpt lat="48.75271" lon="6.1625">
        <ele>230.85375976562</ele>
        <time>2012-05-15T07:21:11Z</time>
      </trkpt>
      <trkpt lat="48.75279" lon="6.16271">
        <ele>233.25708007812</ele>
        <time>2012-05-15T07:21:19Z</time>
      </trkpt>
      <trkpt lat="48.75287" lon="6.16303">
        <ele>235.66027832031</ele>
        <time>2012-05-15T07:21:30Z</time>
      </trkpt>
      <trkpt lat="48.75298" lon="6.16334">
        <ele>237.58288574219</ele>
        <time>2012-05-15T07:21:41Z</time>
      </trkpt>
      <trkpt lat="48.75306" lon="6.16361">
        <ele>240.94763183594</ele>
        <time>2012-05-15T07:21:51Z</time>
      </trkpt>
      <trkpt lat="48.75315" lon="6.16382">
        <ele>242.3896484375</ele>
        <time>2012-05-15T07:22:00Z</time>
      </trkpt>
      <trkpt lat="48.75317" lon="6.16392">
        <ele>243.83154296875</ele>
        <time>2012-05-15T07:22:04Z</time>
      </trkpt>
      <trkpt lat="48.75325" lon="6.1641">
        <ele>246.71545410156</ele>
        <time>2012-05-15T07:22:12Z</time>
      </trkpt>
      <trkpt lat="48.75327" lon="6.16416">
        <ele>246.23486328125</ele>
        <time>2012-05-15T07:22:17Z</time>
      </trkpt>
      <trkpt lat="48.75326" lon="6.16417">
        <ele>247.19604492188</ele>
        <time>2012-05-15T07:22:43Z</time>
      </trkpt>
      <trkpt lat="48.75327" lon="6.16417">
        <ele>246.71545410156</ele>
        <time>2012-05-15T07:22:44Z</time>
      </trkpt>
      <trkpt lat="48.75326" lon="6.16415">
        <ele>246.71545410156</ele>
        <time>2012-05-15T07:24:55Z</time>
      </trkpt>
      <trkpt lat="48.75327" lon="6.16413">
        <ele>246.71545410156</ele>
        <time>2012-05-15T07:24:56Z</time>
      </trkpt>
      <trkpt lat="48.75327" lon="6.16413">
        <ele>247.19604492188</ele>
        <time>2012-05-15T07:25:10Z</time>
      </trkpt>
      <trkpt lat="48.75333" lon="6.1641">
        <ele>246.71545410156</ele>
        <time>2012-05-15T07:25:14Z</time>
      </trkpt>
      <trkpt lat="48.75348" lon="6.16411">
        <ele>248.15759277344</ele>
        <time>2012-05-15T07:25:22Z</time>
      </trkpt>
      <trkpt lat="48.75366" lon="6.16415">
        <ele>250.56079101562</ele>
        <time>2012-05-15T07:25:30Z</time>
      </trkpt>
      <trkpt lat="48.75381" lon="6.16412">
        <ele>252.96398925781</ele>
        <time>2012-05-15T07:25:38Z</time>
      </trkpt>
      <trkpt lat="48.75394" lon="6.16411">
        <ele>254.40600585938</ele>
        <time>2012-05-15T07:25:44Z</time>
      </trkpt>
      <trkpt lat="48.75408" lon="6.16407">
        <ele>255.36730957031</ele>
        <time>2012-05-15T07:25:51Z</time>
      </trkpt>
      <trkpt lat="48.75425" lon="6.16403">
        <ele>257.2900390625</ele>
        <time>2012-05-15T07:25:59Z</time>
      </trkpt>
      <trkpt lat="48.75443" lon="6.16399">
        <ele>259.21264648438</ele>
        <time>2012-05-15T07:26:08Z</time>
      </trkpt>
      <trkpt lat="48.75465" lon="6.16396">
        <ele>262.5771484375</ele>
        <time>2012-05-15T07:26:19Z</time>
      </trkpt>
      <trkpt lat="48.75482" lon="6.16395">
        <ele>263.53857421875</ele>
        <time>2012-05-15T07:26:27Z</time>
      </trkpt>
      <trkpt lat="48.75507" lon="6.16401">
        <ele>265.46130371094</ele>
        <time>2012-05-15T07:26:38Z</time>
      </trkpt>
      <trkpt lat="48.75532" lon="6.16412">
        <ele>267.86450195312</ele>
        <time>2012-05-15T07:26:50Z</time>
      </trkpt>
      <trkpt lat="48.7555" lon="6.16422">
        <ele>269.787109375</ele>
        <time>2012-05-15T07:26:59Z</time>
      </trkpt>
      <trkpt lat="48.75568" lon="6.16432">
        <ele>271.22912597656</ele>
        <time>2012-05-15T07:27:08Z</time>
      </trkpt>
      <trkpt lat="48.75587" lon="6.16448">
        <ele>273.15185546875</ele>
        <time>2012-05-15T07:27:18Z</time>
      </trkpt>
      <trkpt lat="48.75604" lon="6.16463">
        <ele>274.59375</ele>
        <time>2012-05-15T07:27:27Z</time>
      </trkpt>
      <trkpt lat="48.75628" lon="6.16483">
        <ele>277.47766113281</ele>
        <time>2012-05-15T07:27:39Z</time>
      </trkpt>
      <trkpt lat="48.75644" lon="6.16499">
        <ele>277.95825195312</ele>
        <time>2012-05-15T07:27:48Z</time>
      </trkpt>
      <trkpt lat="48.75666" lon="6.1652">
        <ele>280.84240722656</ele>
        <time>2012-05-15T07:28:00Z</time>
      </trkpt>
      <trkpt lat="48.75684" lon="6.16536">
        <ele>282.28430175781</ele>
        <time>2012-05-15T07:28:09Z</time>
      </trkpt>
      <trkpt lat="48.757" lon="6.1655">
        <ele>284.20690917969</ele>
        <time>2012-05-15T07:28:18Z</time>
      </trkpt>
      <trkpt lat="48.75706" lon="6.16555">
        <ele>285.64880371094</ele>
        <time>2012-05-15T07:28:21Z</time>
      </trkpt>
      <trkpt lat="48.75723" lon="6.16563">
        <ele>287.0908203125</ele>
        <time>2012-05-15T07:28:29Z</time>
      </trkpt>
      <trkpt lat="48.75745" lon="6.16568">
        <ele>289.494140625</ele>
        <time>2012-05-15T07:28:38Z</time>
      </trkpt>
      <trkpt lat="48.75767" lon="6.16576">
        <ele>290.93615722656</ele>
        <time>2012-05-15T07:28:46Z</time>
      </trkpt>
      <trkpt lat="48.75795" lon="6.16585">
        <ele>291.8974609375</ele>
        <time>2012-05-15T07:28:55Z</time>
      </trkpt>
      <trkpt lat="48.75826" lon="6.16595">
        <ele>292.85876464844</ele>
        <time>2012-05-15T07:29:05Z</time>
      </trkpt>
      <trkpt lat="48.75824" lon="6.16608">
        <ele>293.33935546875</ele>
        <time>2012-05-15T07:29:09Z</time>
      </trkpt>
      <trkpt lat="48.75821" lon="6.16608">
        <ele>293.33935546875</ele>
        <time>2012-05-15T07:29:10Z</time>
      </trkpt>
      <trkpt lat="48.75795" lon="6.16603">
        <ele>293.82006835938</ele>
        <time>2012-05-15T07:29:17Z</time>
      </trkpt>
      <trkpt lat="48.75759" lon="6.16592">
        <ele>295.26196289062</ele>
        <time>2012-05-15T07:29:26Z</time>
      </trkpt>
      <trkpt lat="48.75735" lon="6.1659">
        <ele>296.22351074219</ele>
        <time>2012-05-15T07:29:32Z</time>
      </trkpt>
      <trkpt lat="48.75724" lon="6.16594">
        <ele>296.22351074219</ele>
        <time>2012-05-15T07:29:35Z</time>
      </trkpt>
      <trkpt lat="48.7569" lon="6.16621">
        <ele>297.66540527344</ele>
        <time>2012-05-15T07:29:45Z</time>
      </trkpt>
      <trkpt lat="48.75669" lon="6.16631">
        <ele>300.54931640625</ele>
        <time>2012-05-15T07:29:52Z</time>
      </trkpt>
      <trkpt lat="48.75642" lon="6.16637">
        <ele>301.51062011719</ele>
        <time>2012-05-15T07:30:01Z</time>
      </trkpt>
      <trkpt lat="48.75632" lon="6.16638">
        <ele>302.95251464844</ele>
        <time>2012-05-15T07:30:04Z</time>
      </trkpt>
      <trkpt lat="48.75589" lon="6.16646">
        <ele>305.35595703125</ele>
        <time>2012-05-15T07:30:18Z</time>
      </trkpt>
      <trkpt lat="48.75572" lon="6.16649">
        <ele>306.7978515625</ele>
        <time>2012-05-15T07:30:24Z</time>
      </trkpt>
      <trkpt lat="48.75545" lon="6.16656">
        <ele>309.201171875</ele>
        <time>2012-05-15T07:30:35Z</time>
      </trkpt>
      <trkpt lat="48.75529" lon="6.16658">
        <ele>311.12377929688</ele>
        <time>2012-05-15T07:30:42Z</time>
      </trkpt>
      <trkpt lat="48.7551" lon="6.16666">
        <ele>314.48840332031</ele>
        <time>2012-05-15T07:30:51Z</time>
      </trkpt>
      <trkpt lat="48.75493" lon="6.16676">
        <ele>315.93041992188</ele>
        <time>2012-05-15T07:31:00Z</time>
      </trkpt>
      <trkpt lat="48.7549" lon="6.1668">
        <ele>315.93041992188</ele>
        <time>2012-05-15T07:31:02Z</time>
      </trkpt>
      <trkpt lat="48.75494" lon="6.16691">
        <ele>318.81433105469</ele>
        <time>2012-05-15T07:31:07Z</time>
      </trkpt>
      <trkpt lat="48.75496" lon="6.16693">
        <ele>319.29504394531</ele>
        <time>2012-05-15T07:31:08Z</time>
      </trkpt>
      <trkpt lat="48.75501" lon="6.16703">
        <ele>319.77563476562</ele>
        <time>2012-05-15T07:31:13Z</time>
      </trkpt>
      <trkpt lat="48.75512" lon="6.16724">
        <ele>320.73706054688</ele>
        <time>2012-05-15T07:31:24Z</time>
      </trkpt>
      <trkpt lat="48.7552" lon="6.16737">
        <ele>322.17895507812</ele>
        <time>2012-05-15T07:31:33Z</time>
      </trkpt>
      <trkpt lat="48.75518" lon="6.16737">
        <ele>321.69836425781</ele>
        <time>2012-05-15T07:32:03Z</time>
      </trkpt>
      <trkpt lat="48.75518" lon="6.16737">
        <ele>321.69836425781</ele>
        <time>2012-05-15T07:32:04Z</time>
      </trkpt>
      <trkpt lat="48.75511" lon="6.16723">
        <ele>320.73706054688</ele>
        <time>2012-05-15T07:32:11Z</time>
      </trkpt>
      <trkpt lat="48.75503" lon="6.16708">
        <ele>319.77563476562</ele>
        <time>2012-05-15T07:32:17Z</time>
      </trkpt>
      <trkpt lat="48.75495" lon="6.16693">
        <ele>317.85302734375</ele>
        <time>2012-05-15T07:32:23Z</time>
      </trkpt>
      <trkpt lat="48.7549" lon="6.16687">
        <ele>317.37243652344</ele>
        <time>2012-05-15T07:32:27Z</time>
      </trkpt>
      <trkpt lat="48.75489" lon="6.16681">
        <ele>315.93041992188</ele>
        <time>2012-05-15T07:32:29Z</time>
      </trkpt>
      <trkpt lat="48.75494" lon="6.16676">
        <ele>315.44982910156</ele>
        <time>2012-05-15T07:32:31Z</time>
      </trkpt>
      <trkpt lat="48.75507" lon="6.16669">
        <ele>313.52722167969</ele>
        <time>2012-05-15T07:32:35Z</time>
      </trkpt>
      <trkpt lat="48.7553" lon="6.16661">
        <ele>312.08520507812</ele>
        <time>2012-05-15T07:32:39Z</time>
      </trkpt>
      <trkpt lat="48.75569" lon="6.16652">
        <ele>309.201171875</ele>
        <time>2012-05-15T07:32:44Z</time>
      </trkpt>
      <trkpt lat="48.75596" lon="6.16647">
        <ele>305.83666992188</ele>
        <time>2012-05-15T07:32:47Z</time>
      </trkpt>
      <trkpt lat="48.75606" lon="6.16645">
        <ele>305.35595703125</ele>
        <time>2012-05-15T07:32:48Z</time>
      </trkpt>
      <trkpt lat="48.7565" lon="6.1664">
        <ele>303.43322753906</ele>
        <time>2012-05-15T07:32:53Z</time>
      </trkpt>
      <trkpt lat="48.75667" lon="6.16636">
        <ele>301.99133300781</ele>
        <time>2012-05-15T07:32:55Z</time>
      </trkpt>
      <trkpt lat="48.75675" lon="6.16634">
        <ele>301.51062011719</ele>
        <time>2012-05-15T07:32:56Z</time>
      </trkpt>
      <trkpt lat="48.75714" lon="6.16607">
        <ele>297.18469238281</ele>
        <time>2012-05-15T07:33:01Z</time>
      </trkpt>
      <trkpt lat="48.75722" lon="6.16601">
        <ele>297.18469238281</ele>
        <time>2012-05-15T07:33:02Z</time>
      </trkpt>
      <trkpt lat="48.75738" lon="6.16593">
        <ele>295.74267578125</ele>
        <time>2012-05-15T07:33:04Z</time>
      </trkpt>
      <trkpt lat="48.75753" lon="6.16593">
        <ele>296.22351074219</ele>
        <time>2012-05-15T07:33:06Z</time>
      </trkpt>
      <trkpt lat="48.75813" lon="6.16608">
        <ele>294.30078125</ele>
        <time>2012-05-15T07:33:14Z</time>
      </trkpt>
      <trkpt lat="48.75819" lon="6.16609">
        <ele>293.82006835938</ele>
        <time>2012-05-15T07:33:15Z</time>
      </trkpt>
      <trkpt lat="48.75829" lon="6.16607">
        <ele>292.85876464844</ele>
        <time>2012-05-15T07:33:17Z</time>
      </trkpt>
      <trkpt lat="48.7583" lon="6.16596">
        <ele>291.8974609375</ele>
        <time>2012-05-15T07:33:19Z</time>
      </trkpt>
      <trkpt lat="48.75827" lon="6.16591">
        <ele>291.41674804688</ele>
        <time>2012-05-15T07:33:20Z</time>
      </trkpt>
      <trkpt lat="48.75816" lon="6.16587">
        <ele>292.37817382812</ele>
        <time>2012-05-15T07:33:22Z</time>
      </trkpt>
      <trkpt lat="48.75763" lon="6.16572">
        <ele>290.93615722656</ele>
        <time>2012-05-15T07:33:30Z</time>
      </trkpt>
      <trkpt lat="48.75714" lon="6.16557">
        <ele>287.57141113281</ele>
        <time>2012-05-15T07:33:37Z</time>
      </trkpt>
      <trkpt lat="48.75699" lon="6.16547">
        <ele>284.68762207031</ele>
        <time>2012-05-15T07:33:39Z</time>
      </trkpt>
      <trkpt lat="48.75667" lon="6.16517">
        <ele>281.32299804688</ele>
        <time>2012-05-15T07:33:43Z</time>
      </trkpt>
      <trkpt lat="48.75635" lon="6.16485">
        <ele>278.91967773438</ele>
        <time>2012-05-15T07:33:47Z</time>
      </trkpt>
      <trkpt lat="48.75605" lon="6.16459">
        <ele>275.07446289062</ele>
        <time>2012-05-15T07:33:51Z</time>
      </trkpt>
      <trkpt lat="48.75586" lon="6.16442">
        <ele>272.1904296875</ele>
        <time>2012-05-15T07:33:55Z</time>
      </trkpt>
      <trkpt lat="48.75555" lon="6.16419">
        <ele>269.787109375</ele>
        <time>2012-05-15T07:34:00Z</time>
      </trkpt>
      <trkpt lat="48.75521" lon="6.16401">
        <ele>266.42248535156</ele>
        <time>2012-05-15T07:34:04Z</time>
      </trkpt>
      <trkpt lat="48.75486" lon="6.16392">
        <ele>263.05786132812</ele>
        <time>2012-05-15T07:34:08Z</time>
      </trkpt>
      <trkpt lat="48.75452" lon="6.16394">
        <ele>259.693359375</ele>
        <time>2012-05-15T07:34:12Z</time>
      </trkpt>
      <trkpt lat="48.75443" lon="6.16395">
        <ele>259.693359375</ele>
        <time>2012-05-15T07:34:13Z</time>
      </trkpt>
      <trkpt lat="48.75417" lon="6.16401">
        <ele>256.80932617188</ele>
        <time>2012-05-15T07:34:16Z</time>
      </trkpt>
      <trkpt lat="48.75381" lon="6.1641">
        <ele>252.96398925781</ele>
        <time>2012-05-15T07:34:20Z</time>
      </trkpt>
      <trkpt lat="48.75349" lon="6.1641">
        <ele>249.11877441406</ele>
        <time>2012-05-15T07:34:24Z</time>
      </trkpt>
      <trkpt lat="48.75335" lon="6.16409">
        <ele>245.75415039062</ele>
        <time>2012-05-15T07:34:26Z</time>
      </trkpt>
      <trkpt lat="48.75327" lon="6.16409">
        <ele>245.2734375</ele>
        <time>2012-05-15T07:34:27Z</time>
      </trkpt>
      <trkpt lat="48.75298" lon="6.16422">
        <ele>246.23486328125</ele>
        <time>2012-05-15T07:34:31Z</time>
      </trkpt>
      <trkpt lat="48.75289" lon="6.16433">
        <ele>247.19604492188</ele>
        <time>2012-05-15T07:34:33Z</time>
      </trkpt>
      <trkpt lat="48.75259" lon="6.16479">
        <ele>246.23486328125</ele>
        <time>2012-05-15T07:34:40Z</time>
      </trkpt>
      <trkpt lat="48.7524" lon="6.1651">
        <ele>244.31225585938</ele>
        <time>2012-05-15T07:34:44Z</time>
      </trkpt>
      <trkpt lat="48.75226" lon="6.16535">
        <ele>243.35083007812</ele>
        <time>2012-05-15T07:34:47Z</time>
      </trkpt>
      <trkpt lat="48.75215" lon="6.16552">
        <ele>242.87023925781</ele>
        <time>2012-05-15T07:34:49Z</time>
      </trkpt>
      <trkpt lat="48.75185" lon="6.16616">
        <ele>240.46704101562</ele>
        <time>2012-05-15T07:34:56Z</time>
      </trkpt>
      <trkpt lat="48.75159" lon="6.16679">
        <ele>239.50549316406</ele>
        <time>2012-05-15T07:35:02Z</time>
      </trkpt>
      <trkpt lat="48.75123" lon="6.16769">
        <ele>236.14099121094</ele>
        <time>2012-05-15T07:35:10Z</time>
      </trkpt>
      <trkpt lat="48.751" lon="6.16848">
        <ele>234.69909667969</ele>
        <time>2012-05-15T07:35:17Z</time>
      </trkpt>
      <trkpt lat="48.75079" lon="6.16926">
        <ele>233.25708007812</ele>
        <time>2012-05-15T07:35:24Z</time>
      </trkpt>
      <trkpt lat="48.7506" lon="6.17023">
        <ele>230.85375976562</ele>
        <time>2012-05-15T07:35:32Z</time>
      </trkpt>
      <trkpt lat="48.75051" lon="6.17069">
        <ele>229.41174316406</ele>
        <time>2012-05-15T07:35:36Z</time>
      </trkpt>
      <trkpt lat="48.75029" lon="6.17127">
        <ele>226.04711914062</ele>
        <time>2012-05-15T07:35:42Z</time>
      </trkpt>
      <trkpt lat="48.75026" lon="6.17138">
        <ele>226.52783203125</ele>
        <time>2012-05-15T07:35:43Z</time>
      </trkpt>
      <trkpt lat="48.7501" lon="6.17181">
        <ele>223.16320800781</ele>
        <time>2012-05-15T07:35:47Z</time>
      </trkpt>
      <trkpt lat="48.75005" lon="6.17192">
        <ele>222.68249511719</ele>
        <time>2012-05-15T07:35:48Z</time>
      </trkpt>
      <trkpt lat="48.74994" lon="6.17224">
        <ele>220.75988769531</ele>
        <time>2012-05-15T07:35:51Z</time>
      </trkpt>
      <trkpt lat="48.74987" lon="6.17243">
        <ele>219.31799316406</ele>
        <time>2012-05-15T07:35:53Z</time>
      </trkpt>
      <trkpt lat="48.7498" lon="6.1726">
        <ele>215.95324707031</ele>
        <time>2012-05-15T07:35:55Z</time>
      </trkpt>
      <trkpt lat="48.74971" lon="6.17272">
        <ele>214.51123046875</ele>
        <time>2012-05-15T07:35:57Z</time>
      </trkpt>
      <trkpt lat="48.74955" lon="6.17278">
        <ele>213.0693359375</ele>
        <time>2012-05-15T07:36:00Z</time>
      </trkpt>
      <trkpt lat="48.74951" lon="6.17277">
        <ele>212.58862304688</ele>
        <time>2012-05-15T07:36:01Z</time>
      </trkpt>
      <trkpt lat="48.74944" lon="6.17271">
        <ele>212.10803222656</ele>
        <time>2012-05-15T07:36:04Z</time>
      </trkpt>
      <trkpt lat="48.74942" lon="6.17268">
        <ele>211.62744140625</ele>
        <time>2012-05-15T07:36:06Z</time>
      </trkpt>
      <trkpt lat="48.74942" lon="6.17265">
        <ele>211.14672851562</ele>
        <time>2012-05-15T07:36:09Z</time>
      </trkpt>
      <trkpt lat="48.7494" lon="6.1726">
        <ele>211.14672851562</ele>
        <time>2012-05-15T07:36:29Z</time>
      </trkpt>
      <trkpt lat="48.74933" lon="6.17247">
        <ele>211.62744140625</ele>
        <time>2012-05-15T07:36:33Z</time>
      </trkpt>
      <trkpt lat="48.74922" lon="6.17225">
        <ele>211.62744140625</ele>
        <time>2012-05-15T07:36:37Z</time>
      </trkpt>
      <trkpt lat="48.74911" lon="6.17202">
        <ele>209.70483398438</ele>
        <time>2012-05-15T07:36:40Z</time>
      </trkpt>
      <trkpt lat="48.74883" lon="6.17146">
        <ele>209.22412109375</ele>
        <time>2012-05-15T07:36:46Z</time>
      </trkpt>
      <trkpt lat="48.74836" lon="6.17066">
        <ele>208.26281738281</ele>
        <time>2012-05-15T07:36:55Z</time>
      </trkpt>
      <trkpt lat="48.74796" lon="6.17035">
        <ele>206.34008789062</ele>
        <time>2012-05-15T07:37:01Z</time>
      </trkpt>
      <trkpt lat="48.7479" lon="6.1703">
        <ele>204.89807128906</ele>
        <time>2012-05-15T07:37:02Z</time>
      </trkpt>
      <trkpt lat="48.74771" lon="6.16998">
        <ele>203.93688964844</ele>
        <time>2012-05-15T07:37:06Z</time>
      </trkpt>
      <trkpt lat="48.74766" lon="6.16978">
        <ele>204.41748046875</ele>
        <time>2012-05-15T07:37:08Z</time>
      </trkpt>
      <trkpt lat="48.74759" lon="6.16921">
        <ele>203.93688964844</ele>
        <time>2012-05-15T07:37:14Z</time>
      </trkpt>
      <trkpt lat="48.74762" lon="6.16882">
        <ele>203.45617675781</ele>
        <time>2012-05-15T07:37:18Z</time>
      </trkpt>
      <trkpt lat="48.74782" lon="6.16797">
        <ele>202.97546386719</ele>
        <time>2012-05-15T07:37:27Z</time>
      </trkpt>
      <trkpt lat="48.74788" lon="6.16742">
        <ele>200.09167480469</ele>
        <time>2012-05-15T07:37:32Z</time>
      </trkpt>
      <trkpt lat="48.74788" lon="6.1673">
        <ele>200.09167480469</ele>
        <time>2012-05-15T07:37:33Z</time>
      </trkpt>
      <trkpt lat="48.74792" lon="6.16696">
        <ele>198.64953613281</ele>
        <time>2012-05-15T07:37:36Z</time>
      </trkpt>
      <trkpt lat="48.74801" lon="6.16662">
        <ele>198.1689453125</ele>
        <time>2012-05-15T07:37:40Z</time>
      </trkpt>
      <trkpt lat="48.74804" lon="6.16655">
        <ele>198.1689453125</ele>
        <time>2012-05-15T07:37:41Z</time>
      </trkpt>
      <trkpt lat="48.748" lon="6.1663">
        <ele>198.64953613281</ele>
        <time>2012-05-15T07:37:45Z</time>
      </trkpt>
      <trkpt lat="48.74785" lon="6.16627">
        <ele>198.1689453125</ele>
        <time>2012-05-15T07:37:48Z</time>
      </trkpt>
      <trkpt lat="48.74774" lon="6.16629">
        <ele>199.13012695312</ele>
        <time>2012-05-15T07:37:50Z</time>
      </trkpt>
      <trkpt lat="48.74748" lon="6.16629">
        <ele>199.61083984375</ele>
        <time>2012-05-15T07:37:56Z</time>
      </trkpt>
      <trkpt lat="48.74746" lon="6.1663">
        <ele>200.09167480469</ele>
        <time>2012-05-15T07:37:59Z</time>
      </trkpt>
      <trkpt lat="48.74745" lon="6.16631">
        <ele>199.13012695312</ele>
        <time>2012-05-15T07:38:43Z</time>
      </trkpt>
      <trkpt lat="48.74736" lon="6.16633">
        <ele>199.61083984375</ele>
        <time>2012-05-15T07:38:46Z</time>
      </trkpt>
      <trkpt lat="48.74728" lon="6.16635">
        <ele>200.09167480469</ele>
        <time>2012-05-15T07:38:48Z</time>
      </trkpt>
      <trkpt lat="48.74713" lon="6.16649">
        <ele>200.09167480469</ele>
        <time>2012-05-15T07:38:52Z</time>
      </trkpt>
      <trkpt lat="48.74709" lon="6.16664">
        <ele>199.61083984375</ele>
        <time>2012-05-15T07:38:54Z</time>
      </trkpt>
      <trkpt lat="48.74691" lon="6.1674">
        <ele>199.13012695312</ele>
        <time>2012-05-15T07:39:02Z</time>
      </trkpt>
      <trkpt lat="48.7467" lon="6.16845">
        <ele>199.13012695312</ele>
        <time>2012-05-15T07:39:12Z</time>
      </trkpt>
      <trkpt lat="48.74652" lon="6.16974">
        <ele>200.09167480469</ele>
        <time>2012-05-15T07:39:24Z</time>
      </trkpt>
      <trkpt lat="48.74646" lon="6.17028">
        <ele>202.01428222656</ele>
        <time>2012-05-15T07:39:29Z</time>
      </trkpt>
      <trkpt lat="48.74637" lon="6.17111">
        <ele>202.01428222656</ele>
        <time>2012-05-15T07:39:37Z</time>
      </trkpt>
      <trkpt lat="48.74625" lon="6.17234">
        <ele>202.01428222656</ele>
        <time>2012-05-15T07:39:49Z</time>
      </trkpt>
      <trkpt lat="48.74614" lon="6.17342">
        <ele>203.93688964844</ele>
        <time>2012-05-15T07:40:00Z</time>
      </trkpt>
      <trkpt lat="48.74603" lon="6.1745">
        <ele>204.89807128906</ele>
        <time>2012-05-15T07:40:11Z</time>
      </trkpt>
      <trkpt lat="48.74589" lon="6.1758">
        <ele>206.34008789062</ele>
        <time>2012-05-15T07:40:24Z</time>
      </trkpt>
      <trkpt lat="48.74578" lon="6.17687">
        <ele>206.34008789062</ele>
        <time>2012-05-15T07:40:35Z</time>
      </trkpt>
      <trkpt lat="48.74568" lon="6.17792">
        <ele>206.82067871094</ele>
        <time>2012-05-15T07:40:45Z</time>
      </trkpt>
      <trkpt lat="48.74558" lon="6.17893">
        <ele>206.34008789062</ele>
        <time>2012-05-15T07:40:54Z</time>
      </trkpt>
      <trkpt lat="48.74549" lon="6.17975">
        <ele>205.37878417969</ele>
        <time>2012-05-15T07:41:01Z</time>
      </trkpt>
      <trkpt lat="48.74537" lon="6.18083">
        <ele>204.41748046875</ele>
        <time>2012-05-15T07:41:10Z</time>
      </trkpt>
      <trkpt lat="48.74529" lon="6.18133">
        <ele>203.45617675781</ele>
        <time>2012-05-15T07:41:14Z</time>
      </trkpt>
      <trkpt lat="48.74509" lon="6.1822">
        <ele>202.97546386719</ele>
        <time>2012-05-15T07:41:21Z</time>
      </trkpt>
      <trkpt lat="48.74484" lon="6.18292">
        <ele>202.49487304688</ele>
        <time>2012-05-15T07:41:27Z</time>
      </trkpt>
      <trkpt lat="48.74447" lon="6.18367">
        <ele>202.49487304688</ele>
        <time>2012-05-15T07:41:34Z</time>
      </trkpt>
      <trkpt lat="48.74413" lon="6.18417">
        <ele>203.45617675781</ele>
        <time>2012-05-15T07:41:40Z</time>
      </trkpt>
      <trkpt lat="48.74376" lon="6.18459">
        <ele>205.37878417969</ele>
        <time>2012-05-15T07:41:47Z</time>
      </trkpt>
      <trkpt lat="48.74332" lon="6.18495">
        <ele>207.30139160156</ele>
        <time>2012-05-15T07:41:55Z</time>
      </trkpt>
      <trkpt lat="48.74299" lon="6.18515">
        <ele>209.22412109375</ele>
        <time>2012-05-15T07:42:01Z</time>
      </trkpt>
      <trkpt lat="48.74249" lon="6.18536">
        <ele>210.18542480469</ele>
        <time>2012-05-15T07:42:10Z</time>
      </trkpt>
      <trkpt lat="48.74198" lon="6.1855">
        <ele>213.55004882812</ele>
        <time>2012-05-15T07:42:19Z</time>
      </trkpt>
      <trkpt lat="48.74192" lon="6.18551">
        <ele>213.55004882812</ele>
        <time>2012-05-15T07:42:20Z</time>
      </trkpt>
      <trkpt lat="48.74156" lon="6.18559">
        <ele>214.99194335938</ele>
        <time>2012-05-15T07:42:27Z</time>
      </trkpt>
      <trkpt lat="48.74131" lon="6.18565">
        <ele>216.43395996094</ele>
        <time>2012-05-15T07:42:32Z</time>
      </trkpt>
      <trkpt lat="48.74094" lon="6.18568">
        <ele>217.39538574219</ele>
        <time>2012-05-15T07:42:40Z</time>
      </trkpt>
      <trkpt lat="48.74071" lon="6.18556">
        <ele>218.35656738281</ele>
        <time>2012-05-15T07:42:45Z</time>
      </trkpt>
      <trkpt lat="48.7405" lon="6.18558">
        <ele>217.8759765625</ele>
        <time>2012-05-15T07:42:49Z</time>
      </trkpt>
      <trkpt lat="48.74035" lon="6.18555">
        <ele>218.35656738281</ele>
        <time>2012-05-15T07:42:52Z</time>
      </trkpt>
      <trkpt lat="48.73991" lon="6.18528">
        <ele>219.79858398438</ele>
        <time>2012-05-15T07:43:01Z</time>
      </trkpt>
      <trkpt lat="48.73937" lon="6.18495">
        <ele>221.24060058594</ele>
        <time>2012-05-15T07:43:12Z</time>
      </trkpt>
      <trkpt lat="48.73878" lon="6.18461">
        <ele>221.72119140625</ele>
        <time>2012-05-15T07:43:24Z</time>
      </trkpt>
      <trkpt lat="48.73832" lon="6.18429">
        <ele>224.12451171875</ele>
        <time>2012-05-15T07:43:34Z</time>
      </trkpt>
      <trkpt lat="48.73801" lon="6.184">
        <ele>225.56652832031</ele>
        <time>2012-05-15T07:43:42Z</time>
      </trkpt>
      <trkpt lat="48.73765" lon="6.18364">
        <ele>226.52783203125</ele>
        <time>2012-05-15T07:43:52Z</time>
      </trkpt>
      <trkpt lat="48.73729" lon="6.18328">
        <ele>229.41174316406</ele>
        <time>2012-05-15T07:44:02Z</time>
      </trkpt>
      <trkpt lat="48.73689" lon="6.18288">
        <ele>231.33435058594</ele>
        <time>2012-05-15T07:44:13Z</time>
      </trkpt>
      <trkpt lat="48.7365" lon="6.18253">
        <ele>232.77648925781</ele>
        <time>2012-05-15T07:44:24Z</time>
      </trkpt>
      <trkpt lat="48.73614" lon="6.18229">
        <ele>235.66027832031</ele>
        <time>2012-05-15T07:44:34Z</time>
      </trkpt>
      <trkpt lat="48.73576" lon="6.18211">
        <ele>237.10229492188</ele>
        <time>2012-05-15T07:44:44Z</time>
      </trkpt>
      <trkpt lat="48.73533" lon="6.182">
        <ele>238.54431152344</ele>
        <time>2012-05-15T07:44:55Z</time>
      </trkpt>
      <trkpt lat="48.73494" lon="6.18195">
        <ele>241.42822265625</ele>
        <time>2012-05-15T07:45:05Z</time>
      </trkpt>
      <trkpt lat="48.73454" lon="6.18199">
        <ele>242.3896484375</ele>
        <time>2012-05-15T07:45:15Z</time>
      </trkpt>
      <trkpt lat="48.73407" lon="6.18213">
        <ele>244.31225585938</ele>
        <time>2012-05-15T07:45:27Z</time>
      </trkpt>
      <trkpt lat="48.73365" lon="6.18228">
        <ele>246.23486328125</ele>
        <time>2012-05-15T07:45:38Z</time>
      </trkpt>
      <trkpt lat="48.7332" lon="6.18245">
        <ele>247.6767578125</ele>
        <time>2012-05-15T07:45:49Z</time>
      </trkpt>
      <trkpt lat="48.73277" lon="6.18261">
        <ele>248.63818359375</ele>
        <time>2012-05-15T07:45:59Z</time>
      </trkpt>
      <trkpt lat="48.73233" lon="6.18275">
        <ele>250.08020019531</ele>
        <time>2012-05-15T07:46:09Z</time>
      </trkpt>
      <trkpt lat="48.73197" lon="6.18282">
        <ele>251.04138183594</ele>
        <time>2012-05-15T07:46:17Z</time>
      </trkpt>
      <trkpt lat="48.73179" lon="6.18284">
        <ele>251.52209472656</ele>
        <time>2012-05-15T07:46:21Z</time>
      </trkpt>
      <trkpt lat="48.73161" lon="6.18276">
        <ele>252.4833984375</ele>
        <time>2012-05-15T07:46:25Z</time>
      </trkpt>
      <trkpt lat="48.7314" lon="6.18264">
        <ele>252.96398925781</ele>
        <time>2012-05-15T07:46:30Z</time>
      </trkpt>
      <trkpt lat="48.73135" lon="6.18264">
        <ele>253.44470214844</ele>
        <time>2012-05-15T07:46:31Z</time>
      </trkpt>
      <trkpt lat="48.73107" lon="6.18257">
        <ele>252.00280761719</ele>
        <time>2012-05-15T07:46:37Z</time>
      </trkpt>
      <trkpt lat="48.7309" lon="6.18256">
        <ele>250.56079101562</ele>
        <time>2012-05-15T07:46:40Z</time>
      </trkpt>
      <trkpt lat="48.73053" lon="6.18257">
        <ele>250.08020019531</ele>
        <time>2012-05-15T07:46:45Z</time>
      </trkpt>
      <trkpt lat="48.72979" lon="6.18248">
        <ele>248.15759277344</ele>
        <time>2012-05-15T07:46:55Z</time>
      </trkpt>
      <trkpt lat="48.72907" lon="6.18236">
        <ele>246.71545410156</ele>
        <time>2012-05-15T07:47:04Z</time>
      </trkpt>
      <trkpt lat="48.72889" lon="6.18233">
        <ele>245.75415039062</ele>
        <time>2012-05-15T07:47:06Z</time>
      </trkpt>
      <trkpt lat="48.72843" lon="6.18227">
        <ele>242.3896484375</ele>
        <time>2012-05-15T07:47:11Z</time>
      </trkpt>
      <trkpt lat="48.72764" lon="6.18212">
        <ele>240.94763183594</ele>
        <time>2012-05-15T07:47:20Z</time>
      </trkpt>
      <trkpt lat="48.72707" lon="6.18198">
        <ele>239.02490234375</ele>
        <time>2012-05-15T07:47:27Z</time>
      </trkpt>
      <trkpt lat="48.72699" lon="6.18196">
        <ele>239.02490234375</ele>
        <time>2012-05-15T07:47:28Z</time>
      </trkpt>
      <trkpt lat="48.72641" lon="6.18184">
        <ele>239.50549316406</ele>
        <time>2012-05-15T07:47:36Z</time>
      </trkpt>
      <trkpt lat="48.72627" lon="6.18181">
        <ele>237.58288574219</ele>
        <time>2012-05-15T07:47:38Z</time>
      </trkpt>
      <trkpt lat="48.72606" lon="6.18174">
        <ele>236.14099121094</ele>
        <time>2012-05-15T07:47:41Z</time>
      </trkpt>
      <trkpt lat="48.72559" lon="6.18159">
        <ele>233.73767089844</ele>
        <time>2012-05-15T07:47:47Z</time>
      </trkpt>
      <trkpt lat="48.72531" lon="6.1815">
        <ele>231.33435058594</ele>
        <time>2012-05-15T07:47:50Z</time>
      </trkpt>
      <trkpt lat="48.72492" lon="6.18137">
        <ele>228.45043945312</ele>
        <time>2012-05-15T07:47:54Z</time>
      </trkpt>
      <trkpt lat="48.72453" lon="6.18123">
        <ele>224.60522460938</ele>
        <time>2012-05-15T07:47:58Z</time>
      </trkpt>
      <trkpt lat="48.72433" lon="6.18115">
        <ele>224.12451171875</ele>
        <time>2012-05-15T07:48:00Z</time>
      </trkpt>
      <trkpt lat="48.72368" lon="6.18089">
        <ele>220.75988769531</ele>
        <time>2012-05-15T07:48:07Z</time>
      </trkpt>
      <trkpt lat="48.72359" lon="6.18086">
        <ele>220.27917480469</ele>
        <time>2012-05-15T07:48:08Z</time>
      </trkpt>
      <trkpt lat="48.72315" lon="6.18077">
        <ele>219.31799316406</ele>
        <time>2012-05-15T07:48:13Z</time>
      </trkpt>
      <trkpt lat="48.72264" lon="6.18083">
        <ele>218.35656738281</ele>
        <time>2012-05-15T07:48:19Z</time>
      </trkpt>
      <trkpt lat="48.72216" lon="6.18102">
        <ele>218.83728027344</ele>
        <time>2012-05-15T07:48:25Z</time>
      </trkpt>
      <trkpt lat="48.72201" lon="6.18109">
        <ele>217.39538574219</ele>
        <time>2012-05-15T07:48:27Z</time>
      </trkpt>
      <trkpt lat="48.72125" lon="6.18145">
        <ele>215.47265625</ele>
        <time>2012-05-15T07:48:37Z</time>
      </trkpt>
      <trkpt lat="48.72095" lon="6.18159">
        <ele>214.99194335938</ele>
        <time>2012-05-15T07:48:41Z</time>
      </trkpt>
      <trkpt lat="48.72066" lon="6.18171">
        <ele>213.55004882812</ele>
        <time>2012-05-15T07:48:46Z</time>
      </trkpt>
      <trkpt lat="48.72057" lon="6.18176">
        <ele>212.58862304688</ele>
        <time>2012-05-15T07:48:50Z</time>
      </trkpt>
      <trkpt lat="48.72054" lon="6.18177">
        <ele>214.99194335938</ele>
        <time>2012-05-15T07:48:53Z</time>
      </trkpt>
      <trkpt lat="48.72054" lon="6.18177">
        <ele>214.99194335938</ele>
        <time>2012-05-15T07:48:54Z</time>
      </trkpt>
      <trkpt lat="48.72054" lon="6.18177">
        <ele>214.03063964844</ele>
        <time>2012-05-15T07:48:57Z</time>
      </trkpt>
      <trkpt lat="48.72049" lon="6.1818">
        <ele>213.55004882812</ele>
        <time>2012-05-15T07:48:59Z</time>
      </trkpt>
      <trkpt lat="48.72035" lon="6.18189">
        <ele>213.55004882812</ele>
        <time>2012-05-15T07:49:03Z</time>
      </trkpt>
      <trkpt lat="48.72011" lon="6.18213">
        <ele>212.10803222656</ele>
        <time>2012-05-15T07:49:08Z</time>
      </trkpt>
      <trkpt lat="48.71974" lon="6.1825">
        <ele>211.14672851562</ele>
        <time>2012-05-15T07:49:15Z</time>
      </trkpt>
      <trkpt lat="48.71932" lon="6.18273">
        <ele>210.18542480469</ele>
        <time>2012-05-15T07:49:21Z</time>
      </trkpt>
      <trkpt lat="48.71864" lon="6.18305">
        <ele>208.74340820312</ele>
        <time>2012-05-15T07:49:30Z</time>
      </trkpt>
      <trkpt lat="48.71804" lon="6.18336">
        <ele>207.78210449219</ele>
        <time>2012-05-15T07:49:38Z</time>
      </trkpt>
      <trkpt lat="48.71744" lon="6.18371">
        <ele>206.82067871094</ele>
        <time>2012-05-15T07:49:47Z</time>
      </trkpt>
      <trkpt lat="48.71717" lon="6.18386">
        <ele>208.74340820312</ele>
        <time>2012-05-15T07:49:51Z</time>
      </trkpt>
      <trkpt lat="48.71666" lon="6.18419">
        <ele>208.26281738281</ele>
        <time>2012-05-15T07:49:59Z</time>
      </trkpt>
      <trkpt lat="48.71636" lon="6.1844">
        <ele>206.82067871094</ele>
        <time>2012-05-15T07:50:05Z</time>
      </trkpt>
      <trkpt lat="48.71623" lon="6.18449">
        <ele>206.82067871094</ele>
        <time>2012-05-15T07:50:10Z</time>
      </trkpt>
      <trkpt lat="48.71621" lon="6.1845">
        <ele>207.30139160156</ele>
        <time>2012-05-15T07:50:13Z</time>
      </trkpt>
      <trkpt lat="48.71622" lon="6.1845">
        <ele>206.82067871094</ele>
        <time>2012-05-15T07:50:51Z</time>
      </trkpt>
      <trkpt lat="48.71621" lon="6.18451">
        <ele>207.30139160156</ele>
        <time>2012-05-15T07:50:52Z</time>
      </trkpt>
      <trkpt lat="48.71606" lon="6.18458">
        <ele>207.30139160156</ele>
        <time>2012-05-15T07:50:56Z</time>
      </trkpt>
      <trkpt lat="48.71581" lon="6.18474">
        <ele>207.30139160156</ele>
        <time>2012-05-15T07:51:01Z</time>
      </trkpt>
      <trkpt lat="48.71556" lon="6.18485">
        <ele>206.82067871094</ele>
        <time>2012-05-15T07:51:05Z</time>
      </trkpt>
      <trkpt lat="48.71512" lon="6.18477">
        <ele>207.30139160156</ele>
        <time>2012-05-15T07:51:12Z</time>
      </trkpt>
      <trkpt lat="48.71458" lon="6.18455">
        <ele>207.30139160156</ele>
        <time>2012-05-15T07:51:20Z</time>
      </trkpt>
      <trkpt lat="48.71397" lon="6.18436">
        <ele>205.85949707031</ele>
        <time>2012-05-15T07:51:28Z</time>
      </trkpt>
      <trkpt lat="48.71354" lon="6.18431">
        <ele>205.85949707031</ele>
        <time>2012-05-15T07:51:34Z</time>
      </trkpt>
      <trkpt lat="48.71334" lon="6.18432">
        <ele>207.30139160156</ele>
        <time>2012-05-15T07:51:37Z</time>
      </trkpt>
      <trkpt lat="48.71279" lon="6.18437">
        <ele>207.30139160156</ele>
        <time>2012-05-15T07:51:45Z</time>
      </trkpt>
      <trkpt lat="48.7124" lon="6.18438">
        <ele>205.37878417969</ele>
        <time>2012-05-15T07:51:51Z</time>
      </trkpt>
      <trkpt lat="48.71212" lon="6.18436">
        <ele>204.41748046875</ele>
        <time>2012-05-15T07:51:56Z</time>
      </trkpt>
      <trkpt lat="48.71158" lon="6.18431">
        <ele>202.49487304688</ele>
        <time>2012-05-15T07:52:05Z</time>
      </trkpt>
      <trkpt lat="48.71116" lon="6.18439">
        <ele>202.49487304688</ele>
        <time>2012-05-15T07:52:11Z</time>
      </trkpt>
      <trkpt lat="48.71081" lon="6.18445">
        <ele>202.01428222656</ele>
        <time>2012-05-15T07:52:17Z</time>
      </trkpt>
      <trkpt lat="48.71038" lon="6.18445">
        <ele>202.01428222656</ele>
        <time>2012-05-15T07:52:23Z</time>
      </trkpt>
      <trkpt lat="48.71016" lon="6.18447">
        <ele>201.53356933594</ele>
        <time>2012-05-15T07:52:26Z</time>
      </trkpt>
      <trkpt lat="48.7098" lon="6.18453">
        <ele>201.53356933594</ele>
        <time>2012-05-15T07:52:31Z</time>
      </trkpt>
      <trkpt lat="48.70937" lon="6.18461">
        <ele>201.05285644531</ele>
        <time>2012-05-15T07:52:37Z</time>
      </trkpt>
      <trkpt lat="48.70926" lon="6.18464">
        <ele>200.09167480469</ele>
        <time>2012-05-15T07:52:40Z</time>
      </trkpt>
      <trkpt lat="48.70921" lon="6.18465">
        <ele>200.09167480469</ele>
        <time>2012-05-15T07:52:44Z</time>
      </trkpt>
      <trkpt lat="48.70918" lon="6.18462">
        <ele>200.09167480469</ele>
        <time>2012-05-15T07:53:30Z</time>
      </trkpt>
      <trkpt lat="48.70917" lon="6.18463">
        <ele>200.09167480469</ele>
        <time>2012-05-15T07:53:31Z</time>
      </trkpt>
      <trkpt lat="48.70905" lon="6.18466">
        <ele>200.09167480469</ele>
        <time>2012-05-15T07:53:34Z</time>
      </trkpt>
      <trkpt lat="48.70883" lon="6.18467">
        <ele>200.572265625</ele>
        <time>2012-05-15T07:53:39Z</time>
      </trkpt>
      <trkpt lat="48.70837" lon="6.18473">
        <ele>200.09167480469</ele>
        <time>2012-05-15T07:53:47Z</time>
      </trkpt>
      <trkpt lat="48.70789" lon="6.18476">
        <ele>201.05285644531</ele>
        <time>2012-05-15T07:53:54Z</time>
      </trkpt>
      <trkpt lat="48.70775" lon="6.18478">
        <ele>200.09167480469</ele>
        <time>2012-05-15T07:53:56Z</time>
      </trkpt>
      <trkpt lat="48.70732" lon="6.18481">
        <ele>199.13012695312</ele>
        <time>2012-05-15T07:54:02Z</time>
      </trkpt>
      <trkpt lat="48.70692" lon="6.18482">
        <ele>197.68823242188</ele>
        <time>2012-05-15T07:54:08Z</time>
      </trkpt>
      <trkpt lat="48.70663" lon="6.18469">
        <ele>198.64953613281</ele>
        <time>2012-05-15T07:54:13Z</time>
      </trkpt>
      <trkpt lat="48.70613" lon="6.18435">
        <ele>200.572265625</ele>
        <time>2012-05-15T07:54:22Z</time>
      </trkpt>
      <trkpt lat="48.70607" lon="6.18431">
        <ele>200.572265625</ele>
        <time>2012-05-15T07:54:23Z</time>
      </trkpt>
      <trkpt lat="48.70556" lon="6.18394">
        <ele>203.45617675781</ele>
        <time>2012-05-15T07:54:33Z</time>
      </trkpt>
      <trkpt lat="48.70541" lon="6.18383">
        <ele>201.05285644531</ele>
        <time>2012-05-15T07:54:36Z</time>
      </trkpt>
      <trkpt lat="48.70501" lon="6.18354">
        <ele>199.13012695312</ele>
        <time>2012-05-15T07:54:43Z</time>
      </trkpt>
      <trkpt lat="48.70474" lon="6.18336">
        <ele>198.64953613281</ele>
        <time>2012-05-15T07:54:47Z</time>
      </trkpt>
      <trkpt lat="48.70444" lon="6.1831">
        <ele>199.13012695312</ele>
        <time>2012-05-15T07:54:52Z</time>
      </trkpt>
      <trkpt lat="48.70422" lon="6.18287">
        <ele>196.24633789062</ele>
        <time>2012-05-15T07:54:57Z</time>
      </trkpt>
      <trkpt lat="48.70419" lon="6.18283">
        <ele>196.72692871094</ele>
        <time>2012-05-15T07:54:58Z</time>
      </trkpt>
      <trkpt lat="48.70409" lon="6.18272">
        <ele>197.68823242188</ele>
        <time>2012-05-15T07:55:03Z</time>
      </trkpt>
      <trkpt lat="48.70407" lon="6.18271">
        <ele>197.20751953125</ele>
        <time>2012-05-15T07:55:06Z</time>
      </trkpt>
      <trkpt lat="48.70407" lon="6.1827">
        <ele>196.72692871094</ele>
        <time>2012-05-15T07:55:15Z</time>
      </trkpt>
      <trkpt lat="48.70406" lon="6.18269">
        <ele>197.20751953125</ele>
        <time>2012-05-15T07:55:16Z</time>
      </trkpt>
      <trkpt lat="48.70396" lon="6.18257">
        <ele>197.68823242188</ele>
        <time>2012-05-15T07:55:19Z</time>
      </trkpt>
      <trkpt lat="48.70372" lon="6.18228">
        <ele>197.68823242188</ele>
        <time>2012-05-15T07:55:25Z</time>
      </trkpt>
      <trkpt lat="48.70334" lon="6.18182">
        <ele>199.13012695312</ele>
        <time>2012-05-15T07:55:34Z</time>
      </trkpt>
      <trkpt lat="48.70307" lon="6.18152">
        <ele>199.61083984375</ele>
        <time>2012-05-15T07:55:41Z</time>
      </trkpt>
      <trkpt lat="48.70282" lon="6.18124">
        <ele>198.64953613281</ele>
        <time>2012-05-15T07:55:46Z</time>
      </trkpt>
      <trkpt lat="48.70277" lon="6.18117">
        <ele>198.1689453125</ele>
        <time>2012-05-15T07:55:47Z</time>
      </trkpt>
      <trkpt lat="48.70259" lon="6.18088">
        <ele>198.1689453125</ele>
        <time>2012-05-15T07:55:51Z</time>
      </trkpt>
      <trkpt lat="48.70232" lon="6.18026">
        <ele>198.1689453125</ele>
        <time>2012-05-15T07:55:59Z</time>
      </trkpt>
      <trkpt lat="48.70209" lon="6.17979">
        <ele>198.1689453125</ele>
        <time>2012-05-15T07:56:06Z</time>
      </trkpt>
      <trkpt lat="48.70202" lon="6.17963">
        <ele>198.1689453125</ele>
        <time>2012-05-15T07:56:10Z</time>
      </trkpt>
      <trkpt lat="48.70193" lon="6.17948">
        <ele>198.64953613281</ele>
        <time>2012-05-15T07:56:17Z</time>
      </trkpt>
      <trkpt lat="48.70187" lon="6.17932">
        <ele>198.1689453125</ele>
        <time>2012-05-15T07:56:24Z</time>
      </trkpt>
      <trkpt lat="48.70178" lon="6.17916">
        <ele>199.13012695312</ele>
        <time>2012-05-15T07:56:28Z</time>
      </trkpt>
      <trkpt lat="48.70161" lon="6.17916">
        <ele>199.13012695312</ele>
        <time>2012-05-15T07:56:32Z</time>
      </trkpt>
      <trkpt lat="48.70116" lon="6.1794">
        <ele>199.13012695312</ele>
        <time>2012-05-15T07:56:41Z</time>
      </trkpt>
      <trkpt lat="48.70099" lon="6.1795">
        <ele>199.13012695312</ele>
        <time>2012-05-15T07:56:45Z</time>
      </trkpt>
      <trkpt lat="48.70092" lon="6.17955">
        <ele>199.61083984375</ele>
        <time>2012-05-15T07:56:50Z</time>
      </trkpt>
      <trkpt lat="48.70092" lon="6.17956">
        <ele>199.13012695312</ele>
        <time>2012-05-15T07:56:51Z</time>
      </trkpt>
      <trkpt lat="48.70089" lon="6.17962">
        <ele>199.61083984375</ele>
        <time>2012-05-15T07:57:04Z</time>
      </trkpt>
      <trkpt lat="48.70078" lon="6.17967">
        <ele>199.61083984375</ele>
        <time>2012-05-15T07:57:09Z</time>
      </trkpt>
      <trkpt lat="48.70058" lon="6.17976">
        <ele>200.09167480469</ele>
        <time>2012-05-15T07:57:14Z</time>
      </trkpt>
      <trkpt lat="48.70026" lon="6.17994">
        <ele>199.61083984375</ele>
        <time>2012-05-15T07:57:21Z</time>
      </trkpt>
      <trkpt lat="48.70012" lon="6.18001">
        <ele>199.61083984375</ele>
        <time>2012-05-15T07:57:26Z</time>
      </trkpt>
      <trkpt lat="48.70009" lon="6.18002">
        <ele>199.61083984375</ele>
        <time>2012-05-15T07:57:29Z</time>
      </trkpt>
      <trkpt lat="48.70004" lon="6.18001">
        <ele>200.09167480469</ele>
        <time>2012-05-15T07:57:58Z</time>
      </trkpt>
      <trkpt lat="48.70004" lon="6.18002">
        <ele>200.09167480469</ele>
        <time>2012-05-15T07:57:59Z</time>
      </trkpt>
      <trkpt lat="48.69994" lon="6.18011">
        <ele>200.09167480469</ele>
        <time>2012-05-15T07:58:02Z</time>
      </trkpt>
      <trkpt lat="48.69967" lon="6.18027">
        <ele>200.572265625</ele>
        <time>2012-05-15T07:58:08Z</time>
      </trkpt>
      <trkpt lat="48.69931" lon="6.18045">
        <ele>200.572265625</ele>
        <time>2012-05-15T07:58:15Z</time>
      </trkpt>
      <trkpt lat="48.69909" lon="6.18053">
        <ele>200.572265625</ele>
        <time>2012-05-15T07:58:21Z</time>
      </trkpt>
      <trkpt lat="48.69906" lon="6.18053">
        <ele>200.572265625</ele>
        <time>2012-05-15T07:58:22Z</time>
      </trkpt>
      <trkpt lat="48.69907" lon="6.18065">
        <ele>200.572265625</ele>
        <time>2012-05-15T07:58:27Z</time>
      </trkpt>
      <trkpt lat="48.69902" lon="6.18073">
        <ele>201.05285644531</ele>
        <time>2012-05-15T07:58:33Z</time>
      </trkpt>
      <trkpt lat="48.6988" lon="6.18085">
        <ele>202.01428222656</ele>
        <time>2012-05-15T07:58:41Z</time>
      </trkpt>
      <trkpt lat="48.69862" lon="6.18096">
        <ele>203.93688964844</ele>
        <time>2012-05-15T07:58:47Z</time>
      </trkpt>
      <trkpt lat="48.69841" lon="6.18111">
        <ele>203.93688964844</ele>
        <time>2012-05-15T07:58:53Z</time>
      </trkpt>
      <trkpt lat="48.69837" lon="6.18114">
        <ele>203.93688964844</ele>
        <time>2012-05-15T07:58:54Z</time>
      </trkpt>
      <trkpt lat="48.69823" lon="6.18123">
        <ele>203.93688964844</ele>
        <time>2012-05-15T07:58:57Z</time>
      </trkpt>
      <trkpt lat="48.6979" lon="6.18147">
        <ele>204.41748046875</ele>
        <time>2012-05-15T07:59:04Z</time>
      </trkpt>
      <trkpt lat="48.69746" lon="6.18177">
        <ele>205.85949707031</ele>
        <time>2012-05-15T07:59:14Z</time>
      </trkpt>
      <trkpt lat="48.69721" lon="6.18195">
        <ele>204.89807128906</ele>
        <time>2012-05-15T07:59:20Z</time>
      </trkpt>
      <trkpt lat="48.69696" lon="6.18212">
        <ele>204.89807128906</ele>
        <time>2012-05-15T07:59:27Z</time>
      </trkpt>
      <trkpt lat="48.69677" lon="6.18225">
        <ele>204.89807128906</ele>
        <time>2012-05-15T07:59:32Z</time>
      </trkpt>
      <trkpt lat="48.6964" lon="6.18252">
        <ele>204.41748046875</ele>
        <time>2012-05-15T07:59:41Z</time>
      </trkpt>
      <trkpt lat="48.6962" lon="6.18267">
        <ele>204.41748046875</ele>
        <time>2012-05-15T07:59:47Z</time>
      </trkpt>
      <trkpt lat="48.69605" lon="6.18278">
        <ele>204.41748046875</ele>
        <time>2012-05-15T07:59:52Z</time>
      </trkpt>
      <trkpt lat="48.69601" lon="6.1828">
        <ele>203.93688964844</ele>
        <time>2012-05-15T07:59:53Z</time>
      </trkpt>
      <trkpt lat="48.69567" lon="6.18302">
        <ele>203.93688964844</ele>
        <time>2012-05-15T08:00:01Z</time>
      </trkpt>
      <trkpt lat="48.69528" lon="6.18328">
        <ele>203.45617675781</ele>
        <time>2012-05-15T08:00:10Z</time>
      </trkpt>
      <trkpt lat="48.69524" lon="6.18331">
        <ele>203.45617675781</ele>
        <time>2012-05-15T08:00:11Z</time>
      </trkpt>
      <trkpt lat="48.69493" lon="6.18353">
        <ele>203.93688964844</ele>
        <time>2012-05-15T08:00:19Z</time>
      </trkpt>
      <trkpt lat="48.69477" lon="6.18359">
        <ele>203.45617675781</ele>
        <time>2012-05-15T08:00:23Z</time>
      </trkpt>
      <trkpt lat="48.69442" lon="6.18366">
        <ele>203.45617675781</ele>
        <time>2012-05-15T08:00:33Z</time>
      </trkpt>
      <trkpt lat="48.69424" lon="6.1838">
        <ele>202.49487304688</ele>
        <time>2012-05-15T08:00:40Z</time>
      </trkpt>
      <trkpt lat="48.69415" lon="6.1838">
        <ele>202.97546386719</ele>
        <time>2012-05-15T08:00:45Z</time>
      </trkpt>
      <trkpt lat="48.69411" lon="6.18378">
        <ele>202.97546386719</ele>
        <time>2012-05-15T08:00:47Z</time>
      </trkpt>
      <trkpt lat="48.6941" lon="6.18378">
        <ele>202.49487304688</ele>
        <time>2012-05-15T08:00:51Z</time>
      </trkpt>
      <trkpt lat="48.6941" lon="6.18377">
        <ele>202.97546386719</ele>
        <time>2012-05-15T08:00:57Z</time>
      </trkpt>
      <trkpt lat="48.69405" lon="6.1837">
        <ele>202.49487304688</ele>
        <time>2012-05-15T08:01:00Z</time>
      </trkpt>
      <trkpt lat="48.69392" lon="6.18364">
        <ele>203.45617675781</ele>
        <time>2012-05-15T08:01:07Z</time>
      </trkpt>
      <trkpt lat="48.69384" lon="6.18357">
        <ele>203.45617675781</ele>
        <time>2012-05-15T08:01:14Z</time>
      </trkpt>
      <trkpt lat="48.69375" lon="6.18342">
        <ele>203.45617675781</ele>
        <time>2012-05-15T08:01:22Z</time>
      </trkpt>
      <trkpt lat="48.6937" lon="6.1833">
        <ele>203.45617675781</ele>
        <time>2012-05-15T08:01:28Z</time>
      </trkpt>
      <trkpt lat="48.69363" lon="6.18317">
        <ele>203.93688964844</ele>
        <time>2012-05-15T08:01:34Z</time>
      </trkpt>
      <trkpt lat="48.6936" lon="6.18315">
        <ele>203.45617675781</ele>
        <time>2012-05-15T08:01:38Z</time>
      </trkpt>
      <trkpt lat="48.69358" lon="6.18317">
        <ele>203.45617675781</ele>
        <time>2012-05-15T08:02:02Z</time>
      </trkpt>
      <trkpt lat="48.69358" lon="6.18312">
        <ele>203.45617675781</ele>
        <time>2012-05-15T08:02:09Z</time>
      </trkpt>
      <trkpt lat="48.69357" lon="6.18314">
        <ele>204.89807128906</ele>
        <time>2012-05-15T08:03:21Z</time>
      </trkpt>
      <trkpt lat="48.69356" lon="6.18315">
        <ele>204.89807128906</ele>
        <time>2012-05-15T08:03:22Z</time>
      </trkpt>
      <trkpt lat="48.69355" lon="6.18317">
        <ele>204.41748046875</ele>
        <time>2012-05-15T08:03:24Z</time>
      </trkpt>
      <trkpt lat="48.69355" lon="6.18317">
        <ele>204.41748046875</ele>
        <time>2012-05-15T08:04:05Z</time>
      </trkpt>
      <trkpt lat="48.69356" lon="6.18316">
        <ele>204.41748046875</ele>
        <time>2012-05-15T08:04:06Z</time>
      </trkpt>
      <trkpt lat="48.69359" lon="6.18316">
        <ele>203.93688964844</ele>
        <time>2012-05-15T08:04:10Z</time>
      </trkpt>
      <trkpt lat="48.69358" lon="6.18316">
        <ele>204.41748046875</ele>
        <time>2012-05-15T08:04:15Z</time>
      </trkpt>
      <trkpt lat="48.69355" lon="6.18318">
        <ele>203.93688964844</ele>
        <time>2012-05-15T08:04:20Z</time>
      </trkpt>
      <trkpt lat="48.69355" lon="6.18317">
        <ele>203.93688964844</ele>
        <time>2012-05-15T08:04:37Z</time>
      </trkpt>
      <trkpt lat="48.69358" lon="6.1831">
        <ele>204.41748046875</ele>
        <time>2012-05-15T08:04:44Z</time>
      </trkpt>
      <trkpt lat="48.69362" lon="6.18304">
        <ele>203.45617675781</ele>
        <time>2012-05-15T08:04:50Z</time>
      </trkpt>
      <trkpt lat="48.69374" lon="6.18291">
        <ele>203.45617675781</ele>
        <time>2012-05-15T08:05:04Z</time>
      </trkpt>
      <trkpt lat="48.69382" lon="6.18285">
        <ele>202.97546386719</ele>
        <time>2012-05-15T08:05:13Z</time>
      </trkpt>
      <trkpt lat="48.69383" lon="6.18278">
        <ele>202.97546386719</ele>
        <time>2012-05-15T08:05:18Z</time>
      </trkpt>
      <trkpt lat="48.69381" lon="6.18271">
        <ele>203.45617675781</ele>
        <time>2012-05-15T08:05:25Z</time>
      </trkpt>
      <trkpt lat="48.69382" lon="6.18269">
        <ele>200.572265625</ele>
        <time>2012-05-15T08:20:26Z</time>
      </trkpt>
      <trkpt lat="48.69381" lon="6.1827">
        <ele>201.05285644531</ele>
        <time>2012-05-15T08:20:27Z</time>
      </trkpt>
      <trkpt lat="48.69382" lon="6.18274">
        <ele>200.572265625</ele>
        <time>2012-05-15T08:20:30Z</time>
      </trkpt>
      <trkpt lat="48.69386" lon="6.18283">
        <ele>200.09167480469</ele>
        <time>2012-05-15T08:20:34Z</time>
      </trkpt>
      <trkpt lat="48.69387" lon="6.18286">
        <ele>200.572265625</ele>
        <time>2012-05-15T08:20:35Z</time>
      </trkpt>
      <trkpt lat="48.6939" lon="6.18299">
        <ele>200.572265625</ele>
        <time>2012-05-15T08:20:40Z</time>
      </trkpt>
      <trkpt lat="48.69399" lon="6.18296">
        <ele>201.05285644531</ele>
        <time>2012-05-15T08:20:46Z</time>
      </trkpt>
      <trkpt lat="48.69414" lon="6.18288">
        <ele>201.05285644531</ele>
        <time>2012-05-15T08:20:54Z</time>
      </trkpt>
      <trkpt lat="48.6943" lon="6.18278">
        <ele>201.05285644531</ele>
        <time>2012-05-15T08:21:00Z</time>
      </trkpt>
      <trkpt lat="48.69442" lon="6.18263">
        <ele>199.61083984375</ele>
        <time>2012-05-15T08:21:06Z</time>
      </trkpt>
      <trkpt lat="48.69447" lon="6.18249">
        <ele>200.09167480469</ele>
        <time>2012-05-15T08:21:09Z</time>
      </trkpt>
      <trkpt lat="48.69448" lon="6.18253">
        <ele>199.61083984375</ele>
        <time>2012-05-15T08:21:11Z</time>
      </trkpt>
      <trkpt lat="48.69476" lon="6.18244">
        <ele>200.09167480469</ele>
        <time>2012-05-15T08:21:19Z</time>
      </trkpt>
      <trkpt lat="48.69495" lon="6.18234">
        <ele>198.64953613281</ele>
        <time>2012-05-15T08:21:26Z</time>
      </trkpt>
      <trkpt lat="48.69501" lon="6.18231">
        <ele>199.13012695312</ele>
        <time>2012-05-15T08:21:29Z</time>
      </trkpt>
      <trkpt lat="48.69506" lon="6.18239">
        <ele>199.13012695312</ele>
        <time>2012-05-15T08:21:34Z</time>
      </trkpt>
      <trkpt lat="48.6951" lon="6.1825">
        <ele>199.61083984375</ele>
        <time>2012-05-15T08:21:38Z</time>
      </trkpt>
      <trkpt lat="48.69521" lon="6.18246">
        <ele>199.61083984375</ele>
        <time>2012-05-15T08:21:42Z</time>
      </trkpt>
      <trkpt lat="48.69545" lon="6.18228">
        <ele>201.05285644531</ele>
        <time>2012-05-15T08:21:48Z</time>
      </trkpt>
      <trkpt lat="48.69577" lon="6.18207">
        <ele>200.572265625</ele>
        <time>2012-05-15T08:21:55Z</time>
      </trkpt>
      <trkpt lat="48.69624" lon="6.18177">
        <ele>199.13012695312</ele>
        <time>2012-05-15T08:22:05Z</time>
      </trkpt>
      <trkpt lat="48.69652" lon="6.18157">
        <ele>199.61083984375</ele>
        <time>2012-05-15T08:22:12Z</time>
      </trkpt>
      <trkpt lat="48.69672" lon="6.18132">
        <ele>201.05285644531</ele>
        <time>2012-05-15T08:22:19Z</time>
      </trkpt>
      <trkpt lat="48.69681" lon="6.18116">
        <ele>201.53356933594</ele>
        <time>2012-05-15T08:22:24Z</time>
      </trkpt>
      <trkpt lat="48.69676" lon="6.18096">
        <ele>201.53356933594</ele>
        <time>2012-05-15T08:22:28Z</time>
      </trkpt>
      <trkpt lat="48.69663" lon="6.18056">
        <ele>201.53356933594</ele>
        <time>2012-05-15T08:22:35Z</time>
      </trkpt>
      <trkpt lat="48.69658" lon="6.18042">
        <ele>200.09167480469</ele>
        <time>2012-05-15T08:22:38Z</time>
      </trkpt>
      <trkpt lat="48.69656" lon="6.18023">
        <ele>199.61083984375</ele>
        <time>2012-05-15T08:22:41Z</time>
      </trkpt>
      <trkpt lat="48.69656" lon="6.18017">
        <ele>199.13012695312</ele>
        <time>2012-05-15T08:22:42Z</time>
      </trkpt>
      <trkpt lat="48.69652" lon="6.17981">
        <ele>200.572265625</ele>
        <time>2012-05-15T08:22:48Z</time>
      </trkpt>
      <trkpt lat="48.6964" lon="6.17958">
        <ele>201.53356933594</ele>
        <time>2012-05-15T08:22:53Z</time>
      </trkpt>
      <trkpt lat="48.69628" lon="6.17926">
        <ele>201.53356933594</ele>
        <time>2012-05-15T08:23:00Z</time>
      </trkpt>
      <trkpt lat="48.69626" lon="6.17896">
        <ele>202.49487304688</ele>
        <time>2012-05-15T08:23:06Z</time>
      </trkpt>
      <trkpt lat="48.69628" lon="6.17877">
        <ele>202.97546386719</ele>
        <time>2012-05-15T08:23:10Z</time>
      </trkpt>
      <trkpt lat="48.69638" lon="6.17866">
        <ele>203.45617675781</ele>
        <time>2012-05-15T08:23:14Z</time>
      </trkpt>
      <trkpt lat="48.69645" lon="6.17854">
        <ele>203.45617675781</ele>
        <time>2012-05-15T08:23:17Z</time>
      </trkpt>
      <trkpt lat="48.6964" lon="6.17837">
        <ele>204.41748046875</ele>
        <time>2012-05-15T08:23:21Z</time>
      </trkpt>
      <trkpt lat="48.69631" lon="6.17818">
        <ele>202.97546386719</ele>
        <time>2012-05-15T08:23:25Z</time>
      </trkpt>
      <trkpt lat="48.69608" lon="6.17778">
        <ele>204.89807128906</ele>
        <time>2012-05-15T08:23:34Z</time>
      </trkpt>
      <trkpt lat="48.69596" lon="6.17743">
        <ele>205.37878417969</ele>
        <time>2012-05-15T08:23:41Z</time>
      </trkpt>
      <trkpt lat="48.69583" lon="6.17706">
        <ele>206.82067871094</ele>
        <time>2012-05-15T08:23:48Z</time>
      </trkpt>
      <trkpt lat="48.69574" lon="6.17672">
        <ele>208.26281738281</ele>
        <time>2012-05-15T08:23:55Z</time>
      </trkpt>
      <trkpt lat="48.69573" lon="6.1767">
        <ele>207.78210449219</ele>
        <time>2012-05-15T08:23:56Z</time>
      </trkpt>
      <trkpt lat="48.69574" lon="6.17667">
        <ele>207.30139160156</ele>
        <time>2012-05-15T08:23:59Z</time>
      </trkpt>
      <trkpt lat="48.69574" lon="6.17667">
        <ele>207.30139160156</ele>
        <time>2012-05-15T08:24:04Z</time>
      </trkpt>
      <trkpt lat="48.69582" lon="6.1766">
        <ele>207.30139160156</ele>
        <time>2012-05-15T08:24:07Z</time>
      </trkpt>
      <trkpt lat="48.69606" lon="6.17642">
        <ele>208.26281738281</ele>
        <time>2012-05-15T08:24:14Z</time>
      </trkpt>
      <trkpt lat="48.69633" lon="6.17621">
        <ele>206.34008789062</ele>
        <time>2012-05-15T08:24:21Z</time>
      </trkpt>
      <trkpt lat="48.6966" lon="6.17602">
        <ele>207.30139160156</ele>
        <time>2012-05-15T08:24:27Z</time>
      </trkpt>
      <trkpt lat="48.69692" lon="6.17577">
        <ele>206.82067871094</ele>
        <time>2012-05-15T08:24:34Z</time>
      </trkpt>
      <trkpt lat="48.69719" lon="6.17556">
        <ele>206.82067871094</ele>
        <time>2012-05-15T08:24:40Z</time>
      </trkpt>
      <trkpt lat="48.69749" lon="6.17534">
        <ele>207.30139160156</ele>
        <time>2012-05-15T08:24:47Z</time>
      </trkpt>
      <trkpt lat="48.69766" lon="6.17522">
        <ele>207.78210449219</ele>
        <time>2012-05-15T08:24:51Z</time>
      </trkpt>
      <trkpt lat="48.69792" lon="6.17506">
        <ele>207.30139160156</ele>
        <time>2012-05-15T08:24:58Z</time>
      </trkpt>
      <trkpt lat="48.69797" lon="6.17507">
        <ele>206.82067871094</ele>
        <time>2012-05-15T08:25:03Z</time>
      </trkpt>
      <trkpt lat="48.69798" lon="6.17507">
        <ele>205.85949707031</ele>
        <time>2012-05-15T08:25:17Z</time>
      </trkpt>
      <trkpt lat="48.698" lon="6.17508">
        <ele>206.34008789062</ele>
        <time>2012-05-15T08:25:18Z</time>
      </trkpt>
      <trkpt lat="48.69811" lon="6.17515">
        <ele>206.82067871094</ele>
        <time>2012-05-15T08:25:21Z</time>
      </trkpt>
      <trkpt lat="48.69844" lon="6.17532">
        <ele>206.34008789062</ele>
        <time>2012-05-15T08:25:29Z</time>
      </trkpt>
      <trkpt lat="48.69876" lon="6.1755">
        <ele>205.37878417969</ele>
        <time>2012-05-15T08:25:36Z</time>
      </trkpt>
      <trkpt lat="48.69908" lon="6.17567">
        <ele>204.41748046875</ele>
        <time>2012-05-15T08:25:42Z</time>
      </trkpt>
      <trkpt lat="48.69947" lon="6.17591">
        <ele>204.41748046875</ele>
        <time>2012-05-15T08:25:49Z</time>
      </trkpt>
      <trkpt lat="48.69984" lon="6.17611">
        <ele>202.49487304688</ele>
        <time>2012-05-15T08:25:56Z</time>
      </trkpt>
      <trkpt lat="48.7" lon="6.17621">
        <ele>202.01428222656</ele>
        <time>2012-05-15T08:26:01Z</time>
      </trkpt>
      <trkpt lat="48.70004" lon="6.17624">
        <ele>202.49487304688</ele>
        <time>2012-05-15T08:26:06Z</time>
      </trkpt>
      <trkpt lat="48.70005" lon="6.17624">
        <ele>202.49487304688</ele>
        <time>2012-05-15T08:26:10Z</time>
      </trkpt>
      <trkpt lat="48.70019" lon="6.17633">
        <ele>202.01428222656</ele>
        <time>2012-05-15T08:26:15Z</time>
      </trkpt>
      <trkpt lat="48.70047" lon="6.17649">
        <ele>202.01428222656</ele>
        <time>2012-05-15T08:26:21Z</time>
      </trkpt>
      <trkpt lat="48.70082" lon="6.17666">
        <ele>200.572265625</ele>
        <time>2012-05-15T08:26:27Z</time>
      </trkpt>
      <trkpt lat="48.70101" lon="6.17678">
        <ele>200.572265625</ele>
        <time>2012-05-15T08:26:31Z</time>
      </trkpt>
      <trkpt lat="48.7012" lon="6.17674">
        <ele>201.53356933594</ele>
        <time>2012-05-15T08:26:35Z</time>
      </trkpt>
      <trkpt lat="48.70124" lon="6.1767">
        <ele>201.05285644531</ele>
        <time>2012-05-15T08:26:36Z</time>
      </trkpt>
      <trkpt lat="48.70139" lon="6.17656">
        <ele>200.572265625</ele>
        <time>2012-05-15T08:26:40Z</time>
      </trkpt>
      <trkpt lat="48.70169" lon="6.17628">
        <ele>200.09167480469</ele>
        <time>2012-05-15T08:26:47Z</time>
      </trkpt>
      <trkpt lat="48.702" lon="6.17603">
        <ele>200.09167480469</ele>
        <time>2012-05-15T08:26:53Z</time>
      </trkpt>
      <trkpt lat="48.70236" lon="6.17573">
        <ele>199.61083984375</ele>
        <time>2012-05-15T08:27:00Z</time>
      </trkpt>
      <trkpt lat="48.7027" lon="6.1754">
        <ele>199.61083984375</ele>
        <time>2012-05-15T08:27:07Z</time>
      </trkpt>
      <trkpt lat="48.70289" lon="6.17507">
        <ele>200.572265625</ele>
        <time>2012-05-15T08:27:12Z</time>
      </trkpt>
      <trkpt lat="48.70316" lon="6.17438">
        <ele>201.05285644531</ele>
        <time>2012-05-15T08:27:21Z</time>
      </trkpt>
      <trkpt lat="48.70319" lon="6.17431">
        <ele>201.05285644531</ele>
        <time>2012-05-15T08:27:22Z</time>
      </trkpt>
      <trkpt lat="48.70323" lon="6.17424">
        <ele>201.05285644531</ele>
        <time>2012-05-15T08:27:23Z</time>
      </trkpt>
      <trkpt lat="48.70332" lon="6.17403">
        <ele>200.572265625</ele>
        <time>2012-05-15T08:27:26Z</time>
      </trkpt>
      <trkpt lat="48.70342" lon="6.17374">
        <ele>201.53356933594</ele>
        <time>2012-05-15T08:27:30Z</time>
      </trkpt>
      <trkpt lat="48.70364" lon="6.17324">
        <ele>201.53356933594</ele>
        <time>2012-05-15T08:27:37Z</time>
      </trkpt>
      <trkpt lat="48.70384" lon="6.17268">
        <ele>202.01428222656</ele>
        <time>2012-05-15T08:27:44Z</time>
      </trkpt>
      <trkpt lat="48.70399" lon="6.17216">
        <ele>201.53356933594</ele>
        <time>2012-05-15T08:27:50Z</time>
      </trkpt>
      <trkpt lat="48.70415" lon="6.17143">
        <ele>201.53356933594</ele>
        <time>2012-05-15T08:27:58Z</time>
      </trkpt>
      <trkpt lat="48.70433" lon="6.17073">
        <ele>201.53356933594</ele>
        <time>2012-05-15T08:28:06Z</time>
      </trkpt>
      <trkpt lat="48.70435" lon="6.17064">
        <ele>202.01428222656</ele>
        <time>2012-05-15T08:28:07Z</time>
      </trkpt>
      <trkpt lat="48.70458" lon="6.17001">
        <ele>200.572265625</ele>
        <time>2012-05-15T08:28:15Z</time>
      </trkpt>
      <trkpt lat="48.70472" lon="6.16971">
        <ele>200.572265625</ele>
        <time>2012-05-15T08:28:20Z</time>
      </trkpt>
      <trkpt lat="48.70495" lon="6.16925">
        <ele>202.01428222656</ele>
        <time>2012-05-15T08:28:27Z</time>
      </trkpt>
      <trkpt lat="48.70531" lon="6.16883">
        <ele>201.05285644531</ele>
        <time>2012-05-15T08:28:34Z</time>
      </trkpt>
      <trkpt lat="48.70587" lon="6.16821">
        <ele>202.01428222656</ele>
        <time>2012-05-15T08:28:44Z</time>
      </trkpt>
      <trkpt lat="48.70641" lon="6.16761">
        <ele>201.53356933594</ele>
        <time>2012-05-15T08:28:54Z</time>
      </trkpt>
      <trkpt lat="48.70685" lon="6.16717">
        <ele>201.53356933594</ele>
        <time>2012-05-15T08:29:02Z</time>
      </trkpt>
      <trkpt lat="48.70731" lon="6.16685">
        <ele>202.49487304688</ele>
        <time>2012-05-15T08:29:10Z</time>
      </trkpt>
      <trkpt lat="48.70771" lon="6.16667">
        <ele>202.97546386719</ele>
        <time>2012-05-15T08:29:17Z</time>
      </trkpt>
      <trkpt lat="48.70801" lon="6.16669">
        <ele>203.93688964844</ele>
        <time>2012-05-15T08:29:22Z</time>
      </trkpt>
      <trkpt lat="48.70864" lon="6.1669">
        <ele>201.53356933594</ele>
        <time>2012-05-15T08:29:32Z</time>
      </trkpt>
      <trkpt lat="48.70923" lon="6.1671">
        <ele>201.05285644531</ele>
        <time>2012-05-15T08:29:40Z</time>
      </trkpt>
      <trkpt lat="48.70985" lon="6.16726">
        <ele>200.09167480469</ele>
        <time>2012-05-15T08:29:48Z</time>
      </trkpt>
      <trkpt lat="48.71053" lon="6.16744">
        <ele>199.61083984375</ele>
        <time>2012-05-15T08:29:57Z</time>
      </trkpt>
      <trkpt lat="48.71112" lon="6.16765">
        <ele>200.09167480469</ele>
        <time>2012-05-15T08:30:05Z</time>
      </trkpt>
      <trkpt lat="48.71174" lon="6.16788">
        <ele>201.05285644531</ele>
        <time>2012-05-15T08:30:14Z</time>
      </trkpt>
      <trkpt lat="48.71207" lon="6.168">
        <ele>202.49487304688</ele>
        <time>2012-05-15T08:30:20Z</time>
      </trkpt>
      <trkpt lat="48.71224" lon="6.16806">
        <ele>202.49487304688</ele>
        <time>2012-05-15T08:30:25Z</time>
      </trkpt>
      <trkpt lat="48.7123" lon="6.16808">
        <ele>202.49487304688</ele>
        <time>2012-05-15T08:30:30Z</time>
      </trkpt>
      <trkpt lat="48.71237" lon="6.16809">
        <ele>202.97546386719</ele>
        <time>2012-05-15T08:30:36Z</time>
      </trkpt>
      <trkpt lat="48.71237" lon="6.1681">
        <ele>202.97546386719</ele>
        <time>2012-05-15T08:30:38Z</time>
      </trkpt>
      <trkpt lat="48.71235" lon="6.1681">
        <ele>202.01428222656</ele>
        <time>2012-05-15T08:30:52Z</time>
      </trkpt>
      <trkpt lat="48.71248" lon="6.16813">
        <ele>202.49487304688</ele>
        <time>2012-05-15T08:30:56Z</time>
      </trkpt>
      <trkpt lat="48.71271" lon="6.16817">
        <ele>202.97546386719</ele>
        <time>2012-05-15T08:31:01Z</time>
      </trkpt>
      <trkpt lat="48.713" lon="6.16822">
        <ele>204.41748046875</ele>
        <time>2012-05-15T08:31:06Z</time>
      </trkpt>
      <trkpt lat="48.71311" lon="6.16824">
        <ele>202.97546386719</ele>
        <time>2012-05-15T08:31:08Z</time>
      </trkpt>
      <trkpt lat="48.71351" lon="6.16831">
        <ele>203.93688964844</ele>
        <time>2012-05-15T08:31:15Z</time>
      </trkpt>
      <trkpt lat="48.71363" lon="6.16832">
        <ele>203.93688964844</ele>
        <time>2012-05-15T08:31:17Z</time>
      </trkpt>
      <trkpt lat="48.71439" lon="6.16847">
        <ele>204.89807128906</ele>
        <time>2012-05-15T08:31:29Z</time>
      </trkpt>
      <trkpt lat="48.71502" lon="6.16856">
        <ele>205.37878417969</ele>
        <time>2012-05-15T08:31:39Z</time>
      </trkpt>
      <trkpt lat="48.71547" lon="6.16869">
        <ele>204.89807128906</ele>
        <time>2012-05-15T08:31:46Z</time>
      </trkpt>
      <trkpt lat="48.71587" lon="6.16889">
        <ele>205.85949707031</ele>
        <time>2012-05-15T08:31:52Z</time>
      </trkpt>
      <trkpt lat="48.71651" lon="6.16926">
        <ele>203.93688964844</ele>
        <time>2012-05-15T08:32:01Z</time>
      </trkpt>
      <trkpt lat="48.71712" lon="6.16968">
        <ele>204.41748046875</ele>
        <time>2012-05-15T08:32:10Z</time>
      </trkpt>
      <trkpt lat="48.71749" lon="6.17004">
        <ele>207.30139160156</ele>
        <time>2012-05-15T08:32:17Z</time>
      </trkpt>
      <trkpt lat="48.71754" lon="6.17009">
        <ele>207.30139160156</ele>
        <time>2012-05-15T08:32:18Z</time>
      </trkpt>
      <trkpt lat="48.71767" lon="6.17036">
        <ele>208.26281738281</ele>
        <time>2012-05-15T08:32:22Z</time>
      </trkpt>
      <trkpt lat="48.71787" lon="6.17053">
        <ele>208.26281738281</ele>
        <time>2012-05-15T08:32:26Z</time>
      </trkpt>
      <trkpt lat="48.718" lon="6.17058">
        <ele>208.74340820312</ele>
        <time>2012-05-15T08:32:28Z</time>
      </trkpt>
      <trkpt lat="48.71828" lon="6.17076">
        <ele>212.10803222656</ele>
        <time>2012-05-15T08:32:33Z</time>
      </trkpt>
      <trkpt lat="48.71875" lon="6.17102">
        <ele>213.55004882812</ele>
        <time>2012-05-15T08:32:42Z</time>
      </trkpt>
      <trkpt lat="48.71928" lon="6.17124">
        <ele>214.99194335938</ele>
        <time>2012-05-15T08:32:51Z</time>
      </trkpt>
      <trkpt lat="48.71947" lon="6.17133">
        <ele>213.55004882812</ele>
        <time>2012-05-15T08:32:54Z</time>
      </trkpt>
      <trkpt lat="48.72011" lon="6.17159">
        <ele>211.62744140625</ele>
        <time>2012-05-15T08:33:03Z</time>
      </trkpt>
      <trkpt lat="48.72019" lon="6.17162">
        <ele>212.10803222656</ele>
        <time>2012-05-15T08:33:04Z</time>
      </trkpt>
      <trkpt lat="48.72089" lon="6.17192">
        <ele>209.70483398438</ele>
        <time>2012-05-15T08:33:12Z</time>
      </trkpt>
      <trkpt lat="48.72157" lon="6.17219">
        <ele>209.22412109375</ele>
        <time>2012-05-15T08:33:20Z</time>
      </trkpt>
      <trkpt lat="48.72223" lon="6.17234">
        <ele>209.22412109375</ele>
        <time>2012-05-15T08:33:28Z</time>
      </trkpt>
      <trkpt lat="48.7228" lon="6.17237">
        <ele>211.14672851562</ele>
        <time>2012-05-15T08:33:35Z</time>
      </trkpt>
      <trkpt lat="48.72355" lon="6.17234">
        <ele>212.10803222656</ele>
        <time>2012-05-15T08:33:45Z</time>
      </trkpt>
      <trkpt lat="48.7243" lon="6.17221">
        <ele>211.62744140625</ele>
        <time>2012-05-15T08:33:55Z</time>
      </trkpt>
      <trkpt lat="48.72495" lon="6.17205">
        <ele>212.10803222656</ele>
        <time>2012-05-15T08:34:03Z</time>
      </trkpt>
      <trkpt lat="48.72578" lon="6.17184">
        <ele>209.70483398438</ele>
        <time>2012-05-15T08:34:13Z</time>
      </trkpt>
      <trkpt lat="48.72661" lon="6.17162">
        <ele>208.74340820312</ele>
        <time>2012-05-15T08:34:23Z</time>
      </trkpt>
      <trkpt lat="48.72713" lon="6.17151">
        <ele>205.85949707031</ele>
        <time>2012-05-15T08:34:29Z</time>
      </trkpt>
      <trkpt lat="48.72775" lon="6.17134">
        <ele>203.45617675781</ele>
        <time>2012-05-15T08:34:36Z</time>
      </trkpt>
      <trkpt lat="48.72817" lon="6.17108">
        <ele>202.49487304688</ele>
        <time>2012-05-15T08:34:41Z</time>
      </trkpt>
      <trkpt lat="48.72886" lon="6.17057">
        <ele>200.09167480469</ele>
        <time>2012-05-15T08:34:49Z</time>
      </trkpt>
      <trkpt lat="48.72903" lon="6.17044">
        <ele>198.64953613281</ele>
        <time>2012-05-15T08:34:51Z</time>
      </trkpt>
      <trkpt lat="48.7295" lon="6.17009">
        <ele>197.20751953125</ele>
        <time>2012-05-15T08:34:57Z</time>
      </trkpt>
      <trkpt lat="48.73021" lon="6.16959">
        <ele>197.68823242188</ele>
        <time>2012-05-15T08:35:06Z</time>
      </trkpt>
      <trkpt lat="48.73067" lon="6.1693">
        <ele>196.72692871094</ele>
        <time>2012-05-15T08:35:12Z</time>
      </trkpt>
      <trkpt lat="48.73116" lon="6.16906">
        <ele>196.72692871094</ele>
        <time>2012-05-15T08:35:18Z</time>
      </trkpt>
      <trkpt lat="48.73157" lon="6.16897">
        <ele>197.20751953125</ele>
        <time>2012-05-15T08:35:23Z</time>
      </trkpt>
      <trkpt lat="48.73214" lon="6.16908">
        <ele>197.20751953125</ele>
        <time>2012-05-15T08:35:30Z</time>
      </trkpt>
      <trkpt lat="48.73248" lon="6.16915">
        <ele>197.20751953125</ele>
        <time>2012-05-15T08:35:35Z</time>
      </trkpt>
      <trkpt lat="48.73265" lon="6.16917">
        <ele>196.72692871094</ele>
        <time>2012-05-15T08:35:39Z</time>
      </trkpt>
      <trkpt lat="48.73269" lon="6.16917">
        <ele>196.72692871094</ele>
        <time>2012-05-15T08:35:43Z</time>
      </trkpt>
      <trkpt lat="48.73269" lon="6.16917">
        <ele>196.72692871094</ele>
        <time>2012-05-15T08:35:48Z</time>
      </trkpt>
      <trkpt lat="48.73278" lon="6.16916">
        <ele>197.20751953125</ele>
        <time>2012-05-15T08:35:51Z</time>
      </trkpt>
      <trkpt lat="48.73303" lon="6.16914">
        <ele>197.20751953125</ele>
        <time>2012-05-15T08:35:57Z</time>
      </trkpt>
      <trkpt lat="48.73336" lon="6.16909">
        <ele>197.68823242188</ele>
        <time>2012-05-15T08:36:04Z</time>
      </trkpt>
      <trkpt lat="48.7337" lon="6.16902">
        <ele>197.68823242188</ele>
        <time>2012-05-15T08:36:11Z</time>
      </trkpt>
      <trkpt lat="48.73407" lon="6.16893">
        <ele>198.1689453125</ele>
        <time>2012-05-15T08:36:19Z</time>
      </trkpt>
      <trkpt lat="48.73416" lon="6.16887">
        <ele>198.1689453125</ele>
        <time>2012-05-15T08:36:21Z</time>
      </trkpt>
      <trkpt lat="48.73431" lon="6.16869">
        <ele>198.64953613281</ele>
        <time>2012-05-15T08:36:25Z</time>
      </trkpt>
      <trkpt lat="48.73439" lon="6.16849">
        <ele>198.64953613281</ele>
        <time>2012-05-15T08:36:28Z</time>
      </trkpt>
      <trkpt lat="48.73453" lon="6.16841">
        <ele>199.13012695312</ele>
        <time>2012-05-15T08:36:32Z</time>
      </trkpt>
      <trkpt lat="48.73454" lon="6.16859">
        <ele>199.61083984375</ele>
        <time>2012-05-15T08:36:35Z</time>
      </trkpt>
      <trkpt lat="48.73451" lon="6.16865">
        <ele>200.09167480469</ele>
        <time>2012-05-15T08:36:36Z</time>
      </trkpt>
      <trkpt lat="48.73436" lon="6.16892">
        <ele>202.49487304688</ele>
        <time>2012-05-15T08:36:41Z</time>
      </trkpt>
      <trkpt lat="48.73432" lon="6.16918">
        <ele>202.97546386719</ele>
        <time>2012-05-15T08:36:45Z</time>
      </trkpt>
      <trkpt lat="48.73441" lon="6.16935">
        <ele>202.97546386719</ele>
        <time>2012-05-15T08:36:48Z</time>
      </trkpt>
      <trkpt lat="48.73457" lon="6.1694">
        <ele>202.97546386719</ele>
        <time>2012-05-15T08:36:51Z</time>
      </trkpt>
      <trkpt lat="48.73471" lon="6.16922">
        <ele>203.93688964844</ele>
        <time>2012-05-15T08:36:54Z</time>
      </trkpt>
      <trkpt lat="48.73488" lon="6.16901">
        <ele>202.49487304688</ele>
        <time>2012-05-15T08:36:57Z</time>
      </trkpt>
      <trkpt lat="48.73508" lon="6.16886">
        <ele>200.572265625</ele>
        <time>2012-05-15T08:37:00Z</time>
      </trkpt>
      <trkpt lat="48.73521" lon="6.1688">
        <ele>198.64953613281</ele>
        <time>2012-05-15T08:37:02Z</time>
      </trkpt>
      <trkpt lat="48.73531" lon="6.16876">
        <ele>198.64953613281</ele>
        <time>2012-05-15T08:37:04Z</time>
      </trkpt>
      <trkpt lat="48.73546" lon="6.16864">
        <ele>197.20751953125</ele>
        <time>2012-05-15T08:37:09Z</time>
      </trkpt>
      <trkpt lat="48.73552" lon="6.16859">
        <ele>196.72692871094</ele>
        <time>2012-05-15T08:37:15Z</time>
      </trkpt>
      <trkpt lat="48.73552" lon="6.16859">
        <ele>196.72692871094</ele>
        <time>2012-05-15T08:37:17Z</time>
      </trkpt>
      <trkpt lat="48.73552" lon="6.16858">
        <ele>196.24633789062</ele>
        <time>2012-05-15T08:37:27Z</time>
      </trkpt>
      <trkpt lat="48.73552" lon="6.16857">
        <ele>196.72692871094</ele>
        <time>2012-05-15T08:37:28Z</time>
      </trkpt>
      <trkpt lat="48.73553" lon="6.16856">
        <ele>196.72692871094</ele>
        <time>2012-05-15T08:37:30Z</time>
      </trkpt>
      <trkpt lat="48.73553" lon="6.16855">
        <ele>196.24633789062</ele>
        <time>2012-05-15T08:37:47Z</time>
      </trkpt>
      <trkpt lat="48.73555" lon="6.16854">
        <ele>196.24633789062</ele>
        <time>2012-05-15T08:37:48Z</time>
      </trkpt>
      <trkpt lat="48.73565" lon="6.16845">
        <ele>195.765625</ele>
        <time>2012-05-15T08:37:51Z</time>
      </trkpt>
      <trkpt lat="48.73595" lon="6.16828">
        <ele>195.765625</ele>
        <time>2012-05-15T08:37:57Z</time>
      </trkpt>
      <trkpt lat="48.73606" lon="6.16825">
        <ele>195.28491210938</ele>
        <time>2012-05-15T08:37:59Z</time>
      </trkpt>
      <trkpt lat="48.73635" lon="6.16839">
        <ele>196.24633789062</ele>
        <time>2012-05-15T08:38:03Z</time>
      </trkpt>
      <trkpt lat="48.73676" lon="6.16849">
        <ele>196.24633789062</ele>
        <time>2012-05-15T08:38:10Z</time>
      </trkpt>
      <trkpt lat="48.7373" lon="6.16843">
        <ele>199.13012695312</ele>
        <time>2012-05-15T08:38:19Z</time>
      </trkpt>
      <trkpt lat="48.73785" lon="6.16835">
        <ele>197.68823242188</ele>
        <time>2012-05-15T08:38:29Z</time>
      </trkpt>
      <trkpt lat="48.73825" lon="6.1683">
        <ele>198.1689453125</ele>
        <time>2012-05-15T08:38:36Z</time>
      </trkpt>
      <trkpt lat="48.73881" lon="6.16822">
        <ele>197.68823242188</ele>
        <time>2012-05-15T08:38:45Z</time>
      </trkpt>
      <trkpt lat="48.73935" lon="6.16814">
        <ele>198.1689453125</ele>
        <time>2012-05-15T08:38:53Z</time>
      </trkpt>
      <trkpt lat="48.73986" lon="6.16809">
        <ele>195.765625</ele>
        <time>2012-05-15T08:39:00Z</time>
      </trkpt>
      <trkpt lat="48.74045" lon="6.16803">
        <ele>194.32373046875</ele>
        <time>2012-05-15T08:39:07Z</time>
      </trkpt>
      <trkpt lat="48.74113" lon="6.16794">
        <ele>194.32373046875</ele>
        <time>2012-05-15T08:39:16Z</time>
      </trkpt>
      <trkpt lat="48.74157" lon="6.16788">
        <ele>194.80432128906</ele>
        <time>2012-05-15T08:39:23Z</time>
      </trkpt>
      <trkpt lat="48.7418" lon="6.16784">
        <ele>196.72692871094</ele>
        <time>2012-05-15T08:39:27Z</time>
      </trkpt>
      <trkpt lat="48.74223" lon="6.16778">
        <ele>195.28491210938</ele>
        <time>2012-05-15T08:39:34Z</time>
      </trkpt>
      <trkpt lat="48.74274" lon="6.16762">
        <ele>194.32373046875</ele>
        <time>2012-05-15T08:39:41Z</time>
      </trkpt>
      <trkpt lat="48.74321" lon="6.16732">
        <ele>194.32373046875</ele>
        <time>2012-05-15T08:39:48Z</time>
      </trkpt>
      <trkpt lat="48.74339" lon="6.16717">
        <ele>195.765625</ele>
        <time>2012-05-15T08:39:51Z</time>
      </trkpt>
      <trkpt lat="48.74356" lon="6.16702">
        <ele>194.32373046875</ele>
        <time>2012-05-15T08:39:54Z</time>
      </trkpt>
      <trkpt lat="48.74401" lon="6.16666">
        <ele>194.80432128906</ele>
        <time>2012-05-15T08:40:02Z</time>
      </trkpt>
      <trkpt lat="48.74413" lon="6.1666">
        <ele>194.80432128906</ele>
        <time>2012-05-15T08:40:04Z</time>
      </trkpt>
      <trkpt lat="48.74435" lon="6.16666">
        <ele>193.3623046875</ele>
        <time>2012-05-15T08:40:08Z</time>
      </trkpt>
      <trkpt lat="48.74453" lon="6.16664">
        <ele>194.32373046875</ele>
        <time>2012-05-15T08:40:11Z</time>
      </trkpt>
      <trkpt lat="48.74466" lon="6.16645">
        <ele>193.84301757812</ele>
        <time>2012-05-15T08:40:14Z</time>
      </trkpt>
      <trkpt lat="48.74486" lon="6.16622">
        <ele>194.80432128906</ele>
        <time>2012-05-15T08:40:18Z</time>
      </trkpt>
      <trkpt lat="48.74498" lon="6.16619">
        <ele>194.80432128906</ele>
        <time>2012-05-15T08:40:20Z</time>
      </trkpt>
      <trkpt lat="48.74549" lon="6.16616">
        <ele>197.68823242188</ele>
        <time>2012-05-15T08:40:29Z</time>
      </trkpt>
      <trkpt lat="48.74573" lon="6.16619">
        <ele>195.28491210938</ele>
        <time>2012-05-15T08:40:34Z</time>
      </trkpt>
      <trkpt lat="48.74578" lon="6.16619">
        <ele>198.1689453125</ele>
        <time>2012-05-15T08:40:35Z</time>
      </trkpt>
      <trkpt lat="48.74582" lon="6.1662">
        <ele>197.68823242188</ele>
        <time>2012-05-15T08:40:36Z</time>
      </trkpt>
      <trkpt lat="48.7459" lon="6.16621">
        <ele>196.24633789062</ele>
        <time>2012-05-15T08:40:38Z</time>
      </trkpt>
      <trkpt lat="48.74612" lon="6.16622">
        <ele>195.765625</ele>
        <time>2012-05-15T08:40:44Z</time>
      </trkpt>
      <trkpt lat="48.74615" lon="6.16623">
        <ele>196.24633789062</ele>
        <time>2012-05-15T08:40:46Z</time>
      </trkpt>
      <trkpt lat="48.74625" lon="6.16624">
        <ele>195.28491210938</ele>
        <time>2012-05-15T08:40:51Z</time>
      </trkpt>
      <trkpt lat="48.74657" lon="6.16624">
        <ele>195.765625</ele>
        <time>2012-05-15T08:40:58Z</time>
      </trkpt>
      <trkpt lat="48.74673" lon="6.16628">
        <ele>197.20751953125</ele>
        <time>2012-05-15T08:41:01Z</time>
      </trkpt>
      <trkpt lat="48.74696" lon="6.16634">
        <ele>197.20751953125</ele>
        <time>2012-05-15T08:41:07Z</time>
      </trkpt>
      <trkpt lat="48.74697" lon="6.16635">
        <ele>196.24633789062</ele>
        <time>2012-05-15T08:41:10Z</time>
      </trkpt>
      <trkpt lat="48.74696" lon="6.16635">
        <ele>196.72692871094</ele>
        <time>2012-05-15T08:41:40Z</time>
      </trkpt>
      <trkpt lat="48.74697" lon="6.16635">
        <ele>196.72692871094</ele>
        <time>2012-05-15T08:41:41Z</time>
      </trkpt>
      <trkpt lat="48.74706" lon="6.16638">
        <ele>196.72692871094</ele>
        <time>2012-05-15T08:41:46Z</time>
      </trkpt>
      <trkpt lat="48.74729" lon="6.16641">
        <ele>196.72692871094</ele>
        <time>2012-05-15T08:41:51Z</time>
      </trkpt>
      <trkpt lat="48.74765" lon="6.16644">
        <ele>196.24633789062</ele>
        <time>2012-05-15T08:41:57Z</time>
      </trkpt>
      <trkpt lat="48.74783" lon="6.16646">
        <ele>196.24633789062</ele>
        <time>2012-05-15T08:42:00Z</time>
      </trkpt>
      <trkpt lat="48.74798" lon="6.16654">
        <ele>194.80432128906</ele>
        <time>2012-05-15T08:42:05Z</time>
      </trkpt>
      <trkpt lat="48.74799" lon="6.16655">
        <ele>194.80432128906</ele>
        <time>2012-05-15T08:42:07Z</time>
      </trkpt>
      <trkpt lat="48.748" lon="6.16655">
        <ele>194.80432128906</ele>
        <time>2012-05-15T08:42:11Z</time>
      </trkpt>
      <trkpt lat="48.74808" lon="6.16653">
        <ele>195.765625</ele>
        <time>2012-05-15T08:42:14Z</time>
      </trkpt>
      <trkpt lat="48.74812" lon="6.16644">
        <ele>197.20751953125</ele>
        <time>2012-05-15T08:42:16Z</time>
      </trkpt>
      <trkpt lat="48.74831" lon="6.16602">
        <ele>198.64953613281</ele>
        <time>2012-05-15T08:42:23Z</time>
      </trkpt>
      <trkpt lat="48.74851" lon="6.16553">
        <ele>199.13012695312</ele>
        <time>2012-05-15T08:42:30Z</time>
      </trkpt>
      <trkpt lat="48.74877" lon="6.16486">
        <ele>199.13012695312</ele>
        <time>2012-05-15T08:42:39Z</time>
      </trkpt>
      <trkpt lat="48.74911" lon="6.16403">
        <ele>200.09167480469</ele>
        <time>2012-05-15T08:42:50Z</time>
      </trkpt>
      <trkpt lat="48.74937" lon="6.16349">
        <ele>199.61083984375</ele>
        <time>2012-05-15T08:42:57Z</time>
      </trkpt>
      <trkpt lat="48.74964" lon="6.16295">
        <ele>199.61083984375</ele>
        <time>2012-05-15T08:43:04Z</time>
      </trkpt>
      <trkpt lat="48.74996" lon="6.16228">
        <ele>197.68823242188</ele>
        <time>2012-05-15T08:43:12Z</time>
      </trkpt>
      <trkpt lat="48.7504" lon="6.16136">
        <ele>197.20751953125</ele>
        <time>2012-05-15T08:43:22Z</time>
      </trkpt>
      <trkpt lat="48.75076" lon="6.16066">
        <ele>195.765625</ele>
        <time>2012-05-15T08:43:30Z</time>
      </trkpt>
      <trkpt lat="48.75108" lon="6.16015">
        <ele>198.64953613281</ele>
        <time>2012-05-15T08:43:37Z</time>
      </trkpt>
      <trkpt lat="48.7515" lon="6.15965">
        <ele>195.28491210938</ele>
        <time>2012-05-15T08:43:45Z</time>
      </trkpt>
      <trkpt lat="48.75161" lon="6.1595">
        <ele>194.80432128906</ele>
        <time>2012-05-15T08:43:47Z</time>
      </trkpt>
      <trkpt lat="48.75219" lon="6.1588">
        <ele>194.32373046875</ele>
        <time>2012-05-15T08:43:57Z</time>
      </trkpt>
      <trkpt lat="48.75265" lon="6.15832">
        <ele>193.3623046875</ele>
        <time>2012-05-15T08:44:05Z</time>
      </trkpt>
      <trkpt lat="48.75277" lon="6.15822">
        <ele>194.32373046875</ele>
        <time>2012-05-15T08:44:07Z</time>
      </trkpt>
      <trkpt lat="48.75333" lon="6.1578">
        <ele>194.80432128906</ele>
        <time>2012-05-15T08:44:16Z</time>
      </trkpt>
      <trkpt lat="48.75386" lon="6.1574">
        <ele>193.3623046875</ele>
        <time>2012-05-15T08:44:25Z</time>
      </trkpt>
      <trkpt lat="48.75431" lon="6.15707">
        <ele>193.84301757812</ele>
        <time>2012-05-15T08:44:33Z</time>
      </trkpt>
      <trkpt lat="48.75474" lon="6.15675">
        <ele>195.28491210938</ele>
        <time>2012-05-15T08:44:41Z</time>
      </trkpt>
      <trkpt lat="48.75519" lon="6.15643">
        <ele>196.24633789062</ele>
        <time>2012-05-15T08:44:49Z</time>
      </trkpt>
      <trkpt lat="48.7553" lon="6.15635">
        <ele>195.765625</ele>
        <time>2012-05-15T08:44:51Z</time>
      </trkpt>
      <trkpt lat="48.75548" lon="6.15622">
        <ele>193.84301757812</ele>
        <time>2012-05-15T08:44:54Z</time>
      </trkpt>
      <trkpt lat="48.75606" lon="6.15583">
        <ele>193.3623046875</ele>
        <time>2012-05-15T08:45:03Z</time>
      </trkpt>
      <trkpt lat="48.75668" lon="6.15542">
        <ele>194.32373046875</ele>
        <time>2012-05-15T08:45:13Z</time>
      </trkpt>
      <trkpt lat="48.75716" lon="6.15512">
        <ele>196.72692871094</ele>
        <time>2012-05-15T08:45:21Z</time>
      </trkpt>
      <trkpt lat="48.75754" lon="6.15477">
        <ele>196.72692871094</ele>
        <time>2012-05-15T08:45:28Z</time>
      </trkpt>
      <trkpt lat="48.7578" lon="6.15437">
        <ele>196.72692871094</ele>
        <time>2012-05-15T08:45:34Z</time>
      </trkpt>
      <trkpt lat="48.75811" lon="6.15368">
        <ele>197.20751953125</ele>
        <time>2012-05-15T08:45:43Z</time>
      </trkpt>
      <trkpt lat="48.75841" lon="6.15298">
        <ele>196.72692871094</ele>
        <time>2012-05-15T08:45:52Z</time>
      </trkpt>
      <trkpt lat="48.75873" lon="6.15222">
        <ele>198.64953613281</ele>
        <time>2012-05-15T08:46:02Z</time>
      </trkpt>
      <trkpt lat="48.75885" lon="6.15202">
        <ele>200.09167480469</ele>
        <time>2012-05-15T08:46:05Z</time>
      </trkpt>
      <trkpt lat="48.7589" lon="6.15197">
        <ele>199.61083984375</ele>
        <time>2012-05-15T08:46:06Z</time>
      </trkpt>
      <trkpt lat="48.75922" lon="6.15176">
        <ele>200.09167480469</ele>
        <time>2012-05-15T08:46:12Z</time>
      </trkpt>
      <trkpt lat="48.75933" lon="6.15173">
        <ele>201.05285644531</ele>
        <time>2012-05-15T08:46:14Z</time>
      </trkpt>
      <trkpt lat="48.75981" lon="6.15161">
        <ele>201.53356933594</ele>
        <time>2012-05-15T08:46:22Z</time>
      </trkpt>
      <trkpt lat="48.76035" lon="6.15149">
        <ele>202.01428222656</ele>
        <time>2012-05-15T08:46:31Z</time>
      </trkpt>
      <trkpt lat="48.76083" lon="6.15136">
        <ele>202.97546386719</ele>
        <time>2012-05-15T08:46:39Z</time>
      </trkpt>
      <trkpt lat="48.76116" lon="6.15114">
        <ele>203.45617675781</ele>
        <time>2012-05-15T08:46:45Z</time>
      </trkpt>
      <trkpt lat="48.76161" lon="6.15069">
        <ele>205.37878417969</ele>
        <time>2012-05-15T08:46:54Z</time>
      </trkpt>
      <trkpt lat="48.76186" lon="6.15027">
        <ele>204.89807128906</ele>
        <time>2012-05-15T08:47:00Z</time>
      </trkpt>
      <trkpt lat="48.76216" lon="6.14959">
        <ele>204.41748046875</ele>
        <time>2012-05-15T08:47:08Z</time>
      </trkpt>
      <trkpt lat="48.76246" lon="6.14876">
        <ele>204.41748046875</ele>
        <time>2012-05-15T08:47:17Z</time>
      </trkpt>
      <trkpt lat="48.76249" lon="6.14867">
        <ele>203.93688964844</ele>
        <time>2012-05-15T08:47:18Z</time>
      </trkpt>
      <trkpt lat="48.76255" lon="6.1485">
        <ele>205.85949707031</ele>
        <time>2012-05-15T08:47:20Z</time>
      </trkpt>
      <trkpt lat="48.76282" lon="6.1478">
        <ele>205.37878417969</ele>
        <time>2012-05-15T08:47:28Z</time>
      </trkpt>
      <trkpt lat="48.76309" lon="6.14724">
        <ele>205.85949707031</ele>
        <time>2012-05-15T08:47:35Z</time>
      </trkpt>
      <trkpt lat="48.76343" lon="6.14673">
        <ele>206.34008789062</ele>
        <time>2012-05-15T08:47:42Z</time>
      </trkpt>
      <trkpt lat="48.76389" lon="6.14627">
        <ele>205.37878417969</ele>
        <time>2012-05-15T08:47:50Z</time>
      </trkpt>
      <trkpt lat="48.76434" lon="6.14599">
        <ele>206.34008789062</ele>
        <time>2012-05-15T08:47:57Z</time>
      </trkpt>
      <trkpt lat="48.76482" lon="6.14584">
        <ele>205.85949707031</ele>
        <time>2012-05-15T08:48:04Z</time>
      </trkpt>
      <trkpt lat="48.7653" lon="6.14576">
        <ele>205.37878417969</ele>
        <time>2012-05-15T08:48:11Z</time>
      </trkpt>
      <trkpt lat="48.76572" lon="6.14562">
        <ele>206.34008789062</ele>
        <time>2012-05-15T08:48:17Z</time>
      </trkpt>
      <trkpt lat="48.76635" lon="6.14535">
        <ele>205.37878417969</ele>
        <time>2012-05-15T08:48:26Z</time>
      </trkpt>
      <trkpt lat="48.76649" lon="6.14529">
        <ele>206.34008789062</ele>
        <time>2012-05-15T08:48:28Z</time>
      </trkpt>
      <trkpt lat="48.76705" lon="6.14506">
        <ele>207.78210449219</ele>
        <time>2012-05-15T08:48:36Z</time>
      </trkpt>
      <trkpt lat="48.76756" lon="6.14485">
        <ele>207.30139160156</ele>
        <time>2012-05-15T08:48:44Z</time>
      </trkpt>
      <trkpt lat="48.76811" lon="6.14463">
        <ele>206.34008789062</ele>
        <time>2012-05-15T08:48:52Z</time>
      </trkpt>
      <trkpt lat="48.76818" lon="6.1446">
        <ele>206.82067871094</ele>
        <time>2012-05-15T08:48:53Z</time>
      </trkpt>
      <trkpt lat="48.7687" lon="6.14442">
        <ele>205.85949707031</ele>
        <time>2012-05-15T08:49:00Z</time>
      </trkpt>
      <trkpt lat="48.76907" lon="6.1444">
        <ele>207.78210449219</ele>
        <time>2012-05-15T08:49:05Z</time>
      </trkpt>
      <trkpt lat="48.76941" lon="6.14443">
        <ele>208.26281738281</ele>
        <time>2012-05-15T08:49:10Z</time>
      </trkpt>
      <trkpt lat="48.76987" lon="6.14455">
        <ele>209.70483398438</ele>
        <time>2012-05-15T08:49:17Z</time>
      </trkpt>
      <trkpt lat="48.77032" lon="6.14468">
        <ele>212.58862304688</ele>
        <time>2012-05-15T08:49:24Z</time>
      </trkpt>
      <trkpt lat="48.77089" lon="6.14483">
        <ele>212.58862304688</ele>
        <time>2012-05-15T08:49:33Z</time>
      </trkpt>
      <trkpt lat="48.77144" lon="6.14499">
        <ele>214.03063964844</ele>
        <time>2012-05-15T08:49:42Z</time>
      </trkpt>
      <trkpt lat="48.77205" lon="6.14516">
        <ele>215.47265625</ele>
        <time>2012-05-15T08:49:52Z</time>
      </trkpt>
      <trkpt lat="48.77265" lon="6.14533">
        <ele>218.35656738281</ele>
        <time>2012-05-15T08:50:02Z</time>
      </trkpt>
      <trkpt lat="48.77317" lon="6.14548">
        <ele>218.83728027344</ele>
        <time>2012-05-15T08:50:11Z</time>
      </trkpt>
      <trkpt lat="48.7737" lon="6.14564">
        <ele>220.27917480469</ele>
        <time>2012-05-15T08:50:20Z</time>
      </trkpt>
      <trkpt lat="48.77431" lon="6.14581">
        <ele>219.31799316406</ele>
        <time>2012-05-15T08:50:29Z</time>
      </trkpt>
      <trkpt lat="48.77489" lon="6.14604">
        <ele>219.31799316406</ele>
        <time>2012-05-15T08:50:37Z</time>
      </trkpt>
      <trkpt lat="48.77553" lon="6.14629">
        <ele>218.35656738281</ele>
        <time>2012-05-15T08:50:45Z</time>
      </trkpt>
      <trkpt lat="48.77596" lon="6.14641">
        <ele>214.99194335938</ele>
        <time>2012-05-15T08:50:50Z</time>
      </trkpt>
      <trkpt lat="48.77605" lon="6.14642">
        <ele>214.51123046875</ele>
        <time>2012-05-15T08:50:51Z</time>
      </trkpt>
      <trkpt lat="48.77662" lon="6.14649">
        <ele>211.62744140625</ele>
        <time>2012-05-15T08:50:57Z</time>
      </trkpt>
      <trkpt lat="48.77682" lon="6.14652">
        <ele>210.666015625</ele>
        <time>2012-05-15T08:50:59Z</time>
      </trkpt>
      <trkpt lat="48.77734" lon="6.14658">
        <ele>207.30139160156</ele>
        <time>2012-05-15T08:51:04Z</time>
      </trkpt>
      <trkpt lat="48.77745" lon="6.14658">
        <ele>207.30139160156</ele>
        <time>2012-05-15T08:51:05Z</time>
      </trkpt>
      <trkpt lat="48.77811" lon="6.14653">
        <ele>205.85949707031</ele>
        <time>2012-05-15T08:51:11Z</time>
      </trkpt>
      <trkpt lat="48.77844" lon="6.14645">
        <ele>203.93688964844</ele>
        <time>2012-05-15T08:51:14Z</time>
      </trkpt>
      <trkpt lat="48.77866" lon="6.14638">
        <ele>202.01428222656</ele>
        <time>2012-05-15T08:51:16Z</time>
      </trkpt>
      <trkpt lat="48.77918" lon="6.14616">
        <ele>200.09167480469</ele>
        <time>2012-05-15T08:51:21Z</time>
      </trkpt>
      <trkpt lat="48.77939" lon="6.14607">
        <ele>199.13012695312</ele>
        <time>2012-05-15T08:51:23Z</time>
      </trkpt>
      <trkpt lat="48.78018" lon="6.1457">
        <ele>196.24633789062</ele>
        <time>2012-05-15T08:51:31Z</time>
      </trkpt>
      <trkpt lat="48.78079" lon="6.14544">
        <ele>199.13012695312</ele>
        <time>2012-05-15T08:51:38Z</time>
      </trkpt>
      <trkpt lat="48.78123" lon="6.14527">
        <ele>200.09167480469</ele>
        <time>2012-05-15T08:51:44Z</time>
      </trkpt>
      <trkpt lat="48.78164" lon="6.14509">
        <ele>201.05285644531</ele>
        <time>2012-05-15T08:51:50Z</time>
      </trkpt>
      <trkpt lat="48.78217" lon="6.14487">
        <ele>200.09167480469</ele>
        <time>2012-05-15T08:51:58Z</time>
      </trkpt>
      <trkpt lat="48.78238" lon="6.14479">
        <ele>201.53356933594</ele>
        <time>2012-05-15T08:52:01Z</time>
      </trkpt>
      <trkpt lat="48.7828" lon="6.14462">
        <ele>199.61083984375</ele>
        <time>2012-05-15T08:52:07Z</time>
      </trkpt>
      <trkpt lat="48.78338" lon="6.14439">
        <ele>198.64953613281</ele>
        <time>2012-05-15T08:52:15Z</time>
      </trkpt>
      <trkpt lat="48.78422" lon="6.14406">
        <ele>197.20751953125</ele>
        <time>2012-05-15T08:52:26Z</time>
      </trkpt>
      <trkpt lat="48.7848" lon="6.1439">
        <ele>195.28491210938</ele>
        <time>2012-05-15T08:52:33Z</time>
      </trkpt>
      <trkpt lat="48.78507" lon="6.14388">
        <ele>195.28491210938</ele>
        <time>2012-05-15T08:52:36Z</time>
      </trkpt>
      <trkpt lat="48.78559" lon="6.14398">
        <ele>196.72692871094</ele>
        <time>2012-05-15T08:52:42Z</time>
      </trkpt>
      <trkpt lat="48.78621" lon="6.14416">
        <ele>199.13012695312</ele>
        <time>2012-05-15T08:52:50Z</time>
      </trkpt>
      <trkpt lat="48.78684" lon="6.14425">
        <ele>200.09167480469</ele>
        <time>2012-05-15T08:52:58Z</time>
      </trkpt>
      <trkpt lat="48.78753" lon="6.14421">
        <ele>200.09167480469</ele>
        <time>2012-05-15T08:53:07Z</time>
      </trkpt>
      <trkpt lat="48.78823" lon="6.14416">
        <ele>200.09167480469</ele>
        <time>2012-05-15T08:53:16Z</time>
      </trkpt>
      <trkpt lat="48.78872" lon="6.14401">
        <ele>198.64953613281</ele>
        <time>2012-05-15T08:53:22Z</time>
      </trkpt>
      <trkpt lat="48.78907" lon="6.14383">
        <ele>195.28491210938</ele>
        <time>2012-05-15T08:53:26Z</time>
      </trkpt>
      <trkpt lat="48.78973" lon="6.1434">
        <ele>192.40112304688</ele>
        <time>2012-05-15T08:53:34Z</time>
      </trkpt>
      <trkpt lat="48.79008" lon="6.14314">
        <ele>190.958984375</ele>
        <time>2012-05-15T08:53:39Z</time>
      </trkpt>
      <trkpt lat="48.79022" lon="6.14283">
        <ele>190.958984375</ele>
        <time>2012-05-15T08:53:43Z</time>
      </trkpt>
      <trkpt lat="48.79031" lon="6.14245">
        <ele>191.43957519531</ele>
        <time>2012-05-15T08:53:47Z</time>
      </trkpt>
      <trkpt lat="48.7905" lon="6.142">
        <ele>189.99768066406</ele>
        <time>2012-05-15T08:53:53Z</time>
      </trkpt>
      <trkpt lat="48.79073" lon="6.14129">
        <ele>191.92028808594</ele>
        <time>2012-05-15T08:54:01Z</time>
      </trkpt>
      <trkpt lat="48.79086" lon="6.14066">
        <ele>191.43957519531</ele>
        <time>2012-05-15T08:54:08Z</time>
      </trkpt>
      <trkpt lat="48.791" lon="6.14001">
        <ele>189.51696777344</ele>
        <time>2012-05-15T08:54:14Z</time>
      </trkpt>
      <trkpt lat="48.7912" lon="6.13934">
        <ele>187.59436035156</ele>
        <time>2012-05-15T08:54:20Z</time>
      </trkpt>
      <trkpt lat="48.79148" lon="6.13875">
        <ele>188.07507324219</ele>
        <time>2012-05-15T08:54:26Z</time>
      </trkpt>
      <trkpt lat="48.79188" lon="6.13799">
        <ele>188.07507324219</ele>
        <time>2012-05-15T08:54:34Z</time>
      </trkpt>
      <trkpt lat="48.79212" lon="6.13739">
        <ele>188.07507324219</ele>
        <time>2012-05-15T08:54:40Z</time>
      </trkpt>
      <trkpt lat="48.79232" lon="6.13663">
        <ele>188.55578613281</ele>
        <time>2012-05-15T08:54:47Z</time>
      </trkpt>
      <trkpt lat="48.79242" lon="6.13585">
        <ele>189.99768066406</ele>
        <time>2012-05-15T08:54:54Z</time>
      </trkpt>
      <trkpt lat="48.79243" lon="6.13574">
        <ele>189.99768066406</ele>
        <time>2012-05-15T08:54:55Z</time>
      </trkpt>
      <trkpt lat="48.79246" lon="6.13507">
        <ele>190.47839355469</ele>
        <time>2012-05-15T08:55:01Z</time>
      </trkpt>
      <trkpt lat="48.79242" lon="6.1342">
        <ele>189.99768066406</ele>
        <time>2012-05-15T08:55:09Z</time>
      </trkpt>
      <trkpt lat="48.7923" lon="6.13336">
        <ele>189.99768066406</ele>
        <time>2012-05-15T08:55:17Z</time>
      </trkpt>
      <trkpt lat="48.79215" lon="6.13242">
        <ele>190.958984375</ele>
        <time>2012-05-15T08:55:26Z</time>
      </trkpt>
      <trkpt lat="48.79205" lon="6.13165">
        <ele>192.88171386719</ele>
        <time>2012-05-15T08:55:34Z</time>
      </trkpt>
      <trkpt lat="48.79194" lon="6.13095">
        <ele>192.88171386719</ele>
        <time>2012-05-15T08:55:42Z</time>
      </trkpt>
      <trkpt lat="48.79183" lon="6.13035">
        <ele>195.765625</ele>
        <time>2012-05-15T08:55:49Z</time>
      </trkpt>
      <trkpt lat="48.79171" lon="6.12965">
        <ele>194.80432128906</ele>
        <time>2012-05-15T08:55:57Z</time>
      </trkpt>
      <trkpt lat="48.7916" lon="6.12913">
        <ele>194.80432128906</ele>
        <time>2012-05-15T08:56:03Z</time>
      </trkpt>
      <trkpt lat="48.79149" lon="6.12836">
        <ele>194.32373046875</ele>
        <time>2012-05-15T08:56:11Z</time>
      </trkpt>
      <trkpt lat="48.79139" lon="6.12746">
        <ele>192.40112304688</ele>
        <time>2012-05-15T08:56:19Z</time>
      </trkpt>
      <trkpt lat="48.79134" lon="6.12648">
        <ele>189.51696777344</ele>
        <time>2012-05-15T08:56:27Z</time>
      </trkpt>
      <trkpt lat="48.79138" lon="6.12573">
        <ele>189.51696777344</ele>
        <time>2012-05-15T08:56:33Z</time>
      </trkpt>
      <trkpt lat="48.79148" lon="6.12494">
        <ele>188.55578613281</ele>
        <time>2012-05-15T08:56:40Z</time>
      </trkpt>
      <trkpt lat="48.79152" lon="6.12473">
        <ele>189.99768066406</ele>
        <time>2012-05-15T08:56:42Z</time>
      </trkpt>
      <trkpt lat="48.79159" lon="6.1242">
        <ele>188.55578613281</ele>
        <time>2012-05-15T08:56:47Z</time>
      </trkpt>
      <trkpt lat="48.79171" lon="6.12344">
        <ele>187.59436035156</ele>
        <time>2012-05-15T08:56:54Z</time>
      </trkpt>
      <trkpt lat="48.79184" lon="6.12267">
        <ele>189.51696777344</ele>
        <time>2012-05-15T08:57:01Z</time>
      </trkpt>
      <trkpt lat="48.79195" lon="6.12203">
        <ele>189.99768066406</ele>
        <time>2012-05-15T08:57:07Z</time>
      </trkpt>
      <trkpt lat="48.79211" lon="6.12141">
        <ele>187.59436035156</ele>
        <time>2012-05-15T08:57:13Z</time>
      </trkpt>
      <trkpt lat="48.79219" lon="6.12111">
        <ele>189.03637695312</ele>
        <time>2012-05-15T08:57:16Z</time>
      </trkpt>
      <trkpt lat="48.79248" lon="6.12042">
        <ele>189.99768066406</ele>
        <time>2012-05-15T08:57:24Z</time>
      </trkpt>
      <trkpt lat="48.79284" lon="6.11976">
        <ele>191.92028808594</ele>
        <time>2012-05-15T08:57:33Z</time>
      </trkpt>
      <trkpt lat="48.79292" lon="6.11962">
        <ele>190.958984375</ele>
        <time>2012-05-15T08:57:35Z</time>
      </trkpt>
      <trkpt lat="48.7933" lon="6.11898">
        <ele>192.40112304688</ele>
        <time>2012-05-15T08:57:44Z</time>
      </trkpt>
      <trkpt lat="48.79376" lon="6.11832">
        <ele>191.43957519531</ele>
        <time>2012-05-15T08:57:53Z</time>
      </trkpt>
      <trkpt lat="48.79428" lon="6.11769">
        <ele>189.51696777344</ele>
        <time>2012-05-15T08:58:02Z</time>
      </trkpt>
      <trkpt lat="48.79464" lon="6.11733">
        <ele>190.958984375</ele>
        <time>2012-05-15T08:58:08Z</time>
      </trkpt>
      <trkpt lat="48.79513" lon="6.1169">
        <ele>190.47839355469</ele>
        <time>2012-05-15T08:58:16Z</time>
      </trkpt>
      <trkpt lat="48.79573" lon="6.11648">
        <ele>190.958984375</ele>
        <time>2012-05-15T08:58:25Z</time>
      </trkpt>
      <trkpt lat="48.79586" lon="6.11641">
        <ele>189.03637695312</ele>
        <time>2012-05-15T08:58:27Z</time>
      </trkpt>
      <trkpt lat="48.79649" lon="6.11608">
        <ele>189.03637695312</ele>
        <time>2012-05-15T08:58:36Z</time>
      </trkpt>
      <trkpt lat="48.79718" lon="6.11577">
        <ele>189.03637695312</ele>
        <time>2012-05-15T08:58:46Z</time>
      </trkpt>
      <trkpt lat="48.79793" lon="6.11544">
        <ele>189.51696777344</ele>
        <time>2012-05-15T08:58:57Z</time>
      </trkpt>
      <trkpt lat="48.79857" lon="6.11515">
        <ele>189.03637695312</ele>
        <time>2012-05-15T08:59:06Z</time>
      </trkpt>
      <trkpt lat="48.79936" lon="6.11482">
        <ele>189.03637695312</ele>
        <time>2012-05-15T08:59:17Z</time>
      </trkpt>
      <trkpt lat="48.79995" lon="6.11471">
        <ele>189.03637695312</ele>
        <time>2012-05-15T08:59:25Z</time>
      </trkpt>
      <trkpt lat="48.80055" lon="6.11476">
        <ele>189.51696777344</ele>
        <time>2012-05-15T08:59:33Z</time>
      </trkpt>
      <trkpt lat="48.80089" lon="6.11489">
        <ele>188.55578613281</ele>
        <time>2012-05-15T08:59:38Z</time>
      </trkpt>
      <trkpt lat="48.80131" lon="6.1151">
        <ele>187.59436035156</ele>
        <time>2012-05-15T08:59:45Z</time>
      </trkpt>
      <trkpt lat="48.80148" lon="6.1152">
        <ele>187.59436035156</ele>
        <time>2012-05-15T08:59:49Z</time>
      </trkpt>
      <trkpt lat="48.80152" lon="6.11522">
        <ele>187.59436035156</ele>
        <time>2012-05-15T08:59:53Z</time>
      </trkpt>
      <trkpt lat="48.80152" lon="6.11523">
        <ele>186.63317871094</ele>
        <time>2012-05-15T09:00:02Z</time>
      </trkpt>
      <trkpt lat="48.80159" lon="6.11527">
        <ele>186.63317871094</ele>
        <time>2012-05-15T09:00:05Z</time>
      </trkpt>
      <trkpt lat="48.80177" lon="6.11537">
        <ele>186.63317871094</ele>
        <time>2012-05-15T09:00:10Z</time>
      </trkpt>
      <trkpt lat="48.80217" lon="6.11559">
        <ele>187.11376953125</ele>
        <time>2012-05-15T09:00:18Z</time>
      </trkpt>
      <trkpt lat="48.80267" lon="6.11587">
        <ele>187.59436035156</ele>
        <time>2012-05-15T09:00:27Z</time>
      </trkpt>
      <trkpt lat="48.80318" lon="6.11613">
        <ele>187.59436035156</ele>
        <time>2012-05-15T09:00:35Z</time>
      </trkpt>
      <trkpt lat="48.80374" lon="6.1164">
        <ele>188.55578613281</ele>
        <time>2012-05-15T09:00:43Z</time>
      </trkpt>
      <trkpt lat="48.80429" lon="6.11672">
        <ele>188.07507324219</ele>
        <time>2012-05-15T09:00:51Z</time>
      </trkpt>
      <trkpt lat="48.80474" lon="6.11716">
        <ele>189.51696777344</ele>
        <time>2012-05-15T09:00:58Z</time>
      </trkpt>
      <trkpt lat="48.80523" lon="6.11786">
        <ele>189.03637695312</ele>
        <time>2012-05-15T09:01:07Z</time>
      </trkpt>
      <trkpt lat="48.80534" lon="6.11801">
        <ele>187.59436035156</ele>
        <time>2012-05-15T09:01:09Z</time>
      </trkpt>
      <trkpt lat="48.80593" lon="6.11889">
        <ele>188.07507324219</ele>
        <time>2012-05-15T09:01:20Z</time>
      </trkpt>
      <trkpt lat="48.80637" lon="6.11966">
        <ele>188.07507324219</ele>
        <time>2012-05-15T09:01:29Z</time>
      </trkpt>
      <trkpt lat="48.80688" lon="6.12075">
        <ele>189.51696777344</ele>
        <time>2012-05-15T09:01:41Z</time>
      </trkpt>
      <trkpt lat="48.80736" lon="6.12162">
        <ele>187.59436035156</ele>
        <time>2012-05-15T09:01:51Z</time>
      </trkpt>
      <trkpt lat="48.80783" lon="6.12239">
        <ele>188.07507324219</ele>
        <time>2012-05-15T09:02:00Z</time>
      </trkpt>
      <trkpt lat="48.80809" lon="6.12283">
        <ele>189.51696777344</ele>
        <time>2012-05-15T09:02:05Z</time>
      </trkpt>
      <trkpt lat="48.80859" lon="6.12368">
        <ele>189.03637695312</ele>
        <time>2012-05-15T09:02:15Z</time>
      </trkpt>
      <trkpt lat="48.80875" lon="6.12394">
        <ele>188.07507324219</ele>
        <time>2012-05-15T09:02:18Z</time>
      </trkpt>
      <trkpt lat="48.80907" lon="6.12453">
        <ele>189.03637695312</ele>
        <time>2012-05-15T09:02:25Z</time>
      </trkpt>
      <trkpt lat="48.80925" lon="6.12484">
        <ele>190.958984375</ele>
        <time>2012-05-15T09:02:30Z</time>
      </trkpt>
      <trkpt lat="48.80941" lon="6.12509">
        <ele>192.88171386719</ele>
        <time>2012-05-15T09:02:36Z</time>
      </trkpt>
      <trkpt lat="48.80946" lon="6.12522">
        <ele>193.3623046875</ele>
        <time>2012-05-15T09:02:40Z</time>
      </trkpt>
      <trkpt lat="48.80948" lon="6.12524">
        <ele>193.3623046875</ele>
        <time>2012-05-15T09:02:43Z</time>
      </trkpt>
      <trkpt lat="48.80949" lon="6.12524">
        <ele>192.88171386719</ele>
        <time>2012-05-15T09:02:49Z</time>
      </trkpt>
      <trkpt lat="48.80952" lon="6.12527">
        <ele>193.84301757812</ele>
        <time>2012-05-15T09:02:55Z</time>
      </trkpt>
      <trkpt lat="48.80951" lon="6.12524">
        <ele>193.3623046875</ele>
        <time>2012-05-15T09:03:51Z</time>
      </trkpt>
      <trkpt lat="48.80952" lon="6.12523">
        <ele>193.84301757812</ele>
        <time>2012-05-15T09:03:52Z</time>
      </trkpt>
      <trkpt lat="48.80954" lon="6.12523">
        <ele>194.32373046875</ele>
        <time>2012-05-15T09:03:56Z</time>
      </trkpt>
      <trkpt lat="48.80954" lon="6.12524">
        <ele>194.32373046875</ele>
        <time>2012-05-15T09:04:04Z</time>
      </trkpt>
      <trkpt lat="48.80967" lon="6.12532">
        <ele>195.28491210938</ele>
        <time>2012-05-15T09:04:09Z</time>
      </trkpt>
      <trkpt lat="48.80986" lon="6.12543">
        <ele>196.24633789062</ele>
        <time>2012-05-15T09:04:14Z</time>
      </trkpt>
      <trkpt lat="48.81023" lon="6.12562">
        <ele>198.1689453125</ele>
        <time>2012-05-15T09:04:22Z</time>
      </trkpt>
      <trkpt lat="48.81066" lon="6.12585">
        <ele>198.1689453125</ele>
        <time>2012-05-15T09:04:30Z</time>
      </trkpt>
      <trkpt lat="48.81116" lon="6.12612">
        <ele>198.1689453125</ele>
        <time>2012-05-15T09:04:39Z</time>
      </trkpt>
      <trkpt lat="48.81154" lon="6.1263">
        <ele>196.72692871094</ele>
        <time>2012-05-15T09:04:45Z</time>
      </trkpt>
      <trkpt lat="48.81199" lon="6.12639">
        <ele>195.765625</ele>
        <time>2012-05-15T09:04:51Z</time>
      </trkpt>
      <trkpt lat="48.81229" lon="6.12642">
        <ele>193.3623046875</ele>
        <time>2012-05-15T09:04:56Z</time>
      </trkpt>
      <trkpt lat="48.81244" lon="6.12645">
        <ele>192.40112304688</ele>
        <time>2012-05-15T09:05:01Z</time>
      </trkpt>
      <trkpt lat="48.81251" lon="6.12645">
        <ele>191.92028808594</ele>
        <time>2012-05-15T09:05:05Z</time>
      </trkpt>
      <trkpt lat="48.81251" lon="6.12645">
        <ele>191.92028808594</ele>
        <time>2012-05-15T09:05:06Z</time>
      </trkpt>
      <trkpt lat="48.81254" lon="6.12644">
        <ele>192.40112304688</ele>
        <time>2012-05-15T09:05:54Z</time>
      </trkpt>
      <trkpt lat="48.81256" lon="6.12645">
        <ele>192.40112304688</ele>
        <time>2012-05-15T09:05:55Z</time>
      </trkpt>
      <trkpt lat="48.81272" lon="6.1265">
        <ele>191.43957519531</ele>
        <time>2012-05-15T09:05:58Z</time>
      </trkpt>
      <trkpt lat="48.81289" lon="6.12657">
        <ele>190.47839355469</ele>
        <time>2012-05-15T09:06:01Z</time>
      </trkpt>
      <trkpt lat="48.81328" lon="6.12678">
        <ele>189.99768066406</ele>
        <time>2012-05-15T09:06:07Z</time>
      </trkpt>
      <trkpt lat="48.81348" lon="6.12689">
        <ele>190.47839355469</ele>
        <time>2012-05-15T09:06:10Z</time>
      </trkpt>
      <trkpt lat="48.81393" lon="6.12708">
        <ele>189.03637695312</ele>
        <time>2012-05-15T09:06:16Z</time>
      </trkpt>
      <trkpt lat="48.81441" lon="6.12722">
        <ele>188.55578613281</ele>
        <time>2012-05-15T09:06:22Z</time>
      </trkpt>
      <trkpt lat="48.81506" lon="6.12745">
        <ele>189.03637695312</ele>
        <time>2012-05-15T09:06:30Z</time>
      </trkpt>
      <trkpt lat="48.81561" lon="6.12753">
        <ele>189.03637695312</ele>
        <time>2012-05-15T09:06:37Z</time>
      </trkpt>
      <trkpt lat="48.81629" lon="6.12757">
        <ele>188.07507324219</ele>
        <time>2012-05-15T09:06:46Z</time>
      </trkpt>
      <trkpt lat="48.81636" lon="6.12756">
        <ele>189.03637695312</ele>
        <time>2012-05-15T09:06:47Z</time>
      </trkpt>
      <trkpt lat="48.81664" lon="6.12746">
        <ele>190.47839355469</ele>
        <time>2012-05-15T09:06:51Z</time>
      </trkpt>
      <trkpt lat="48.81716" lon="6.12729">
        <ele>186.63317871094</ele>
        <time>2012-05-15T09:06:58Z</time>
      </trkpt>
      <trkpt lat="48.81777" lon="6.12721">
        <ele>187.11376953125</ele>
        <time>2012-05-15T09:07:06Z</time>
      </trkpt>
      <trkpt lat="48.8182" lon="6.12707">
        <ele>187.11376953125</ele>
        <time>2012-05-15T09:07:12Z</time>
      </trkpt>
      <trkpt lat="48.81884" lon="6.12669">
        <ele>188.07507324219</ele>
        <time>2012-05-15T09:07:21Z</time>
      </trkpt>
      <trkpt lat="48.81942" lon="6.1262">
        <ele>189.03637695312</ele>
        <time>2012-05-15T09:07:30Z</time>
      </trkpt>
      <trkpt lat="48.81964" lon="6.12594">
        <ele>188.55578613281</ele>
        <time>2012-05-15T09:07:34Z</time>
      </trkpt>
      <trkpt lat="48.8198" lon="6.12571">
        <ele>188.55578613281</ele>
        <time>2012-05-15T09:07:37Z</time>
      </trkpt>
      <trkpt lat="48.81997" lon="6.12524">
        <ele>188.07507324219</ele>
        <time>2012-05-15T09:07:42Z</time>
      </trkpt>
      <trkpt lat="48.82022" lon="6.12417">
        <ele>188.07507324219</ele>
        <time>2012-05-15T09:07:52Z</time>
      </trkpt>
      <trkpt lat="48.8205" lon="6.12337">
        <ele>188.55578613281</ele>
        <time>2012-05-15T09:08:00Z</time>
      </trkpt>
      <trkpt lat="48.82071" lon="6.12269">
        <ele>188.55578613281</ele>
        <time>2012-05-15T09:08:07Z</time>
      </trkpt>
      <trkpt lat="48.82088" lon="6.1218">
        <ele>187.59436035156</ele>
        <time>2012-05-15T09:08:16Z</time>
      </trkpt>
      <trkpt lat="48.82093" lon="6.12095">
        <ele>187.59436035156</ele>
        <time>2012-05-15T09:08:24Z</time>
      </trkpt>
      <trkpt lat="48.82101" lon="6.12009">
        <ele>188.55578613281</ele>
        <time>2012-05-15T09:08:32Z</time>
      </trkpt>
      <trkpt lat="48.82103" lon="6.11923">
        <ele>188.07507324219</ele>
        <time>2012-05-15T09:08:40Z</time>
      </trkpt>
      <trkpt lat="48.82108" lon="6.11803">
        <ele>186.63317871094</ele>
        <time>2012-05-15T09:08:51Z</time>
      </trkpt>
      <trkpt lat="48.82119" lon="6.11703">
        <ele>186.15246582031</ele>
        <time>2012-05-15T09:09:01Z</time>
      </trkpt>
      <trkpt lat="48.82135" lon="6.11637">
        <ele>187.11376953125</ele>
        <time>2012-05-15T09:09:08Z</time>
      </trkpt>
      <trkpt lat="48.82153" lon="6.11575">
        <ele>184.71057128906</ele>
        <time>2012-05-15T09:09:15Z</time>
      </trkpt>
      <trkpt lat="48.82173" lon="6.11509">
        <ele>185.67175292969</ele>
        <time>2012-05-15T09:09:22Z</time>
      </trkpt>
      <trkpt lat="48.82198" lon="6.11468">
        <ele>185.19116210938</ele>
        <time>2012-05-15T09:09:28Z</time>
      </trkpt>
      <trkpt lat="48.8222" lon="6.1143">
        <ele>185.19116210938</ele>
        <time>2012-05-15T09:09:34Z</time>
      </trkpt>
      <trkpt lat="48.82223" lon="6.11421">
        <ele>185.67175292969</ele>
        <time>2012-05-15T09:09:36Z</time>
      </trkpt>
      <trkpt lat="48.82224" lon="6.11417">
        <ele>185.19116210938</ele>
        <time>2012-05-15T09:09:38Z</time>
      </trkpt>
      <trkpt lat="48.82215" lon="6.11425">
        <ele>185.19116210938</ele>
        <time>2012-05-15T09:09:44Z</time>
      </trkpt>
      <trkpt lat="48.82209" lon="6.1143">
        <ele>184.71057128906</ele>
        <time>2012-05-15T09:09:50Z</time>
      </trkpt>
      <trkpt lat="48.82206" lon="6.11428">
        <ele>185.19116210938</ele>
        <time>2012-05-15T09:09:56Z</time>
      </trkpt>
      <trkpt lat="48.82206" lon="6.1143">
        <ele>186.15246582031</ele>
        <time>2012-05-15T09:11:09Z</time>
      </trkpt>
      <trkpt lat="48.82207" lon="6.11431">
        <ele>185.67175292969</ele>
        <time>2012-05-15T09:11:10Z</time>
      </trkpt>
      <trkpt lat="48.82212" lon="6.11432">
        <ele>185.19116210938</ele>
        <time>2012-05-15T09:11:17Z</time>
      </trkpt>
      <trkpt lat="48.82212" lon="6.11432">
        <ele>184.71057128906</ele>
        <time>2012-05-15T09:11:20Z</time>
      </trkpt>
      <trkpt lat="48.82213" lon="6.11432">
        <ele>184.71057128906</ele>
        <time>2012-05-15T09:11:21Z</time>
      </trkpt>
      <trkpt lat="48.82214" lon="6.11432">
        <ele>184.71057128906</ele>
        <time>2012-05-15T09:11:24Z</time>
      </trkpt>
      <trkpt lat="48.82215" lon="6.11432">
        <ele>184.71057128906</ele>
        <time>2012-05-15T09:11:25Z</time>
      </trkpt>
      <trkpt lat="48.82225" lon="6.1142">
        <ele>185.67175292969</ele>
        <time>2012-05-15T09:11:28Z</time>
      </trkpt>
      <trkpt lat="48.82237" lon="6.11389">
        <ele>186.63317871094</ele>
        <time>2012-05-15T09:11:33Z</time>
      </trkpt>
      <trkpt lat="48.82246" lon="6.11368">
        <ele>184.22985839844</ele>
        <time>2012-05-15T09:11:36Z</time>
      </trkpt>
      <trkpt lat="48.82272" lon="6.113">
        <ele>184.22985839844</ele>
        <time>2012-05-15T09:11:45Z</time>
      </trkpt>
      <trkpt lat="48.82299" lon="6.11227">
        <ele>186.63317871094</ele>
        <time>2012-05-15T09:11:54Z</time>
      </trkpt>
      <trkpt lat="48.82318" lon="6.11159">
        <ele>185.19116210938</ele>
        <time>2012-05-15T09:12:02Z</time>
      </trkpt>
      <trkpt lat="48.82333" lon="6.11105">
        <ele>184.71057128906</ele>
        <time>2012-05-15T09:12:08Z</time>
      </trkpt>
      <trkpt lat="48.82357" lon="6.11024">
        <ele>185.19116210938</ele>
        <time>2012-05-15T09:12:17Z</time>
      </trkpt>
      <trkpt lat="48.82376" lon="6.10962">
        <ele>185.67175292969</ele>
        <time>2012-05-15T09:12:24Z</time>
      </trkpt>
      <trkpt lat="48.82402" lon="6.10881">
        <ele>185.67175292969</ele>
        <time>2012-05-15T09:12:33Z</time>
      </trkpt>
      <trkpt lat="48.82424" lon="6.10798">
        <ele>185.19116210938</ele>
        <time>2012-05-15T09:12:42Z</time>
      </trkpt>
      <trkpt lat="48.82443" lon="6.10711">
        <ele>185.67175292969</ele>
        <time>2012-05-15T09:12:51Z</time>
      </trkpt>
      <trkpt lat="48.82466" lon="6.10606">
        <ele>185.19116210938</ele>
        <time>2012-05-15T09:13:02Z</time>
      </trkpt>
      <trkpt lat="48.82488" lon="6.10501">
        <ele>185.67175292969</ele>
        <time>2012-05-15T09:13:13Z</time>
      </trkpt>
      <trkpt lat="48.82501" lon="6.10413">
        <ele>185.67175292969</ele>
        <time>2012-05-15T09:13:22Z</time>
      </trkpt>
      <trkpt lat="48.82509" lon="6.10315">
        <ele>186.15246582031</ele>
        <time>2012-05-15T09:13:32Z</time>
      </trkpt>
      <trkpt lat="48.82515" lon="6.10242">
        <ele>187.11376953125</ele>
        <time>2012-05-15T09:13:40Z</time>
      </trkpt>
      <trkpt lat="48.82524" lon="6.10158">
        <ele>186.15246582031</ele>
        <time>2012-05-15T09:13:49Z</time>
      </trkpt>
      <trkpt lat="48.8254" lon="6.10113">
        <ele>184.71057128906</ele>
        <time>2012-05-15T09:13:54Z</time>
      </trkpt>
      <trkpt lat="48.82574" lon="6.10047">
        <ele>186.15246582031</ele>
        <time>2012-05-15T09:14:02Z</time>
      </trkpt>
      <trkpt lat="48.82618" lon="6.09983">
        <ele>185.19116210938</ele>
        <time>2012-05-15T09:14:11Z</time>
      </trkpt>
      <trkpt lat="48.82681" lon="6.09894">
        <ele>184.71057128906</ele>
        <time>2012-05-15T09:14:24Z</time>
      </trkpt>
      <trkpt lat="48.82741" lon="6.09822">
        <ele>184.71057128906</ele>
        <time>2012-05-15T09:14:35Z</time>
      </trkpt>
      <trkpt lat="48.82809" lon="6.09745">
        <ele>184.22985839844</ele>
        <time>2012-05-15T09:14:47Z</time>
      </trkpt>
      <trkpt lat="48.82857" lon="6.09698">
        <ele>185.19116210938</ele>
        <time>2012-05-15T09:14:55Z</time>
      </trkpt>
      <trkpt lat="48.8292" lon="6.09644">
        <ele>185.19116210938</ele>
        <time>2012-05-15T09:15:05Z</time>
      </trkpt>
      <trkpt lat="48.82981" lon="6.09596">
        <ele>185.19116210938</ele>
        <time>2012-05-15T09:15:14Z</time>
      </trkpt>
      <trkpt lat="48.8304" lon="6.09559">
        <ele>184.71057128906</ele>
        <time>2012-05-15T09:15:23Z</time>
      </trkpt>
      <trkpt lat="48.83104" lon="6.09525">
        <ele>185.19116210938</ele>
        <time>2012-05-15T09:15:33Z</time>
      </trkpt>
      <trkpt lat="48.83155" lon="6.09499">
        <ele>185.19116210938</ele>
        <time>2012-05-15T09:15:41Z</time>
      </trkpt>
      <trkpt lat="48.83209" lon="6.09464">
        <ele>184.71057128906</ele>
        <time>2012-05-15T09:15:50Z</time>
      </trkpt>
      <trkpt lat="48.8327" lon="6.09422">
        <ele>184.22985839844</ele>
        <time>2012-05-15T09:16:00Z</time>
      </trkpt>
      <trkpt lat="48.8335" lon="6.09368">
        <ele>184.71057128906</ele>
        <time>2012-05-15T09:16:13Z</time>
      </trkpt>
      <trkpt lat="48.8343" lon="6.09313">
        <ele>184.22985839844</ele>
        <time>2012-05-15T09:16:26Z</time>
      </trkpt>
      <trkpt lat="48.83486" lon="6.09275">
        <ele>183.7490234375</ele>
        <time>2012-05-15T09:16:35Z</time>
      </trkpt>
      <trkpt lat="48.83551" lon="6.09237">
        <ele>185.19116210938</ele>
        <time>2012-05-15T09:16:45Z</time>
      </trkpt>
      <trkpt lat="48.83585" lon="6.09235">
        <ele>185.19116210938</ele>
        <time>2012-05-15T09:16:50Z</time>
      </trkpt>
      <trkpt lat="48.83591" lon="6.09237">
        <ele>185.67175292969</ele>
        <time>2012-05-15T09:16:51Z</time>
      </trkpt>
      <trkpt lat="48.83631" lon="6.09262">
        <ele>187.59436035156</ele>
        <time>2012-05-15T09:16:59Z</time>
      </trkpt>
      <trkpt lat="48.83664" lon="6.09282">
        <ele>189.03637695312</ele>
        <time>2012-05-15T09:17:06Z</time>
      </trkpt>
      <trkpt lat="48.83678" lon="6.0929">
        <ele>190.958984375</ele>
        <time>2012-05-15T09:17:09Z</time>
      </trkpt>
      <trkpt lat="48.83713" lon="6.093">
        <ele>191.92028808594</ele>
        <time>2012-05-15T09:17:16Z</time>
      </trkpt>
      <trkpt lat="48.83752" lon="6.093">
        <ele>192.88171386719</ele>
        <time>2012-05-15T09:17:23Z</time>
      </trkpt>
      <trkpt lat="48.83801" lon="6.09298">
        <ele>192.40112304688</ele>
        <time>2012-05-15T09:17:31Z</time>
      </trkpt>
      <trkpt lat="48.83838" lon="6.09298">
        <ele>192.40112304688</ele>
        <time>2012-05-15T09:17:37Z</time>
      </trkpt>
      <trkpt lat="48.83883" lon="6.09298">
        <ele>192.88171386719</ele>
        <time>2012-05-15T09:17:44Z</time>
      </trkpt>
      <trkpt lat="48.83931" lon="6.09296">
        <ele>193.3623046875</ele>
        <time>2012-05-15T09:17:51Z</time>
      </trkpt>
      <trkpt lat="48.83982" lon="6.09295">
        <ele>192.88171386719</ele>
        <time>2012-05-15T09:17:58Z</time>
      </trkpt>
      <trkpt lat="48.84045" lon="6.09298">
        <ele>192.88171386719</ele>
        <time>2012-05-15T09:18:07Z</time>
      </trkpt>
      <trkpt lat="48.84087" lon="6.09312">
        <ele>193.3623046875</ele>
        <time>2012-05-15T09:18:13Z</time>
      </trkpt>
      <trkpt lat="48.84154" lon="6.0934">
        <ele>194.80432128906</ele>
        <time>2012-05-15T09:18:23Z</time>
      </trkpt>
      <trkpt lat="48.84222" lon="6.09371">
        <ele>195.28491210938</ele>
        <time>2012-05-15T09:18:33Z</time>
      </trkpt>
      <trkpt lat="48.84283" lon="6.09401">
        <ele>194.80432128906</ele>
        <time>2012-05-15T09:18:42Z</time>
      </trkpt>
      <trkpt lat="48.84337" lon="6.09422">
        <ele>193.3623046875</ele>
        <time>2012-05-15T09:18:49Z</time>
      </trkpt>
      <trkpt lat="48.84398" lon="6.09443">
        <ele>190.47839355469</ele>
        <time>2012-05-15T09:18:56Z</time>
      </trkpt>
      <trkpt lat="48.84464" lon="6.09465">
        <ele>188.55578613281</ele>
        <time>2012-05-15T09:19:03Z</time>
      </trkpt>
      <trkpt lat="48.84516" lon="6.09483">
        <ele>187.59436035156</ele>
        <time>2012-05-15T09:19:09Z</time>
      </trkpt>
      <trkpt lat="48.8458" lon="6.09506">
        <ele>187.11376953125</ele>
        <time>2012-05-15T09:19:17Z</time>
      </trkpt>
      <trkpt lat="48.84615" lon="6.09531">
        <ele>188.07507324219</ele>
        <time>2012-05-15T09:19:22Z</time>
      </trkpt>
      <trkpt lat="48.84642" lon="6.09544">
        <ele>188.55578613281</ele>
        <time>2012-05-15T09:19:26Z</time>
      </trkpt>
      <trkpt lat="48.84688" lon="6.09542">
        <ele>187.59436035156</ele>
        <time>2012-05-15T09:19:32Z</time>
      </trkpt>
      <trkpt lat="48.84752" lon="6.09534">
        <ele>186.15246582031</ele>
        <time>2012-05-15T09:19:40Z</time>
      </trkpt>
      <trkpt lat="48.84816" lon="6.09522">
        <ele>186.15246582031</ele>
        <time>2012-05-15T09:19:48Z</time>
      </trkpt>
      <trkpt lat="48.84855" lon="6.0951">
        <ele>187.11376953125</ele>
        <time>2012-05-15T09:19:54Z</time>
      </trkpt>
      <trkpt lat="48.84884" lon="6.09502">
        <ele>189.03637695312</ele>
        <time>2012-05-15T09:19:59Z</time>
      </trkpt>
      <trkpt lat="48.84928" lon="6.09489">
        <ele>187.59436035156</ele>
        <time>2012-05-15T09:20:06Z</time>
      </trkpt>
      <trkpt lat="48.84978" lon="6.09475">
        <ele>187.59436035156</ele>
        <time>2012-05-15T09:20:13Z</time>
      </trkpt>
      <trkpt lat="48.85015" lon="6.09475">
        <ele>188.07507324219</ele>
        <time>2012-05-15T09:20:18Z</time>
      </trkpt>
      <trkpt lat="48.85064" lon="6.09492">
        <ele>188.07507324219</ele>
        <time>2012-05-15T09:20:25Z</time>
      </trkpt>
      <trkpt lat="48.85085" lon="6.09501">
        <ele>186.63317871094</ele>
        <time>2012-05-15T09:20:28Z</time>
      </trkpt>
      <trkpt lat="48.85136" lon="6.09524">
        <ele>185.67175292969</ele>
        <time>2012-05-15T09:20:35Z</time>
      </trkpt>
      <trkpt lat="48.85159" lon="6.09534">
        <ele>187.11376953125</ele>
        <time>2012-05-15T09:20:38Z</time>
      </trkpt>
      <trkpt lat="48.85233" lon="6.09565">
        <ele>188.07507324219</ele>
        <time>2012-05-15T09:20:48Z</time>
      </trkpt>
      <trkpt lat="48.8529" lon="6.09597">
        <ele>188.07507324219</ele>
        <time>2012-05-15T09:20:56Z</time>
      </trkpt>
      <trkpt lat="48.85343" lon="6.0963">
        <ele>187.59436035156</ele>
        <time>2012-05-15T09:21:04Z</time>
      </trkpt>
      <trkpt lat="48.85408" lon="6.09667">
        <ele>189.03637695312</ele>
        <time>2012-05-15T09:21:14Z</time>
      </trkpt>
      <trkpt lat="48.8543" lon="6.09672">
        <ele>190.47839355469</ele>
        <time>2012-05-15T09:21:17Z</time>
      </trkpt>
      <trkpt lat="48.85466" lon="6.09669">
        <ele>190.47839355469</ele>
        <time>2012-05-15T09:21:22Z</time>
      </trkpt>
      <trkpt lat="48.85538" lon="6.09653">
        <ele>189.51696777344</ele>
        <time>2012-05-15T09:21:32Z</time>
      </trkpt>
      <trkpt lat="48.85623" lon="6.09626">
        <ele>191.92028808594</ele>
        <time>2012-05-15T09:21:44Z</time>
      </trkpt>
      <trkpt lat="48.85694" lon="6.09601">
        <ele>190.958984375</ele>
        <time>2012-05-15T09:21:54Z</time>
      </trkpt>
      <trkpt lat="48.85766" lon="6.09574">
        <ele>189.99768066406</ele>
        <time>2012-05-15T09:22:04Z</time>
      </trkpt>
      <trkpt lat="48.85829" lon="6.0955">
        <ele>189.03637695312</ele>
        <time>2012-05-15T09:22:12Z</time>
      </trkpt>
      <trkpt lat="48.85883" lon="6.09544">
        <ele>188.55578613281</ele>
        <time>2012-05-15T09:22:18Z</time>
      </trkpt>
      <trkpt lat="48.8598" lon="6.09546">
        <ele>187.59436035156</ele>
        <time>2012-05-15T09:22:29Z</time>
      </trkpt>
      <trkpt lat="48.86074" lon="6.09536">
        <ele>188.07507324219</ele>
        <time>2012-05-15T09:22:40Z</time>
      </trkpt>
      <trkpt lat="48.86171" lon="6.09525">
        <ele>187.11376953125</ele>
        <time>2012-05-15T09:22:51Z</time>
      </trkpt>
      <trkpt lat="48.86235" lon="6.09527">
        <ele>187.59436035156</ele>
        <time>2012-05-15T09:22:58Z</time>
      </trkpt>
      <trkpt lat="48.86286" lon="6.09535">
        <ele>187.11376953125</ele>
        <time>2012-05-15T09:23:04Z</time>
      </trkpt>
      <trkpt lat="48.86337" lon="6.09542">
        <ele>186.15246582031</ele>
        <time>2012-05-15T09:23:10Z</time>
      </trkpt>
      <trkpt lat="48.86404" lon="6.09542">
        <ele>186.15246582031</ele>
        <time>2012-05-15T09:23:18Z</time>
      </trkpt>
      <trkpt lat="48.86478" lon="6.09536">
        <ele>188.07507324219</ele>
        <time>2012-05-15T09:23:27Z</time>
      </trkpt>
      <trkpt lat="48.86502" lon="6.09534">
        <ele>186.63317871094</ele>
        <time>2012-05-15T09:23:30Z</time>
      </trkpt>
      <trkpt lat="48.86585" lon="6.09529">
        <ele>186.15246582031</ele>
        <time>2012-05-15T09:23:40Z</time>
      </trkpt>
      <trkpt lat="48.86643" lon="6.09519">
        <ele>186.15246582031</ele>
        <time>2012-05-15T09:23:47Z</time>
      </trkpt>
      <trkpt lat="48.86724" lon="6.09503">
        <ele>185.19116210938</ele>
        <time>2012-05-15T09:23:56Z</time>
      </trkpt>
      <trkpt lat="48.86756" lon="6.09489">
        <ele>187.11376953125</ele>
        <time>2012-05-15T09:24:00Z</time>
      </trkpt>
      <trkpt lat="48.86777" lon="6.09476">
        <ele>188.07507324219</ele>
        <time>2012-05-15T09:24:03Z</time>
      </trkpt>
      <trkpt lat="48.86818" lon="6.09434">
        <ele>189.51696777344</ele>
        <time>2012-05-15T09:24:10Z</time>
      </trkpt>
      <trkpt lat="48.86861" lon="6.09382">
        <ele>188.55578613281</ele>
        <time>2012-05-15T09:24:18Z</time>
      </trkpt>
      <trkpt lat="48.8689" lon="6.09351">
        <ele>190.47839355469</ele>
        <time>2012-05-15T09:24:23Z</time>
      </trkpt>
      <trkpt lat="48.86934" lon="6.09327">
        <ele>188.55578613281</ele>
        <time>2012-05-15T09:24:29Z</time>
      </trkpt>
      <trkpt lat="48.86969" lon="6.09325">
        <ele>186.15246582031</ele>
        <time>2012-05-15T09:24:33Z</time>
      </trkpt>
      <trkpt lat="48.86996" lon="6.09334">
        <ele>186.63317871094</ele>
        <time>2012-05-15T09:24:36Z</time>
      </trkpt>
      <trkpt lat="48.87047" lon="6.09373">
        <ele>185.19116210938</ele>
        <time>2012-05-15T09:24:42Z</time>
      </trkpt>
      <trkpt lat="48.87078" lon="6.094">
        <ele>186.15246582031</ele>
        <time>2012-05-15T09:24:46Z</time>
      </trkpt>
      <trkpt lat="48.871" lon="6.0942">
        <ele>184.71057128906</ele>
        <time>2012-05-15T09:24:49Z</time>
      </trkpt>
      <trkpt lat="48.87152" lon="6.09458">
        <ele>185.19116210938</ele>
        <time>2012-05-15T09:24:56Z</time>
      </trkpt>
      <trkpt lat="48.87206" lon="6.09486">
        <ele>185.67175292969</ele>
        <time>2012-05-15T09:25:03Z</time>
      </trkpt>
      <trkpt lat="48.87253" lon="6.09503">
        <ele>183.7490234375</ele>
        <time>2012-05-15T09:25:09Z</time>
      </trkpt>
      <trkpt lat="48.87323" lon="6.09519">
        <ele>184.71057128906</ele>
        <time>2012-05-15T09:25:18Z</time>
      </trkpt>
      <trkpt lat="48.87386" lon="6.09522">
        <ele>184.71057128906</ele>
        <time>2012-05-15T09:25:26Z</time>
      </trkpt>
      <trkpt lat="48.87455" lon="6.0951">
        <ele>185.19116210938</ele>
        <time>2012-05-15T09:25:35Z</time>
      </trkpt>
      <trkpt lat="48.87499" lon="6.09489">
        <ele>184.22985839844</ele>
        <time>2012-05-15T09:25:41Z</time>
      </trkpt>
      <trkpt lat="48.87549" lon="6.09452">
        <ele>183.26843261719</ele>
        <time>2012-05-15T09:25:48Z</time>
      </trkpt>
      <trkpt lat="48.87563" lon="6.09441">
        <ele>183.7490234375</ele>
        <time>2012-05-15T09:25:50Z</time>
      </trkpt>
      <trkpt lat="48.87603" lon="6.09404">
        <ele>181.82641601562</ele>
        <time>2012-05-15T09:25:56Z</time>
      </trkpt>
      <trkpt lat="48.87648" lon="6.09352">
        <ele>183.7490234375</ele>
        <time>2012-05-15T09:26:03Z</time>
      </trkpt>
      <trkpt lat="48.87682" lon="6.09322">
        <ele>182.30712890625</ele>
        <time>2012-05-15T09:26:08Z</time>
      </trkpt>
      <trkpt lat="48.87717" lon="6.09301">
        <ele>184.71057128906</ele>
        <time>2012-05-15T09:26:13Z</time>
      </trkpt>
      <trkpt lat="48.87766" lon="6.09281">
        <ele>183.7490234375</ele>
        <time>2012-05-15T09:26:20Z</time>
      </trkpt>
      <trkpt lat="48.87849" lon="6.09259">
        <ele>182.30712890625</ele>
        <time>2012-05-15T09:26:31Z</time>
      </trkpt>
      <trkpt lat="48.87918" lon="6.09241">
        <ele>182.78784179688</ele>
        <time>2012-05-15T09:26:40Z</time>
      </trkpt>
      <trkpt lat="48.87992" lon="6.0922">
        <ele>181.82641601562</ele>
        <time>2012-05-15T09:26:50Z</time>
      </trkpt>
      <trkpt lat="48.88065" lon="6.092">
        <ele>180.865234375</ele>
        <time>2012-05-15T09:27:00Z</time>
      </trkpt>
      <trkpt lat="48.88115" lon="6.09213">
        <ele>182.78784179688</ele>
        <time>2012-05-15T09:27:07Z</time>
      </trkpt>
      <trkpt lat="48.88166" lon="6.09228">
        <ele>183.7490234375</ele>
        <time>2012-05-15T09:27:14Z</time>
      </trkpt>
      <trkpt lat="48.88232" lon="6.09247">
        <ele>182.78784179688</ele>
        <time>2012-05-15T09:27:23Z</time>
      </trkpt>
      <trkpt lat="48.88291" lon="6.09264">
        <ele>182.30712890625</ele>
        <time>2012-05-15T09:27:31Z</time>
      </trkpt>
      <trkpt lat="48.8832" lon="6.09271">
        <ele>183.7490234375</ele>
        <time>2012-05-15T09:27:35Z</time>
      </trkpt>
      <trkpt lat="48.88371" lon="6.09274">
        <ele>184.22985839844</ele>
        <time>2012-05-15T09:27:42Z</time>
      </trkpt>
      <trkpt lat="48.88416" lon="6.09272">
        <ele>185.67175292969</ele>
        <time>2012-05-15T09:27:49Z</time>
      </trkpt>
      <trkpt lat="48.88454" lon="6.0927">
        <ele>188.07507324219</ele>
        <time>2012-05-15T09:27:56Z</time>
      </trkpt>
      <trkpt lat="48.88459" lon="6.09269">
        <ele>188.55578613281</ele>
        <time>2012-05-15T09:27:57Z</time>
      </trkpt>
      <trkpt lat="48.8849" lon="6.09263">
        <ele>191.43957519531</ele>
        <time>2012-05-15T09:28:04Z</time>
      </trkpt>
      <trkpt lat="48.88517" lon="6.09255">
        <ele>194.32373046875</ele>
        <time>2012-05-15T09:28:10Z</time>
      </trkpt>
      <trkpt lat="48.8856" lon="6.09235">
        <ele>197.68823242188</ele>
        <time>2012-05-15T09:28:21Z</time>
      </trkpt>
      <trkpt lat="48.88597" lon="6.09216">
        <ele>198.64953613281</ele>
        <time>2012-05-15T09:28:31Z</time>
      </trkpt>
      <trkpt lat="48.88627" lon="6.092">
        <ele>202.49487304688</ele>
        <time>2012-05-15T09:28:39Z</time>
      </trkpt>
      <trkpt lat="48.88639" lon="6.09193">
        <ele>201.05285644531</ele>
        <time>2012-05-15T09:28:42Z</time>
      </trkpt>
      <trkpt lat="48.88678" lon="6.09173">
        <ele>202.97546386719</ele>
        <time>2012-05-15T09:28:51Z</time>
      </trkpt>
      <trkpt lat="48.88707" lon="6.09154">
        <ele>202.49487304688</ele>
        <time>2012-05-15T09:28:58Z</time>
      </trkpt>
      <trkpt lat="48.88744" lon="6.09124">
        <ele>202.49487304688</ele>
        <time>2012-05-15T09:29:06Z</time>
      </trkpt>
      <trkpt lat="48.88779" lon="6.09085">
        <ele>202.01428222656</ele>
        <time>2012-05-15T09:29:13Z</time>
      </trkpt>
      <trkpt lat="48.88827" lon="6.0903">
        <ele>201.05285644531</ele>
        <time>2012-05-15T09:29:21Z</time>
      </trkpt>
      <trkpt lat="48.88873" lon="6.08974">
        <ele>200.09167480469</ele>
        <time>2012-05-15T09:29:28Z</time>
      </trkpt>
      <trkpt lat="48.88915" lon="6.08917">
        <ele>198.64953613281</ele>
        <time>2012-05-15T09:29:34Z</time>
      </trkpt>
      <trkpt lat="48.8895" lon="6.08878">
        <ele>199.61083984375</ele>
        <time>2012-05-15T09:29:39Z</time>
      </trkpt>
      <trkpt lat="48.88985" lon="6.08842">
        <ele>200.572265625</ele>
        <time>2012-05-15T09:29:45Z</time>
      </trkpt>
      <trkpt lat="48.89036" lon="6.08792">
        <ele>201.53356933594</ele>
        <time>2012-05-15T09:29:54Z</time>
      </trkpt>
      <trkpt lat="48.89042" lon="6.08787">
        <ele>202.97546386719</ele>
        <time>2012-05-15T09:29:55Z</time>
      </trkpt>
      <trkpt lat="48.89073" lon="6.08762">
        <ele>200.09167480469</ele>
        <time>2012-05-15T09:30:00Z</time>
      </trkpt>
      <trkpt lat="48.89119" lon="6.08732">
        <ele>197.20751953125</ele>
        <time>2012-05-15T09:30:07Z</time>
      </trkpt>
      <trkpt lat="48.89126" lon="6.08728">
        <ele>197.20751953125</ele>
        <time>2012-05-15T09:30:08Z</time>
      </trkpt>
      <trkpt lat="48.8914" lon="6.0872">
        <ele>196.72692871094</ele>
        <time>2012-05-15T09:30:10Z</time>
      </trkpt>
      <trkpt lat="48.89166" lon="6.08721">
        <ele>195.28491210938</ele>
        <time>2012-05-15T09:30:14Z</time>
      </trkpt>
      <trkpt lat="48.89184" lon="6.08712">
        <ele>194.32373046875</ele>
        <time>2012-05-15T09:30:17Z</time>
      </trkpt>
      <trkpt lat="48.8919" lon="6.08704">
        <ele>193.3623046875</ele>
        <time>2012-05-15T09:30:18Z</time>
      </trkpt>
      <trkpt lat="48.89202" lon="6.08687">
        <ele>193.84301757812</ele>
        <time>2012-05-15T09:30:20Z</time>
      </trkpt>
      <trkpt lat="48.89232" lon="6.08661">
        <ele>192.88171386719</ele>
        <time>2012-05-15T09:30:24Z</time>
      </trkpt>
      <trkpt lat="48.89249" lon="6.08651">
        <ele>190.958984375</ele>
        <time>2012-05-15T09:30:26Z</time>
      </trkpt>
      <trkpt lat="48.89266" lon="6.08639">
        <ele>191.92028808594</ele>
        <time>2012-05-15T09:30:28Z</time>
      </trkpt>
      <trkpt lat="48.89301" lon="6.08616">
        <ele>188.55578613281</ele>
        <time>2012-05-15T09:30:32Z</time>
      </trkpt>
      <trkpt lat="48.89358" lon="6.08565">
        <ele>187.11376953125</ele>
        <time>2012-05-15T09:30:39Z</time>
      </trkpt>
      <trkpt lat="48.89384" lon="6.08533">
        <ele>187.59436035156</ele>
        <time>2012-05-15T09:30:43Z</time>
      </trkpt>
      <trkpt lat="48.89402" lon="6.085">
        <ele>189.51696777344</ele>
        <time>2012-05-15T09:30:47Z</time>
      </trkpt>
      <trkpt lat="48.89409" lon="6.08483">
        <ele>190.47839355469</ele>
        <time>2012-05-15T09:30:49Z</time>
      </trkpt>
      <trkpt lat="48.89421" lon="6.08429">
        <ele>191.43957519531</ele>
        <time>2012-05-15T09:30:55Z</time>
      </trkpt>
      <trkpt lat="48.89429" lon="6.08375">
        <ele>192.40112304688</ele>
        <time>2012-05-15T09:31:01Z</time>
      </trkpt>
      <trkpt lat="48.8943" lon="6.08367">
        <ele>194.80432128906</ele>
        <time>2012-05-15T09:31:02Z</time>
      </trkpt>
      <trkpt lat="48.89435" lon="6.08321">
        <ele>192.40112304688</ele>
        <time>2012-05-15T09:31:07Z</time>
      </trkpt>
      <trkpt lat="48.89434" lon="6.08261">
        <ele>193.3623046875</ele>
        <time>2012-05-15T09:31:13Z</time>
      </trkpt>
      <trkpt lat="48.89429" lon="6.08171">
        <ele>191.92028808594</ele>
        <time>2012-05-15T09:31:21Z</time>
      </trkpt>
      <trkpt lat="48.89431" lon="6.08088">
        <ele>192.40112304688</ele>
        <time>2012-05-15T09:31:28Z</time>
      </trkpt>
      <trkpt lat="48.89439" lon="6.07992">
        <ele>192.88171386719</ele>
        <time>2012-05-15T09:31:36Z</time>
      </trkpt>
      <trkpt lat="48.89451" lon="6.07918">
        <ele>194.80432128906</ele>
        <time>2012-05-15T09:31:43Z</time>
      </trkpt>
      <trkpt lat="48.89466" lon="6.07838">
        <ele>191.92028808594</ele>
        <time>2012-05-15T09:31:51Z</time>
      </trkpt>
      <trkpt lat="48.89468" lon="6.07828">
        <ele>191.43957519531</ele>
        <time>2012-05-15T09:31:52Z</time>
      </trkpt>
      <trkpt lat="48.89489" lon="6.07733">
        <ele>190.47839355469</ele>
        <time>2012-05-15T09:32:01Z</time>
      </trkpt>
      <trkpt lat="48.89513" lon="6.07639">
        <ele>190.958984375</ele>
        <time>2012-05-15T09:32:10Z</time>
      </trkpt>
      <trkpt lat="48.89541" lon="6.07548">
        <ele>190.47839355469</ele>
        <time>2012-05-15T09:32:19Z</time>
      </trkpt>
      <trkpt lat="48.89564" lon="6.0748">
        <ele>188.55578613281</ele>
        <time>2012-05-15T09:32:25Z</time>
      </trkpt>
      <trkpt lat="48.89596" lon="6.07393">
        <ele>186.15246582031</ele>
        <time>2012-05-15T09:32:32Z</time>
      </trkpt>
      <trkpt lat="48.8963" lon="6.07302">
        <ele>183.7490234375</ele>
        <time>2012-05-15T09:32:40Z</time>
      </trkpt>
      <trkpt lat="48.89634" lon="6.07292">
        <ele>183.7490234375</ele>
        <time>2012-05-15T09:32:41Z</time>
      </trkpt>
      <trkpt lat="48.89657" lon="6.07226">
        <ele>185.67175292969</ele>
        <time>2012-05-15T09:32:48Z</time>
      </trkpt>
      <trkpt lat="48.89669" lon="6.07193">
        <ele>183.7490234375</ele>
        <time>2012-05-15T09:32:52Z</time>
      </trkpt>
      <trkpt lat="48.8968" lon="6.07163">
        <ele>185.19116210938</ele>
        <time>2012-05-15T09:32:57Z</time>
      </trkpt>
      <trkpt lat="48.89682" lon="6.07159">
        <ele>185.19116210938</ele>
        <time>2012-05-15T09:32:58Z</time>
      </trkpt>
      <trkpt lat="48.89695" lon="6.07123">
        <ele>185.19116210938</ele>
        <time>2012-05-15T09:33:05Z</time>
      </trkpt>
      <trkpt lat="48.89716" lon="6.07082">
        <ele>186.63317871094</ele>
        <time>2012-05-15T09:33:12Z</time>
      </trkpt>
      <trkpt lat="48.89743" lon="6.07033">
        <ele>185.67175292969</ele>
        <time>2012-05-15T09:33:19Z</time>
      </trkpt>
      <trkpt lat="48.89777" lon="6.06976">
        <ele>185.19116210938</ele>
        <time>2012-05-15T09:33:27Z</time>
      </trkpt>
      <trkpt lat="48.89801" lon="6.0694">
        <ele>185.19116210938</ele>
        <time>2012-05-15T09:33:32Z</time>
      </trkpt>
      <trkpt lat="48.89837" lon="6.06881">
        <ele>185.67175292969</ele>
        <time>2012-05-15T09:33:40Z</time>
      </trkpt>
      <trkpt lat="48.89886" lon="6.06808">
        <ele>183.26843261719</ele>
        <time>2012-05-15T09:33:50Z</time>
      </trkpt>
      <trkpt lat="48.89947" lon="6.06719">
        <ele>183.26843261719</ele>
        <time>2012-05-15T09:34:02Z</time>
      </trkpt>
      <trkpt lat="48.89986" lon="6.06661">
        <ele>184.22985839844</ele>
        <time>2012-05-15T09:34:10Z</time>
      </trkpt>
      <trkpt lat="48.90034" lon="6.06591">
        <ele>182.78784179688</ele>
        <time>2012-05-15T09:34:20Z</time>
      </trkpt>
      <trkpt lat="48.90039" lon="6.06585">
        <ele>182.78784179688</ele>
        <time>2012-05-15T09:34:21Z</time>
      </trkpt>
      <trkpt lat="48.90079" lon="6.06526">
        <ele>184.22985839844</ele>
        <time>2012-05-15T09:34:29Z</time>
      </trkpt>
      <trkpt lat="48.90124" lon="6.06461">
        <ele>183.7490234375</ele>
        <time>2012-05-15T09:34:38Z</time>
      </trkpt>
      <trkpt lat="48.90153" lon="6.06419">
        <ele>183.26843261719</ele>
        <time>2012-05-15T09:34:44Z</time>
      </trkpt>
      <trkpt lat="48.90202" lon="6.06347">
        <ele>182.30712890625</ele>
        <time>2012-05-15T09:34:54Z</time>
      </trkpt>
      <trkpt lat="48.90215" lon="6.06324">
        <ele>181.82641601562</ele>
        <time>2012-05-15T09:34:57Z</time>
      </trkpt>
      <trkpt lat="48.90244" lon="6.06297">
        <ele>182.78784179688</ele>
        <time>2012-05-15T09:35:02Z</time>
      </trkpt>
      <trkpt lat="48.90295" lon="6.06258">
        <ele>181.82641601562</ele>
        <time>2012-05-15T09:35:10Z</time>
      </trkpt>
      <trkpt lat="48.90341" lon="6.0622">
        <ele>182.78784179688</ele>
        <time>2012-05-15T09:35:17Z</time>
      </trkpt>
      <trkpt lat="48.90348" lon="6.06215">
        <ele>182.30712890625</ele>
        <time>2012-05-15T09:35:18Z</time>
      </trkpt>
      <trkpt lat="48.9039" lon="6.06202">
        <ele>182.30712890625</ele>
        <time>2012-05-15T09:35:24Z</time>
      </trkpt>
      <trkpt lat="48.90453" lon="6.06189">
        <ele>183.26843261719</ele>
        <time>2012-05-15T09:35:33Z</time>
      </trkpt>
      <trkpt lat="48.90499" lon="6.06173">
        <ele>183.7490234375</ele>
        <time>2012-05-15T09:35:40Z</time>
      </trkpt>
      <trkpt lat="48.90558" lon="6.06151">
        <ele>184.71057128906</ele>
        <time>2012-05-15T09:35:49Z</time>
      </trkpt>
      <trkpt lat="48.9057" lon="6.06146">
        <ele>188.55578613281</ele>
        <time>2012-05-15T09:35:51Z</time>
      </trkpt>
      <trkpt lat="48.90582" lon="6.06142">
        <ele>185.19116210938</ele>
        <time>2012-05-15T09:35:53Z</time>
      </trkpt>
      <trkpt lat="48.90588" lon="6.0614">
        <ele>184.71057128906</ele>
        <time>2012-05-15T09:35:54Z</time>
      </trkpt>
      <trkpt lat="48.90637" lon="6.06119">
        <ele>184.22985839844</ele>
        <time>2012-05-15T09:36:02Z</time>
      </trkpt>
      <trkpt lat="48.90678" lon="6.06114">
        <ele>184.22985839844</ele>
        <time>2012-05-15T09:36:08Z</time>
      </trkpt>
      <trkpt lat="48.9071" lon="6.06114">
        <ele>183.7490234375</ele>
        <time>2012-05-15T09:36:12Z</time>
      </trkpt>
      <trkpt lat="48.90788" lon="6.06121">
        <ele>184.22985839844</ele>
        <time>2012-05-15T09:36:22Z</time>
      </trkpt>
      <trkpt lat="48.90878" lon="6.06131">
        <ele>183.26843261719</ele>
        <time>2012-05-15T09:36:33Z</time>
      </trkpt>
      <trkpt lat="48.9096" lon="6.06139">
        <ele>185.19116210938</ele>
        <time>2012-05-15T09:36:43Z</time>
      </trkpt>
      <trkpt lat="48.90969" lon="6.0614">
        <ele>184.71057128906</ele>
        <time>2012-05-15T09:36:44Z</time>
      </trkpt>
      <trkpt lat="48.90986" lon="6.06141">
        <ele>183.7490234375</ele>
        <time>2012-05-15T09:36:46Z</time>
      </trkpt>
      <trkpt lat="48.91074" lon="6.0615">
        <ele>184.22985839844</ele>
        <time>2012-05-15T09:36:56Z</time>
      </trkpt>
      <trkpt lat="48.91161" lon="6.06159">
        <ele>185.19116210938</ele>
        <time>2012-05-15T09:37:06Z</time>
      </trkpt>
      <trkpt lat="48.91239" lon="6.06165">
        <ele>184.71057128906</ele>
        <time>2012-05-15T09:37:15Z</time>
      </trkpt>
      <trkpt lat="48.91306" lon="6.06172">
        <ele>186.15246582031</ele>
        <time>2012-05-15T09:37:23Z</time>
      </trkpt>
      <trkpt lat="48.91372" lon="6.06182">
        <ele>184.71057128906</ele>
        <time>2012-05-15T09:37:31Z</time>
      </trkpt>
      <trkpt lat="48.91454" lon="6.06203">
        <ele>186.15246582031</ele>
        <time>2012-05-15T09:37:41Z</time>
      </trkpt>
      <trkpt lat="48.91535" lon="6.06228">
        <ele>186.63317871094</ele>
        <time>2012-05-15T09:37:51Z</time>
      </trkpt>
      <trkpt lat="48.91581" lon="6.06246">
        <ele>187.11376953125</ele>
        <time>2012-05-15T09:37:57Z</time>
      </trkpt>
      <trkpt lat="48.91623" lon="6.06275">
        <ele>187.59436035156</ele>
        <time>2012-05-15T09:38:04Z</time>
      </trkpt>
      <trkpt lat="48.91652" lon="6.06293">
        <ele>187.59436035156</ele>
        <time>2012-05-15T09:38:10Z</time>
      </trkpt>
      <trkpt lat="48.91659" lon="6.06303">
        <ele>188.07507324219</ele>
        <time>2012-05-15T09:38:14Z</time>
      </trkpt>
      <trkpt lat="48.91671" lon="6.06314">
        <ele>188.55578613281</ele>
        <time>2012-05-15T09:38:19Z</time>
      </trkpt>
      <trkpt lat="48.9168" lon="6.0632">
        <ele>189.03637695312</ele>
        <time>2012-05-15T09:38:21Z</time>
      </trkpt>
      <trkpt lat="48.9172" lon="6.06331">
        <ele>189.03637695312</ele>
        <time>2012-05-15T09:38:28Z</time>
      </trkpt>
      <trkpt lat="48.91779" lon="6.06341">
        <ele>188.07507324219</ele>
        <time>2012-05-15T09:38:37Z</time>
      </trkpt>
      <trkpt lat="48.9183" lon="6.0635">
        <ele>190.958984375</ele>
        <time>2012-05-15T09:38:44Z</time>
      </trkpt>
      <trkpt lat="48.91838" lon="6.06351">
        <ele>188.07507324219</ele>
        <time>2012-05-15T09:38:45Z</time>
      </trkpt>
      <trkpt lat="48.91915" lon="6.06362">
        <ele>189.03637695312</ele>
        <time>2012-05-15T09:38:55Z</time>
      </trkpt>
      <trkpt lat="48.91957" lon="6.06382">
        <ele>190.47839355469</ele>
        <time>2012-05-15T09:39:01Z</time>
      </trkpt>
      <trkpt lat="48.91994" lon="6.06413">
        <ele>190.47839355469</ele>
        <time>2012-05-15T09:39:07Z</time>
      </trkpt>
      <trkpt lat="48.9202" lon="6.06433">
        <ele>191.43957519531</ele>
        <time>2012-05-15T09:39:11Z</time>
      </trkpt>
      <trkpt lat="48.92079" lon="6.06477">
        <ele>192.40112304688</ele>
        <time>2012-05-15T09:39:20Z</time>
      </trkpt>
      <trkpt lat="48.92099" lon="6.0649">
        <ele>190.958984375</ele>
        <time>2012-05-15T09:39:23Z</time>
      </trkpt>
      <trkpt lat="48.92165" lon="6.0653">
        <ele>193.3623046875</ele>
        <time>2012-05-15T09:39:33Z</time>
      </trkpt>
      <trkpt lat="48.92196" lon="6.0655">
        <ele>194.80432128906</ele>
        <time>2012-05-15T09:39:38Z</time>
      </trkpt>
      <trkpt lat="48.9226" lon="6.06586">
        <ele>194.32373046875</ele>
        <time>2012-05-15T09:39:48Z</time>
      </trkpt>
      <trkpt lat="48.92294" lon="6.0659">
        <ele>193.84301757812</ele>
        <time>2012-05-15T09:39:53Z</time>
      </trkpt>
      <trkpt lat="48.92342" lon="6.0658">
        <ele>192.40112304688</ele>
        <time>2012-05-15T09:40:00Z</time>
      </trkpt>
      <trkpt lat="48.92372" lon="6.06572">
        <ele>191.92028808594</ele>
        <time>2012-05-15T09:40:04Z</time>
      </trkpt>
      <trkpt lat="48.92441" lon="6.06554">
        <ele>189.99768066406</ele>
        <time>2012-05-15T09:40:13Z</time>
      </trkpt>
      <trkpt lat="48.92487" lon="6.06541">
        <ele>190.47839355469</ele>
        <time>2012-05-15T09:40:19Z</time>
      </trkpt>
      <trkpt lat="48.92509" lon="6.06535">
        <ele>190.47839355469</ele>
        <time>2012-05-15T09:40:22Z</time>
      </trkpt>
      <trkpt lat="48.92571" lon="6.06516">
        <ele>190.47839355469</ele>
        <time>2012-05-15T09:40:30Z</time>
      </trkpt>
      <trkpt lat="48.92626" lon="6.06496">
        <ele>190.958984375</ele>
        <time>2012-05-15T09:40:37Z</time>
      </trkpt>
      <trkpt lat="48.92679" lon="6.06486">
        <ele>189.99768066406</ele>
        <time>2012-05-15T09:40:44Z</time>
      </trkpt>
      <trkpt lat="48.92743" lon="6.06477">
        <ele>190.47839355469</ele>
        <time>2012-05-15T09:40:52Z</time>
      </trkpt>
      <trkpt lat="48.92829" lon="6.06466">
        <ele>190.47839355469</ele>
        <time>2012-05-15T09:41:03Z</time>
      </trkpt>
      <trkpt lat="48.92897" lon="6.06457">
        <ele>189.51696777344</ele>
        <time>2012-05-15T09:41:12Z</time>
      </trkpt>
      <trkpt lat="48.92969" lon="6.06443">
        <ele>190.47839355469</ele>
        <time>2012-05-15T09:41:22Z</time>
      </trkpt>
      <trkpt lat="48.93052" lon="6.06418">
        <ele>189.03637695312</ele>
        <time>2012-05-15T09:41:33Z</time>
      </trkpt>
      <trkpt lat="48.93137" lon="6.06392">
        <ele>188.07507324219</ele>
        <time>2012-05-15T09:41:44Z</time>
      </trkpt>
      <trkpt lat="48.93207" lon="6.0637">
        <ele>188.07507324219</ele>
        <time>2012-05-15T09:41:53Z</time>
      </trkpt>
      <trkpt lat="48.93276" lon="6.0635">
        <ele>188.07507324219</ele>
        <time>2012-05-15T09:42:02Z</time>
      </trkpt>
      <trkpt lat="48.9334" lon="6.06342">
        <ele>187.59436035156</ele>
        <time>2012-05-15T09:42:10Z</time>
      </trkpt>
      <trkpt lat="48.93419" lon="6.06343">
        <ele>187.11376953125</ele>
        <time>2012-05-15T09:42:20Z</time>
      </trkpt>
      <trkpt lat="48.93486" lon="6.06344">
        <ele>189.51696777344</ele>
        <time>2012-05-15T09:42:29Z</time>
      </trkpt>
      <trkpt lat="48.93535" lon="6.06343">
        <ele>189.51696777344</ele>
        <time>2012-05-15T09:42:36Z</time>
      </trkpt>
      <trkpt lat="48.93555" lon="6.06342">
        <ele>190.47839355469</ele>
        <time>2012-05-15T09:42:39Z</time>
      </trkpt>
      <trkpt lat="48.93583" lon="6.0634">
        <ele>189.51696777344</ele>
        <time>2012-05-15T09:42:43Z</time>
      </trkpt>
      <trkpt lat="48.93658" lon="6.06334">
        <ele>189.99768066406</ele>
        <time>2012-05-15T09:42:54Z</time>
      </trkpt>
      <trkpt lat="48.93701" lon="6.0633">
        <ele>188.07507324219</ele>
        <time>2012-05-15T09:43:00Z</time>
      </trkpt>
      <trkpt lat="48.9376" lon="6.06324">
        <ele>188.07507324219</ele>
        <time>2012-05-15T09:43:08Z</time>
      </trkpt>
      <trkpt lat="48.93813" lon="6.06318">
        <ele>186.63317871094</ele>
        <time>2012-05-15T09:43:15Z</time>
      </trkpt>
      <trkpt lat="48.93871" lon="6.06316">
        <ele>184.71057128906</ele>
        <time>2012-05-15T09:43:22Z</time>
      </trkpt>
      <trkpt lat="48.93879" lon="6.06317">
        <ele>185.67175292969</ele>
        <time>2012-05-15T09:43:23Z</time>
      </trkpt>
      <trkpt lat="48.93962" lon="6.06329">
        <ele>185.19116210938</ele>
        <time>2012-05-15T09:43:33Z</time>
      </trkpt>
      <trkpt lat="48.94045" lon="6.06337">
        <ele>187.11376953125</ele>
        <time>2012-05-15T09:43:43Z</time>
      </trkpt>
      <trkpt lat="48.94138" lon="6.06337">
        <ele>186.63317871094</ele>
        <time>2012-05-15T09:43:54Z</time>
      </trkpt>
      <trkpt lat="48.94215" lon="6.06338">
        <ele>186.15246582031</ele>
        <time>2012-05-15T09:44:03Z</time>
      </trkpt>
      <trkpt lat="48.94286" lon="6.0634">
        <ele>185.19116210938</ele>
        <time>2012-05-15T09:44:12Z</time>
      </trkpt>
      <trkpt lat="48.94339" lon="6.06349">
        <ele>184.71057128906</ele>
        <time>2012-05-15T09:44:19Z</time>
      </trkpt>
      <trkpt lat="48.94397" lon="6.06372">
        <ele>185.67175292969</ele>
        <time>2012-05-15T09:44:27Z</time>
      </trkpt>
      <trkpt lat="48.94463" lon="6.06404">
        <ele>186.15246582031</ele>
        <time>2012-05-15T09:44:36Z</time>
      </trkpt>
      <trkpt lat="48.94547" lon="6.06441">
        <ele>187.11376953125</ele>
        <time>2012-05-15T09:44:47Z</time>
      </trkpt>
      <trkpt lat="48.94601" lon="6.06452">
        <ele>188.07507324219</ele>
        <time>2012-05-15T09:44:54Z</time>
      </trkpt>
      <trkpt lat="48.94681" lon="6.0646">
        <ele>188.07507324219</ele>
        <time>2012-05-15T09:45:04Z</time>
      </trkpt>
      <trkpt lat="48.94732" lon="6.06456">
        <ele>190.47839355469</ele>
        <time>2012-05-15T09:45:11Z</time>
      </trkpt>
      <trkpt lat="48.94746" lon="6.06453">
        <ele>187.11376953125</ele>
        <time>2012-05-15T09:45:13Z</time>
      </trkpt>
      <trkpt lat="48.94754" lon="6.06451">
        <ele>187.59436035156</ele>
        <time>2012-05-15T09:45:14Z</time>
      </trkpt>
      <trkpt lat="48.94834" lon="6.06427">
        <ele>188.07507324219</ele>
        <time>2012-05-15T09:45:25Z</time>
      </trkpt>
      <trkpt lat="48.94905" lon="6.06405">
        <ele>190.47839355469</ele>
        <time>2012-05-15T09:45:35Z</time>
      </trkpt>
      <trkpt lat="48.9495" lon="6.06387">
        <ele>192.40112304688</ele>
        <time>2012-05-15T09:45:42Z</time>
      </trkpt>
      <trkpt lat="48.94986" lon="6.06356">
        <ele>191.43957519531</ele>
        <time>2012-05-15T09:45:48Z</time>
      </trkpt>
      <trkpt lat="48.95028" lon="6.06314">
        <ele>189.99768066406</ele>
        <time>2012-05-15T09:45:55Z</time>
      </trkpt>
      <trkpt lat="48.95034" lon="6.06308">
        <ele>190.47839355469</ele>
        <time>2012-05-15T09:45:56Z</time>
      </trkpt>
      <trkpt lat="48.9507" lon="6.0627">
        <ele>190.958984375</ele>
        <time>2012-05-15T09:46:02Z</time>
      </trkpt>
      <trkpt lat="48.95121" lon="6.06216">
        <ele>187.59436035156</ele>
        <time>2012-05-15T09:46:10Z</time>
      </trkpt>
      <trkpt lat="48.95135" lon="6.06202">
        <ele>186.63317871094</ele>
        <time>2012-05-15T09:46:12Z</time>
      </trkpt>
      <trkpt lat="48.95207" lon="6.06126">
        <ele>182.78784179688</ele>
        <time>2012-05-15T09:46:22Z</time>
      </trkpt>
      <trkpt lat="48.95222" lon="6.06111">
        <ele>182.30712890625</ele>
        <time>2012-05-15T09:46:24Z</time>
      </trkpt>
      <trkpt lat="48.95277" lon="6.06057">
        <ele>180.38452148438</ele>
        <time>2012-05-15T09:46:31Z</time>
      </trkpt>
      <trkpt lat="48.95285" lon="6.0605">
        <ele>179.90380859375</ele>
        <time>2012-05-15T09:46:32Z</time>
      </trkpt>
      <trkpt lat="48.95301" lon="6.06036">
        <ele>183.26843261719</ele>
        <time>2012-05-15T09:46:34Z</time>
      </trkpt>
      <trkpt lat="48.95318" lon="6.06023">
        <ele>179.42321777344</ele>
        <time>2012-05-15T09:46:36Z</time>
      </trkpt>
      <trkpt lat="48.95325" lon="6.06017">
        <ele>179.90380859375</ele>
        <time>2012-05-15T09:46:37Z</time>
      </trkpt>
      <trkpt lat="48.95387" lon="6.05975">
        <ele>178.94262695312</ele>
        <time>2012-05-15T09:46:45Z</time>
      </trkpt>
      <trkpt lat="48.95455" lon="6.05932">
        <ele>178.4619140625</ele>
        <time>2012-05-15T09:46:54Z</time>
      </trkpt>
      <trkpt lat="48.95523" lon="6.05888">
        <ele>177.98120117188</ele>
        <time>2012-05-15T09:47:03Z</time>
      </trkpt>
      <trkpt lat="48.95593" lon="6.05847">
        <ele>177.50061035156</ele>
        <time>2012-05-15T09:47:12Z</time>
      </trkpt>
      <trkpt lat="48.956" lon="6.05843">
        <ele>178.4619140625</ele>
        <time>2012-05-15T09:47:13Z</time>
      </trkpt>
      <trkpt lat="48.95649" lon="6.0585">
        <ele>177.50061035156</ele>
        <time>2012-05-15T09:47:19Z</time>
      </trkpt>
      <trkpt lat="48.95715" lon="6.05858">
        <ele>177.02001953125</ele>
        <time>2012-05-15T09:47:27Z</time>
      </trkpt>
      <trkpt lat="48.95755" lon="6.05844">
        <ele>177.98120117188</ele>
        <time>2012-05-15T09:47:32Z</time>
      </trkpt>
      <trkpt lat="48.95808" lon="6.05813">
        <ele>178.4619140625</ele>
        <time>2012-05-15T09:47:39Z</time>
      </trkpt>
      <trkpt lat="48.95873" lon="6.05771">
        <ele>178.94262695312</ele>
        <time>2012-05-15T09:47:48Z</time>
      </trkpt>
      <trkpt lat="48.95946" lon="6.05724">
        <ele>179.42321777344</ele>
        <time>2012-05-15T09:47:58Z</time>
      </trkpt>
      <trkpt lat="48.96011" lon="6.05681">
        <ele>179.90380859375</ele>
        <time>2012-05-15T09:48:07Z</time>
      </trkpt>
      <trkpt lat="48.9609" lon="6.0563">
        <ele>179.90380859375</ele>
        <time>2012-05-15T09:48:18Z</time>
      </trkpt>
      <trkpt lat="48.96141" lon="6.05596">
        <ele>178.94262695312</ele>
        <time>2012-05-15T09:48:25Z</time>
      </trkpt>
      <trkpt lat="48.96222" lon="6.05544">
        <ele>178.94262695312</ele>
        <time>2012-05-15T09:48:36Z</time>
      </trkpt>
      <trkpt lat="48.96285" lon="6.05501">
        <ele>178.4619140625</ele>
        <time>2012-05-15T09:48:45Z</time>
      </trkpt>
      <trkpt lat="48.96292" lon="6.05496">
        <ele>178.4619140625</ele>
        <time>2012-05-15T09:48:46Z</time>
      </trkpt>
      <trkpt lat="48.96331" lon="6.05465">
        <ele>179.42321777344</ele>
        <time>2012-05-15T09:48:52Z</time>
      </trkpt>
      <trkpt lat="48.96377" lon="6.05426">
        <ele>179.90380859375</ele>
        <time>2012-05-15T09:48:59Z</time>
      </trkpt>
      <trkpt lat="48.96432" lon="6.05375">
        <ele>181.82641601562</ele>
        <time>2012-05-15T09:49:08Z</time>
      </trkpt>
      <trkpt lat="48.96466" lon="6.05348">
        <ele>183.26843261719</ele>
        <time>2012-05-15T09:49:13Z</time>
      </trkpt>
      <trkpt lat="48.96523" lon="6.05299">
        <ele>183.26843261719</ele>
        <time>2012-05-15T09:49:22Z</time>
      </trkpt>
      <trkpt lat="48.96587" lon="6.05244">
        <ele>184.22985839844</ele>
        <time>2012-05-15T09:49:32Z</time>
      </trkpt>
      <trkpt lat="48.96619" lon="6.05215">
        <ele>182.78784179688</ele>
        <time>2012-05-15T09:49:37Z</time>
      </trkpt>
      <trkpt lat="48.96675" lon="6.05168">
        <ele>184.22985839844</ele>
        <time>2012-05-15T09:49:46Z</time>
      </trkpt>
      <trkpt lat="48.96687" lon="6.05158">
        <ele>184.71057128906</ele>
        <time>2012-05-15T09:49:48Z</time>
      </trkpt>
      <trkpt lat="48.96731" lon="6.05132">
        <ele>186.63317871094</ele>
        <time>2012-05-15T09:49:55Z</time>
      </trkpt>
      <trkpt lat="48.96785" lon="6.05117">
        <ele>186.15246582031</ele>
        <time>2012-05-15T09:50:03Z</time>
      </trkpt>
      <trkpt lat="48.96838" lon="6.05105">
        <ele>186.15246582031</ele>
        <time>2012-05-15T09:50:11Z</time>
      </trkpt>
      <trkpt lat="48.96905" lon="6.05089">
        <ele>187.11376953125</ele>
        <time>2012-05-15T09:50:21Z</time>
      </trkpt>
      <trkpt lat="48.96961" lon="6.05075">
        <ele>187.59436035156</ele>
        <time>2012-05-15T09:50:29Z</time>
      </trkpt>
      <trkpt lat="48.97041" lon="6.05051">
        <ele>186.15246582031</ele>
        <time>2012-05-15T09:50:40Z</time>
      </trkpt>
      <trkpt lat="48.97104" lon="6.05033">
        <ele>186.63317871094</ele>
        <time>2012-05-15T09:50:48Z</time>
      </trkpt>
      <trkpt lat="48.97182" lon="6.05013">
        <ele>186.15246582031</ele>
        <time>2012-05-15T09:50:57Z</time>
      </trkpt>
      <trkpt lat="48.9727" lon="6.04989">
        <ele>185.19116210938</ele>
        <time>2012-05-15T09:51:07Z</time>
      </trkpt>
      <trkpt lat="48.97364" lon="6.04964">
        <ele>183.7490234375</ele>
        <time>2012-05-15T09:51:18Z</time>
      </trkpt>
      <trkpt lat="48.97444" lon="6.04942">
        <ele>183.26843261719</ele>
        <time>2012-05-15T09:51:27Z</time>
      </trkpt>
      <trkpt lat="48.97539" lon="6.04917">
        <ele>181.82641601562</ele>
        <time>2012-05-15T09:51:38Z</time>
      </trkpt>
      <trkpt lat="48.97605" lon="6.04898">
        <ele>182.30712890625</ele>
        <time>2012-05-15T09:51:46Z</time>
      </trkpt>
      <trkpt lat="48.9766" lon="6.04883">
        <ele>184.22985839844</ele>
        <time>2012-05-15T09:51:53Z</time>
      </trkpt>
      <trkpt lat="48.97682" lon="6.04877">
        <ele>182.30712890625</ele>
        <time>2012-05-15T09:51:56Z</time>
      </trkpt>
      <trkpt lat="48.97696" lon="6.04874">
        <ele>183.7490234375</ele>
        <time>2012-05-15T09:51:58Z</time>
      </trkpt>
      <trkpt lat="48.97765" lon="6.04855">
        <ele>183.7490234375</ele>
        <time>2012-05-15T09:52:08Z</time>
      </trkpt>
      <trkpt lat="48.97815" lon="6.0484">
        <ele>183.26843261719</ele>
        <time>2012-05-15T09:52:15Z</time>
      </trkpt>
      <trkpt lat="48.97858" lon="6.04828">
        <ele>185.67175292969</ele>
        <time>2012-05-15T09:52:21Z</time>
      </trkpt>
      <trkpt lat="48.97872" lon="6.04824">
        <ele>184.22985839844</ele>
        <time>2012-05-15T09:52:23Z</time>
      </trkpt>
      <trkpt lat="48.97944" lon="6.04804">
        <ele>184.71057128906</ele>
        <time>2012-05-15T09:52:33Z</time>
      </trkpt>
      <trkpt lat="48.98031" lon="6.0478">
        <ele>185.67175292969</ele>
        <time>2012-05-15T09:52:45Z</time>
      </trkpt>
      <trkpt lat="48.98045" lon="6.04777">
        <ele>187.11376953125</ele>
        <time>2012-05-15T09:52:47Z</time>
      </trkpt>
      <trkpt lat="48.98073" lon="6.04769">
        <ele>187.11376953125</ele>
        <time>2012-05-15T09:52:51Z</time>
      </trkpt>
      <trkpt lat="48.98139" lon="6.04751">
        <ele>185.67175292969</ele>
        <time>2012-05-15T09:53:01Z</time>
      </trkpt>
      <trkpt lat="48.98203" lon="6.04733">
        <ele>187.11376953125</ele>
        <time>2012-05-15T09:53:11Z</time>
      </trkpt>
      <trkpt lat="48.98267" lon="6.04715">
        <ele>187.59436035156</ele>
        <time>2012-05-15T09:53:21Z</time>
      </trkpt>
      <trkpt lat="48.98301" lon="6.04706">
        <ele>188.55578613281</ele>
        <time>2012-05-15T09:53:26Z</time>
      </trkpt>
      <trkpt lat="48.98356" lon="6.04697">
        <ele>189.51696777344</ele>
        <time>2012-05-15T09:53:34Z</time>
      </trkpt>
      <trkpt lat="48.98418" lon="6.04704">
        <ele>191.43957519531</ele>
        <time>2012-05-15T09:53:43Z</time>
      </trkpt>
      <trkpt lat="48.98485" lon="6.04714">
        <ele>190.958984375</ele>
        <time>2012-05-15T09:53:53Z</time>
      </trkpt>
      <trkpt lat="48.98557" lon="6.04724">
        <ele>192.88171386719</ele>
        <time>2012-05-15T09:54:04Z</time>
      </trkpt>
      <trkpt lat="48.98622" lon="6.04732">
        <ele>193.84301757812</ele>
        <time>2012-05-15T09:54:14Z</time>
      </trkpt>
      <trkpt lat="48.98669" lon="6.04739">
        <ele>193.3623046875</ele>
        <time>2012-05-15T09:54:21Z</time>
      </trkpt>
      <trkpt lat="48.98745" lon="6.04749">
        <ele>195.765625</ele>
        <time>2012-05-15T09:54:32Z</time>
      </trkpt>
      <trkpt lat="48.98806" lon="6.04758">
        <ele>195.28491210938</ele>
        <time>2012-05-15T09:54:41Z</time>
      </trkpt>
      <trkpt lat="48.98846" lon="6.04764">
        <ele>199.13012695312</ele>
        <time>2012-05-15T09:54:47Z</time>
      </trkpt>
      <trkpt lat="48.98852" lon="6.04764">
        <ele>198.1689453125</ele>
        <time>2012-05-15T09:54:48Z</time>
      </trkpt>
      <trkpt lat="48.98901" lon="6.04771">
        <ele>194.80432128906</ele>
        <time>2012-05-15T09:54:55Z</time>
      </trkpt>
      <trkpt lat="48.98964" lon="6.0478">
        <ele>193.84301757812</ele>
        <time>2012-05-15T09:55:03Z</time>
      </trkpt>
      <trkpt lat="48.99035" lon="6.0479">
        <ele>191.92028808594</ele>
        <time>2012-05-15T09:55:11Z</time>
      </trkpt>
      <trkpt lat="48.99102" lon="6.048">
        <ele>189.99768066406</ele>
        <time>2012-05-15T09:55:18Z</time>
      </trkpt>
      <trkpt lat="48.99141" lon="6.04806">
        <ele>190.958984375</ele>
        <time>2012-05-15T09:55:22Z</time>
      </trkpt>
      <trkpt lat="48.9916" lon="6.04808">
        <ele>190.47839355469</ele>
        <time>2012-05-15T09:55:24Z</time>
      </trkpt>
      <trkpt lat="48.99208" lon="6.04814">
        <ele>186.63317871094</ele>
        <time>2012-05-15T09:55:29Z</time>
      </trkpt>
      <trkpt lat="48.99217" lon="6.04816">
        <ele>186.63317871094</ele>
        <time>2012-05-15T09:55:30Z</time>
      </trkpt>
      <trkpt lat="48.99303" lon="6.04828">
        <ele>184.22985839844</ele>
        <time>2012-05-15T09:55:39Z</time>
      </trkpt>
      <trkpt lat="48.99378" lon="6.04836">
        <ele>184.71057128906</ele>
        <time>2012-05-15T09:55:47Z</time>
      </trkpt>
      <trkpt lat="48.99437" lon="6.04837">
        <ele>185.67175292969</ele>
        <time>2012-05-15T09:55:54Z</time>
      </trkpt>
      <trkpt lat="48.99491" lon="6.0484">
        <ele>185.67175292969</ele>
        <time>2012-05-15T09:56:01Z</time>
      </trkpt>
      <trkpt lat="48.99562" lon="6.04854">
        <ele>186.15246582031</ele>
        <time>2012-05-15T09:56:11Z</time>
      </trkpt>
      <trkpt lat="48.99597" lon="6.04865">
        <ele>188.55578613281</ele>
        <time>2012-05-15T09:56:16Z</time>
      </trkpt>
      <trkpt lat="48.99668" lon="6.04886">
        <ele>189.51696777344</ele>
        <time>2012-05-15T09:56:26Z</time>
      </trkpt>
      <trkpt lat="48.99723" lon="6.04902">
        <ele>190.47839355469</ele>
        <time>2012-05-15T09:56:34Z</time>
      </trkpt>
      <trkpt lat="48.99788" lon="6.0492">
        <ele>191.43957519531</ele>
        <time>2012-05-15T09:56:43Z</time>
      </trkpt>
      <trkpt lat="48.99852" lon="6.04938">
        <ele>190.958984375</ele>
        <time>2012-05-15T09:56:52Z</time>
      </trkpt>
      <trkpt lat="48.99908" lon="6.04954">
        <ele>192.40112304688</ele>
        <time>2012-05-15T09:57:00Z</time>
      </trkpt>
      <trkpt lat="48.99977" lon="6.04974">
        <ele>193.84301757812</ele>
        <time>2012-05-15T09:57:10Z</time>
      </trkpt>
      <trkpt lat="49.00031" lon="6.04989">
        <ele>195.28491210938</ele>
        <time>2012-05-15T09:57:18Z</time>
      </trkpt>
      <trkpt lat="49.00084" lon="6.05003">
        <ele>193.84301757812</ele>
        <time>2012-05-15T09:57:25Z</time>
      </trkpt>
      <trkpt lat="49.00132" lon="6.05018">
        <ele>192.40112304688</ele>
        <time>2012-05-15T09:57:31Z</time>
      </trkpt>
      <trkpt lat="49.00204" lon="6.05037">
        <ele>192.88171386719</ele>
        <time>2012-05-15T09:57:39Z</time>
      </trkpt>
      <trkpt lat="49.00283" lon="6.05059">
        <ele>190.47839355469</ele>
        <time>2012-05-15T09:57:48Z</time>
      </trkpt>
      <trkpt lat="49.00356" lon="6.0508">
        <ele>188.55578613281</ele>
        <time>2012-05-15T09:57:56Z</time>
      </trkpt>
      <trkpt lat="49.00441" lon="6.05105">
        <ele>189.03637695312</ele>
        <time>2012-05-15T09:58:05Z</time>
      </trkpt>
      <trkpt lat="49.00525" lon="6.0513">
        <ele>186.63317871094</ele>
        <time>2012-05-15T09:58:14Z</time>
      </trkpt>
      <trkpt lat="49.00592" lon="6.05149">
        <ele>186.63317871094</ele>
        <time>2012-05-15T09:58:21Z</time>
      </trkpt>
      <trkpt lat="49.00632" lon="6.0516">
        <ele>185.67175292969</ele>
        <time>2012-05-15T09:58:25Z</time>
      </trkpt>
      <trkpt lat="49.00715" lon="6.05183">
        <ele>185.67175292969</ele>
        <time>2012-05-15T09:58:34Z</time>
      </trkpt>
      <trkpt lat="49.00792" lon="6.05205">
        <ele>186.15246582031</ele>
        <time>2012-05-15T09:58:43Z</time>
      </trkpt>
      <trkpt lat="49.00825" lon="6.05214">
        <ele>188.55578613281</ele>
        <time>2012-05-15T09:58:47Z</time>
      </trkpt>
      <trkpt lat="49.0085" lon="6.05221">
        <ele>186.63317871094</ele>
        <time>2012-05-15T09:58:50Z</time>
      </trkpt>
      <trkpt lat="49.00907" lon="6.05237">
        <ele>187.59436035156</ele>
        <time>2012-05-15T09:58:57Z</time>
      </trkpt>
      <trkpt lat="49.00975" lon="6.05256">
        <ele>185.67175292969</ele>
        <time>2012-05-15T09:59:05Z</time>
      </trkpt>
      <trkpt lat="49.01026" lon="6.05271">
        <ele>184.71057128906</ele>
        <time>2012-05-15T09:59:11Z</time>
      </trkpt>
      <trkpt lat="49.01104" lon="6.05292">
        <ele>184.71057128906</ele>
        <time>2012-05-15T09:59:20Z</time>
      </trkpt>
      <trkpt lat="49.01132" lon="6.053">
        <ele>183.26843261719</ele>
        <time>2012-05-15T09:59:23Z</time>
      </trkpt>
      <trkpt lat="49.01214" lon="6.05323">
        <ele>182.78784179688</ele>
        <time>2012-05-15T09:59:32Z</time>
      </trkpt>
      <trkpt lat="49.01327" lon="6.05354">
        <ele>181.82641601562</ele>
        <time>2012-05-15T09:59:44Z</time>
      </trkpt>
      <trkpt lat="49.01414" lon="6.05378">
        <ele>180.865234375</ele>
        <time>2012-05-15T09:59:53Z</time>
      </trkpt>
      <trkpt lat="49.01489" lon="6.05399">
        <ele>179.90380859375</ele>
        <time>2012-05-15T10:00:01Z</time>
      </trkpt>
      <trkpt lat="49.01567" lon="6.05422">
        <ele>180.865234375</ele>
        <time>2012-05-15T10:00:10Z</time>
      </trkpt>
      <trkpt lat="49.01625" lon="6.05443">
        <ele>181.82641601562</ele>
        <time>2012-05-15T10:00:17Z</time>
      </trkpt>
      <trkpt lat="49.01681" lon="6.05478">
        <ele>180.38452148438</ele>
        <time>2012-05-15T10:00:24Z</time>
      </trkpt>
      <trkpt lat="49.01762" lon="6.05541">
        <ele>179.90380859375</ele>
        <time>2012-05-15T10:00:34Z</time>
      </trkpt>
      <trkpt lat="49.01825" lon="6.05591">
        <ele>179.90380859375</ele>
        <time>2012-05-15T10:00:42Z</time>
      </trkpt>
      <trkpt lat="49.01889" lon="6.05637">
        <ele>180.38452148438</ele>
        <time>2012-05-15T10:00:50Z</time>
      </trkpt>
      <trkpt lat="49.01956" lon="6.05673">
        <ele>180.865234375</ele>
        <time>2012-05-15T10:00:58Z</time>
      </trkpt>
      <trkpt lat="49.02024" lon="6.05696">
        <ele>181.82641601562</ele>
        <time>2012-05-15T10:01:06Z</time>
      </trkpt>
      <trkpt lat="49.021" lon="6.05708">
        <ele>183.7490234375</ele>
        <time>2012-05-15T10:01:15Z</time>
      </trkpt>
      <trkpt lat="49.02151" lon="6.057">
        <ele>184.22985839844</ele>
        <time>2012-05-15T10:01:21Z</time>
      </trkpt>
      <trkpt lat="49.02177" lon="6.05691">
        <ele>181.82641601562</ele>
        <time>2012-05-15T10:01:24Z</time>
      </trkpt>
      <trkpt lat="49.02243" lon="6.05659">
        <ele>183.26843261719</ele>
        <time>2012-05-15T10:01:32Z</time>
      </trkpt>
      <trkpt lat="49.02316" lon="6.05626">
        <ele>181.82641601562</ele>
        <time>2012-05-15T10:01:41Z</time>
      </trkpt>
      <trkpt lat="49.02379" lon="6.05604">
        <ele>181.34582519531</ele>
        <time>2012-05-15T10:01:49Z</time>
      </trkpt>
      <trkpt lat="49.02445" lon="6.05598">
        <ele>181.34582519531</ele>
        <time>2012-05-15T10:01:57Z</time>
      </trkpt>
      <trkpt lat="49.0252" lon="6.05601">
        <ele>182.78784179688</ele>
        <time>2012-05-15T10:02:06Z</time>
      </trkpt>
      <trkpt lat="49.02599" lon="6.05602">
        <ele>181.82641601562</ele>
        <time>2012-05-15T10:02:16Z</time>
      </trkpt>
      <trkpt lat="49.02664" lon="6.056">
        <ele>181.82641601562</ele>
        <time>2012-05-15T10:02:24Z</time>
      </trkpt>
      <trkpt lat="49.02736" lon="6.05598">
        <ele>180.38452148438</ele>
        <time>2012-05-15T10:02:32Z</time>
      </trkpt>
      <trkpt lat="49.02821" lon="6.05585">
        <ele>177.98120117188</ele>
        <time>2012-05-15T10:02:41Z</time>
      </trkpt>
      <trkpt lat="49.02908" lon="6.05573">
        <ele>177.02001953125</ele>
        <time>2012-05-15T10:02:50Z</time>
      </trkpt>
      <trkpt lat="49.02962" lon="6.05567">
        <ele>177.98120117188</ele>
        <time>2012-05-15T10:02:56Z</time>
      </trkpt>
      <trkpt lat="49.03008" lon="6.05569">
        <ele>177.98120117188</ele>
        <time>2012-05-15T10:03:01Z</time>
      </trkpt>
      <trkpt lat="49.03043" lon="6.05586">
        <ele>177.98120117188</ele>
        <time>2012-05-15T10:03:05Z</time>
      </trkpt>
      <trkpt lat="49.03101" lon="6.05631">
        <ele>181.34582519531</ele>
        <time>2012-05-15T10:03:12Z</time>
      </trkpt>
      <trkpt lat="49.03109" lon="6.05638">
        <ele>181.34582519531</ele>
        <time>2012-05-15T10:03:13Z</time>
      </trkpt>
      <trkpt lat="49.03152" lon="6.05671">
        <ele>179.42321777344</ele>
        <time>2012-05-15T10:03:19Z</time>
      </trkpt>
      <trkpt lat="49.03214" lon="6.0572">
        <ele>181.34582519531</ele>
        <time>2012-05-15T10:03:28Z</time>
      </trkpt>
      <trkpt lat="49.03276" lon="6.05771">
        <ele>181.82641601562</ele>
        <time>2012-05-15T10:03:37Z</time>
      </trkpt>
      <trkpt lat="49.03332" lon="6.05826">
        <ele>181.34582519531</ele>
        <time>2012-05-15T10:03:45Z</time>
      </trkpt>
      <trkpt lat="49.03371" lon="6.05864">
        <ele>181.34582519531</ele>
        <time>2012-05-15T10:03:51Z</time>
      </trkpt>
      <trkpt lat="49.0342" lon="6.05912">
        <ele>180.38452148438</ele>
        <time>2012-05-15T10:03:58Z</time>
      </trkpt>
      <trkpt lat="49.03471" lon="6.05964">
        <ele>180.38452148438</ele>
        <time>2012-05-15T10:04:05Z</time>
      </trkpt>
      <trkpt lat="49.03485" lon="6.05978">
        <ele>179.90380859375</ele>
        <time>2012-05-15T10:04:07Z</time>
      </trkpt>
      <trkpt lat="49.03534" lon="6.06038">
        <ele>179.90380859375</ele>
        <time>2012-05-15T10:04:14Z</time>
      </trkpt>
      <trkpt lat="49.03577" lon="6.06081">
        <ele>179.42321777344</ele>
        <time>2012-05-15T10:04:20Z</time>
      </trkpt>
      <trkpt lat="49.03642" lon="6.06136">
        <ele>178.4619140625</ele>
        <time>2012-05-15T10:04:29Z</time>
      </trkpt>
      <trkpt lat="49.03648" lon="6.06142">
        <ele>178.4619140625</ele>
        <time>2012-05-15T10:04:30Z</time>
      </trkpt>
      <trkpt lat="49.03669" lon="6.06178">
        <ele>178.4619140625</ele>
        <time>2012-05-15T10:04:34Z</time>
      </trkpt>
      <trkpt lat="49.03688" lon="6.06246">
        <ele>179.42321777344</ele>
        <time>2012-05-15T10:04:40Z</time>
      </trkpt>
      <trkpt lat="49.03715" lon="6.06351">
        <ele>179.42321777344</ele>
        <time>2012-05-15T10:04:49Z</time>
      </trkpt>
      <trkpt lat="49.03743" lon="6.06491">
        <ele>179.90380859375</ele>
        <time>2012-05-15T10:05:01Z</time>
      </trkpt>
      <trkpt lat="49.03759" lon="6.066">
        <ele>184.22985839844</ele>
        <time>2012-05-15T10:05:10Z</time>
      </trkpt>
      <trkpt lat="49.03764" lon="6.06624">
        <ele>180.38452148438</ele>
        <time>2012-05-15T10:05:12Z</time>
      </trkpt>
      <trkpt lat="49.03766" lon="6.06635">
        <ele>180.865234375</ele>
        <time>2012-05-15T10:05:13Z</time>
      </trkpt>
      <trkpt lat="49.0379" lon="6.06733">
        <ele>181.82641601562</ele>
        <time>2012-05-15T10:05:22Z</time>
      </trkpt>
      <trkpt lat="49.03793" lon="6.06744">
        <ele>182.30712890625</ele>
        <time>2012-05-15T10:05:23Z</time>
      </trkpt>
      <trkpt lat="49.03805" lon="6.06787">
        <ele>182.78784179688</ele>
        <time>2012-05-15T10:05:27Z</time>
      </trkpt>
      <trkpt lat="49.0381" lon="6.06849">
        <ele>184.22985839844</ele>
        <time>2012-05-15T10:05:33Z</time>
      </trkpt>
      <trkpt lat="49.03804" lon="6.06903">
        <ele>186.15246582031</ele>
        <time>2012-05-15T10:05:39Z</time>
      </trkpt>
      <trkpt lat="49.038" lon="6.06928">
        <ele>188.07507324219</ele>
        <time>2012-05-15T10:05:42Z</time>
      </trkpt>
      <trkpt lat="49.03795" lon="6.06952">
        <ele>189.03637695312</ele>
        <time>2012-05-15T10:05:45Z</time>
      </trkpt>
      <trkpt lat="49.03782" lon="6.07009">
        <ele>190.47839355469</ele>
        <time>2012-05-15T10:05:52Z</time>
      </trkpt>
      <trkpt lat="49.03752" lon="6.07093">
        <ele>190.958984375</ele>
        <time>2012-05-15T10:06:02Z</time>
      </trkpt>
      <trkpt lat="49.03735" lon="6.07164">
        <ele>192.88171386719</ele>
        <time>2012-05-15T10:06:10Z</time>
      </trkpt>
      <trkpt lat="49.03719" lon="6.07223">
        <ele>193.3623046875</ele>
        <time>2012-05-15T10:06:17Z</time>
      </trkpt>
      <trkpt lat="49.03708" lon="6.07278">
        <ele>194.80432128906</ele>
        <time>2012-05-15T10:06:23Z</time>
      </trkpt>
      <trkpt lat="49.03696" lon="6.07361">
        <ele>196.24633789062</ele>
        <time>2012-05-15T10:06:32Z</time>
      </trkpt>
      <trkpt lat="49.03687" lon="6.07431">
        <ele>196.24633789062</ele>
        <time>2012-05-15T10:06:39Z</time>
      </trkpt>
      <trkpt lat="49.03671" lon="6.07532">
        <ele>195.28491210938</ele>
        <time>2012-05-15T10:06:48Z</time>
      </trkpt>
      <trkpt lat="49.03649" lon="6.07616">
        <ele>195.765625</ele>
        <time>2012-05-15T10:06:56Z</time>
      </trkpt>
      <trkpt lat="49.03623" lon="6.077">
        <ele>196.24633789062</ele>
        <time>2012-05-15T10:07:04Z</time>
      </trkpt>
      <trkpt lat="49.03596" lon="6.07787">
        <ele>196.24633789062</ele>
        <time>2012-05-15T10:07:12Z</time>
      </trkpt>
      <trkpt lat="49.03562" lon="6.07898">
        <ele>196.72692871094</ele>
        <time>2012-05-15T10:07:22Z</time>
      </trkpt>
      <trkpt lat="49.03524" lon="6.08031">
        <ele>196.72692871094</ele>
        <time>2012-05-15T10:07:34Z</time>
      </trkpt>
      <trkpt lat="49.03503" lon="6.08118">
        <ele>197.20751953125</ele>
        <time>2012-05-15T10:07:42Z</time>
      </trkpt>
      <trkpt lat="49.03486" lon="6.08184">
        <ele>196.24633789062</ele>
        <time>2012-05-15T10:07:48Z</time>
      </trkpt>
      <trkpt lat="49.03461" lon="6.08296">
        <ele>196.72692871094</ele>
        <time>2012-05-15T10:07:58Z</time>
      </trkpt>
      <trkpt lat="49.03437" lon="6.08397">
        <ele>198.1689453125</ele>
        <time>2012-05-15T10:08:07Z</time>
      </trkpt>
      <trkpt lat="49.03409" lon="6.08468">
        <ele>198.1689453125</ele>
        <time>2012-05-15T10:08:14Z</time>
      </trkpt>
      <trkpt lat="49.03374" lon="6.08528">
        <ele>199.61083984375</ele>
        <time>2012-05-15T10:08:21Z</time>
      </trkpt>
      <trkpt lat="49.03334" lon="6.08577">
        <ele>200.09167480469</ele>
        <time>2012-05-15T10:08:28Z</time>
      </trkpt>
      <trkpt lat="49.03311" lon="6.08605">
        <ele>200.572265625</ele>
        <time>2012-05-15T10:08:32Z</time>
      </trkpt>
      <trkpt lat="49.03288" lon="6.08649">
        <ele>201.53356933594</ele>
        <time>2012-05-15T10:08:37Z</time>
      </trkpt>
      <trkpt lat="49.03279" lon="6.08689">
        <ele>202.97546386719</ele>
        <time>2012-05-15T10:08:41Z</time>
      </trkpt>
      <trkpt lat="49.03278" lon="6.08786">
        <ele>202.97546386719</ele>
        <time>2012-05-15T10:08:50Z</time>
      </trkpt>
      <trkpt lat="49.03281" lon="6.08865">
        <ele>203.93688964844</ele>
        <time>2012-05-15T10:08:58Z</time>
      </trkpt>
      <trkpt lat="49.0328" lon="6.0892">
        <ele>206.34008789062</ele>
        <time>2012-05-15T10:09:04Z</time>
      </trkpt>
      <trkpt lat="49.03273" lon="6.09017">
        <ele>208.26281738281</ele>
        <time>2012-05-15T10:09:15Z</time>
      </trkpt>
      <trkpt lat="49.03265" lon="6.09093">
        <ele>211.14672851562</ele>
        <time>2012-05-15T10:09:24Z</time>
      </trkpt>
      <trkpt lat="49.03259" lon="6.09125">
        <ele>212.58862304688</ele>
        <time>2012-05-15T10:09:28Z</time>
      </trkpt>
      <trkpt lat="49.03241" lon="6.09191">
        <ele>215.95324707031</ele>
        <time>2012-05-15T10:09:37Z</time>
      </trkpt>
      <trkpt lat="49.0322" lon="6.09237">
        <ele>215.95324707031</ele>
        <time>2012-05-15T10:09:45Z</time>
      </trkpt>
      <trkpt lat="49.03195" lon="6.09282">
        <ele>216.43395996094</ele>
        <time>2012-05-15T10:09:54Z</time>
      </trkpt>
      <trkpt lat="49.0318" lon="6.0931">
        <ele>218.35656738281</ele>
        <time>2012-05-15T10:10:00Z</time>
      </trkpt>
      <trkpt lat="49.03161" lon="6.09353">
        <ele>219.31799316406</ele>
        <time>2012-05-15T10:10:09Z</time>
      </trkpt>
      <trkpt lat="49.03157" lon="6.09364">
        <ele>220.27917480469</ele>
        <time>2012-05-15T10:10:11Z</time>
      </trkpt>
      <trkpt lat="49.03146" lon="6.09415">
        <ele>222.20178222656</ele>
        <time>2012-05-15T10:10:19Z</time>
      </trkpt>
      <trkpt lat="49.0314" lon="6.09465">
        <ele>224.12451171875</ele>
        <time>2012-05-15T10:10:26Z</time>
      </trkpt>
      <trkpt lat="49.03131" lon="6.09526">
        <ele>226.04711914062</ele>
        <time>2012-05-15T10:10:35Z</time>
      </trkpt>
      <trkpt lat="49.03118" lon="6.09588">
        <ele>228.45043945312</ele>
        <time>2012-05-15T10:10:44Z</time>
      </trkpt>
      <trkpt lat="49.03114" lon="6.0961">
        <ele>229.41174316406</ele>
        <time>2012-05-15T10:10:47Z</time>
      </trkpt>
      <trkpt lat="49.03115" lon="6.09658">
        <ele>229.41174316406</ele>
        <time>2012-05-15T10:10:53Z</time>
      </trkpt>
      <trkpt lat="49.03117" lon="6.09667">
        <ele>229.89233398438</ele>
        <time>2012-05-15T10:10:54Z</time>
      </trkpt>
      <trkpt lat="49.03135" lon="6.09739">
        <ele>229.41174316406</ele>
        <time>2012-05-15T10:11:02Z</time>
      </trkpt>
      <trkpt lat="49.03142" lon="6.09787">
        <ele>228.45043945312</ele>
        <time>2012-05-15T10:11:07Z</time>
      </trkpt>
      <trkpt lat="49.03164" lon="6.09807">
        <ele>228.45043945312</ele>
        <time>2012-05-15T10:11:11Z</time>
      </trkpt>
      <trkpt lat="49.03171" lon="6.09811">
        <ele>228.45043945312</ele>
        <time>2012-05-15T10:11:12Z</time>
      </trkpt>
      <trkpt lat="49.03213" lon="6.09842">
        <ele>226.52783203125</ele>
        <time>2012-05-15T10:11:18Z</time>
      </trkpt>
      <trkpt lat="49.03268" lon="6.09887">
        <ele>227.00854492188</ele>
        <time>2012-05-15T10:11:26Z</time>
      </trkpt>
      <trkpt lat="49.03307" lon="6.09946">
        <ele>227.9697265625</ele>
        <time>2012-05-15T10:11:33Z</time>
      </trkpt>
      <trkpt lat="49.03346" lon="6.09988">
        <ele>227.00854492188</ele>
        <time>2012-05-15T10:11:39Z</time>
      </trkpt>
      <trkpt lat="49.03393" lon="6.10036">
        <ele>226.52783203125</ele>
        <time>2012-05-15T10:11:46Z</time>
      </trkpt>
      <trkpt lat="49.0346" lon="6.10101">
        <ele>226.52783203125</ele>
        <time>2012-05-15T10:11:56Z</time>
      </trkpt>
      <trkpt lat="49.03501" lon="6.10131">
        <ele>226.52783203125</ele>
        <time>2012-05-15T10:12:02Z</time>
      </trkpt>
      <trkpt lat="49.03521" lon="6.10142">
        <ele>228.45043945312</ele>
        <time>2012-05-15T10:12:05Z</time>
      </trkpt>
      <trkpt lat="49.0354" lon="6.10153">
        <ele>230.85375976562</ele>
        <time>2012-05-15T10:12:08Z</time>
      </trkpt>
      <trkpt lat="49.0359" lon="6.10187">
        <ele>233.25708007812</ele>
        <time>2012-05-15T10:12:17Z</time>
      </trkpt>
      <trkpt lat="49.03628" lon="6.1022">
        <ele>234.69909667969</ele>
        <time>2012-05-15T10:12:24Z</time>
      </trkpt>
      <trkpt lat="49.03656" lon="6.10256">
        <ele>235.1796875</ele>
        <time>2012-05-15T10:12:30Z</time>
      </trkpt>
      <trkpt lat="49.03697" lon="6.10315">
        <ele>235.66027832031</ele>
        <time>2012-05-15T10:12:39Z</time>
      </trkpt>
      <trkpt lat="49.03736" lon="6.10378">
        <ele>236.62170410156</ele>
        <time>2012-05-15T10:12:48Z</time>
      </trkpt>
      <trkpt lat="49.03764" lon="6.10426">
        <ele>235.66027832031</ele>
        <time>2012-05-15T10:12:55Z</time>
      </trkpt>
      <trkpt lat="49.03799" lon="6.10489">
        <ele>235.66027832031</ele>
        <time>2012-05-15T10:13:04Z</time>
      </trkpt>
      <trkpt lat="49.03835" lon="6.10546">
        <ele>235.66027832031</ele>
        <time>2012-05-15T10:13:12Z</time>
      </trkpt>
      <trkpt lat="49.03864" lon="6.10575">
        <ele>236.14099121094</ele>
        <time>2012-05-15T10:13:17Z</time>
      </trkpt>
      <trkpt lat="49.0393" lon="6.10631">
        <ele>237.58288574219</ele>
        <time>2012-05-15T10:13:28Z</time>
      </trkpt>
      <trkpt lat="49.03967" lon="6.10667">
        <ele>238.54431152344</ele>
        <time>2012-05-15T10:13:35Z</time>
      </trkpt>
      <trkpt lat="49.04002" lon="6.10708">
        <ele>239.02490234375</ele>
        <time>2012-05-15T10:13:42Z</time>
      </trkpt>
      <trkpt lat="49.04049" lon="6.10765">
        <ele>237.58288574219</ele>
        <time>2012-05-15T10:13:51Z</time>
      </trkpt>
      <trkpt lat="49.04101" lon="6.10826">
        <ele>236.62170410156</ele>
        <time>2012-05-15T10:14:00Z</time>
      </trkpt>
      <trkpt lat="49.04148" lon="6.10883">
        <ele>236.14099121094</ele>
        <time>2012-05-15T10:14:08Z</time>
      </trkpt>
      <trkpt lat="49.04198" lon="6.10941">
        <ele>235.1796875</ele>
        <time>2012-05-15T10:14:16Z</time>
      </trkpt>
      <trkpt lat="49.04247" lon="6.10984">
        <ele>235.1796875</ele>
        <time>2012-05-15T10:14:23Z</time>
      </trkpt>
      <trkpt lat="49.04269" lon="6.10997">
        <ele>233.73767089844</ele>
        <time>2012-05-15T10:14:26Z</time>
      </trkpt>
      <trkpt lat="49.04317" lon="6.11021">
        <ele>233.73767089844</ele>
        <time>2012-05-15T10:14:33Z</time>
      </trkpt>
      <trkpt lat="49.04369" lon="6.11051">
        <ele>230.85375976562</ele>
        <time>2012-05-15T10:14:40Z</time>
      </trkpt>
      <trkpt lat="49.04404" lon="6.1107">
        <ele>227.00854492188</ele>
        <time>2012-05-15T10:14:44Z</time>
      </trkpt>
      <trkpt lat="49.04412" lon="6.11074">
        <ele>226.52783203125</ele>
        <time>2012-05-15T10:14:45Z</time>
      </trkpt>
      <trkpt lat="49.0444" lon="6.11081">
        <ele>223.16320800781</ele>
        <time>2012-05-15T10:14:48Z</time>
      </trkpt>
      <trkpt lat="49.04449" lon="6.11082">
        <ele>223.64379882812</ele>
        <time>2012-05-15T10:14:49Z</time>
      </trkpt>
      <trkpt lat="49.045" lon="6.11075">
        <ele>221.24060058594</ele>
        <time>2012-05-15T10:14:54Z</time>
      </trkpt>
      <trkpt lat="49.04521" lon="6.11071">
        <ele>220.75988769531</ele>
        <time>2012-05-15T10:14:56Z</time>
      </trkpt>
      <trkpt lat="49.04564" lon="6.11063">
        <ele>219.31799316406</ele>
        <time>2012-05-15T10:15:00Z</time>
      </trkpt>
      <trkpt lat="49.04595" lon="6.11057">
        <ele>217.8759765625</ele>
        <time>2012-05-15T10:15:03Z</time>
      </trkpt>
      <trkpt lat="49.04616" lon="6.11055">
        <ele>218.35656738281</ele>
        <time>2012-05-15T10:15:05Z</time>
      </trkpt>
      <trkpt lat="49.04655" lon="6.11067">
        <ele>216.43395996094</ele>
        <time>2012-05-15T10:15:09Z</time>
      </trkpt>
      <trkpt lat="49.04688" lon="6.111">
        <ele>215.95324707031</ele>
        <time>2012-05-15T10:15:13Z</time>
      </trkpt>
      <trkpt lat="49.04711" lon="6.11147">
        <ele>216.43395996094</ele>
        <time>2012-05-15T10:15:17Z</time>
      </trkpt>
      <trkpt lat="49.0472" lon="6.11186">
        <ele>214.99194335938</ele>
        <time>2012-05-15T10:15:20Z</time>
      </trkpt>
      <trkpt lat="49.04723" lon="6.11199">
        <ele>215.47265625</ele>
        <time>2012-05-15T10:15:21Z</time>
      </trkpt>
      <trkpt lat="49.04728" lon="6.11223">
        <ele>214.51123046875</ele>
        <time>2012-05-15T10:15:23Z</time>
      </trkpt>
      <trkpt lat="49.04749" lon="6.11287">
        <ele>214.51123046875</ele>
        <time>2012-05-15T10:15:28Z</time>
      </trkpt>
      <trkpt lat="49.04779" lon="6.11339">
        <ele>214.03063964844</ele>
        <time>2012-05-15T10:15:33Z</time>
      </trkpt>
      <trkpt lat="49.04838" lon="6.11417">
        <ele>213.55004882812</ele>
        <time>2012-05-15T10:15:42Z</time>
      </trkpt>
      <trkpt lat="49.04881" lon="6.11479">
        <ele>213.55004882812</ele>
        <time>2012-05-15T10:15:49Z</time>
      </trkpt>
      <trkpt lat="49.04916" lon="6.11516">
        <ele>214.99194335938</ele>
        <time>2012-05-15T10:15:54Z</time>
      </trkpt>
      <trkpt lat="49.04974" lon="6.11559">
        <ele>214.51123046875</ele>
        <time>2012-05-15T10:16:02Z</time>
      </trkpt>
      <trkpt lat="49.05037" lon="6.11604">
        <ele>214.03063964844</ele>
        <time>2012-05-15T10:16:11Z</time>
      </trkpt>
      <trkpt lat="49.05091" lon="6.11652">
        <ele>212.10803222656</ele>
        <time>2012-05-15T10:16:19Z</time>
      </trkpt>
      <trkpt lat="49.05134" lon="6.11682">
        <ele>212.10803222656</ele>
        <time>2012-05-15T10:16:25Z</time>
      </trkpt>
      <trkpt lat="49.05186" lon="6.11704">
        <ele>211.62744140625</ele>
        <time>2012-05-15T10:16:32Z</time>
      </trkpt>
      <trkpt lat="49.05247" lon="6.11728">
        <ele>209.70483398438</ele>
        <time>2012-05-15T10:16:40Z</time>
      </trkpt>
      <trkpt lat="49.05305" lon="6.11754">
        <ele>207.78210449219</ele>
        <time>2012-05-15T10:16:47Z</time>
      </trkpt>
      <trkpt lat="49.05343" lon="6.11784">
        <ele>208.74340820312</ele>
        <time>2012-05-15T10:16:52Z</time>
      </trkpt>
      <trkpt lat="49.05382" lon="6.11838">
        <ele>207.78210449219</ele>
        <time>2012-05-15T10:16:58Z</time>
      </trkpt>
      <trkpt lat="49.05406" lon="6.11896">
        <ele>205.85949707031</ele>
        <time>2012-05-15T10:17:03Z</time>
      </trkpt>
      <trkpt lat="49.05439" lon="6.12">
        <ele>204.89807128906</ele>
        <time>2012-05-15T10:17:11Z</time>
      </trkpt>
      <trkpt lat="49.05475" lon="6.1212">
        <ele>203.45617675781</ele>
        <time>2012-05-15T10:17:20Z</time>
      </trkpt>
      <trkpt lat="49.05516" lon="6.12251">
        <ele>202.49487304688</ele>
        <time>2012-05-15T10:17:30Z</time>
      </trkpt>
      <trkpt lat="49.05549" lon="6.1234">
        <ele>202.01428222656</ele>
        <time>2012-05-15T10:17:37Z</time>
      </trkpt>
      <trkpt lat="49.05585" lon="6.12409">
        <ele>200.572265625</ele>
        <time>2012-05-15T10:17:43Z</time>
      </trkpt>
      <trkpt lat="49.05643" lon="6.12511">
        <ele>201.53356933594</ele>
        <time>2012-05-15T10:17:52Z</time>
      </trkpt>
      <trkpt lat="49.05682" lon="6.12571">
        <ele>199.61083984375</ele>
        <time>2012-05-15T10:17:58Z</time>
      </trkpt>
      <trkpt lat="49.05747" lon="6.12652">
        <ele>199.61083984375</ele>
        <time>2012-05-15T10:18:07Z</time>
      </trkpt>
      <trkpt lat="49.05804" lon="6.12727">
        <ele>198.64953613281</ele>
        <time>2012-05-15T10:18:15Z</time>
      </trkpt>
      <trkpt lat="49.05848" lon="6.12799">
        <ele>198.1689453125</ele>
        <time>2012-05-15T10:18:22Z</time>
      </trkpt>
      <trkpt lat="49.05883" lon="6.1288">
        <ele>195.28491210938</ele>
        <time>2012-05-15T10:18:29Z</time>
      </trkpt>
      <trkpt lat="49.05908" lon="6.12957">
        <ele>198.1689453125</ele>
        <time>2012-05-15T10:18:35Z</time>
      </trkpt>
      <trkpt lat="49.05941" lon="6.13087">
        <ele>195.28491210938</ele>
        <time>2012-05-15T10:18:45Z</time>
      </trkpt>
      <trkpt lat="49.05971" lon="6.132">
        <ele>194.80432128906</ele>
        <time>2012-05-15T10:18:54Z</time>
      </trkpt>
      <trkpt lat="49.05981" lon="6.13238">
        <ele>193.3623046875</ele>
        <time>2012-05-15T10:18:57Z</time>
      </trkpt>
      <trkpt lat="49.06017" lon="6.13374">
        <ele>192.88171386719</ele>
        <time>2012-05-15T10:19:08Z</time>
      </trkpt>
      <trkpt lat="49.06046" lon="6.13452">
        <ele>191.92028808594</ele>
        <time>2012-05-15T10:19:15Z</time>
      </trkpt>
      <trkpt lat="49.06083" lon="6.13505">
        <ele>190.47839355469</ele>
        <time>2012-05-15T10:19:21Z</time>
      </trkpt>
      <trkpt lat="49.06115" lon="6.13553">
        <ele>189.99768066406</ele>
        <time>2012-05-15T10:19:26Z</time>
      </trkpt>
      <trkpt lat="49.06126" lon="6.13599">
        <ele>189.99768066406</ele>
        <time>2012-05-15T10:19:30Z</time>
      </trkpt>
      <trkpt lat="49.06136" lon="6.13613">
        <ele>188.55578613281</ele>
        <time>2012-05-15T10:19:32Z</time>
      </trkpt>
      <trkpt lat="49.06148" lon="6.13609">
        <ele>189.51696777344</ele>
        <time>2012-05-15T10:19:34Z</time>
      </trkpt>
      <trkpt lat="49.0619" lon="6.13596">
        <ele>189.03637695312</ele>
        <time>2012-05-15T10:19:40Z</time>
      </trkpt>
      <trkpt lat="49.06237" lon="6.1359">
        <ele>188.55578613281</ele>
        <time>2012-05-15T10:19:46Z</time>
      </trkpt>
      <trkpt lat="49.06293" lon="6.1358">
        <ele>188.55578613281</ele>
        <time>2012-05-15T10:19:53Z</time>
      </trkpt>
      <trkpt lat="49.06349" lon="6.13571">
        <ele>188.55578613281</ele>
        <time>2012-05-15T10:20:00Z</time>
      </trkpt>
      <trkpt lat="49.06409" lon="6.13563">
        <ele>188.55578613281</ele>
        <time>2012-05-15T10:20:08Z</time>
      </trkpt>
      <trkpt lat="49.06446" lon="6.13558">
        <ele>189.03637695312</ele>
        <time>2012-05-15T10:20:14Z</time>
      </trkpt>
      <trkpt lat="49.06484" lon="6.13553">
        <ele>191.43957519531</ele>
        <time>2012-05-15T10:20:21Z</time>
      </trkpt>
      <trkpt lat="49.0653" lon="6.13551">
        <ele>193.3623046875</ele>
        <time>2012-05-15T10:20:30Z</time>
      </trkpt>
      <trkpt lat="49.06567" lon="6.13559">
        <ele>192.40112304688</ele>
        <time>2012-05-15T10:20:37Z</time>
      </trkpt>
      <trkpt lat="49.06606" lon="6.13566">
        <ele>194.80432128906</ele>
        <time>2012-05-15T10:20:44Z</time>
      </trkpt>
      <trkpt lat="49.06655" lon="6.1358">
        <ele>194.32373046875</ele>
        <time>2012-05-15T10:20:52Z</time>
      </trkpt>
      <trkpt lat="49.06709" lon="6.13596">
        <ele>193.84301757812</ele>
        <time>2012-05-15T10:21:00Z</time>
      </trkpt>
      <trkpt lat="49.06779" lon="6.13617">
        <ele>193.3623046875</ele>
        <time>2012-05-15T10:21:10Z</time>
      </trkpt>
      <trkpt lat="49.06851" lon="6.13641">
        <ele>192.40112304688</ele>
        <time>2012-05-15T10:21:20Z</time>
      </trkpt>
      <trkpt lat="49.06928" lon="6.13681">
        <ele>190.958984375</ele>
        <time>2012-05-15T10:21:31Z</time>
      </trkpt>
      <trkpt lat="49.06934" lon="6.13685">
        <ele>190.47839355469</ele>
        <time>2012-05-15T10:21:32Z</time>
      </trkpt>
      <trkpt lat="49.06987" lon="6.13729">
        <ele>190.958984375</ele>
        <time>2012-05-15T10:21:40Z</time>
      </trkpt>
      <trkpt lat="49.07039" lon="6.13776">
        <ele>191.43957519531</ele>
        <time>2012-05-15T10:21:48Z</time>
      </trkpt>
      <trkpt lat="49.07095" lon="6.13828">
        <ele>191.43957519531</ele>
        <time>2012-05-15T10:21:57Z</time>
      </trkpt>
      <trkpt lat="49.07129" lon="6.13861">
        <ele>192.40112304688</ele>
        <time>2012-05-15T10:22:03Z</time>
      </trkpt>
      <trkpt lat="49.0718" lon="6.13915">
        <ele>192.88171386719</ele>
        <time>2012-05-15T10:22:12Z</time>
      </trkpt>
      <trkpt lat="49.07245" lon="6.13968">
        <ele>192.88171386719</ele>
        <time>2012-05-15T10:22:22Z</time>
      </trkpt>
      <trkpt lat="49.07305" lon="6.14013">
        <ele>192.40112304688</ele>
        <time>2012-05-15T10:22:31Z</time>
      </trkpt>
      <trkpt lat="49.0736" lon="6.14052">
        <ele>191.43957519531</ele>
        <time>2012-05-15T10:22:39Z</time>
      </trkpt>
      <trkpt lat="49.07439" lon="6.14112">
        <ele>191.43957519531</ele>
        <time>2012-05-15T10:22:50Z</time>
      </trkpt>
      <trkpt lat="49.07518" lon="6.14172">
        <ele>191.43957519531</ele>
        <time>2012-05-15T10:23:01Z</time>
      </trkpt>
      <trkpt lat="49.07561" lon="6.14205">
        <ele>193.3623046875</ele>
        <time>2012-05-15T10:23:07Z</time>
      </trkpt>
      <trkpt lat="49.07635" lon="6.14261">
        <ele>191.92028808594</ele>
        <time>2012-05-15T10:23:18Z</time>
      </trkpt>
      <trkpt lat="49.07707" lon="6.14317">
        <ele>190.47839355469</ele>
        <time>2012-05-15T10:23:29Z</time>
      </trkpt>
      <trkpt lat="49.07774" lon="6.14371">
        <ele>192.40112304688</ele>
        <time>2012-05-15T10:23:39Z</time>
      </trkpt>
      <trkpt lat="49.07843" lon="6.14433">
        <ele>191.92028808594</ele>
        <time>2012-05-15T10:23:50Z</time>
      </trkpt>
      <trkpt lat="49.07891" lon="6.14478">
        <ele>192.40112304688</ele>
        <time>2012-05-15T10:23:58Z</time>
      </trkpt>
      <trkpt lat="49.07947" lon="6.14528">
        <ele>193.3623046875</ele>
        <time>2012-05-15T10:24:07Z</time>
      </trkpt>
      <trkpt lat="49.08002" lon="6.14578">
        <ele>191.43957519531</ele>
        <time>2012-05-15T10:24:16Z</time>
      </trkpt>
      <trkpt lat="49.08062" lon="6.14632">
        <ele>191.43957519531</ele>
        <time>2012-05-15T10:24:26Z</time>
      </trkpt>
      <trkpt lat="49.08122" lon="6.14686">
        <ele>192.88171386719</ele>
        <time>2012-05-15T10:24:36Z</time>
      </trkpt>
      <trkpt lat="49.08185" lon="6.1474">
        <ele>192.40112304688</ele>
        <time>2012-05-15T10:24:46Z</time>
      </trkpt>
      <trkpt lat="49.08191" lon="6.14746">
        <ele>192.88171386719</ele>
        <time>2012-05-15T10:24:47Z</time>
      </trkpt>
      <trkpt lat="49.08208" lon="6.14779">
        <ele>192.88171386719</ele>
        <time>2012-05-15T10:24:51Z</time>
      </trkpt>
      <trkpt lat="49.08231" lon="6.14797">
        <ele>192.40112304688</ele>
        <time>2012-05-15T10:24:55Z</time>
      </trkpt>
      <trkpt lat="49.08263" lon="6.14813">
        <ele>191.43957519531</ele>
        <time>2012-05-15T10:25:00Z</time>
      </trkpt>
      <trkpt lat="49.08308" lon="6.14854">
        <ele>191.43957519531</ele>
        <time>2012-05-15T10:25:07Z</time>
      </trkpt>
      <trkpt lat="49.08368" lon="6.14901">
        <ele>192.40112304688</ele>
        <time>2012-05-15T10:25:17Z</time>
      </trkpt>
      <trkpt lat="49.08415" lon="6.14937">
        <ele>191.92028808594</ele>
        <time>2012-05-15T10:25:25Z</time>
      </trkpt>
      <trkpt lat="49.08443" lon="6.14959">
        <ele>191.43957519531</ele>
        <time>2012-05-15T10:25:31Z</time>
      </trkpt>
      <trkpt lat="49.08456" lon="6.14971">
        <ele>190.958984375</ele>
        <time>2012-05-15T10:25:36Z</time>
      </trkpt>
      <trkpt lat="49.08467" lon="6.14981">
        <ele>192.40112304688</ele>
        <time>2012-05-15T10:25:45Z</time>
      </trkpt>
      <trkpt lat="49.08477" lon="6.14988">
        <ele>191.43957519531</ele>
        <time>2012-05-15T10:25:49Z</time>
      </trkpt>
      <trkpt lat="49.085" lon="6.15004">
        <ele>191.92028808594</ele>
        <time>2012-05-15T10:25:54Z</time>
      </trkpt>
      <trkpt lat="49.08534" lon="6.15031">
        <ele>191.92028808594</ele>
        <time>2012-05-15T10:26:00Z</time>
      </trkpt>
      <trkpt lat="49.08583" lon="6.15068">
        <ele>192.40112304688</ele>
        <time>2012-05-15T10:26:08Z</time>
      </trkpt>
      <trkpt lat="49.08632" lon="6.15103">
        <ele>193.84301757812</ele>
        <time>2012-05-15T10:26:16Z</time>
      </trkpt>
      <trkpt lat="49.0867" lon="6.15133">
        <ele>191.92028808594</ele>
        <time>2012-05-15T10:26:23Z</time>
      </trkpt>
      <trkpt lat="49.0871" lon="6.15166">
        <ele>192.40112304688</ele>
        <time>2012-05-15T10:26:31Z</time>
      </trkpt>
      <trkpt lat="49.08746" lon="6.15195">
        <ele>192.40112304688</ele>
        <time>2012-05-15T10:26:39Z</time>
      </trkpt>
      <trkpt lat="49.08779" lon="6.15219">
        <ele>192.88171386719</ele>
        <time>2012-05-15T10:26:46Z</time>
      </trkpt>
      <trkpt lat="49.08791" lon="6.15227">
        <ele>194.32373046875</ele>
        <time>2012-05-15T10:26:48Z</time>
      </trkpt>
      <trkpt lat="49.08831" lon="6.15259">
        <ele>193.84301757812</ele>
        <time>2012-05-15T10:26:55Z</time>
      </trkpt>
      <trkpt lat="49.08877" lon="6.15297">
        <ele>192.88171386719</ele>
        <time>2012-05-15T10:27:03Z</time>
      </trkpt>
      <trkpt lat="49.08919" lon="6.15332">
        <ele>192.88171386719</ele>
        <time>2012-05-15T10:27:10Z</time>
      </trkpt>
      <trkpt lat="49.08962" lon="6.15374">
        <ele>192.88171386719</ele>
        <time>2012-05-15T10:27:18Z</time>
      </trkpt>
      <trkpt lat="49.09002" lon="6.15407">
        <ele>192.88171386719</ele>
        <time>2012-05-15T10:27:26Z</time>
      </trkpt>
      <trkpt lat="49.09007" lon="6.1541">
        <ele>192.88171386719</ele>
        <time>2012-05-15T10:27:27Z</time>
      </trkpt>
      <trkpt lat="49.09037" lon="6.15435">
        <ele>192.88171386719</ele>
        <time>2012-05-15T10:27:36Z</time>
      </trkpt>
      <trkpt lat="49.09039" lon="6.15437">
        <ele>192.88171386719</ele>
        <time>2012-05-15T10:27:39Z</time>
      </trkpt>
      <trkpt lat="49.09037" lon="6.15438">
        <ele>192.40112304688</ele>
        <time>2012-05-15T10:28:01Z</time>
      </trkpt>
      <trkpt lat="49.09039" lon="6.15439">
        <ele>191.92028808594</ele>
        <time>2012-05-15T10:28:02Z</time>
      </trkpt>
      <trkpt lat="49.09052" lon="6.15451">
        <ele>192.40112304688</ele>
        <time>2012-05-15T10:28:06Z</time>
      </trkpt>
      <trkpt lat="49.09077" lon="6.15473">
        <ele>192.40112304688</ele>
        <time>2012-05-15T10:28:11Z</time>
      </trkpt>
      <trkpt lat="49.09126" lon="6.15515">
        <ele>192.40112304688</ele>
        <time>2012-05-15T10:28:19Z</time>
      </trkpt>
      <trkpt lat="49.09158" lon="6.1554">
        <ele>193.84301757812</ele>
        <time>2012-05-15T10:28:24Z</time>
      </trkpt>
      <trkpt lat="49.092" lon="6.15574">
        <ele>193.84301757812</ele>
        <time>2012-05-15T10:28:31Z</time>
      </trkpt>
      <trkpt lat="49.09218" lon="6.15589">
        <ele>193.3623046875</ele>
        <time>2012-05-15T10:28:34Z</time>
      </trkpt>
      <trkpt lat="49.09256" lon="6.15617">
        <ele>194.32373046875</ele>
        <time>2012-05-15T10:28:40Z</time>
      </trkpt>
      <trkpt lat="49.09306" lon="6.15663">
        <ele>193.3623046875</ele>
        <time>2012-05-15T10:28:49Z</time>
      </trkpt>
      <trkpt lat="49.09368" lon="6.15713">
        <ele>194.32373046875</ele>
        <time>2012-05-15T10:28:59Z</time>
      </trkpt>
      <trkpt lat="49.09414" lon="6.15753">
        <ele>192.88171386719</ele>
        <time>2012-05-15T10:29:07Z</time>
      </trkpt>
      <trkpt lat="49.09438" lon="6.15773">
        <ele>192.40112304688</ele>
        <time>2012-05-15T10:29:12Z</time>
      </trkpt>
      <trkpt lat="49.09455" lon="6.15787">
        <ele>192.40112304688</ele>
        <time>2012-05-15T10:29:17Z</time>
      </trkpt>
      <trkpt lat="49.0946" lon="6.15791">
        <ele>192.88171386719</ele>
        <time>2012-05-15T10:29:21Z</time>
      </trkpt>
      <trkpt lat="49.09471" lon="6.158">
        <ele>193.3623046875</ele>
        <time>2012-05-15T10:29:26Z</time>
      </trkpt>
      <trkpt lat="49.09491" lon="6.15817">
        <ele>192.88171386719</ele>
        <time>2012-05-15T10:29:31Z</time>
      </trkpt>
      <trkpt lat="49.09524" lon="6.15843">
        <ele>193.3623046875</ele>
        <time>2012-05-15T10:29:37Z</time>
      </trkpt>
      <trkpt lat="49.09542" lon="6.15857">
        <ele>192.88171386719</ele>
        <time>2012-05-15T10:29:40Z</time>
      </trkpt>
      <trkpt lat="49.09557" lon="6.15864">
        <ele>193.3623046875</ele>
        <time>2012-05-15T10:29:42Z</time>
      </trkpt>
      <trkpt lat="49.09595" lon="6.15892">
        <ele>192.88171386719</ele>
        <time>2012-05-15T10:29:48Z</time>
      </trkpt>
      <trkpt lat="49.09607" lon="6.159">
        <ele>193.3623046875</ele>
        <time>2012-05-15T10:29:50Z</time>
      </trkpt>
      <trkpt lat="49.09616" lon="6.15909">
        <ele>200.09167480469</ele>
        <time>2012-05-15T10:29:52Z</time>
      </trkpt>
      <trkpt lat="49.0962" lon="6.15913">
        <ele>197.20751953125</ele>
        <time>2012-05-15T10:29:53Z</time>
      </trkpt>
      <trkpt lat="49.09631" lon="6.15923">
        <ele>193.84301757812</ele>
        <time>2012-05-15T10:29:55Z</time>
      </trkpt>
      <trkpt lat="49.0966" lon="6.15951">
        <ele>194.32373046875</ele>
        <time>2012-05-15T10:30:01Z</time>
      </trkpt>
      <trkpt lat="49.09702" lon="6.15987">
        <ele>193.3623046875</ele>
        <time>2012-05-15T10:30:09Z</time>
      </trkpt>
      <trkpt lat="49.09739" lon="6.16017">
        <ele>194.32373046875</ele>
        <time>2012-05-15T10:30:16Z</time>
      </trkpt>
      <trkpt lat="49.09784" lon="6.16053">
        <ele>194.32373046875</ele>
        <time>2012-05-15T10:30:24Z</time>
      </trkpt>
      <trkpt lat="49.09793" lon="6.1606">
        <ele>193.84301757812</ele>
        <time>2012-05-15T10:30:26Z</time>
      </trkpt>
      <trkpt lat="49.09814" lon="6.16074">
        <ele>194.32373046875</ele>
        <time>2012-05-15T10:30:32Z</time>
      </trkpt>
      <trkpt lat="49.09822" lon="6.16081">
        <ele>193.84301757812</ele>
        <time>2012-05-15T10:30:38Z</time>
      </trkpt>
      <trkpt lat="49.09821" lon="6.16082">
        <ele>192.88171386719</ele>
        <time>2012-05-15T10:31:03Z</time>
      </trkpt>
      <trkpt lat="49.09822" lon="6.16084">
        <ele>193.3623046875</ele>
        <time>2012-05-15T10:31:04Z</time>
      </trkpt>
      <trkpt lat="49.09831" lon="6.16089">
        <ele>192.88171386719</ele>
        <time>2012-05-15T10:31:07Z</time>
      </trkpt>
      <trkpt lat="49.09843" lon="6.16074">
        <ele>192.88171386719</ele>
        <time>2012-05-15T10:31:11Z</time>
      </trkpt>
      <trkpt lat="49.09859" lon="6.16017">
        <ele>193.3623046875</ele>
        <time>2012-05-15T10:31:19Z</time>
      </trkpt>
      <trkpt lat="49.09874" lon="6.15955">
        <ele>194.32373046875</ele>
        <time>2012-05-15T10:31:27Z</time>
      </trkpt>
      <trkpt lat="49.0988" lon="6.15932">
        <ele>192.88171386719</ele>
        <time>2012-05-15T10:31:30Z</time>
      </trkpt>
      <trkpt lat="49.09891" lon="6.15892">
        <ele>193.84301757812</ele>
        <time>2012-05-15T10:31:35Z</time>
      </trkpt>
      <trkpt lat="49.0991" lon="6.15824">
        <ele>192.88171386719</ele>
        <time>2012-05-15T10:31:44Z</time>
      </trkpt>
      <trkpt lat="49.09917" lon="6.15795">
        <ele>193.3623046875</ele>
        <time>2012-05-15T10:31:49Z</time>
      </trkpt>
      <trkpt lat="49.09924" lon="6.15792">
        <ele>192.88171386719</ele>
        <time>2012-05-15T10:31:53Z</time>
      </trkpt>
      <trkpt lat="49.09938" lon="6.15799">
        <ele>193.84301757812</ele>
        <time>2012-05-15T10:32:00Z</time>
      </trkpt>
      <trkpt lat="49.0994" lon="6.15798">
        <ele>193.84301757812</ele>
        <time>2012-05-15T10:32:03Z</time>
      </trkpt>
    </trkseg>
  </trk>
</gpx>